<?xml version="1.0" encoding="UTF-8" standalone="no" ?>
<gpx xmlns="http://www.topografix.com/GPX/1/1" xmlns:xsi="http://www.w3.org/2001/XMLSchema-instance" xsi:schemaLocation="http://www.topografix.com/GPX/1/1 http://www.topografix.com/GPX/1/1/gpx.xsd" version="1.1" creator="VisuGPX - https://www.visugpx.com">
  <metadata>
    <name>Haute Pointe: tour par les 3 cols</name>
    <desc><![CDATA[AlpineQuest Track 2/2/26 09:29:06]]></desc>
  </metadata>
  <trk>
    <name><![CDATA[Tour des trois cols]]></name>
    <trkseg>
      <trkpt lat="46.16439" lon="6.55251">
        <ele>1453.698</ele>
        <time>2026-02-02T08:29:06Z</time>
      </trkpt>
      <trkpt lat="46.16436" lon="6.5525">
        <ele>1442.506</ele>
        <time>2026-02-02T08:29:08Z</time>
      </trkpt>
      <trkpt lat="46.16436" lon="6.5525">
        <ele>1433.542</ele>
        <time>2026-02-02T08:29:13Z</time>
      </trkpt>
      <trkpt lat="46.16436" lon="6.5525">
        <ele>1432.884</ele>
        <time>2026-02-02T08:29:18Z</time>
      </trkpt>
      <trkpt lat="46.16436" lon="6.5525">
        <ele>1440.045</ele>
        <time>2026-02-02T08:29:23Z</time>
      </trkpt>
      <trkpt lat="46.16436" lon="6.5525">
        <ele>1439.07</ele>
        <time>2026-02-02T08:29:28Z</time>
      </trkpt>
      <trkpt lat="46.16436" lon="6.5525">
        <ele>1437.582</ele>
        <time>2026-02-02T08:29:33Z</time>
      </trkpt>
      <trkpt lat="46.16436" lon="6.5525">
        <ele>1437.186</ele>
        <time>2026-02-02T08:29:38Z</time>
      </trkpt>
      <trkpt lat="46.16436" lon="6.5525">
        <ele>1435.404</ele>
        <time>2026-02-02T08:29:43Z</time>
      </trkpt>
      <trkpt lat="46.16436" lon="6.5525">
        <ele>1435.051</ele>
        <time>2026-02-02T08:29:48Z</time>
      </trkpt>
      <trkpt lat="46.16436" lon="6.5525">
        <ele>1435.045</ele>
        <time>2026-02-02T08:29:53Z</time>
      </trkpt>
      <trkpt lat="46.16436" lon="6.5525">
        <ele>1435.05</ele>
        <time>2026-02-02T08:29:58Z</time>
      </trkpt>
      <trkpt lat="46.16436" lon="6.5525">
        <ele>1435.047</ele>
        <time>2026-02-02T08:30:03Z</time>
      </trkpt>
      <trkpt lat="46.16436" lon="6.5525">
        <ele>1435.215</ele>
        <time>2026-02-02T08:30:08Z</time>
      </trkpt>
      <trkpt lat="46.16436" lon="6.5525">
        <ele>1435.34</ele>
        <time>2026-02-02T08:30:13Z</time>
      </trkpt>
      <trkpt lat="46.16436" lon="6.5525">
        <ele>1435.462</ele>
        <time>2026-02-02T08:30:18Z</time>
      </trkpt>
      <trkpt lat="46.16436" lon="6.5525">
        <ele>1435.53</ele>
        <time>2026-02-02T08:30:23Z</time>
      </trkpt>
      <trkpt lat="46.16436" lon="6.5525">
        <ele>1435.598</ele>
        <time>2026-02-02T08:30:28Z</time>
      </trkpt>
      <trkpt lat="46.16436" lon="6.5525">
        <ele>1435.641</ele>
        <time>2026-02-02T08:30:33Z</time>
      </trkpt>
      <trkpt lat="46.16436" lon="6.5525">
        <ele>1435.807</ele>
        <time>2026-02-02T08:30:38Z</time>
      </trkpt>
      <trkpt lat="46.16436" lon="6.5525">
        <ele>1435.809</ele>
        <time>2026-02-02T08:30:43Z</time>
      </trkpt>
      <trkpt lat="46.16436" lon="6.5525">
        <ele>1435.801</ele>
        <time>2026-02-02T08:30:48Z</time>
      </trkpt>
      <trkpt lat="46.16436" lon="6.5525">
        <ele>1435.839</ele>
        <time>2026-02-02T08:30:53Z</time>
      </trkpt>
      <trkpt lat="46.16436" lon="6.5525">
        <ele>1435.884</ele>
        <time>2026-02-02T08:30:58Z</time>
      </trkpt>
      <trkpt lat="46.16436" lon="6.5525">
        <ele>1435.931</ele>
        <time>2026-02-02T08:31:03Z</time>
      </trkpt>
      <trkpt lat="46.16436" lon="6.5525">
        <ele>1435.963</ele>
        <time>2026-02-02T08:31:08Z</time>
      </trkpt>
      <trkpt lat="46.16436" lon="6.5525">
        <ele>1435.975</ele>
        <time>2026-02-02T08:31:13Z</time>
      </trkpt>
      <trkpt lat="46.16436" lon="6.5525">
        <ele>1435.995</ele>
        <time>2026-02-02T08:31:18Z</time>
      </trkpt>
      <trkpt lat="46.16436" lon="6.5525">
        <ele>1436.039</ele>
        <time>2026-02-02T08:31:23Z</time>
      </trkpt>
      <trkpt lat="46.16436" lon="6.5525">
        <ele>1436.676</ele>
        <time>2026-02-02T08:31:28Z</time>
      </trkpt>
      <trkpt lat="46.16436" lon="6.5525">
        <ele>1435.49</ele>
        <time>2026-02-02T08:31:33Z</time>
      </trkpt>
      <trkpt lat="46.16436" lon="6.5525">
        <ele>1437.267</ele>
        <time>2026-02-02T08:31:38Z</time>
      </trkpt>
      <trkpt lat="46.16436" lon="6.5525">
        <ele>1437.19</ele>
        <time>2026-02-02T08:31:43Z</time>
      </trkpt>
      <trkpt lat="46.16436" lon="6.5525">
        <ele>1437.191</ele>
        <time>2026-02-02T08:31:48Z</time>
      </trkpt>
      <trkpt lat="46.16436" lon="6.5525">
        <ele>1437.212</ele>
        <time>2026-02-02T08:31:53Z</time>
      </trkpt>
      <trkpt lat="46.16436" lon="6.5525">
        <ele>1437.083</ele>
        <time>2026-02-02T08:31:58Z</time>
      </trkpt>
      <trkpt lat="46.16436" lon="6.5525">
        <ele>1437.463</ele>
        <time>2026-02-02T08:32:03Z</time>
      </trkpt>
      <trkpt lat="46.16436" lon="6.5525">
        <ele>1438.023</ele>
        <time>2026-02-02T08:32:08Z</time>
      </trkpt>
      <trkpt lat="46.16436" lon="6.5525">
        <ele>1437.824</ele>
        <time>2026-02-02T08:32:13Z</time>
      </trkpt>
      <trkpt lat="46.16436" lon="6.5525">
        <ele>1437.649</ele>
        <time>2026-02-02T08:32:18Z</time>
      </trkpt>
      <trkpt lat="46.16436" lon="6.5525">
        <ele>1437.66</ele>
        <time>2026-02-02T08:32:23Z</time>
      </trkpt>
      <trkpt lat="46.16436" lon="6.5525">
        <ele>1437.649</ele>
        <time>2026-02-02T08:32:28Z</time>
      </trkpt>
      <trkpt lat="46.16436" lon="6.5525">
        <ele>1437.618</ele>
        <time>2026-02-02T08:32:33Z</time>
      </trkpt>
      <trkpt lat="46.16436" lon="6.5525">
        <ele>1437.519</ele>
        <time>2026-02-02T08:32:38Z</time>
      </trkpt>
      <trkpt lat="46.16436" lon="6.5525">
        <ele>1437.427</ele>
        <time>2026-02-02T08:32:43Z</time>
      </trkpt>
      <trkpt lat="46.16436" lon="6.5525">
        <ele>1436.661</ele>
        <time>2026-02-02T08:32:48Z</time>
      </trkpt>
      <trkpt lat="46.16436" lon="6.5525">
        <ele>1436.423</ele>
        <time>2026-02-02T08:32:53Z</time>
      </trkpt>
      <trkpt lat="46.16436" lon="6.5525">
        <ele>1436.481</ele>
        <time>2026-02-02T08:32:58Z</time>
      </trkpt>
      <trkpt lat="46.16436" lon="6.5525">
        <ele>1436.484</ele>
        <time>2026-02-02T08:33:03Z</time>
      </trkpt>
      <trkpt lat="46.16436" lon="6.5525">
        <ele>1436.517</ele>
        <time>2026-02-02T08:33:08Z</time>
      </trkpt>
      <trkpt lat="46.16436" lon="6.5525">
        <ele>1436.651</ele>
        <time>2026-02-02T08:33:13Z</time>
      </trkpt>
      <trkpt lat="46.16436" lon="6.5525">
        <ele>1436.745</ele>
        <time>2026-02-02T08:33:18Z</time>
      </trkpt>
      <trkpt lat="46.16436" lon="6.5525">
        <ele>1436.812</ele>
        <time>2026-02-02T08:33:23Z</time>
      </trkpt>
      <trkpt lat="46.16436" lon="6.5525">
        <ele>1436.815</ele>
        <time>2026-02-02T08:33:28Z</time>
      </trkpt>
      <trkpt lat="46.16436" lon="6.5525">
        <ele>1436.834</ele>
        <time>2026-02-02T08:33:33Z</time>
      </trkpt>
      <trkpt lat="46.16436" lon="6.5525">
        <ele>1436.843</ele>
        <time>2026-02-02T08:33:38Z</time>
      </trkpt>
      <trkpt lat="46.16436" lon="6.5525">
        <ele>1436.917</ele>
        <time>2026-02-02T08:33:43Z</time>
      </trkpt>
      <trkpt lat="46.16436" lon="6.5525">
        <ele>1436.97</ele>
        <time>2026-02-02T08:33:48Z</time>
      </trkpt>
      <trkpt lat="46.16436" lon="6.5525">
        <ele>1436.986</ele>
        <time>2026-02-02T08:33:53Z</time>
      </trkpt>
      <trkpt lat="46.16436" lon="6.5525">
        <ele>1437.018</ele>
        <time>2026-02-02T08:33:58Z</time>
      </trkpt>
      <trkpt lat="46.16436" lon="6.5525">
        <ele>1437.034</ele>
        <time>2026-02-02T08:34:03Z</time>
      </trkpt>
      <trkpt lat="46.16436" lon="6.5525">
        <ele>1437.046</ele>
        <time>2026-02-02T08:34:08Z</time>
      </trkpt>
      <trkpt lat="46.16436" lon="6.5525">
        <ele>1436.948</ele>
        <time>2026-02-02T08:34:13Z</time>
      </trkpt>
      <trkpt lat="46.16436" lon="6.5525">
        <ele>1436.917</ele>
        <time>2026-02-02T08:34:18Z</time>
      </trkpt>
      <trkpt lat="46.16436" lon="6.5525">
        <ele>1436.864</ele>
        <time>2026-02-02T08:34:23Z</time>
      </trkpt>
      <trkpt lat="46.16436" lon="6.5525">
        <ele>1436.831</ele>
        <time>2026-02-02T08:34:28Z</time>
      </trkpt>
      <trkpt lat="46.16436" lon="6.5525">
        <ele>1436.82</ele>
        <time>2026-02-02T08:34:33Z</time>
      </trkpt>
      <trkpt lat="46.16436" lon="6.5525">
        <ele>1436.813</ele>
        <time>2026-02-02T08:34:38Z</time>
      </trkpt>
      <trkpt lat="46.16436" lon="6.5525">
        <ele>1436.811</ele>
        <time>2026-02-02T08:34:43Z</time>
      </trkpt>
      <trkpt lat="46.16436" lon="6.5525">
        <ele>1436.807</ele>
        <time>2026-02-02T08:34:48Z</time>
      </trkpt>
      <trkpt lat="46.16436" lon="6.5525">
        <ele>1436.812</ele>
        <time>2026-02-02T08:34:53Z</time>
      </trkpt>
      <trkpt lat="46.16436" lon="6.5525">
        <ele>1436.811</ele>
        <time>2026-02-02T08:34:58Z</time>
      </trkpt>
      <trkpt lat="46.16436" lon="6.5525">
        <ele>1436.802</ele>
        <time>2026-02-02T08:35:03Z</time>
      </trkpt>
      <trkpt lat="46.16436" lon="6.5525">
        <ele>1436.8</ele>
        <time>2026-02-02T08:35:08Z</time>
      </trkpt>
      <trkpt lat="46.16436" lon="6.5525">
        <ele>1436.795</ele>
        <time>2026-02-02T08:35:13Z</time>
      </trkpt>
      <trkpt lat="46.16436" lon="6.5525">
        <ele>1436.791</ele>
        <time>2026-02-02T08:35:18Z</time>
      </trkpt>
      <trkpt lat="46.16436" lon="6.5525">
        <ele>1436.792</ele>
        <time>2026-02-02T08:35:24Z</time>
      </trkpt>
      <trkpt lat="46.16436" lon="6.5525">
        <ele>1436.791</ele>
        <time>2026-02-02T08:35:29Z</time>
      </trkpt>
      <trkpt lat="46.16436" lon="6.5525">
        <ele>1436.782</ele>
        <time>2026-02-02T08:35:34Z</time>
      </trkpt>
      <trkpt lat="46.16436" lon="6.5525">
        <ele>1436.772</ele>
        <time>2026-02-02T08:35:39Z</time>
      </trkpt>
      <trkpt lat="46.16436" lon="6.5525">
        <ele>1436.756</ele>
        <time>2026-02-02T08:35:44Z</time>
      </trkpt>
      <trkpt lat="46.16436" lon="6.5525">
        <ele>1436.759</ele>
        <time>2026-02-02T08:35:49Z</time>
      </trkpt>
      <trkpt lat="46.16436" lon="6.5525">
        <ele>1436.758</ele>
        <time>2026-02-02T08:35:54Z</time>
      </trkpt>
      <trkpt lat="46.16436" lon="6.5525">
        <ele>1437.391</ele>
        <time>2026-02-02T08:35:59Z</time>
      </trkpt>
      <trkpt lat="46.16436" lon="6.5525">
        <ele>1436.058</ele>
        <time>2026-02-02T08:36:04Z</time>
      </trkpt>
      <trkpt lat="46.16436" lon="6.5525">
        <ele>1435.704</ele>
        <time>2026-02-02T08:36:10Z</time>
      </trkpt>
      <trkpt lat="46.16436" lon="6.5525">
        <ele>1435.214</ele>
        <time>2026-02-02T08:36:15Z</time>
      </trkpt>
      <trkpt lat="46.16436" lon="6.5525">
        <ele>1435.282</ele>
        <time>2026-02-02T08:36:20Z</time>
      </trkpt>
      <trkpt lat="46.16436" lon="6.5525">
        <ele>1435.481</ele>
        <time>2026-02-02T08:36:25Z</time>
      </trkpt>
      <trkpt lat="46.16436" lon="6.5525">
        <ele>1435.499</ele>
        <time>2026-02-02T08:36:30Z</time>
      </trkpt>
      <trkpt lat="46.16436" lon="6.5525">
        <ele>1435.489</ele>
        <time>2026-02-02T08:36:35Z</time>
      </trkpt>
      <trkpt lat="46.16436" lon="6.5525">
        <ele>1435.5</ele>
        <time>2026-02-02T08:36:40Z</time>
      </trkpt>
      <trkpt lat="46.16436" lon="6.5525">
        <ele>1435.604</ele>
        <time>2026-02-02T08:36:45Z</time>
      </trkpt>
      <trkpt lat="46.16436" lon="6.5525">
        <ele>1436.104</ele>
        <time>2026-02-02T08:36:50Z</time>
      </trkpt>
      <trkpt lat="46.16436" lon="6.5525">
        <ele>1435.56</ele>
        <time>2026-02-02T08:36:55Z</time>
      </trkpt>
      <trkpt lat="46.16436" lon="6.5525">
        <ele>1433.913</ele>
        <time>2026-02-02T08:37:00Z</time>
      </trkpt>
      <trkpt lat="46.16436" lon="6.5525">
        <ele>1433.763</ele>
        <time>2026-02-02T08:37:05Z</time>
      </trkpt>
      <trkpt lat="46.16436" lon="6.5525">
        <ele>1432.715</ele>
        <time>2026-02-02T08:37:10Z</time>
      </trkpt>
      <trkpt lat="46.16436" lon="6.5525">
        <ele>1432.674</ele>
        <time>2026-02-02T08:37:15Z</time>
      </trkpt>
      <trkpt lat="46.16436" lon="6.5525">
        <ele>1432.644</ele>
        <time>2026-02-02T08:37:20Z</time>
      </trkpt>
      <trkpt lat="46.16436" lon="6.5525">
        <ele>1432.65</ele>
        <time>2026-02-02T08:37:25Z</time>
      </trkpt>
      <trkpt lat="46.16436" lon="6.5525">
        <ele>1432.636</ele>
        <time>2026-02-02T08:37:30Z</time>
      </trkpt>
      <trkpt lat="46.16436" lon="6.5525">
        <ele>1432.613</ele>
        <time>2026-02-02T08:37:35Z</time>
      </trkpt>
      <trkpt lat="46.16436" lon="6.5525">
        <ele>1432.595</ele>
        <time>2026-02-02T08:37:40Z</time>
      </trkpt>
      <trkpt lat="46.16436" lon="6.5525">
        <ele>1432.601</ele>
        <time>2026-02-02T08:37:45Z</time>
      </trkpt>
      <trkpt lat="46.16436" lon="6.5525">
        <ele>1433.017</ele>
        <time>2026-02-02T08:37:50Z</time>
      </trkpt>
      <trkpt lat="46.16436" lon="6.5525">
        <ele>1434.199</ele>
        <time>2026-02-02T08:37:55Z</time>
      </trkpt>
      <trkpt lat="46.16436" lon="6.5525">
        <ele>1432.032</ele>
        <time>2026-02-02T08:38:00Z</time>
      </trkpt>
      <trkpt lat="46.16436" lon="6.5525">
        <ele>1431.115</ele>
        <time>2026-02-02T08:38:05Z</time>
      </trkpt>
      <trkpt lat="46.16436" lon="6.5525">
        <ele>1430.921</ele>
        <time>2026-02-02T08:38:10Z</time>
      </trkpt>
      <trkpt lat="46.16436" lon="6.5525">
        <ele>1430.929</ele>
        <time>2026-02-02T08:38:15Z</time>
      </trkpt>
      <trkpt lat="46.16436" lon="6.5525">
        <ele>1430.943</ele>
        <time>2026-02-02T08:38:20Z</time>
      </trkpt>
      <trkpt lat="46.16436" lon="6.5525">
        <ele>1431.57</ele>
        <time>2026-02-02T08:38:25Z</time>
      </trkpt>
      <trkpt lat="46.16436" lon="6.5525">
        <ele>1432.007</ele>
        <time>2026-02-02T08:38:30Z</time>
      </trkpt>
      <trkpt lat="46.16436" lon="6.5525">
        <ele>1432.014</ele>
        <time>2026-02-02T08:38:35Z</time>
      </trkpt>
      <trkpt lat="46.16436" lon="6.5525">
        <ele>1432.009</ele>
        <time>2026-02-02T08:38:40Z</time>
      </trkpt>
      <trkpt lat="46.16436" lon="6.5525">
        <ele>1431.989</ele>
        <time>2026-02-02T08:38:45Z</time>
      </trkpt>
      <trkpt lat="46.16436" lon="6.5525">
        <ele>1432.768</ele>
        <time>2026-02-02T08:38:50Z</time>
      </trkpt>
      <trkpt lat="46.16436" lon="6.5525">
        <ele>1432.812</ele>
        <time>2026-02-02T08:38:55Z</time>
      </trkpt>
      <trkpt lat="46.16436" lon="6.5525">
        <ele>1432.537</ele>
        <time>2026-02-02T08:39:00Z</time>
      </trkpt>
      <trkpt lat="46.16436" lon="6.5525">
        <ele>1432.566</ele>
        <time>2026-02-02T08:39:05Z</time>
      </trkpt>
      <trkpt lat="46.16442" lon="6.55248">
        <ele>1433.031</ele>
        <time>2026-02-02T08:39:10Z</time>
      </trkpt>
      <trkpt lat="46.16442" lon="6.55248">
        <ele>1433.018</ele>
        <time>2026-02-02T08:39:15Z</time>
      </trkpt>
      <trkpt lat="46.16442" lon="6.55246">
        <ele>1432.812</ele>
        <time>2026-02-02T08:39:20Z</time>
      </trkpt>
      <trkpt lat="46.16443" lon="6.55245">
        <ele>1432.751</ele>
        <time>2026-02-02T08:39:25Z</time>
      </trkpt>
      <trkpt lat="46.16448" lon="6.55246">
        <ele>1433.226</ele>
        <time>2026-02-02T08:39:30Z</time>
      </trkpt>
      <trkpt lat="46.16453" lon="6.55248">
        <ele>1433.495</ele>
        <time>2026-02-02T08:39:35Z</time>
      </trkpt>
      <trkpt lat="46.16457" lon="6.55251">
        <ele>1434.427</ele>
        <time>2026-02-02T08:39:40Z</time>
      </trkpt>
      <trkpt lat="46.16461" lon="6.55254">
        <ele>1434.92</ele>
        <time>2026-02-02T08:39:45Z</time>
      </trkpt>
      <trkpt lat="46.16465" lon="6.55254">
        <ele>1434.702</ele>
        <time>2026-02-02T08:39:50Z</time>
      </trkpt>
      <trkpt lat="46.16469" lon="6.55254">
        <ele>1433.363</ele>
        <time>2026-02-02T08:39:55Z</time>
      </trkpt>
      <trkpt lat="46.16473" lon="6.55255">
        <ele>1434.182</ele>
        <time>2026-02-02T08:40:00Z</time>
      </trkpt>
      <trkpt lat="46.16477" lon="6.55257">
        <ele>1434.407</ele>
        <time>2026-02-02T08:40:05Z</time>
      </trkpt>
      <trkpt lat="46.16481" lon="6.55258">
        <ele>1434.892</ele>
        <time>2026-02-02T08:40:10Z</time>
      </trkpt>
      <trkpt lat="46.16485" lon="6.55259">
        <ele>1436.155</ele>
        <time>2026-02-02T08:40:15Z</time>
      </trkpt>
      <trkpt lat="46.16489" lon="6.55261">
        <ele>1436.012</ele>
        <time>2026-02-02T08:40:20Z</time>
      </trkpt>
      <trkpt lat="46.16493" lon="6.55262">
        <ele>1436.858</ele>
        <time>2026-02-02T08:40:25Z</time>
      </trkpt>
      <trkpt lat="46.16497" lon="6.55261">
        <ele>1435.436</ele>
        <time>2026-02-02T08:40:30Z</time>
      </trkpt>
      <trkpt lat="46.16501" lon="6.55262">
        <ele>1435.934</ele>
        <time>2026-02-02T08:40:35Z</time>
      </trkpt>
      <trkpt lat="46.16506" lon="6.55263">
        <ele>1436.3</ele>
        <time>2026-02-02T08:40:40Z</time>
      </trkpt>
      <trkpt lat="46.16508" lon="6.55263">
        <ele>1436.392</ele>
        <time>2026-02-02T08:40:45Z</time>
      </trkpt>
      <trkpt lat="46.1651" lon="6.55264">
        <ele>1437.17</ele>
        <time>2026-02-02T08:40:50Z</time>
      </trkpt>
      <trkpt lat="46.16511" lon="6.55265">
        <ele>1438.712</ele>
        <time>2026-02-02T08:40:55Z</time>
      </trkpt>
      <trkpt lat="46.16516" lon="6.55267">
        <ele>1438.128</ele>
        <time>2026-02-02T08:41:00Z</time>
      </trkpt>
      <trkpt lat="46.1652" lon="6.55269">
        <ele>1438.412</ele>
        <time>2026-02-02T08:41:05Z</time>
      </trkpt>
      <trkpt lat="46.16524" lon="6.55271">
        <ele>1438.181</ele>
        <time>2026-02-02T08:41:10Z</time>
      </trkpt>
      <trkpt lat="46.16528" lon="6.55273">
        <ele>1438.629</ele>
        <time>2026-02-02T08:41:15Z</time>
      </trkpt>
      <trkpt lat="46.16532" lon="6.55275">
        <ele>1438.854</ele>
        <time>2026-02-02T08:41:20Z</time>
      </trkpt>
      <trkpt lat="46.16535" lon="6.55277">
        <ele>1439.66</ele>
        <time>2026-02-02T08:41:25Z</time>
      </trkpt>
      <trkpt lat="46.1654" lon="6.5528">
        <ele>1439.736</ele>
        <time>2026-02-02T08:41:30Z</time>
      </trkpt>
      <trkpt lat="46.16544" lon="6.55282">
        <ele>1439.961</ele>
        <time>2026-02-02T08:41:35Z</time>
      </trkpt>
      <trkpt lat="46.16547" lon="6.55283">
        <ele>1439.734</ele>
        <time>2026-02-02T08:41:40Z</time>
      </trkpt>
      <trkpt lat="46.16551" lon="6.55285">
        <ele>1440.161</ele>
        <time>2026-02-02T08:41:45Z</time>
      </trkpt>
      <trkpt lat="46.16555" lon="6.55286">
        <ele>1440.304</ele>
        <time>2026-02-02T08:41:50Z</time>
      </trkpt>
      <trkpt lat="46.16558" lon="6.55288">
        <ele>1440.537</ele>
        <time>2026-02-02T08:41:55Z</time>
      </trkpt>
      <trkpt lat="46.16562" lon="6.55289">
        <ele>1440.552</ele>
        <time>2026-02-02T08:42:00Z</time>
      </trkpt>
      <trkpt lat="46.16566" lon="6.5529">
        <ele>1440.665</ele>
        <time>2026-02-02T08:42:05Z</time>
      </trkpt>
      <trkpt lat="46.1657" lon="6.55292">
        <ele>1439.918</ele>
        <time>2026-02-02T08:42:10Z</time>
      </trkpt>
      <trkpt lat="46.16574" lon="6.55293">
        <ele>1441.106</ele>
        <time>2026-02-02T08:42:15Z</time>
      </trkpt>
      <trkpt lat="46.16577" lon="6.55294">
        <ele>1441.428</ele>
        <time>2026-02-02T08:42:20Z</time>
      </trkpt>
      <trkpt lat="46.16581" lon="6.55295">
        <ele>1442.057</ele>
        <time>2026-02-02T08:42:25Z</time>
      </trkpt>
      <trkpt lat="46.16584" lon="6.55295">
        <ele>1441.89</ele>
        <time>2026-02-02T08:42:30Z</time>
      </trkpt>
      <trkpt lat="46.16588" lon="6.55295">
        <ele>1442.564</ele>
        <time>2026-02-02T08:42:35Z</time>
      </trkpt>
      <trkpt lat="46.16591" lon="6.55295">
        <ele>1443.138</ele>
        <time>2026-02-02T08:42:40Z</time>
      </trkpt>
      <trkpt lat="46.16592" lon="6.55295">
        <ele>1443.068</ele>
        <time>2026-02-02T08:42:45Z</time>
      </trkpt>
      <trkpt lat="46.16592" lon="6.55295">
        <ele>1443.061</ele>
        <time>2026-02-02T08:42:50Z</time>
      </trkpt>
      <trkpt lat="46.16592" lon="6.55295">
        <ele>1442.384</ele>
        <time>2026-02-02T08:42:55Z</time>
      </trkpt>
      <trkpt lat="46.16592" lon="6.55295">
        <ele>1442.958</ele>
        <time>2026-02-02T08:43:00Z</time>
      </trkpt>
      <trkpt lat="46.16592" lon="6.553">
        <ele>1442.961</ele>
        <time>2026-02-02T08:43:05Z</time>
      </trkpt>
      <trkpt lat="46.16593" lon="6.55301">
        <ele>1443.965</ele>
        <time>2026-02-02T08:43:10Z</time>
      </trkpt>
      <trkpt lat="46.16594" lon="6.55301">
        <ele>1443.704</ele>
        <time>2026-02-02T08:43:15Z</time>
      </trkpt>
      <trkpt lat="46.16597" lon="6.55302">
        <ele>1445.947</ele>
        <time>2026-02-02T08:43:20Z</time>
      </trkpt>
      <trkpt lat="46.166" lon="6.55302">
        <ele>1445.036</ele>
        <time>2026-02-02T08:43:25Z</time>
      </trkpt>
      <trkpt lat="46.16603" lon="6.55299">
        <ele>1444.488</ele>
        <time>2026-02-02T08:43:30Z</time>
      </trkpt>
      <trkpt lat="46.16606" lon="6.55298">
        <ele>1445.374</ele>
        <time>2026-02-02T08:43:35Z</time>
      </trkpt>
      <trkpt lat="46.16608" lon="6.55297">
        <ele>1446.398</ele>
        <time>2026-02-02T08:43:40Z</time>
      </trkpt>
      <trkpt lat="46.16611" lon="6.55297">
        <ele>1447.676</ele>
        <time>2026-02-02T08:43:45Z</time>
      </trkpt>
      <trkpt lat="46.16613" lon="6.55298">
        <ele>1449.186</ele>
        <time>2026-02-02T08:43:50Z</time>
      </trkpt>
      <trkpt lat="46.16615" lon="6.55299">
        <ele>1450.587</ele>
        <time>2026-02-02T08:43:55Z</time>
      </trkpt>
      <trkpt lat="46.16618" lon="6.55299">
        <ele>1450.936</ele>
        <time>2026-02-02T08:44:00Z</time>
      </trkpt>
      <trkpt lat="46.16622" lon="6.55299">
        <ele>1452.522</ele>
        <time>2026-02-02T08:44:05Z</time>
      </trkpt>
      <trkpt lat="46.16624" lon="6.553">
        <ele>1452.458</ele>
        <time>2026-02-02T08:44:10Z</time>
      </trkpt>
      <trkpt lat="46.16627" lon="6.553">
        <ele>1452.464</ele>
        <time>2026-02-02T08:44:15Z</time>
      </trkpt>
      <trkpt lat="46.1663" lon="6.55301">
        <ele>1452.256</ele>
        <time>2026-02-02T08:44:20Z</time>
      </trkpt>
      <trkpt lat="46.16633" lon="6.55301">
        <ele>1453.391</ele>
        <time>2026-02-02T08:44:25Z</time>
      </trkpt>
      <trkpt lat="46.16636" lon="6.55298">
        <ele>1446.579</ele>
        <time>2026-02-02T08:44:30Z</time>
      </trkpt>
      <trkpt lat="46.16639" lon="6.55298">
        <ele>1447.407</ele>
        <time>2026-02-02T08:44:36Z</time>
      </trkpt>
      <trkpt lat="46.1664" lon="6.55296">
        <ele>1446.761</ele>
        <time>2026-02-02T08:44:40Z</time>
      </trkpt>
      <trkpt lat="46.16642" lon="6.55296">
        <ele>1448.901</ele>
        <time>2026-02-02T08:44:46Z</time>
      </trkpt>
      <trkpt lat="46.16645" lon="6.55296">
        <ele>1449.75</ele>
        <time>2026-02-02T08:44:51Z</time>
      </trkpt>
      <trkpt lat="46.16647" lon="6.55297">
        <ele>1453.828</ele>
        <time>2026-02-02T08:44:56Z</time>
      </trkpt>
      <trkpt lat="46.16649" lon="6.55299">
        <ele>1457.269</ele>
        <time>2026-02-02T08:45:01Z</time>
      </trkpt>
      <trkpt lat="46.16652" lon="6.553">
        <ele>1458.761</ele>
        <time>2026-02-02T08:45:06Z</time>
      </trkpt>
      <trkpt lat="46.16655" lon="6.553">
        <ele>1459.724</ele>
        <time>2026-02-02T08:45:11Z</time>
      </trkpt>
      <trkpt lat="46.16658" lon="6.55301">
        <ele>1461.969</ele>
        <time>2026-02-02T08:45:16Z</time>
      </trkpt>
      <trkpt lat="46.16661" lon="6.55301">
        <ele>1461.406</ele>
        <time>2026-02-02T08:45:21Z</time>
      </trkpt>
      <trkpt lat="46.16664" lon="6.55303">
        <ele>1461.578</ele>
        <time>2026-02-02T08:45:26Z</time>
      </trkpt>
      <trkpt lat="46.16666" lon="6.55303">
        <ele>1463.379</ele>
        <time>2026-02-02T08:45:31Z</time>
      </trkpt>
      <trkpt lat="46.16669" lon="6.55304">
        <ele>1464.136</ele>
        <time>2026-02-02T08:45:36Z</time>
      </trkpt>
      <trkpt lat="46.16671" lon="6.55305">
        <ele>1464.266</ele>
        <time>2026-02-02T08:45:41Z</time>
      </trkpt>
      <trkpt lat="46.16674" lon="6.55305">
        <ele>1464.751</ele>
        <time>2026-02-02T08:45:46Z</time>
      </trkpt>
      <trkpt lat="46.16677" lon="6.55306">
        <ele>1465.36</ele>
        <time>2026-02-02T08:45:51Z</time>
      </trkpt>
      <trkpt lat="46.1668" lon="6.55306">
        <ele>1465.946</ele>
        <time>2026-02-02T08:45:56Z</time>
      </trkpt>
      <trkpt lat="46.16682" lon="6.55307">
        <ele>1467.548</ele>
        <time>2026-02-02T08:46:01Z</time>
      </trkpt>
      <trkpt lat="46.16684" lon="6.55308">
        <ele>1468.935</ele>
        <time>2026-02-02T08:46:06Z</time>
      </trkpt>
      <trkpt lat="46.16686" lon="6.55308">
        <ele>1469.828</ele>
        <time>2026-02-02T08:46:11Z</time>
      </trkpt>
      <trkpt lat="46.16689" lon="6.55309">
        <ele>1470.306</ele>
        <time>2026-02-02T08:46:16Z</time>
      </trkpt>
      <trkpt lat="46.16691" lon="6.5531">
        <ele>1470.718</ele>
        <time>2026-02-02T08:46:21Z</time>
      </trkpt>
      <trkpt lat="46.16694" lon="6.55312">
        <ele>1470.894</ele>
        <time>2026-02-02T08:46:26Z</time>
      </trkpt>
      <trkpt lat="46.16696" lon="6.55313">
        <ele>1471.346</ele>
        <time>2026-02-02T08:46:31Z</time>
      </trkpt>
      <trkpt lat="46.16699" lon="6.55313">
        <ele>1471.761</ele>
        <time>2026-02-02T08:46:36Z</time>
      </trkpt>
      <trkpt lat="46.16701" lon="6.55316">
        <ele>1472.801</ele>
        <time>2026-02-02T08:46:41Z</time>
      </trkpt>
      <trkpt lat="46.16703" lon="6.55317">
        <ele>1474.048</ele>
        <time>2026-02-02T08:46:46Z</time>
      </trkpt>
      <trkpt lat="46.16705" lon="6.55318">
        <ele>1474.045</ele>
        <time>2026-02-02T08:46:51Z</time>
      </trkpt>
      <trkpt lat="46.16706" lon="6.5532">
        <ele>1475.001</ele>
        <time>2026-02-02T08:46:56Z</time>
      </trkpt>
      <trkpt lat="46.16708" lon="6.55321">
        <ele>1476.14</ele>
        <time>2026-02-02T08:47:01Z</time>
      </trkpt>
      <trkpt lat="46.1671" lon="6.55321">
        <ele>1477.194</ele>
        <time>2026-02-02T08:47:06Z</time>
      </trkpt>
      <trkpt lat="46.16712" lon="6.55322">
        <ele>1477.426</ele>
        <time>2026-02-02T08:47:11Z</time>
      </trkpt>
      <trkpt lat="46.16714" lon="6.55322">
        <ele>1476.789</ele>
        <time>2026-02-02T08:47:16Z</time>
      </trkpt>
      <trkpt lat="46.16716" lon="6.55322">
        <ele>1476.817</ele>
        <time>2026-02-02T08:47:21Z</time>
      </trkpt>
      <trkpt lat="46.16718" lon="6.55323">
        <ele>1477.852</ele>
        <time>2026-02-02T08:47:26Z</time>
      </trkpt>
      <trkpt lat="46.1672" lon="6.55322">
        <ele>1477.862</ele>
        <time>2026-02-02T08:47:31Z</time>
      </trkpt>
      <trkpt lat="46.16723" lon="6.55321">
        <ele>1477.344</ele>
        <time>2026-02-02T08:47:36Z</time>
      </trkpt>
      <trkpt lat="46.16725" lon="6.55318">
        <ele>1476.97</ele>
        <time>2026-02-02T08:47:41Z</time>
      </trkpt>
      <trkpt lat="46.16727" lon="6.55316">
        <ele>1476.617</ele>
        <time>2026-02-02T08:47:46Z</time>
      </trkpt>
      <trkpt lat="46.16729" lon="6.55312">
        <ele>1476.156</ele>
        <time>2026-02-02T08:47:51Z</time>
      </trkpt>
      <trkpt lat="46.16731" lon="6.55308">
        <ele>1475.425</ele>
        <time>2026-02-02T08:47:56Z</time>
      </trkpt>
      <trkpt lat="46.16733" lon="6.55305">
        <ele>1474.599</ele>
        <time>2026-02-02T08:48:01Z</time>
      </trkpt>
      <trkpt lat="46.16735" lon="6.55302">
        <ele>1475.342</ele>
        <time>2026-02-02T08:48:06Z</time>
      </trkpt>
      <trkpt lat="46.16736" lon="6.55302">
        <ele>1476.334</ele>
        <time>2026-02-02T08:48:11Z</time>
      </trkpt>
      <trkpt lat="46.16739" lon="6.55303">
        <ele>1478.155</ele>
        <time>2026-02-02T08:48:16Z</time>
      </trkpt>
      <trkpt lat="46.16741" lon="6.55305">
        <ele>1479.493</ele>
        <time>2026-02-02T08:48:21Z</time>
      </trkpt>
      <trkpt lat="46.16743" lon="6.55308">
        <ele>1480.987</ele>
        <time>2026-02-02T08:48:26Z</time>
      </trkpt>
      <trkpt lat="46.16745" lon="6.55311">
        <ele>1482.525</ele>
        <time>2026-02-02T08:48:31Z</time>
      </trkpt>
      <trkpt lat="46.16747" lon="6.55313">
        <ele>1483.501</ele>
        <time>2026-02-02T08:48:36Z</time>
      </trkpt>
      <trkpt lat="46.16748" lon="6.55315">
        <ele>1484.236</ele>
        <time>2026-02-02T08:48:41Z</time>
      </trkpt>
      <trkpt lat="46.1675" lon="6.55317">
        <ele>1485.019</ele>
        <time>2026-02-02T08:48:46Z</time>
      </trkpt>
      <trkpt lat="46.16752" lon="6.5532">
        <ele>1486.299</ele>
        <time>2026-02-02T08:48:51Z</time>
      </trkpt>
      <trkpt lat="46.16754" lon="6.5532">
        <ele>1486.441</ele>
        <time>2026-02-02T08:48:56Z</time>
      </trkpt>
      <trkpt lat="46.16756" lon="6.55319">
        <ele>1486.938</ele>
        <time>2026-02-02T08:49:01Z</time>
      </trkpt>
      <trkpt lat="46.16758" lon="6.55318">
        <ele>1487.184</ele>
        <time>2026-02-02T08:49:06Z</time>
      </trkpt>
      <trkpt lat="46.1676" lon="6.55318">
        <ele>1487.653</ele>
        <time>2026-02-02T08:49:11Z</time>
      </trkpt>
      <trkpt lat="46.16762" lon="6.55318">
        <ele>1489.074</ele>
        <time>2026-02-02T08:49:16Z</time>
      </trkpt>
      <trkpt lat="46.16764" lon="6.55318">
        <ele>1489.572</ele>
        <time>2026-02-02T08:49:21Z</time>
      </trkpt>
      <trkpt lat="46.16766" lon="6.55319">
        <ele>1491.455</ele>
        <time>2026-02-02T08:49:26Z</time>
      </trkpt>
      <trkpt lat="46.16768" lon="6.5532">
        <ele>1492.784</ele>
        <time>2026-02-02T08:49:31Z</time>
      </trkpt>
      <trkpt lat="46.1677" lon="6.55321">
        <ele>1493.198</ele>
        <time>2026-02-02T08:49:36Z</time>
      </trkpt>
      <trkpt lat="46.16773" lon="6.55321">
        <ele>1493.477</ele>
        <time>2026-02-02T08:49:41Z</time>
      </trkpt>
      <trkpt lat="46.16775" lon="6.55319">
        <ele>1493.545</ele>
        <time>2026-02-02T08:49:46Z</time>
      </trkpt>
      <trkpt lat="46.16777" lon="6.55318">
        <ele>1493.906</ele>
        <time>2026-02-02T08:49:51Z</time>
      </trkpt>
      <trkpt lat="46.16778" lon="6.55316">
        <ele>1494.577</ele>
        <time>2026-02-02T08:49:56Z</time>
      </trkpt>
      <trkpt lat="46.1678" lon="6.55315">
        <ele>1494.988</ele>
        <time>2026-02-02T08:50:01Z</time>
      </trkpt>
      <trkpt lat="46.16782" lon="6.55313">
        <ele>1496.112</ele>
        <time>2026-02-02T08:50:06Z</time>
      </trkpt>
      <trkpt lat="46.16783" lon="6.55311">
        <ele>1496.116</ele>
        <time>2026-02-02T08:50:11Z</time>
      </trkpt>
      <trkpt lat="46.16785" lon="6.5531">
        <ele>1496.318</ele>
        <time>2026-02-02T08:50:16Z</time>
      </trkpt>
      <trkpt lat="46.16786" lon="6.55309">
        <ele>1496.596</ele>
        <time>2026-02-02T08:50:21Z</time>
      </trkpt>
      <trkpt lat="46.16788" lon="6.55307">
        <ele>1498.055</ele>
        <time>2026-02-02T08:50:26Z</time>
      </trkpt>
      <trkpt lat="46.1679" lon="6.55306">
        <ele>1498.561</ele>
        <time>2026-02-02T08:50:31Z</time>
      </trkpt>
      <trkpt lat="46.16793" lon="6.55306">
        <ele>1498.743</ele>
        <time>2026-02-02T08:50:36Z</time>
      </trkpt>
      <trkpt lat="46.16796" lon="6.55306">
        <ele>1499.092</ele>
        <time>2026-02-02T08:50:41Z</time>
      </trkpt>
      <trkpt lat="46.16798" lon="6.55307">
        <ele>1499.679</ele>
        <time>2026-02-02T08:50:46Z</time>
      </trkpt>
      <trkpt lat="46.168" lon="6.55307">
        <ele>1501.058</ele>
        <time>2026-02-02T08:50:51Z</time>
      </trkpt>
      <trkpt lat="46.16803" lon="6.55308">
        <ele>1502.176</ele>
        <time>2026-02-02T08:50:56Z</time>
      </trkpt>
      <trkpt lat="46.16805" lon="6.55308">
        <ele>1502.27</ele>
        <time>2026-02-02T08:51:01Z</time>
      </trkpt>
      <trkpt lat="46.16807" lon="6.55309">
        <ele>1502.509</ele>
        <time>2026-02-02T08:51:06Z</time>
      </trkpt>
      <trkpt lat="46.16809" lon="6.55309">
        <ele>1502.806</ele>
        <time>2026-02-02T08:51:11Z</time>
      </trkpt>
      <trkpt lat="46.16811" lon="6.5531">
        <ele>1503.221</ele>
        <time>2026-02-02T08:51:16Z</time>
      </trkpt>
      <trkpt lat="46.16813" lon="6.5531">
        <ele>1504.851</ele>
        <time>2026-02-02T08:51:21Z</time>
      </trkpt>
      <trkpt lat="46.16815" lon="6.55309">
        <ele>1505.68</ele>
        <time>2026-02-02T08:51:26Z</time>
      </trkpt>
      <trkpt lat="46.16817" lon="6.55308">
        <ele>1505.699</ele>
        <time>2026-02-02T08:51:31Z</time>
      </trkpt>
      <trkpt lat="46.16819" lon="6.55307">
        <ele>1505.87</ele>
        <time>2026-02-02T08:51:36Z</time>
      </trkpt>
      <trkpt lat="46.16821" lon="6.55307">
        <ele>1507.22</ele>
        <time>2026-02-02T08:51:41Z</time>
      </trkpt>
      <trkpt lat="46.16823" lon="6.55306">
        <ele>1507.482</ele>
        <time>2026-02-02T08:51:46Z</time>
      </trkpt>
      <trkpt lat="46.16825" lon="6.55306">
        <ele>1508.309</ele>
        <time>2026-02-02T08:51:51Z</time>
      </trkpt>
      <trkpt lat="46.16826" lon="6.55306">
        <ele>1508.912</ele>
        <time>2026-02-02T08:51:56Z</time>
      </trkpt>
      <trkpt lat="46.16828" lon="6.55306">
        <ele>1509.695</ele>
        <time>2026-02-02T08:52:01Z</time>
      </trkpt>
      <trkpt lat="46.1683" lon="6.55306">
        <ele>1510.115</ele>
        <time>2026-02-02T08:52:06Z</time>
      </trkpt>
      <trkpt lat="46.16832" lon="6.55306">
        <ele>1511.412</ele>
        <time>2026-02-02T08:52:11Z</time>
      </trkpt>
      <trkpt lat="46.16834" lon="6.55305">
        <ele>1512.693</ele>
        <time>2026-02-02T08:52:16Z</time>
      </trkpt>
      <trkpt lat="46.16836" lon="6.55302">
        <ele>1513.021</ele>
        <time>2026-02-02T08:52:21Z</time>
      </trkpt>
      <trkpt lat="46.16836" lon="6.55301">
        <ele>1513.023</ele>
        <time>2026-02-02T08:52:26Z</time>
      </trkpt>
      <trkpt lat="46.16836" lon="6.55301">
        <ele>1512.845</ele>
        <time>2026-02-02T08:52:31Z</time>
      </trkpt>
      <trkpt lat="46.16837" lon="6.55301">
        <ele>1514.094</ele>
        <time>2026-02-02T08:52:36Z</time>
      </trkpt>
      <trkpt lat="46.16839" lon="6.55301">
        <ele>1513.677</ele>
        <time>2026-02-02T08:52:41Z</time>
      </trkpt>
      <trkpt lat="46.16839" lon="6.55301">
        <ele>1513.851</ele>
        <time>2026-02-02T08:52:46Z</time>
      </trkpt>
      <trkpt lat="46.16839" lon="6.55301">
        <ele>1513.187</ele>
        <time>2026-02-02T08:52:51Z</time>
      </trkpt>
      <trkpt lat="46.16839" lon="6.55301">
        <ele>1513.18</ele>
        <time>2026-02-02T08:52:56Z</time>
      </trkpt>
      <trkpt lat="46.16839" lon="6.55301">
        <ele>1505.067</ele>
        <time>2026-02-02T08:53:00Z</time>
      </trkpt>
      <trkpt lat="46.16839" lon="6.55301">
        <ele>1505.723</ele>
        <time>2026-02-02T08:53:06Z</time>
      </trkpt>
      <trkpt lat="46.16839" lon="6.55301">
        <ele>1505.923</ele>
        <time>2026-02-02T08:53:11Z</time>
      </trkpt>
      <trkpt lat="46.16839" lon="6.55301">
        <ele>1506.138</ele>
        <time>2026-02-02T08:53:16Z</time>
      </trkpt>
      <trkpt lat="46.16839" lon="6.55301">
        <ele>1506.206</ele>
        <time>2026-02-02T08:53:21Z</time>
      </trkpt>
      <trkpt lat="46.16839" lon="6.55301">
        <ele>1506.565</ele>
        <time>2026-02-02T08:53:26Z</time>
      </trkpt>
      <trkpt lat="46.16839" lon="6.55301">
        <ele>1506.705</ele>
        <time>2026-02-02T08:53:31Z</time>
      </trkpt>
      <trkpt lat="46.16839" lon="6.55301">
        <ele>1506.713</ele>
        <time>2026-02-02T08:53:36Z</time>
      </trkpt>
      <trkpt lat="46.16839" lon="6.55301">
        <ele>1506.745</ele>
        <time>2026-02-02T08:53:41Z</time>
      </trkpt>
      <trkpt lat="46.16839" lon="6.55301">
        <ele>1506.771</ele>
        <time>2026-02-02T08:53:46Z</time>
      </trkpt>
      <trkpt lat="46.16839" lon="6.55301">
        <ele>1507.481</ele>
        <time>2026-02-02T08:53:51Z</time>
      </trkpt>
      <trkpt lat="46.16846" lon="6.55297">
        <ele>1511.187</ele>
        <time>2026-02-02T08:53:56Z</time>
      </trkpt>
      <trkpt lat="46.16849" lon="6.55297">
        <ele>1510.181</ele>
        <time>2026-02-02T08:54:01Z</time>
      </trkpt>
      <trkpt lat="46.16852" lon="6.55298">
        <ele>1511.956</ele>
        <time>2026-02-02T08:54:06Z</time>
      </trkpt>
      <trkpt lat="46.16854" lon="6.55298">
        <ele>1512.476</ele>
        <time>2026-02-02T08:54:11Z</time>
      </trkpt>
      <trkpt lat="46.16856" lon="6.55298">
        <ele>1516.341</ele>
        <time>2026-02-02T08:54:16Z</time>
      </trkpt>
      <trkpt lat="46.16858" lon="6.55299">
        <ele>1518.103</ele>
        <time>2026-02-02T08:54:21Z</time>
      </trkpt>
      <trkpt lat="46.1686" lon="6.55298">
        <ele>1518.035</ele>
        <time>2026-02-02T08:54:26Z</time>
      </trkpt>
      <trkpt lat="46.16862" lon="6.55297">
        <ele>1516.812</ele>
        <time>2026-02-02T08:54:31Z</time>
      </trkpt>
      <trkpt lat="46.16862" lon="6.55291">
        <ele>1516.389</ele>
        <time>2026-02-02T08:54:36Z</time>
      </trkpt>
      <trkpt lat="46.16863" lon="6.55286">
        <ele>1515.983</ele>
        <time>2026-02-02T08:54:41Z</time>
      </trkpt>
      <trkpt lat="46.16863" lon="6.5528">
        <ele>1515.023</ele>
        <time>2026-02-02T08:54:46Z</time>
      </trkpt>
      <trkpt lat="46.16863" lon="6.55275">
        <ele>1514.425</ele>
        <time>2026-02-02T08:54:51Z</time>
      </trkpt>
      <trkpt lat="46.16864" lon="6.5527">
        <ele>1514.302</ele>
        <time>2026-02-02T08:54:56Z</time>
      </trkpt>
      <trkpt lat="46.16864" lon="6.55264">
        <ele>1514.084</ele>
        <time>2026-02-02T08:55:01Z</time>
      </trkpt>
      <trkpt lat="46.16865" lon="6.55259">
        <ele>1513.45</ele>
        <time>2026-02-02T08:55:06Z</time>
      </trkpt>
      <trkpt lat="46.16866" lon="6.55255">
        <ele>1513.533</ele>
        <time>2026-02-02T08:55:11Z</time>
      </trkpt>
      <trkpt lat="46.16866" lon="6.55249">
        <ele>1512.517</ele>
        <time>2026-02-02T08:55:16Z</time>
      </trkpt>
      <trkpt lat="46.16867" lon="6.55245">
        <ele>1513.507</ele>
        <time>2026-02-02T08:55:21Z</time>
      </trkpt>
      <trkpt lat="46.16866" lon="6.5524">
        <ele>1514.633</ele>
        <time>2026-02-02T08:55:26Z</time>
      </trkpt>
      <trkpt lat="46.16866" lon="6.55237">
        <ele>1516.334</ele>
        <time>2026-02-02T08:55:31Z</time>
      </trkpt>
      <trkpt lat="46.16865" lon="6.55233">
        <ele>1517.115</ele>
        <time>2026-02-02T08:55:36Z</time>
      </trkpt>
      <trkpt lat="46.16865" lon="6.5523">
        <ele>1517.057</ele>
        <time>2026-02-02T08:55:41Z</time>
      </trkpt>
      <trkpt lat="46.16865" lon="6.55228">
        <ele>1517.923</ele>
        <time>2026-02-02T08:55:46Z</time>
      </trkpt>
      <trkpt lat="46.16864" lon="6.55225">
        <ele>1519.787</ele>
        <time>2026-02-02T08:55:51Z</time>
      </trkpt>
      <trkpt lat="46.16863" lon="6.55222">
        <ele>1521.193</ele>
        <time>2026-02-02T08:55:56Z</time>
      </trkpt>
      <trkpt lat="46.16861" lon="6.55219">
        <ele>1521.633</ele>
        <time>2026-02-02T08:56:01Z</time>
      </trkpt>
      <trkpt lat="46.1686" lon="6.55216">
        <ele>1521.388</ele>
        <time>2026-02-02T08:56:06Z</time>
      </trkpt>
      <trkpt lat="46.16859" lon="6.55212">
        <ele>1521.238</ele>
        <time>2026-02-02T08:56:11Z</time>
      </trkpt>
      <trkpt lat="46.16857" lon="6.55208">
        <ele>1519.534</ele>
        <time>2026-02-02T08:56:16Z</time>
      </trkpt>
      <trkpt lat="46.16855" lon="6.55205">
        <ele>1520.069</ele>
        <time>2026-02-02T08:56:21Z</time>
      </trkpt>
      <trkpt lat="46.16854" lon="6.55202">
        <ele>1521.555</ele>
        <time>2026-02-02T08:56:26Z</time>
      </trkpt>
      <trkpt lat="46.16854" lon="6.55199">
        <ele>1522.698</ele>
        <time>2026-02-02T08:56:31Z</time>
      </trkpt>
      <trkpt lat="46.16853" lon="6.55196">
        <ele>1525.107</ele>
        <time>2026-02-02T08:56:36Z</time>
      </trkpt>
      <trkpt lat="46.16853" lon="6.55192">
        <ele>1524.293</ele>
        <time>2026-02-02T08:56:41Z</time>
      </trkpt>
      <trkpt lat="46.16853" lon="6.55187">
        <ele>1523.365</ele>
        <time>2026-02-02T08:56:46Z</time>
      </trkpt>
      <trkpt lat="46.16852" lon="6.55184">
        <ele>1525.112</ele>
        <time>2026-02-02T08:56:51Z</time>
      </trkpt>
      <trkpt lat="46.16852" lon="6.5518">
        <ele>1527.041</ele>
        <time>2026-02-02T08:56:56Z</time>
      </trkpt>
      <trkpt lat="46.16852" lon="6.55177">
        <ele>1527.447</ele>
        <time>2026-02-02T08:57:01Z</time>
      </trkpt>
      <trkpt lat="46.16851" lon="6.55173">
        <ele>1526.773</ele>
        <time>2026-02-02T08:57:06Z</time>
      </trkpt>
      <trkpt lat="46.16852" lon="6.55171">
        <ele>1529.262</ele>
        <time>2026-02-02T08:57:11Z</time>
      </trkpt>
      <trkpt lat="46.16851" lon="6.55168">
        <ele>1529.47</ele>
        <time>2026-02-02T08:57:16Z</time>
      </trkpt>
      <trkpt lat="46.16851" lon="6.55164">
        <ele>1530.061</ele>
        <time>2026-02-02T08:57:21Z</time>
      </trkpt>
      <trkpt lat="46.16851" lon="6.55161">
        <ele>1530.432</ele>
        <time>2026-02-02T08:57:26Z</time>
      </trkpt>
      <trkpt lat="46.16852" lon="6.55157">
        <ele>1532.19</ele>
        <time>2026-02-02T08:57:31Z</time>
      </trkpt>
      <trkpt lat="46.16853" lon="6.55152">
        <ele>1532.387</ele>
        <time>2026-02-02T08:57:36Z</time>
      </trkpt>
      <trkpt lat="46.16853" lon="6.55147">
        <ele>1531.357</ele>
        <time>2026-02-02T08:57:41Z</time>
      </trkpt>
      <trkpt lat="46.16853" lon="6.55143">
        <ele>1531.06</ele>
        <time>2026-02-02T08:57:46Z</time>
      </trkpt>
      <trkpt lat="46.16851" lon="6.55139">
        <ele>1531.887</ele>
        <time>2026-02-02T08:57:51Z</time>
      </trkpt>
      <trkpt lat="46.16851" lon="6.55134">
        <ele>1532.654</ele>
        <time>2026-02-02T08:57:56Z</time>
      </trkpt>
      <trkpt lat="46.1685" lon="6.5513">
        <ele>1533.708</ele>
        <time>2026-02-02T08:58:01Z</time>
      </trkpt>
      <trkpt lat="46.1685" lon="6.55126">
        <ele>1533.327</ele>
        <time>2026-02-02T08:58:06Z</time>
      </trkpt>
      <trkpt lat="46.16849" lon="6.55122">
        <ele>1533.965</ele>
        <time>2026-02-02T08:58:11Z</time>
      </trkpt>
      <trkpt lat="46.16848" lon="6.55121">
        <ele>1533.869</ele>
        <time>2026-02-02T08:58:16Z</time>
      </trkpt>
      <trkpt lat="46.16848" lon="6.55119">
        <ele>1534.589</ele>
        <time>2026-02-02T08:58:21Z</time>
      </trkpt>
      <trkpt lat="46.16851" lon="6.55115">
        <ele>1533.917</ele>
        <time>2026-02-02T08:58:26Z</time>
      </trkpt>
      <trkpt lat="46.16851" lon="6.5511">
        <ele>1532.791</ele>
        <time>2026-02-02T08:58:31Z</time>
      </trkpt>
      <trkpt lat="46.16854" lon="6.55107">
        <ele>1532.662</ele>
        <time>2026-02-02T08:58:36Z</time>
      </trkpt>
      <trkpt lat="46.16856" lon="6.55106">
        <ele>1533.907</ele>
        <time>2026-02-02T08:58:41Z</time>
      </trkpt>
      <trkpt lat="46.16855" lon="6.55101">
        <ele>1537.162</ele>
        <time>2026-02-02T08:58:46Z</time>
      </trkpt>
      <trkpt lat="46.16854" lon="6.55095">
        <ele>1539.27</ele>
        <time>2026-02-02T08:58:51Z</time>
      </trkpt>
      <trkpt lat="46.16852" lon="6.55091">
        <ele>1540.752</ele>
        <time>2026-02-02T08:58:56Z</time>
      </trkpt>
      <trkpt lat="46.1685" lon="6.55086">
        <ele>1543.241</ele>
        <time>2026-02-02T08:59:01Z</time>
      </trkpt>
      <trkpt lat="46.16849" lon="6.55082">
        <ele>1543.732</ele>
        <time>2026-02-02T08:59:06Z</time>
      </trkpt>
      <trkpt lat="46.16847" lon="6.55079">
        <ele>1546.046</ele>
        <time>2026-02-02T08:59:11Z</time>
      </trkpt>
      <trkpt lat="46.16847" lon="6.55076">
        <ele>1545.044</ele>
        <time>2026-02-02T08:59:16Z</time>
      </trkpt>
      <trkpt lat="46.16846" lon="6.55075">
        <ele>1545.816</ele>
        <time>2026-02-02T08:59:21Z</time>
      </trkpt>
      <trkpt lat="46.16845" lon="6.55072">
        <ele>1548.53</ele>
        <time>2026-02-02T08:59:26Z</time>
      </trkpt>
      <trkpt lat="46.16843" lon="6.5507">
        <ele>1548.8</ele>
        <time>2026-02-02T08:59:31Z</time>
      </trkpt>
      <trkpt lat="46.16841" lon="6.55071">
        <ele>1548.517</ele>
        <time>2026-02-02T08:59:36Z</time>
      </trkpt>
      <trkpt lat="46.1684" lon="6.55071">
        <ele>1550.247</ele>
        <time>2026-02-02T08:59:41Z</time>
      </trkpt>
      <trkpt lat="46.1684" lon="6.55071">
        <ele>1550.271</ele>
        <time>2026-02-02T08:59:46Z</time>
      </trkpt>
      <trkpt lat="46.1684" lon="6.55071">
        <ele>1550.293</ele>
        <time>2026-02-02T08:59:51Z</time>
      </trkpt>
      <trkpt lat="46.1684" lon="6.55071">
        <ele>1550.772</ele>
        <time>2026-02-02T08:59:56Z</time>
      </trkpt>
      <trkpt lat="46.16837" lon="6.55068">
        <ele>1551.404</ele>
        <time>2026-02-02T09:00:01Z</time>
      </trkpt>
      <trkpt lat="46.16835" lon="6.55064">
        <ele>1553.012</ele>
        <time>2026-02-02T09:00:06Z</time>
      </trkpt>
      <trkpt lat="46.16833" lon="6.5506">
        <ele>1551.611</ele>
        <time>2026-02-02T09:00:11Z</time>
      </trkpt>
      <trkpt lat="46.1683" lon="6.55057">
        <ele>1551.626</ele>
        <time>2026-02-02T09:00:16Z</time>
      </trkpt>
      <trkpt lat="46.1683" lon="6.55049">
        <ele>1553.291</ele>
        <time>2026-02-02T09:00:21Z</time>
      </trkpt>
      <trkpt lat="46.16828" lon="6.55045">
        <ele>1554.442</ele>
        <time>2026-02-02T09:00:26Z</time>
      </trkpt>
      <trkpt lat="46.16827" lon="6.5504">
        <ele>1553.251</ele>
        <time>2026-02-02T09:00:31Z</time>
      </trkpt>
      <trkpt lat="46.16826" lon="6.55036">
        <ele>1553.431</ele>
        <time>2026-02-02T09:00:36Z</time>
      </trkpt>
      <trkpt lat="46.16825" lon="6.55035">
        <ele>1553.007</ele>
        <time>2026-02-02T09:00:41Z</time>
      </trkpt>
      <trkpt lat="46.16824" lon="6.55034">
        <ele>1552.796</ele>
        <time>2026-02-02T09:00:46Z</time>
      </trkpt>
      <trkpt lat="46.16824" lon="6.55034">
        <ele>1547.415</ele>
        <time>2026-02-02T09:00:51Z</time>
      </trkpt>
      <trkpt lat="46.16824" lon="6.55034">
        <ele>1547.26</ele>
        <time>2026-02-02T09:00:56Z</time>
      </trkpt>
      <trkpt lat="46.16824" lon="6.55034">
        <ele>1548.168</ele>
        <time>2026-02-02T09:01:01Z</time>
      </trkpt>
      <trkpt lat="46.16824" lon="6.55034">
        <ele>1548.045</ele>
        <time>2026-02-02T09:01:06Z</time>
      </trkpt>
      <trkpt lat="46.16824" lon="6.55034">
        <ele>1547.935</ele>
        <time>2026-02-02T09:01:11Z</time>
      </trkpt>
      <trkpt lat="46.16824" lon="6.55034">
        <ele>1548.441</ele>
        <time>2026-02-02T09:01:16Z</time>
      </trkpt>
      <trkpt lat="46.16824" lon="6.55034">
        <ele>1549.437</ele>
        <time>2026-02-02T09:01:21Z</time>
      </trkpt>
      <trkpt lat="46.16823" lon="6.55029">
        <ele>1550.268</ele>
        <time>2026-02-02T09:01:26Z</time>
      </trkpt>
      <trkpt lat="46.16821" lon="6.55026">
        <ele>1550.478</ele>
        <time>2026-02-02T09:01:31Z</time>
      </trkpt>
      <trkpt lat="46.16819" lon="6.55021">
        <ele>1552.659</ele>
        <time>2026-02-02T09:01:36Z</time>
      </trkpt>
      <trkpt lat="46.16817" lon="6.55016">
        <ele>1552.054</ele>
        <time>2026-02-02T09:01:41Z</time>
      </trkpt>
      <trkpt lat="46.16815" lon="6.55011">
        <ele>1553.187</ele>
        <time>2026-02-02T09:01:46Z</time>
      </trkpt>
      <trkpt lat="46.16813" lon="6.55006">
        <ele>1552.287</ele>
        <time>2026-02-02T09:01:51Z</time>
      </trkpt>
      <trkpt lat="46.16811" lon="6.55">
        <ele>1552.24</ele>
        <time>2026-02-02T09:01:56Z</time>
      </trkpt>
      <trkpt lat="46.1681" lon="6.54995">
        <ele>1552.941</ele>
        <time>2026-02-02T09:02:01Z</time>
      </trkpt>
      <trkpt lat="46.16809" lon="6.54991">
        <ele>1552.299</ele>
        <time>2026-02-02T09:02:06Z</time>
      </trkpt>
      <trkpt lat="46.16808" lon="6.54985">
        <ele>1552.84</ele>
        <time>2026-02-02T09:02:11Z</time>
      </trkpt>
      <trkpt lat="46.16806" lon="6.5498">
        <ele>1554.262</ele>
        <time>2026-02-02T09:02:16Z</time>
      </trkpt>
      <trkpt lat="46.16804" lon="6.54975">
        <ele>1554.151</ele>
        <time>2026-02-02T09:02:21Z</time>
      </trkpt>
      <trkpt lat="46.16804" lon="6.5497">
        <ele>1554.388</ele>
        <time>2026-02-02T09:02:26Z</time>
      </trkpt>
      <trkpt lat="46.16806" lon="6.54966">
        <ele>1555.392</ele>
        <time>2026-02-02T09:02:31Z</time>
      </trkpt>
      <trkpt lat="46.16807" lon="6.54965">
        <ele>1557.59</ele>
        <time>2026-02-02T09:02:36Z</time>
      </trkpt>
      <trkpt lat="46.16809" lon="6.54963">
        <ele>1559.946</ele>
        <time>2026-02-02T09:02:41Z</time>
      </trkpt>
      <trkpt lat="46.1681" lon="6.5496">
        <ele>1559.436</ele>
        <time>2026-02-02T09:02:46Z</time>
      </trkpt>
      <trkpt lat="46.1681" lon="6.54954">
        <ele>1559.807</ele>
        <time>2026-02-02T09:02:51Z</time>
      </trkpt>
      <trkpt lat="46.16808" lon="6.54948">
        <ele>1560.111</ele>
        <time>2026-02-02T09:02:56Z</time>
      </trkpt>
      <trkpt lat="46.16806" lon="6.54944">
        <ele>1561.208</ele>
        <time>2026-02-02T09:03:01Z</time>
      </trkpt>
      <trkpt lat="46.16804" lon="6.5494">
        <ele>1562.091</ele>
        <time>2026-02-02T09:03:06Z</time>
      </trkpt>
      <trkpt lat="46.16803" lon="6.54935">
        <ele>1563.098</ele>
        <time>2026-02-02T09:03:11Z</time>
      </trkpt>
      <trkpt lat="46.16802" lon="6.5493">
        <ele>1565.701</ele>
        <time>2026-02-02T09:03:16Z</time>
      </trkpt>
      <trkpt lat="46.16801" lon="6.54924">
        <ele>1565.637</ele>
        <time>2026-02-02T09:03:21Z</time>
      </trkpt>
      <trkpt lat="46.168" lon="6.54917">
        <ele>1565.494</ele>
        <time>2026-02-02T09:03:26Z</time>
      </trkpt>
      <trkpt lat="46.16799" lon="6.54913">
        <ele>1565.526</ele>
        <time>2026-02-02T09:03:31Z</time>
      </trkpt>
      <trkpt lat="46.16798" lon="6.54909">
        <ele>1565.581</ele>
        <time>2026-02-02T09:03:36Z</time>
      </trkpt>
      <trkpt lat="46.16797" lon="6.54906">
        <ele>1565.858</ele>
        <time>2026-02-02T09:03:41Z</time>
      </trkpt>
      <trkpt lat="46.16796" lon="6.54903">
        <ele>1565.844</ele>
        <time>2026-02-02T09:03:46Z</time>
      </trkpt>
      <trkpt lat="46.16796" lon="6.54901">
        <ele>1567.065</ele>
        <time>2026-02-02T09:03:51Z</time>
      </trkpt>
      <trkpt lat="46.16796" lon="6.54897">
        <ele>1567.01</ele>
        <time>2026-02-02T09:03:56Z</time>
      </trkpt>
      <trkpt lat="46.16798" lon="6.54893">
        <ele>1566.262</ele>
        <time>2026-02-02T09:04:01Z</time>
      </trkpt>
      <trkpt lat="46.16801" lon="6.54887">
        <ele>1566.642</ele>
        <time>2026-02-02T09:04:06Z</time>
      </trkpt>
      <trkpt lat="46.16801" lon="6.54882">
        <ele>1567.905</ele>
        <time>2026-02-02T09:04:11Z</time>
      </trkpt>
      <trkpt lat="46.16803" lon="6.54878">
        <ele>1568.491</ele>
        <time>2026-02-02T09:04:16Z</time>
      </trkpt>
      <trkpt lat="46.16803" lon="6.54874">
        <ele>1569.435</ele>
        <time>2026-02-02T09:04:21Z</time>
      </trkpt>
      <trkpt lat="46.16803" lon="6.54874">
        <ele>1569.979</ele>
        <time>2026-02-02T09:04:26Z</time>
      </trkpt>
      <trkpt lat="46.16803" lon="6.54873">
        <ele>1569.964</ele>
        <time>2026-02-02T09:04:31Z</time>
      </trkpt>
      <trkpt lat="46.16803" lon="6.54872">
        <ele>1570.271</ele>
        <time>2026-02-02T09:04:36Z</time>
      </trkpt>
      <trkpt lat="46.16805" lon="6.54866">
        <ele>1566.103</ele>
        <time>2026-02-02T09:04:41Z</time>
      </trkpt>
      <trkpt lat="46.16808" lon="6.54857">
        <ele>1564.566</ele>
        <time>2026-02-02T09:04:46Z</time>
      </trkpt>
      <trkpt lat="46.16809" lon="6.54851">
        <ele>1567.615</ele>
        <time>2026-02-02T09:04:51Z</time>
      </trkpt>
      <trkpt lat="46.16808" lon="6.54846">
        <ele>1569.58</ele>
        <time>2026-02-02T09:04:56Z</time>
      </trkpt>
      <trkpt lat="46.16804" lon="6.54842">
        <ele>1571.07</ele>
        <time>2026-02-02T09:05:01Z</time>
      </trkpt>
      <trkpt lat="46.16803" lon="6.54838">
        <ele>1572.069</ele>
        <time>2026-02-02T09:05:06Z</time>
      </trkpt>
      <trkpt lat="46.16801" lon="6.54834">
        <ele>1572.581</ele>
        <time>2026-02-02T09:05:11Z</time>
      </trkpt>
      <trkpt lat="46.16801" lon="6.54828">
        <ele>1574.112</ele>
        <time>2026-02-02T09:05:16Z</time>
      </trkpt>
      <trkpt lat="46.168" lon="6.54824">
        <ele>1572.993</ele>
        <time>2026-02-02T09:05:21Z</time>
      </trkpt>
      <trkpt lat="46.16797" lon="6.54818">
        <ele>1574.352</ele>
        <time>2026-02-02T09:05:26Z</time>
      </trkpt>
      <trkpt lat="46.16796" lon="6.54815">
        <ele>1575.086</ele>
        <time>2026-02-02T09:05:31Z</time>
      </trkpt>
      <trkpt lat="46.16796" lon="6.54811">
        <ele>1575.148</ele>
        <time>2026-02-02T09:05:36Z</time>
      </trkpt>
      <trkpt lat="46.16796" lon="6.54806">
        <ele>1575.456</ele>
        <time>2026-02-02T09:05:41Z</time>
      </trkpt>
      <trkpt lat="46.16797" lon="6.54802">
        <ele>1576.427</ele>
        <time>2026-02-02T09:05:46Z</time>
      </trkpt>
      <trkpt lat="46.16798" lon="6.54799">
        <ele>1576.477</ele>
        <time>2026-02-02T09:05:51Z</time>
      </trkpt>
      <trkpt lat="46.16799" lon="6.54795">
        <ele>1576.933</ele>
        <time>2026-02-02T09:05:56Z</time>
      </trkpt>
      <trkpt lat="46.16799" lon="6.54791">
        <ele>1578.746</ele>
        <time>2026-02-02T09:06:01Z</time>
      </trkpt>
      <trkpt lat="46.16797" lon="6.54787">
        <ele>1579.488</ele>
        <time>2026-02-02T09:06:06Z</time>
      </trkpt>
      <trkpt lat="46.16796" lon="6.54784">
        <ele>1580.847</ele>
        <time>2026-02-02T09:06:11Z</time>
      </trkpt>
      <trkpt lat="46.16796" lon="6.54781">
        <ele>1580.251</ele>
        <time>2026-02-02T09:06:16Z</time>
      </trkpt>
      <trkpt lat="46.16798" lon="6.54778">
        <ele>1581.099</ele>
        <time>2026-02-02T09:06:21Z</time>
      </trkpt>
      <trkpt lat="46.16798" lon="6.54774">
        <ele>1581.548</ele>
        <time>2026-02-02T09:06:26Z</time>
      </trkpt>
      <trkpt lat="46.16799" lon="6.54771">
        <ele>1582.499</ele>
        <time>2026-02-02T09:06:31Z</time>
      </trkpt>
      <trkpt lat="46.16799" lon="6.54769">
        <ele>1583.462</ele>
        <time>2026-02-02T09:06:36Z</time>
      </trkpt>
      <trkpt lat="46.16798" lon="6.54765">
        <ele>1583.166</ele>
        <time>2026-02-02T09:06:41Z</time>
      </trkpt>
      <trkpt lat="46.16796" lon="6.54762">
        <ele>1585.17</ele>
        <time>2026-02-02T09:06:46Z</time>
      </trkpt>
      <trkpt lat="46.16794" lon="6.5476">
        <ele>1587.515</ele>
        <time>2026-02-02T09:06:51Z</time>
      </trkpt>
      <trkpt lat="46.16793" lon="6.54757">
        <ele>1588.291</ele>
        <time>2026-02-02T09:06:56Z</time>
      </trkpt>
      <trkpt lat="46.16791" lon="6.54754">
        <ele>1590.121</ele>
        <time>2026-02-02T09:07:01Z</time>
      </trkpt>
      <trkpt lat="46.16789" lon="6.5475">
        <ele>1590.26</ele>
        <time>2026-02-02T09:07:06Z</time>
      </trkpt>
      <trkpt lat="46.16787" lon="6.54746">
        <ele>1592.036</ele>
        <time>2026-02-02T09:07:11Z</time>
      </trkpt>
      <trkpt lat="46.16785" lon="6.54744">
        <ele>1592.138</ele>
        <time>2026-02-02T09:07:16Z</time>
      </trkpt>
      <trkpt lat="46.16784" lon="6.54741">
        <ele>1592.59</ele>
        <time>2026-02-02T09:07:21Z</time>
      </trkpt>
      <trkpt lat="46.16781" lon="6.54739">
        <ele>1593.361</ele>
        <time>2026-02-02T09:07:26Z</time>
      </trkpt>
      <trkpt lat="46.16779" lon="6.54736">
        <ele>1593.643</ele>
        <time>2026-02-02T09:07:31Z</time>
      </trkpt>
      <trkpt lat="46.16777" lon="6.54732">
        <ele>1594.758</ele>
        <time>2026-02-02T09:07:36Z</time>
      </trkpt>
      <trkpt lat="46.16778" lon="6.54724">
        <ele>1589.125</ele>
        <time>2026-02-02T09:07:40Z</time>
      </trkpt>
      <trkpt lat="46.16778" lon="6.54723">
        <ele>1589.729</ele>
        <time>2026-02-02T09:07:46Z</time>
      </trkpt>
      <trkpt lat="46.16779" lon="6.54722">
        <ele>1589.168</ele>
        <time>2026-02-02T09:07:50Z</time>
      </trkpt>
      <trkpt lat="46.16779" lon="6.54721">
        <ele>1588.881</ele>
        <time>2026-02-02T09:07:56Z</time>
      </trkpt>
      <trkpt lat="46.16781" lon="6.54708">
        <ele>1585.993</ele>
        <time>2026-02-02T09:08:01Z</time>
      </trkpt>
      <trkpt lat="46.16781" lon="6.54702">
        <ele>1582.902</ele>
        <time>2026-02-02T09:08:06Z</time>
      </trkpt>
      <trkpt lat="46.16781" lon="6.54698">
        <ele>1585.826</ele>
        <time>2026-02-02T09:08:11Z</time>
      </trkpt>
      <trkpt lat="46.16781" lon="6.54694">
        <ele>1588.594</ele>
        <time>2026-02-02T09:08:16Z</time>
      </trkpt>
      <trkpt lat="46.16778" lon="6.54689">
        <ele>1591.319</ele>
        <time>2026-02-02T09:08:21Z</time>
      </trkpt>
      <trkpt lat="46.16775" lon="6.54683">
        <ele>1592.145</ele>
        <time>2026-02-02T09:08:26Z</time>
      </trkpt>
      <trkpt lat="46.16775" lon="6.54679">
        <ele>1592.902</ele>
        <time>2026-02-02T09:08:31Z</time>
      </trkpt>
      <trkpt lat="46.16776" lon="6.54673">
        <ele>1593.756</ele>
        <time>2026-02-02T09:08:36Z</time>
      </trkpt>
      <trkpt lat="46.16776" lon="6.54668">
        <ele>1592.519</ele>
        <time>2026-02-02T09:08:41Z</time>
      </trkpt>
      <trkpt lat="46.16777" lon="6.54662">
        <ele>1592.335</ele>
        <time>2026-02-02T09:08:46Z</time>
      </trkpt>
      <trkpt lat="46.16779" lon="6.54654">
        <ele>1591.145</ele>
        <time>2026-02-02T09:08:51Z</time>
      </trkpt>
      <trkpt lat="46.16779" lon="6.54648">
        <ele>1591.483</ele>
        <time>2026-02-02T09:08:56Z</time>
      </trkpt>
      <trkpt lat="46.16779" lon="6.54642">
        <ele>1591.015</ele>
        <time>2026-02-02T09:09:01Z</time>
      </trkpt>
      <trkpt lat="46.16778" lon="6.54637">
        <ele>1592.291</ele>
        <time>2026-02-02T09:09:06Z</time>
      </trkpt>
      <trkpt lat="46.16776" lon="6.54635">
        <ele>1593.729</ele>
        <time>2026-02-02T09:09:11Z</time>
      </trkpt>
      <trkpt lat="46.16775" lon="6.54632">
        <ele>1595.26</ele>
        <time>2026-02-02T09:09:16Z</time>
      </trkpt>
      <trkpt lat="46.16775" lon="6.54627">
        <ele>1596.774</ele>
        <time>2026-02-02T09:09:21Z</time>
      </trkpt>
      <trkpt lat="46.16775" lon="6.54621">
        <ele>1596.661</ele>
        <time>2026-02-02T09:09:26Z</time>
      </trkpt>
      <trkpt lat="46.16776" lon="6.54613">
        <ele>1595.316</ele>
        <time>2026-02-02T09:09:31Z</time>
      </trkpt>
      <trkpt lat="46.16777" lon="6.54606">
        <ele>1593.625</ele>
        <time>2026-02-02T09:09:36Z</time>
      </trkpt>
      <trkpt lat="46.16778" lon="6.54599">
        <ele>1593.492</ele>
        <time>2026-02-02T09:09:41Z</time>
      </trkpt>
      <trkpt lat="46.16779" lon="6.54594">
        <ele>1592.418</ele>
        <time>2026-02-02T09:09:46Z</time>
      </trkpt>
      <trkpt lat="46.16779" lon="6.54588">
        <ele>1592.702</ele>
        <time>2026-02-02T09:09:51Z</time>
      </trkpt>
      <trkpt lat="46.16779" lon="6.54585">
        <ele>1595.127</ele>
        <time>2026-02-02T09:09:56Z</time>
      </trkpt>
      <trkpt lat="46.16779" lon="6.54583">
        <ele>1596.657</ele>
        <time>2026-02-02T09:10:00Z</time>
      </trkpt>
      <trkpt lat="46.1678" lon="6.54578">
        <ele>1596.046</ele>
        <time>2026-02-02T09:10:06Z</time>
      </trkpt>
      <trkpt lat="46.16784" lon="6.54567">
        <ele>1588.7</ele>
        <time>2026-02-02T09:10:10Z</time>
      </trkpt>
      <trkpt lat="46.16784" lon="6.54564">
        <ele>1590.94</ele>
        <time>2026-02-02T09:10:16Z</time>
      </trkpt>
      <trkpt lat="46.16785" lon="6.5456">
        <ele>1591.591</ele>
        <time>2026-02-02T09:10:21Z</time>
      </trkpt>
      <trkpt lat="46.16785" lon="6.54557">
        <ele>1591.491</ele>
        <time>2026-02-02T09:10:26Z</time>
      </trkpt>
      <trkpt lat="46.16784" lon="6.54556">
        <ele>1596.891</ele>
        <time>2026-02-02T09:10:31Z</time>
      </trkpt>
      <trkpt lat="46.16784" lon="6.54553">
        <ele>1600.373</ele>
        <time>2026-02-02T09:10:36Z</time>
      </trkpt>
      <trkpt lat="46.16783" lon="6.5455">
        <ele>1602.243</ele>
        <time>2026-02-02T09:10:41Z</time>
      </trkpt>
      <trkpt lat="46.16783" lon="6.54547">
        <ele>1604.594</ele>
        <time>2026-02-02T09:10:46Z</time>
      </trkpt>
      <trkpt lat="46.16783" lon="6.54544">
        <ele>1607.321</ele>
        <time>2026-02-02T09:10:51Z</time>
      </trkpt>
      <trkpt lat="46.16782" lon="6.54541">
        <ele>1608.137</ele>
        <time>2026-02-02T09:10:56Z</time>
      </trkpt>
      <trkpt lat="46.16782" lon="6.54536">
        <ele>1609.001</ele>
        <time>2026-02-02T09:11:01Z</time>
      </trkpt>
      <trkpt lat="46.16782" lon="6.54531">
        <ele>1611.045</ele>
        <time>2026-02-02T09:11:06Z</time>
      </trkpt>
      <trkpt lat="46.16781" lon="6.54527">
        <ele>1612.95</ele>
        <time>2026-02-02T09:11:11Z</time>
      </trkpt>
      <trkpt lat="46.16779" lon="6.54522">
        <ele>1613.247</ele>
        <time>2026-02-02T09:11:16Z</time>
      </trkpt>
      <trkpt lat="46.16779" lon="6.54518">
        <ele>1612.096</ele>
        <time>2026-02-02T09:11:21Z</time>
      </trkpt>
      <trkpt lat="46.16779" lon="6.54514">
        <ele>1613.349</ele>
        <time>2026-02-02T09:11:26Z</time>
      </trkpt>
      <trkpt lat="46.16779" lon="6.5451">
        <ele>1613.644</ele>
        <time>2026-02-02T09:11:31Z</time>
      </trkpt>
      <trkpt lat="46.16779" lon="6.54507">
        <ele>1614.69</ele>
        <time>2026-02-02T09:11:36Z</time>
      </trkpt>
      <trkpt lat="46.1678" lon="6.54503">
        <ele>1615.106</ele>
        <time>2026-02-02T09:11:41Z</time>
      </trkpt>
      <trkpt lat="46.16779" lon="6.54499">
        <ele>1615.147</ele>
        <time>2026-02-02T09:11:46Z</time>
      </trkpt>
      <trkpt lat="46.16778" lon="6.54495">
        <ele>1614.587</ele>
        <time>2026-02-02T09:11:51Z</time>
      </trkpt>
      <trkpt lat="46.16778" lon="6.54491">
        <ele>1614.65</ele>
        <time>2026-02-02T09:11:56Z</time>
      </trkpt>
      <trkpt lat="46.16777" lon="6.54488">
        <ele>1614.546</ele>
        <time>2026-02-02T09:12:01Z</time>
      </trkpt>
      <trkpt lat="46.16776" lon="6.54484">
        <ele>1616.116</ele>
        <time>2026-02-02T09:12:06Z</time>
      </trkpt>
      <trkpt lat="46.16775" lon="6.5448">
        <ele>1617.105</ele>
        <time>2026-02-02T09:12:11Z</time>
      </trkpt>
      <trkpt lat="46.16774" lon="6.54477">
        <ele>1617.334</ele>
        <time>2026-02-02T09:12:16Z</time>
      </trkpt>
      <trkpt lat="46.16773" lon="6.54474">
        <ele>1618.335</ele>
        <time>2026-02-02T09:12:21Z</time>
      </trkpt>
      <trkpt lat="46.16772" lon="6.5447">
        <ele>1619.287</ele>
        <time>2026-02-02T09:12:26Z</time>
      </trkpt>
      <trkpt lat="46.1677" lon="6.54467">
        <ele>1620.208</ele>
        <time>2026-02-02T09:12:31Z</time>
      </trkpt>
      <trkpt lat="46.16769" lon="6.54464">
        <ele>1620.279</ele>
        <time>2026-02-02T09:12:36Z</time>
      </trkpt>
      <trkpt lat="46.16768" lon="6.54461">
        <ele>1622.215</ele>
        <time>2026-02-02T09:12:41Z</time>
      </trkpt>
      <trkpt lat="46.16766" lon="6.54458">
        <ele>1623.179</ele>
        <time>2026-02-02T09:12:46Z</time>
      </trkpt>
      <trkpt lat="46.16764" lon="6.54455">
        <ele>1623.589</ele>
        <time>2026-02-02T09:12:51Z</time>
      </trkpt>
      <trkpt lat="46.16763" lon="6.54452">
        <ele>1624.115</ele>
        <time>2026-02-02T09:12:56Z</time>
      </trkpt>
      <trkpt lat="46.16762" lon="6.5445">
        <ele>1624.478</ele>
        <time>2026-02-02T09:13:01Z</time>
      </trkpt>
      <trkpt lat="46.1676" lon="6.54448">
        <ele>1624.65</ele>
        <time>2026-02-02T09:13:06Z</time>
      </trkpt>
      <trkpt lat="46.16759" lon="6.54445">
        <ele>1624.622</ele>
        <time>2026-02-02T09:13:11Z</time>
      </trkpt>
      <trkpt lat="46.16758" lon="6.54442">
        <ele>1624.164</ele>
        <time>2026-02-02T09:13:16Z</time>
      </trkpt>
      <trkpt lat="46.16758" lon="6.54441">
        <ele>1624.827</ele>
        <time>2026-02-02T09:13:21Z</time>
      </trkpt>
      <trkpt lat="46.16757" lon="6.54438">
        <ele>1626.279</ele>
        <time>2026-02-02T09:13:26Z</time>
      </trkpt>
      <trkpt lat="46.16757" lon="6.54435">
        <ele>1628.263</ele>
        <time>2026-02-02T09:13:31Z</time>
      </trkpt>
      <trkpt lat="46.16757" lon="6.54435">
        <ele>1629.972</ele>
        <time>2026-02-02T09:13:36Z</time>
      </trkpt>
      <trkpt lat="46.16757" lon="6.54435">
        <ele>1632.057</ele>
        <time>2026-02-02T09:13:41Z</time>
      </trkpt>
      <trkpt lat="46.16757" lon="6.54435">
        <ele>1633.334</ele>
        <time>2026-02-02T09:13:46Z</time>
      </trkpt>
      <trkpt lat="46.16757" lon="6.54435">
        <ele>1634.069</ele>
        <time>2026-02-02T09:13:51Z</time>
      </trkpt>
      <trkpt lat="46.16757" lon="6.54435">
        <ele>1635.094</ele>
        <time>2026-02-02T09:13:56Z</time>
      </trkpt>
      <trkpt lat="46.16757" lon="6.54435">
        <ele>1635.381</ele>
        <time>2026-02-02T09:14:01Z</time>
      </trkpt>
      <trkpt lat="46.16757" lon="6.54435">
        <ele>1635.396</ele>
        <time>2026-02-02T09:14:06Z</time>
      </trkpt>
      <trkpt lat="46.16757" lon="6.54435">
        <ele>1635.411</ele>
        <time>2026-02-02T09:14:11Z</time>
      </trkpt>
      <trkpt lat="46.16757" lon="6.54435">
        <ele>1635.422</ele>
        <time>2026-02-02T09:14:16Z</time>
      </trkpt>
      <trkpt lat="46.16757" lon="6.54435">
        <ele>1635.429</ele>
        <time>2026-02-02T09:14:21Z</time>
      </trkpt>
      <trkpt lat="46.16757" lon="6.54435">
        <ele>1635.751</ele>
        <time>2026-02-02T09:14:26Z</time>
      </trkpt>
      <trkpt lat="46.16757" lon="6.54435">
        <ele>1635.78</ele>
        <time>2026-02-02T09:14:31Z</time>
      </trkpt>
      <trkpt lat="46.16757" lon="6.54435">
        <ele>1635.799</ele>
        <time>2026-02-02T09:14:36Z</time>
      </trkpt>
      <trkpt lat="46.16757" lon="6.54435">
        <ele>1635.814</ele>
        <time>2026-02-02T09:14:41Z</time>
      </trkpt>
      <trkpt lat="46.16757" lon="6.54435">
        <ele>1635.83</ele>
        <time>2026-02-02T09:14:46Z</time>
      </trkpt>
      <trkpt lat="46.16757" lon="6.54435">
        <ele>1635.846</ele>
        <time>2026-02-02T09:14:51Z</time>
      </trkpt>
      <trkpt lat="46.16757" lon="6.54435">
        <ele>1635.852</ele>
        <time>2026-02-02T09:14:56Z</time>
      </trkpt>
      <trkpt lat="46.1677" lon="6.54436">
        <ele>1635.857</ele>
        <time>2026-02-02T09:15:01Z</time>
      </trkpt>
      <trkpt lat="46.16771" lon="6.54435">
        <ele>1636.423</ele>
        <time>2026-02-02T09:15:06Z</time>
      </trkpt>
      <trkpt lat="46.16774" lon="6.54434">
        <ele>1637.8</ele>
        <time>2026-02-02T09:15:11Z</time>
      </trkpt>
      <trkpt lat="46.16777" lon="6.54432">
        <ele>1637.96</ele>
        <time>2026-02-02T09:15:16Z</time>
      </trkpt>
      <trkpt lat="46.16779" lon="6.5443">
        <ele>1638.342</ele>
        <time>2026-02-02T09:15:21Z</time>
      </trkpt>
      <trkpt lat="46.1678" lon="6.54427">
        <ele>1638.258</ele>
        <time>2026-02-02T09:15:26Z</time>
      </trkpt>
      <trkpt lat="46.1678" lon="6.54423">
        <ele>1639.455</ele>
        <time>2026-02-02T09:15:31Z</time>
      </trkpt>
      <trkpt lat="46.16779" lon="6.5442">
        <ele>1640.116</ele>
        <time>2026-02-02T09:15:36Z</time>
      </trkpt>
      <trkpt lat="46.16779" lon="6.54417">
        <ele>1640.974</ele>
        <time>2026-02-02T09:15:41Z</time>
      </trkpt>
      <trkpt lat="46.16779" lon="6.54415">
        <ele>1641.811</ele>
        <time>2026-02-02T09:15:46Z</time>
      </trkpt>
      <trkpt lat="46.16779" lon="6.54415">
        <ele>1642.391</ele>
        <time>2026-02-02T09:15:51Z</time>
      </trkpt>
      <trkpt lat="46.16779" lon="6.54415">
        <ele>1642.052</ele>
        <time>2026-02-02T09:15:56Z</time>
      </trkpt>
      <trkpt lat="46.16781" lon="6.54418">
        <ele>1641.886</ele>
        <time>2026-02-02T09:16:01Z</time>
      </trkpt>
      <trkpt lat="46.16785" lon="6.54423">
        <ele>1642.798</ele>
        <time>2026-02-02T09:16:06Z</time>
      </trkpt>
      <trkpt lat="46.16787" lon="6.54427">
        <ele>1643.647</ele>
        <time>2026-02-02T09:16:11Z</time>
      </trkpt>
      <trkpt lat="46.1679" lon="6.54431">
        <ele>1643.807</ele>
        <time>2026-02-02T09:16:16Z</time>
      </trkpt>
      <trkpt lat="46.16793" lon="6.54436">
        <ele>1645.165</ele>
        <time>2026-02-02T09:16:21Z</time>
      </trkpt>
      <trkpt lat="46.16796" lon="6.54441">
        <ele>1645.913</ele>
        <time>2026-02-02T09:16:26Z</time>
      </trkpt>
      <trkpt lat="46.16799" lon="6.54445">
        <ele>1647.002</ele>
        <time>2026-02-02T09:16:31Z</time>
      </trkpt>
      <trkpt lat="46.16801" lon="6.54447">
        <ele>1647.161</ele>
        <time>2026-02-02T09:16:36Z</time>
      </trkpt>
      <trkpt lat="46.16804" lon="6.54446">
        <ele>1647.063</ele>
        <time>2026-02-02T09:16:41Z</time>
      </trkpt>
      <trkpt lat="46.16805" lon="6.54444">
        <ele>1646.69</ele>
        <time>2026-02-02T09:16:46Z</time>
      </trkpt>
      <trkpt lat="46.16805" lon="6.54444">
        <ele>1646.696</ele>
        <time>2026-02-02T09:16:51Z</time>
      </trkpt>
      <trkpt lat="46.16806" lon="6.54443">
        <ele>1646.894</ele>
        <time>2026-02-02T09:16:56Z</time>
      </trkpt>
      <trkpt lat="46.16806" lon="6.54443">
        <ele>1646.89</ele>
        <time>2026-02-02T09:17:01Z</time>
      </trkpt>
      <trkpt lat="46.16807" lon="6.54445">
        <ele>1646.659</ele>
        <time>2026-02-02T09:17:06Z</time>
      </trkpt>
      <trkpt lat="46.16809" lon="6.5445">
        <ele>1646.144</ele>
        <time>2026-02-02T09:17:11Z</time>
      </trkpt>
      <trkpt lat="46.16812" lon="6.54454">
        <ele>1647.551</ele>
        <time>2026-02-02T09:17:16Z</time>
      </trkpt>
      <trkpt lat="46.16815" lon="6.54456">
        <ele>1648.034</ele>
        <time>2026-02-02T09:17:21Z</time>
      </trkpt>
      <trkpt lat="46.16817" lon="6.5446">
        <ele>1649.145</ele>
        <time>2026-02-02T09:17:26Z</time>
      </trkpt>
      <trkpt lat="46.16819" lon="6.54462">
        <ele>1650.468</ele>
        <time>2026-02-02T09:17:31Z</time>
      </trkpt>
      <trkpt lat="46.16821" lon="6.54462">
        <ele>1650.401</ele>
        <time>2026-02-02T09:17:36Z</time>
      </trkpt>
      <trkpt lat="46.16821" lon="6.54462">
        <ele>1650.394</ele>
        <time>2026-02-02T09:17:41Z</time>
      </trkpt>
      <trkpt lat="46.16821" lon="6.54462">
        <ele>1650.199</ele>
        <time>2026-02-02T09:17:46Z</time>
      </trkpt>
      <trkpt lat="46.16821" lon="6.54462">
        <ele>1642.73</ele>
        <time>2026-02-02T09:17:51Z</time>
      </trkpt>
      <trkpt lat="46.16821" lon="6.54462">
        <ele>1642.428</ele>
        <time>2026-02-02T09:17:57Z</time>
      </trkpt>
      <trkpt lat="46.16821" lon="6.54462">
        <ele>1641.895</ele>
        <time>2026-02-02T09:18:02Z</time>
      </trkpt>
      <trkpt lat="46.16821" lon="6.54462">
        <ele>1644.03</ele>
        <time>2026-02-02T09:18:07Z</time>
      </trkpt>
      <trkpt lat="46.16821" lon="6.54462">
        <ele>1644.873</ele>
        <time>2026-02-02T09:18:12Z</time>
      </trkpt>
      <trkpt lat="46.16821" lon="6.54462">
        <ele>1645.222</ele>
        <time>2026-02-02T09:18:17Z</time>
      </trkpt>
      <trkpt lat="46.16821" lon="6.54462">
        <ele>1645.401</ele>
        <time>2026-02-02T09:18:22Z</time>
      </trkpt>
      <trkpt lat="46.16821" lon="6.54462">
        <ele>1645.633</ele>
        <time>2026-02-02T09:18:27Z</time>
      </trkpt>
      <trkpt lat="46.16821" lon="6.54462">
        <ele>1645.881</ele>
        <time>2026-02-02T09:18:32Z</time>
      </trkpt>
      <trkpt lat="46.16821" lon="6.54462">
        <ele>1645.534</ele>
        <time>2026-02-02T09:18:37Z</time>
      </trkpt>
      <trkpt lat="46.16821" lon="6.54462">
        <ele>1645.297</ele>
        <time>2026-02-02T09:18:42Z</time>
      </trkpt>
      <trkpt lat="46.16821" lon="6.54462">
        <ele>1645.27</ele>
        <time>2026-02-02T09:18:47Z</time>
      </trkpt>
      <trkpt lat="46.16821" lon="6.54462">
        <ele>1646.889</ele>
        <time>2026-02-02T09:18:52Z</time>
      </trkpt>
      <trkpt lat="46.16821" lon="6.54462">
        <ele>1647.942</ele>
        <time>2026-02-02T09:18:57Z</time>
      </trkpt>
      <trkpt lat="46.16821" lon="6.54462">
        <ele>1649.447</ele>
        <time>2026-02-02T09:19:02Z</time>
      </trkpt>
      <trkpt lat="46.16821" lon="6.54462">
        <ele>1650.473</ele>
        <time>2026-02-02T09:19:07Z</time>
      </trkpt>
      <trkpt lat="46.16821" lon="6.54462">
        <ele>1650.304</ele>
        <time>2026-02-02T09:19:12Z</time>
      </trkpt>
      <trkpt lat="46.16821" lon="6.54462">
        <ele>1650.211</ele>
        <time>2026-02-02T09:19:17Z</time>
      </trkpt>
      <trkpt lat="46.16821" lon="6.54462">
        <ele>1650.286</ele>
        <time>2026-02-02T09:19:22Z</time>
      </trkpt>
      <trkpt lat="46.16821" lon="6.54462">
        <ele>1649.983</ele>
        <time>2026-02-02T09:19:27Z</time>
      </trkpt>
      <trkpt lat="46.16821" lon="6.54462">
        <ele>1650.829</ele>
        <time>2026-02-02T09:19:32Z</time>
      </trkpt>
      <trkpt lat="46.16821" lon="6.54462">
        <ele>1649.295</ele>
        <time>2026-02-02T09:19:37Z</time>
      </trkpt>
      <trkpt lat="46.16821" lon="6.54462">
        <ele>1648.47</ele>
        <time>2026-02-02T09:19:42Z</time>
      </trkpt>
      <trkpt lat="46.16821" lon="6.54462">
        <ele>1647.179</ele>
        <time>2026-02-02T09:19:47Z</time>
      </trkpt>
      <trkpt lat="46.16821" lon="6.54462">
        <ele>1647.311</ele>
        <time>2026-02-02T09:19:52Z</time>
      </trkpt>
      <trkpt lat="46.16821" lon="6.54462">
        <ele>1646.822</ele>
        <time>2026-02-02T09:19:57Z</time>
      </trkpt>
      <trkpt lat="46.16821" lon="6.54462">
        <ele>1647.885</ele>
        <time>2026-02-02T09:20:02Z</time>
      </trkpt>
      <trkpt lat="46.16821" lon="6.54462">
        <ele>1648.431</ele>
        <time>2026-02-02T09:20:07Z</time>
      </trkpt>
      <trkpt lat="46.16821" lon="6.54462">
        <ele>1648.496</ele>
        <time>2026-02-02T09:20:12Z</time>
      </trkpt>
      <trkpt lat="46.16821" lon="6.54462">
        <ele>1648.482</ele>
        <time>2026-02-02T09:20:17Z</time>
      </trkpt>
      <trkpt lat="46.16821" lon="6.54462">
        <ele>1648.386</ele>
        <time>2026-02-02T09:20:22Z</time>
      </trkpt>
      <trkpt lat="46.16821" lon="6.54462">
        <ele>1648.682</ele>
        <time>2026-02-02T09:20:27Z</time>
      </trkpt>
      <trkpt lat="46.16821" lon="6.54462">
        <ele>1649.45</ele>
        <time>2026-02-02T09:20:32Z</time>
      </trkpt>
      <trkpt lat="46.16821" lon="6.54462">
        <ele>1649.747</ele>
        <time>2026-02-02T09:20:37Z</time>
      </trkpt>
      <trkpt lat="46.16821" lon="6.54462">
        <ele>1649.779</ele>
        <time>2026-02-02T09:20:42Z</time>
      </trkpt>
      <trkpt lat="46.16821" lon="6.54462">
        <ele>1649.79</ele>
        <time>2026-02-02T09:20:47Z</time>
      </trkpt>
      <trkpt lat="46.16821" lon="6.54462">
        <ele>1649.804</ele>
        <time>2026-02-02T09:20:52Z</time>
      </trkpt>
      <trkpt lat="46.16821" lon="6.54462">
        <ele>1649.805</ele>
        <time>2026-02-02T09:20:57Z</time>
      </trkpt>
      <trkpt lat="46.16821" lon="6.54462">
        <ele>1649.81</ele>
        <time>2026-02-02T09:21:02Z</time>
      </trkpt>
      <trkpt lat="46.16821" lon="6.54462">
        <ele>1649.814</ele>
        <time>2026-02-02T09:21:07Z</time>
      </trkpt>
      <trkpt lat="46.16821" lon="6.54462">
        <ele>1649.823</ele>
        <time>2026-02-02T09:21:12Z</time>
      </trkpt>
      <trkpt lat="46.16821" lon="6.54462">
        <ele>1649.826</ele>
        <time>2026-02-02T09:21:17Z</time>
      </trkpt>
      <trkpt lat="46.16821" lon="6.54462">
        <ele>1649.829</ele>
        <time>2026-02-02T09:21:22Z</time>
      </trkpt>
      <trkpt lat="46.16821" lon="6.54462">
        <ele>1649.833</ele>
        <time>2026-02-02T09:21:27Z</time>
      </trkpt>
      <trkpt lat="46.16821" lon="6.54462">
        <ele>1649.833</ele>
        <time>2026-02-02T09:21:32Z</time>
      </trkpt>
      <trkpt lat="46.16821" lon="6.54462">
        <ele>1649.835</ele>
        <time>2026-02-02T09:21:37Z</time>
      </trkpt>
      <trkpt lat="46.16821" lon="6.54462">
        <ele>1649.834</ele>
        <time>2026-02-02T09:21:42Z</time>
      </trkpt>
      <trkpt lat="46.16821" lon="6.54462">
        <ele>1649.83</ele>
        <time>2026-02-02T09:21:47Z</time>
      </trkpt>
      <trkpt lat="46.16821" lon="6.54462">
        <ele>1649.83</ele>
        <time>2026-02-02T09:21:52Z</time>
      </trkpt>
      <trkpt lat="46.16821" lon="6.54462">
        <ele>1649.831</ele>
        <time>2026-02-02T09:21:57Z</time>
      </trkpt>
      <trkpt lat="46.16821" lon="6.54462">
        <ele>1649.828</ele>
        <time>2026-02-02T09:22:02Z</time>
      </trkpt>
      <trkpt lat="46.16821" lon="6.54462">
        <ele>1649.825</ele>
        <time>2026-02-02T09:22:07Z</time>
      </trkpt>
      <trkpt lat="46.16821" lon="6.54462">
        <ele>1649.824</ele>
        <time>2026-02-02T09:22:12Z</time>
      </trkpt>
      <trkpt lat="46.16821" lon="6.54462">
        <ele>1649.824</ele>
        <time>2026-02-02T09:22:17Z</time>
      </trkpt>
      <trkpt lat="46.16821" lon="6.54462">
        <ele>1649.824</ele>
        <time>2026-02-02T09:22:22Z</time>
      </trkpt>
      <trkpt lat="46.16821" lon="6.54462">
        <ele>1649.828</ele>
        <time>2026-02-02T09:22:27Z</time>
      </trkpt>
      <trkpt lat="46.16821" lon="6.54462">
        <ele>1649.83</ele>
        <time>2026-02-02T09:22:32Z</time>
      </trkpt>
      <trkpt lat="46.16821" lon="6.54462">
        <ele>1649.825</ele>
        <time>2026-02-02T09:22:37Z</time>
      </trkpt>
      <trkpt lat="46.16821" lon="6.54462">
        <ele>1649.83</ele>
        <time>2026-02-02T09:22:42Z</time>
      </trkpt>
      <trkpt lat="46.16821" lon="6.54462">
        <ele>1649.832</ele>
        <time>2026-02-02T09:22:47Z</time>
      </trkpt>
      <trkpt lat="46.16821" lon="6.54462">
        <ele>1649.839</ele>
        <time>2026-02-02T09:22:52Z</time>
      </trkpt>
      <trkpt lat="46.16821" lon="6.54462">
        <ele>1649.846</ele>
        <time>2026-02-02T09:22:57Z</time>
      </trkpt>
      <trkpt lat="46.16821" lon="6.54462">
        <ele>1649.857</ele>
        <time>2026-02-02T09:23:02Z</time>
      </trkpt>
      <trkpt lat="46.16821" lon="6.54462">
        <ele>1649.857</ele>
        <time>2026-02-02T09:23:07Z</time>
      </trkpt>
      <trkpt lat="46.16821" lon="6.54462">
        <ele>1649.858</ele>
        <time>2026-02-02T09:23:12Z</time>
      </trkpt>
      <trkpt lat="46.16821" lon="6.54462">
        <ele>1649.859</ele>
        <time>2026-02-02T09:23:17Z</time>
      </trkpt>
      <trkpt lat="46.16821" lon="6.54462">
        <ele>1649.86</ele>
        <time>2026-02-02T09:23:22Z</time>
      </trkpt>
      <trkpt lat="46.16821" lon="6.54462">
        <ele>1649.866</ele>
        <time>2026-02-02T09:23:27Z</time>
      </trkpt>
      <trkpt lat="46.16821" lon="6.54462">
        <ele>1649.872</ele>
        <time>2026-02-02T09:23:32Z</time>
      </trkpt>
      <trkpt lat="46.16821" lon="6.54462">
        <ele>1649.87</ele>
        <time>2026-02-02T09:23:37Z</time>
      </trkpt>
      <trkpt lat="46.16821" lon="6.54462">
        <ele>1649.869</ele>
        <time>2026-02-02T09:23:42Z</time>
      </trkpt>
      <trkpt lat="46.16821" lon="6.54462">
        <ele>1649.866</ele>
        <time>2026-02-02T09:23:47Z</time>
      </trkpt>
      <trkpt lat="46.16821" lon="6.54462">
        <ele>1649.868</ele>
        <time>2026-02-02T09:23:52Z</time>
      </trkpt>
      <trkpt lat="46.16821" lon="6.54462">
        <ele>1649.866</ele>
        <time>2026-02-02T09:23:57Z</time>
      </trkpt>
      <trkpt lat="46.16821" lon="6.54462">
        <ele>1649.866</ele>
        <time>2026-02-02T09:24:02Z</time>
      </trkpt>
      <trkpt lat="46.16821" lon="6.54462">
        <ele>1649.866</ele>
        <time>2026-02-02T09:24:07Z</time>
      </trkpt>
      <trkpt lat="46.16821" lon="6.54462">
        <ele>1649.867</ele>
        <time>2026-02-02T09:24:12Z</time>
      </trkpt>
      <trkpt lat="46.16821" lon="6.54462">
        <ele>1649.873</ele>
        <time>2026-02-02T09:24:17Z</time>
      </trkpt>
      <trkpt lat="46.16821" lon="6.54462">
        <ele>1649.878</ele>
        <time>2026-02-02T09:24:22Z</time>
      </trkpt>
      <trkpt lat="46.16821" lon="6.54462">
        <ele>1649.875</ele>
        <time>2026-02-02T09:24:27Z</time>
      </trkpt>
      <trkpt lat="46.16821" lon="6.54462">
        <ele>1649.874</ele>
        <time>2026-02-02T09:24:32Z</time>
      </trkpt>
      <trkpt lat="46.16821" lon="6.54462">
        <ele>1649.874</ele>
        <time>2026-02-02T09:24:37Z</time>
      </trkpt>
      <trkpt lat="46.16821" lon="6.54462">
        <ele>1649.874</ele>
        <time>2026-02-02T09:24:42Z</time>
      </trkpt>
      <trkpt lat="46.16821" lon="6.54462">
        <ele>1649.874</ele>
        <time>2026-02-02T09:24:47Z</time>
      </trkpt>
      <trkpt lat="46.16821" lon="6.54462">
        <ele>1649.871</ele>
        <time>2026-02-02T09:24:52Z</time>
      </trkpt>
      <trkpt lat="46.16821" lon="6.54462">
        <ele>1649.87</ele>
        <time>2026-02-02T09:24:57Z</time>
      </trkpt>
      <trkpt lat="46.16821" lon="6.54462">
        <ele>1649.87</ele>
        <time>2026-02-02T09:25:02Z</time>
      </trkpt>
      <trkpt lat="46.16821" lon="6.54462">
        <ele>1649.869</ele>
        <time>2026-02-02T09:25:07Z</time>
      </trkpt>
      <trkpt lat="46.16821" lon="6.54462">
        <ele>1649.872</ele>
        <time>2026-02-02T09:25:12Z</time>
      </trkpt>
      <trkpt lat="46.16821" lon="6.54462">
        <ele>1649.874</ele>
        <time>2026-02-02T09:25:17Z</time>
      </trkpt>
      <trkpt lat="46.16821" lon="6.54462">
        <ele>1649.875</ele>
        <time>2026-02-02T09:25:22Z</time>
      </trkpt>
      <trkpt lat="46.16821" lon="6.54462">
        <ele>1649.881</ele>
        <time>2026-02-02T09:25:27Z</time>
      </trkpt>
      <trkpt lat="46.16821" lon="6.54462">
        <ele>1649.888</ele>
        <time>2026-02-02T09:25:32Z</time>
      </trkpt>
      <trkpt lat="46.16821" lon="6.54462">
        <ele>1649.886</ele>
        <time>2026-02-02T09:25:37Z</time>
      </trkpt>
      <trkpt lat="46.16821" lon="6.54462">
        <ele>1649.89</ele>
        <time>2026-02-02T09:25:42Z</time>
      </trkpt>
      <trkpt lat="46.16821" lon="6.54462">
        <ele>1649.896</ele>
        <time>2026-02-02T09:25:47Z</time>
      </trkpt>
      <trkpt lat="46.16821" lon="6.54462">
        <ele>1649.875</ele>
        <time>2026-02-02T09:25:52Z</time>
      </trkpt>
      <trkpt lat="46.16821" lon="6.54462">
        <ele>1649.868</ele>
        <time>2026-02-02T09:25:57Z</time>
      </trkpt>
      <trkpt lat="46.16821" lon="6.54462">
        <ele>1649.86</ele>
        <time>2026-02-02T09:26:02Z</time>
      </trkpt>
      <trkpt lat="46.16821" lon="6.54462">
        <ele>1649.858</ele>
        <time>2026-02-02T09:26:07Z</time>
      </trkpt>
      <trkpt lat="46.16821" lon="6.54462">
        <ele>1649.859</ele>
        <time>2026-02-02T09:26:12Z</time>
      </trkpt>
      <trkpt lat="46.16821" lon="6.54462">
        <ele>1649.862</ele>
        <time>2026-02-02T09:26:17Z</time>
      </trkpt>
      <trkpt lat="46.16821" lon="6.54462">
        <ele>1649.859</ele>
        <time>2026-02-02T09:26:22Z</time>
      </trkpt>
      <trkpt lat="46.16821" lon="6.54462">
        <ele>1649.856</ele>
        <time>2026-02-02T09:26:27Z</time>
      </trkpt>
      <trkpt lat="46.16831" lon="6.54454">
        <ele>1649.853</ele>
        <time>2026-02-02T09:26:32Z</time>
      </trkpt>
      <trkpt lat="46.16831" lon="6.54454">
        <ele>1649.852</ele>
        <time>2026-02-02T09:26:37Z</time>
      </trkpt>
      <trkpt lat="46.16831" lon="6.54454">
        <ele>1649.853</ele>
        <time>2026-02-02T09:26:42Z</time>
      </trkpt>
      <trkpt lat="46.16831" lon="6.54454">
        <ele>1649.842</ele>
        <time>2026-02-02T09:26:47Z</time>
      </trkpt>
      <trkpt lat="46.16831" lon="6.54454">
        <ele>1649.836</ele>
        <time>2026-02-02T09:26:52Z</time>
      </trkpt>
      <trkpt lat="46.16831" lon="6.54454">
        <ele>1649.833</ele>
        <time>2026-02-02T09:26:57Z</time>
      </trkpt>
      <trkpt lat="46.16831" lon="6.54454">
        <ele>1649.827</ele>
        <time>2026-02-02T09:27:02Z</time>
      </trkpt>
      <trkpt lat="46.16831" lon="6.54454">
        <ele>1649.821</ele>
        <time>2026-02-02T09:27:07Z</time>
      </trkpt>
      <trkpt lat="46.16831" lon="6.54454">
        <ele>1649.811</ele>
        <time>2026-02-02T09:27:12Z</time>
      </trkpt>
      <trkpt lat="46.16832" lon="6.54453">
        <ele>1649.669</ele>
        <time>2026-02-02T09:27:17Z</time>
      </trkpt>
      <trkpt lat="46.16834" lon="6.54453">
        <ele>1649.841</ele>
        <time>2026-02-02T09:27:22Z</time>
      </trkpt>
      <trkpt lat="46.16835" lon="6.54449">
        <ele>1648.736</ele>
        <time>2026-02-02T09:27:27Z</time>
      </trkpt>
      <trkpt lat="46.16835" lon="6.54449">
        <ele>1647.881</ele>
        <time>2026-02-02T09:27:32Z</time>
      </trkpt>
      <trkpt lat="46.16835" lon="6.54449">
        <ele>1642.828</ele>
        <time>2026-02-02T09:27:37Z</time>
      </trkpt>
      <trkpt lat="46.16835" lon="6.54449">
        <ele>1640.579</ele>
        <time>2026-02-02T09:27:42Z</time>
      </trkpt>
      <trkpt lat="46.16826" lon="6.54437">
        <ele>1642.032</ele>
        <time>2026-02-02T09:27:47Z</time>
      </trkpt>
      <trkpt lat="46.16824" lon="6.54435">
        <ele>1641.587</ele>
        <time>2026-02-02T09:27:52Z</time>
      </trkpt>
      <trkpt lat="46.16819" lon="6.54428">
        <ele>1636.727</ele>
        <time>2026-02-02T09:27:57Z</time>
      </trkpt>
      <trkpt lat="46.16827" lon="6.54413">
        <ele>1631.331</ele>
        <time>2026-02-02T09:28:02Z</time>
      </trkpt>
      <trkpt lat="46.16827" lon="6.54413">
        <ele>1630.651</ele>
        <time>2026-02-02T09:28:07Z</time>
      </trkpt>
      <trkpt lat="46.16827" lon="6.54413">
        <ele>1630.503</ele>
        <time>2026-02-02T09:28:12Z</time>
      </trkpt>
      <trkpt lat="46.16827" lon="6.54413">
        <ele>1630.546</ele>
        <time>2026-02-02T09:28:17Z</time>
      </trkpt>
      <trkpt lat="46.16819" lon="6.5441">
        <ele>1628.417</ele>
        <time>2026-02-02T09:28:22Z</time>
      </trkpt>
      <trkpt lat="46.16822" lon="6.54395">
        <ele>1622.725</ele>
        <time>2026-02-02T09:28:27Z</time>
      </trkpt>
      <trkpt lat="46.16826" lon="6.54374">
        <ele>1614.518</ele>
        <time>2026-02-02T09:28:32Z</time>
      </trkpt>
      <trkpt lat="46.16828" lon="6.54365">
        <ele>1609.537</ele>
        <time>2026-02-02T09:28:37Z</time>
      </trkpt>
      <trkpt lat="46.16828" lon="6.54365">
        <ele>1607.863</ele>
        <time>2026-02-02T09:28:42Z</time>
      </trkpt>
      <trkpt lat="46.16828" lon="6.54365">
        <ele>1606.797</ele>
        <time>2026-02-02T09:28:47Z</time>
      </trkpt>
      <trkpt lat="46.16828" lon="6.54365">
        <ele>1606.693</ele>
        <time>2026-02-02T09:28:52Z</time>
      </trkpt>
      <trkpt lat="46.16828" lon="6.54365">
        <ele>1606.71</ele>
        <time>2026-02-02T09:28:57Z</time>
      </trkpt>
      <trkpt lat="46.16828" lon="6.54365">
        <ele>1606.724</ele>
        <time>2026-02-02T09:29:02Z</time>
      </trkpt>
      <trkpt lat="46.16828" lon="6.54365">
        <ele>1606.716</ele>
        <time>2026-02-02T09:29:07Z</time>
      </trkpt>
      <trkpt lat="46.16828" lon="6.54365">
        <ele>1606.716</ele>
        <time>2026-02-02T09:29:12Z</time>
      </trkpt>
      <trkpt lat="46.16828" lon="6.54365">
        <ele>1606.719</ele>
        <time>2026-02-02T09:29:17Z</time>
      </trkpt>
      <trkpt lat="46.16828" lon="6.54365">
        <ele>1606.819</ele>
        <time>2026-02-02T09:29:22Z</time>
      </trkpt>
      <trkpt lat="46.1683" lon="6.54369">
        <ele>1604.663</ele>
        <time>2026-02-02T09:29:27Z</time>
      </trkpt>
      <trkpt lat="46.16843" lon="6.54371">
        <ele>1602.63</ele>
        <time>2026-02-02T09:29:32Z</time>
      </trkpt>
      <trkpt lat="46.16845" lon="6.54371">
        <ele>1602.197</ele>
        <time>2026-02-02T09:29:37Z</time>
      </trkpt>
      <trkpt lat="46.16846" lon="6.5437">
        <ele>1603.128</ele>
        <time>2026-02-02T09:29:42Z</time>
      </trkpt>
      <trkpt lat="46.16846" lon="6.54369">
        <ele>1602.705</ele>
        <time>2026-02-02T09:29:47Z</time>
      </trkpt>
      <trkpt lat="46.16845" lon="6.54369">
        <ele>1602.598</ele>
        <time>2026-02-02T09:29:52Z</time>
      </trkpt>
      <trkpt lat="46.16845" lon="6.54369">
        <ele>1602.601</ele>
        <time>2026-02-02T09:29:57Z</time>
      </trkpt>
      <trkpt lat="46.16845" lon="6.54369">
        <ele>1602.607</ele>
        <time>2026-02-02T09:30:02Z</time>
      </trkpt>
      <trkpt lat="46.16845" lon="6.54369">
        <ele>1602.595</ele>
        <time>2026-02-02T09:30:07Z</time>
      </trkpt>
      <trkpt lat="46.16845" lon="6.54369">
        <ele>1602.6</ele>
        <time>2026-02-02T09:30:12Z</time>
      </trkpt>
      <trkpt lat="46.16845" lon="6.54369">
        <ele>1602.598</ele>
        <time>2026-02-02T09:30:17Z</time>
      </trkpt>
      <trkpt lat="46.16845" lon="6.54369">
        <ele>1602.612</ele>
        <time>2026-02-02T09:30:22Z</time>
      </trkpt>
      <trkpt lat="46.16845" lon="6.54369">
        <ele>1602.597</ele>
        <time>2026-02-02T09:30:27Z</time>
      </trkpt>
      <trkpt lat="46.16848" lon="6.5437">
        <ele>1601.553</ele>
        <time>2026-02-02T09:30:32Z</time>
      </trkpt>
      <trkpt lat="46.16859" lon="6.54363">
        <ele>1593.87</ele>
        <time>2026-02-02T09:30:37Z</time>
      </trkpt>
      <trkpt lat="46.16871" lon="6.54344">
        <ele>1585.795</ele>
        <time>2026-02-02T09:30:42Z</time>
      </trkpt>
      <trkpt lat="46.16885" lon="6.54325">
        <ele>1576.621</ele>
        <time>2026-02-02T09:30:47Z</time>
      </trkpt>
      <trkpt lat="46.16895" lon="6.54299">
        <ele>1571.075</ele>
        <time>2026-02-02T09:30:52Z</time>
      </trkpt>
      <trkpt lat="46.16905" lon="6.54272">
        <ele>1568.253</ele>
        <time>2026-02-02T09:30:57Z</time>
      </trkpt>
      <trkpt lat="46.16915" lon="6.54254">
        <ele>1566.856</ele>
        <time>2026-02-02T09:31:02Z</time>
      </trkpt>
      <trkpt lat="46.16926" lon="6.54245">
        <ele>1566.321</ele>
        <time>2026-02-02T09:31:07Z</time>
      </trkpt>
      <trkpt lat="46.1693" lon="6.54242">
        <ele>1565.642</ele>
        <time>2026-02-02T09:31:12Z</time>
      </trkpt>
      <trkpt lat="46.1693" lon="6.54242">
        <ele>1566.002</ele>
        <time>2026-02-02T09:31:17Z</time>
      </trkpt>
      <trkpt lat="46.16933" lon="6.54243">
        <ele>1565.2</ele>
        <time>2026-02-02T09:31:22Z</time>
      </trkpt>
      <trkpt lat="46.16944" lon="6.5423">
        <ele>1561.92</ele>
        <time>2026-02-02T09:31:27Z</time>
      </trkpt>
      <trkpt lat="46.16963" lon="6.54214">
        <ele>1558.576</ele>
        <time>2026-02-02T09:31:32Z</time>
      </trkpt>
      <trkpt lat="46.1698" lon="6.54222">
        <ele>1558.309</ele>
        <time>2026-02-02T09:31:37Z</time>
      </trkpt>
      <trkpt lat="46.16981" lon="6.54223">
        <ele>1558.678</ele>
        <time>2026-02-02T09:31:42Z</time>
      </trkpt>
      <trkpt lat="46.1699" lon="6.54228">
        <ele>1556.974</ele>
        <time>2026-02-02T09:31:47Z</time>
      </trkpt>
      <trkpt lat="46.17006" lon="6.54247">
        <ele>1555.476</ele>
        <time>2026-02-02T09:31:52Z</time>
      </trkpt>
      <trkpt lat="46.17024" lon="6.54262">
        <ele>1553.634</ele>
        <time>2026-02-02T09:31:57Z</time>
      </trkpt>
      <trkpt lat="46.1704" lon="6.54264">
        <ele>1553.304</ele>
        <time>2026-02-02T09:32:02Z</time>
      </trkpt>
      <trkpt lat="46.1704" lon="6.54264">
        <ele>1554.448</ele>
        <time>2026-02-02T09:32:07Z</time>
      </trkpt>
      <trkpt lat="46.1704" lon="6.54264">
        <ele>1554.839</ele>
        <time>2026-02-02T09:32:12Z</time>
      </trkpt>
      <trkpt lat="46.1704" lon="6.54264">
        <ele>1555.42</ele>
        <time>2026-02-02T09:32:17Z</time>
      </trkpt>
      <trkpt lat="46.1704" lon="6.54264">
        <ele>1555.4</ele>
        <time>2026-02-02T09:32:22Z</time>
      </trkpt>
      <trkpt lat="46.1704" lon="6.54264">
        <ele>1555.399</ele>
        <time>2026-02-02T09:32:27Z</time>
      </trkpt>
      <trkpt lat="46.1704" lon="6.54264">
        <ele>1555.388</ele>
        <time>2026-02-02T09:32:32Z</time>
      </trkpt>
      <trkpt lat="46.1704" lon="6.54264">
        <ele>1555.381</ele>
        <time>2026-02-02T09:32:37Z</time>
      </trkpt>
      <trkpt lat="46.1704" lon="6.54264">
        <ele>1555.377</ele>
        <time>2026-02-02T09:32:42Z</time>
      </trkpt>
      <trkpt lat="46.1704" lon="6.54264">
        <ele>1555.371</ele>
        <time>2026-02-02T09:32:47Z</time>
      </trkpt>
      <trkpt lat="46.1704" lon="6.54264">
        <ele>1555.428</ele>
        <time>2026-02-02T09:32:52Z</time>
      </trkpt>
      <trkpt lat="46.1704" lon="6.54264">
        <ele>1555.512</ele>
        <time>2026-02-02T09:32:57Z</time>
      </trkpt>
      <trkpt lat="46.1704" lon="6.54264">
        <ele>1555.624</ele>
        <time>2026-02-02T09:33:02Z</time>
      </trkpt>
      <trkpt lat="46.1704" lon="6.54264">
        <ele>1556.025</ele>
        <time>2026-02-02T09:33:07Z</time>
      </trkpt>
      <trkpt lat="46.1704" lon="6.54264">
        <ele>1557.345</ele>
        <time>2026-02-02T09:33:12Z</time>
      </trkpt>
      <trkpt lat="46.1704" lon="6.54264">
        <ele>1557.19</ele>
        <time>2026-02-02T09:33:17Z</time>
      </trkpt>
      <trkpt lat="46.1704" lon="6.54264">
        <ele>1558.244</ele>
        <time>2026-02-02T09:33:22Z</time>
      </trkpt>
      <trkpt lat="46.1704" lon="6.54254">
        <ele>1556.565</ele>
        <time>2026-02-02T09:33:27Z</time>
      </trkpt>
      <trkpt lat="46.17042" lon="6.54235">
        <ele>1554.346</ele>
        <time>2026-02-02T09:33:32Z</time>
      </trkpt>
      <trkpt lat="46.17052" lon="6.54219">
        <ele>1551.343</ele>
        <time>2026-02-02T09:33:37Z</time>
      </trkpt>
      <trkpt lat="46.17069" lon="6.54212">
        <ele>1547.078</ele>
        <time>2026-02-02T09:33:42Z</time>
      </trkpt>
      <trkpt lat="46.17088" lon="6.54202">
        <ele>1543.661</ele>
        <time>2026-02-02T09:33:47Z</time>
      </trkpt>
      <trkpt lat="46.171" lon="6.5419">
        <ele>1541.184</ele>
        <time>2026-02-02T09:33:52Z</time>
      </trkpt>
      <trkpt lat="46.17108" lon="6.54175">
        <ele>1537.882</ele>
        <time>2026-02-02T09:33:57Z</time>
      </trkpt>
      <trkpt lat="46.17112" lon="6.54146">
        <ele>1535.235</ele>
        <time>2026-02-02T09:34:02Z</time>
      </trkpt>
      <trkpt lat="46.17112" lon="6.54125">
        <ele>1534.439</ele>
        <time>2026-02-02T09:34:07Z</time>
      </trkpt>
      <trkpt lat="46.17111" lon="6.54121">
        <ele>1534.214</ele>
        <time>2026-02-02T09:34:12Z</time>
      </trkpt>
      <trkpt lat="46.17111" lon="6.54114">
        <ele>1534.218</ele>
        <time>2026-02-02T09:34:17Z</time>
      </trkpt>
      <trkpt lat="46.17111" lon="6.54106">
        <ele>1534.399</ele>
        <time>2026-02-02T09:34:22Z</time>
      </trkpt>
      <trkpt lat="46.17109" lon="6.54098">
        <ele>1534.801</ele>
        <time>2026-02-02T09:34:27Z</time>
      </trkpt>
      <trkpt lat="46.17109" lon="6.54097">
        <ele>1534.669</ele>
        <time>2026-02-02T09:34:32Z</time>
      </trkpt>
      <trkpt lat="46.17109" lon="6.54097">
        <ele>1534.356</ele>
        <time>2026-02-02T09:34:37Z</time>
      </trkpt>
      <trkpt lat="46.17109" lon="6.54097">
        <ele>1534.371</ele>
        <time>2026-02-02T09:34:42Z</time>
      </trkpt>
      <trkpt lat="46.17109" lon="6.54097">
        <ele>1534.368</ele>
        <time>2026-02-02T09:34:47Z</time>
      </trkpt>
      <trkpt lat="46.17109" lon="6.54097">
        <ele>1534.37</ele>
        <time>2026-02-02T09:34:52Z</time>
      </trkpt>
      <trkpt lat="46.17109" lon="6.54097">
        <ele>1534.372</ele>
        <time>2026-02-02T09:34:57Z</time>
      </trkpt>
      <trkpt lat="46.17109" lon="6.54097">
        <ele>1534.367</ele>
        <time>2026-02-02T09:35:02Z</time>
      </trkpt>
      <trkpt lat="46.17109" lon="6.54097">
        <ele>1534.358</ele>
        <time>2026-02-02T09:35:07Z</time>
      </trkpt>
      <trkpt lat="46.17109" lon="6.54097">
        <ele>1534.355</ele>
        <time>2026-02-02T09:35:12Z</time>
      </trkpt>
      <trkpt lat="46.17108" lon="6.54097">
        <ele>1534.353</ele>
        <time>2026-02-02T09:35:17Z</time>
      </trkpt>
      <trkpt lat="46.17108" lon="6.54097">
        <ele>1534.351</ele>
        <time>2026-02-02T09:35:22Z</time>
      </trkpt>
      <trkpt lat="46.17108" lon="6.54097">
        <ele>1534.348</ele>
        <time>2026-02-02T09:35:27Z</time>
      </trkpt>
      <trkpt lat="46.17108" lon="6.54097">
        <ele>1534.349</ele>
        <time>2026-02-02T09:35:32Z</time>
      </trkpt>
      <trkpt lat="46.17108" lon="6.54097">
        <ele>1534.346</ele>
        <time>2026-02-02T09:35:37Z</time>
      </trkpt>
      <trkpt lat="46.17108" lon="6.54097">
        <ele>1534.345</ele>
        <time>2026-02-02T09:35:42Z</time>
      </trkpt>
      <trkpt lat="46.17108" lon="6.54097">
        <ele>1534.343</ele>
        <time>2026-02-02T09:35:47Z</time>
      </trkpt>
      <trkpt lat="46.17108" lon="6.54097">
        <ele>1534.343</ele>
        <time>2026-02-02T09:35:52Z</time>
      </trkpt>
      <trkpt lat="46.17108" lon="6.54097">
        <ele>1534.338</ele>
        <time>2026-02-02T09:35:57Z</time>
      </trkpt>
      <trkpt lat="46.17108" lon="6.54096">
        <ele>1534.335</ele>
        <time>2026-02-02T09:36:02Z</time>
      </trkpt>
      <trkpt lat="46.17108" lon="6.54096">
        <ele>1534.333</ele>
        <time>2026-02-02T09:36:07Z</time>
      </trkpt>
      <trkpt lat="46.17108" lon="6.54096">
        <ele>1534.331</ele>
        <time>2026-02-02T09:36:12Z</time>
      </trkpt>
      <trkpt lat="46.17108" lon="6.54096">
        <ele>1534.33</ele>
        <time>2026-02-02T09:36:17Z</time>
      </trkpt>
      <trkpt lat="46.17108" lon="6.54096">
        <ele>1534.326</ele>
        <time>2026-02-02T09:36:22Z</time>
      </trkpt>
      <trkpt lat="46.17108" lon="6.54096">
        <ele>1534.322</ele>
        <time>2026-02-02T09:36:27Z</time>
      </trkpt>
      <trkpt lat="46.17108" lon="6.54096">
        <ele>1534.316</ele>
        <time>2026-02-02T09:36:32Z</time>
      </trkpt>
      <trkpt lat="46.17108" lon="6.54096">
        <ele>1534.316</ele>
        <time>2026-02-02T09:36:37Z</time>
      </trkpt>
      <trkpt lat="46.17108" lon="6.54096">
        <ele>1534.314</ele>
        <time>2026-02-02T09:36:42Z</time>
      </trkpt>
      <trkpt lat="46.17108" lon="6.54096">
        <ele>1534.314</ele>
        <time>2026-02-02T09:36:47Z</time>
      </trkpt>
      <trkpt lat="46.17108" lon="6.54096">
        <ele>1534.313</ele>
        <time>2026-02-02T09:36:52Z</time>
      </trkpt>
      <trkpt lat="46.17108" lon="6.54096">
        <ele>1534.309</ele>
        <time>2026-02-02T09:36:57Z</time>
      </trkpt>
      <trkpt lat="46.17108" lon="6.54096">
        <ele>1534.309</ele>
        <time>2026-02-02T09:37:02Z</time>
      </trkpt>
      <trkpt lat="46.17108" lon="6.54096">
        <ele>1534.309</ele>
        <time>2026-02-02T09:37:07Z</time>
      </trkpt>
      <trkpt lat="46.17108" lon="6.54096">
        <ele>1534.31</ele>
        <time>2026-02-02T09:37:12Z</time>
      </trkpt>
      <trkpt lat="46.17108" lon="6.54096">
        <ele>1534.308</ele>
        <time>2026-02-02T09:37:17Z</time>
      </trkpt>
      <trkpt lat="46.17108" lon="6.54096">
        <ele>1534.303</ele>
        <time>2026-02-02T09:37:22Z</time>
      </trkpt>
      <trkpt lat="46.17108" lon="6.54096">
        <ele>1534.298</ele>
        <time>2026-02-02T09:37:27Z</time>
      </trkpt>
      <trkpt lat="46.17108" lon="6.54096">
        <ele>1534.294</ele>
        <time>2026-02-02T09:37:32Z</time>
      </trkpt>
      <trkpt lat="46.17108" lon="6.54096">
        <ele>1534.291</ele>
        <time>2026-02-02T09:37:37Z</time>
      </trkpt>
      <trkpt lat="46.17108" lon="6.54096">
        <ele>1534.288</ele>
        <time>2026-02-02T09:37:42Z</time>
      </trkpt>
      <trkpt lat="46.17108" lon="6.54096">
        <ele>1534.285</ele>
        <time>2026-02-02T09:37:47Z</time>
      </trkpt>
      <trkpt lat="46.17108" lon="6.54096">
        <ele>1534.284</ele>
        <time>2026-02-02T09:37:52Z</time>
      </trkpt>
      <trkpt lat="46.17108" lon="6.54096">
        <ele>1534.283</ele>
        <time>2026-02-02T09:37:57Z</time>
      </trkpt>
      <trkpt lat="46.17108" lon="6.54096">
        <ele>1534.293</ele>
        <time>2026-02-02T09:38:02Z</time>
      </trkpt>
      <trkpt lat="46.17108" lon="6.54096">
        <ele>1534.3</ele>
        <time>2026-02-02T09:38:07Z</time>
      </trkpt>
      <trkpt lat="46.17108" lon="6.54096">
        <ele>1534.308</ele>
        <time>2026-02-02T09:38:12Z</time>
      </trkpt>
      <trkpt lat="46.17108" lon="6.54096">
        <ele>1534.313</ele>
        <time>2026-02-02T09:38:17Z</time>
      </trkpt>
      <trkpt lat="46.17108" lon="6.54096">
        <ele>1536.779</ele>
        <time>2026-02-02T09:38:22Z</time>
      </trkpt>
      <trkpt lat="46.17108" lon="6.54096">
        <ele>1537.426</ele>
        <time>2026-02-02T09:38:27Z</time>
      </trkpt>
      <trkpt lat="46.17108" lon="6.54096">
        <ele>1536.561</ele>
        <time>2026-02-02T09:38:32Z</time>
      </trkpt>
      <trkpt lat="46.17108" lon="6.54096">
        <ele>1536.606</ele>
        <time>2026-02-02T09:38:37Z</time>
      </trkpt>
      <trkpt lat="46.17108" lon="6.54096">
        <ele>1536.606</ele>
        <time>2026-02-02T09:38:42Z</time>
      </trkpt>
      <trkpt lat="46.17108" lon="6.54096">
        <ele>1536.633</ele>
        <time>2026-02-02T09:38:47Z</time>
      </trkpt>
      <trkpt lat="46.17108" lon="6.54096">
        <ele>1536.64</ele>
        <time>2026-02-02T09:38:52Z</time>
      </trkpt>
      <trkpt lat="46.17108" lon="6.54096">
        <ele>1536.663</ele>
        <time>2026-02-02T09:38:57Z</time>
      </trkpt>
      <trkpt lat="46.17108" lon="6.54096">
        <ele>1536.682</ele>
        <time>2026-02-02T09:39:02Z</time>
      </trkpt>
      <trkpt lat="46.17108" lon="6.54096">
        <ele>1536.693</ele>
        <time>2026-02-02T09:39:07Z</time>
      </trkpt>
      <trkpt lat="46.17108" lon="6.54096">
        <ele>1536.707</ele>
        <time>2026-02-02T09:39:12Z</time>
      </trkpt>
      <trkpt lat="46.17108" lon="6.54096">
        <ele>1536.719</ele>
        <time>2026-02-02T09:39:17Z</time>
      </trkpt>
      <trkpt lat="46.17108" lon="6.54096">
        <ele>1536.735</ele>
        <time>2026-02-02T09:39:22Z</time>
      </trkpt>
      <trkpt lat="46.17108" lon="6.54096">
        <ele>1536.757</ele>
        <time>2026-02-02T09:39:27Z</time>
      </trkpt>
      <trkpt lat="46.17108" lon="6.54096">
        <ele>1536.763</ele>
        <time>2026-02-02T09:39:32Z</time>
      </trkpt>
      <trkpt lat="46.17108" lon="6.54096">
        <ele>1536.783</ele>
        <time>2026-02-02T09:39:37Z</time>
      </trkpt>
      <trkpt lat="46.17108" lon="6.54096">
        <ele>1536.793</ele>
        <time>2026-02-02T09:39:42Z</time>
      </trkpt>
      <trkpt lat="46.17108" lon="6.54096">
        <ele>1536.783</ele>
        <time>2026-02-02T09:39:47Z</time>
      </trkpt>
      <trkpt lat="46.17108" lon="6.54096">
        <ele>1536.78</ele>
        <time>2026-02-02T09:39:52Z</time>
      </trkpt>
      <trkpt lat="46.17108" lon="6.54096">
        <ele>1536.782</ele>
        <time>2026-02-02T09:39:57Z</time>
      </trkpt>
      <trkpt lat="46.17108" lon="6.54096">
        <ele>1536.795</ele>
        <time>2026-02-02T09:40:02Z</time>
      </trkpt>
      <trkpt lat="46.17108" lon="6.54096">
        <ele>1536.809</ele>
        <time>2026-02-02T09:40:07Z</time>
      </trkpt>
      <trkpt lat="46.17108" lon="6.54096">
        <ele>1536.822</ele>
        <time>2026-02-02T09:40:12Z</time>
      </trkpt>
      <trkpt lat="46.17108" lon="6.54096">
        <ele>1536.834</ele>
        <time>2026-02-02T09:40:17Z</time>
      </trkpt>
      <trkpt lat="46.17108" lon="6.54096">
        <ele>1536.838</ele>
        <time>2026-02-02T09:40:22Z</time>
      </trkpt>
      <trkpt lat="46.17108" lon="6.54096">
        <ele>1536.84</ele>
        <time>2026-02-02T09:40:27Z</time>
      </trkpt>
      <trkpt lat="46.17108" lon="6.54096">
        <ele>1536.843</ele>
        <time>2026-02-02T09:40:32Z</time>
      </trkpt>
      <trkpt lat="46.17108" lon="6.54096">
        <ele>1536.851</ele>
        <time>2026-02-02T09:40:37Z</time>
      </trkpt>
      <trkpt lat="46.17108" lon="6.54096">
        <ele>1536.859</ele>
        <time>2026-02-02T09:40:42Z</time>
      </trkpt>
      <trkpt lat="46.17108" lon="6.54096">
        <ele>1536.86</ele>
        <time>2026-02-02T09:40:47Z</time>
      </trkpt>
      <trkpt lat="46.17108" lon="6.54096">
        <ele>1536.861</ele>
        <time>2026-02-02T09:40:52Z</time>
      </trkpt>
      <trkpt lat="46.17108" lon="6.54096">
        <ele>1536.868</ele>
        <time>2026-02-02T09:40:57Z</time>
      </trkpt>
      <trkpt lat="46.17108" lon="6.54096">
        <ele>1536.88</ele>
        <time>2026-02-02T09:41:02Z</time>
      </trkpt>
      <trkpt lat="46.17108" lon="6.54096">
        <ele>1536.9</ele>
        <time>2026-02-02T09:41:07Z</time>
      </trkpt>
      <trkpt lat="46.17108" lon="6.54096">
        <ele>1536.926</ele>
        <time>2026-02-02T09:41:12Z</time>
      </trkpt>
      <trkpt lat="46.17108" lon="6.54096">
        <ele>1536.92</ele>
        <time>2026-02-02T09:41:17Z</time>
      </trkpt>
      <trkpt lat="46.17108" lon="6.54096">
        <ele>1536.923</ele>
        <time>2026-02-02T09:41:22Z</time>
      </trkpt>
      <trkpt lat="46.17108" lon="6.54096">
        <ele>1536.929</ele>
        <time>2026-02-02T09:41:27Z</time>
      </trkpt>
      <trkpt lat="46.17108" lon="6.54096">
        <ele>1536.922</ele>
        <time>2026-02-02T09:41:32Z</time>
      </trkpt>
      <trkpt lat="46.17108" lon="6.54096">
        <ele>1536.923</ele>
        <time>2026-02-02T09:41:37Z</time>
      </trkpt>
      <trkpt lat="46.17108" lon="6.54096">
        <ele>1536.916</ele>
        <time>2026-02-02T09:41:42Z</time>
      </trkpt>
      <trkpt lat="46.17108" lon="6.54096">
        <ele>1536.914</ele>
        <time>2026-02-02T09:41:47Z</time>
      </trkpt>
      <trkpt lat="46.17108" lon="6.54096">
        <ele>1536.9</ele>
        <time>2026-02-02T09:41:52Z</time>
      </trkpt>
      <trkpt lat="46.17108" lon="6.54096">
        <ele>1536.893</ele>
        <time>2026-02-02T09:41:57Z</time>
      </trkpt>
      <trkpt lat="46.17108" lon="6.54096">
        <ele>1536.886</ele>
        <time>2026-02-02T09:42:02Z</time>
      </trkpt>
      <trkpt lat="46.17108" lon="6.54096">
        <ele>1536.881</ele>
        <time>2026-02-02T09:42:07Z</time>
      </trkpt>
      <trkpt lat="46.17108" lon="6.54096">
        <ele>1536.883</ele>
        <time>2026-02-02T09:42:12Z</time>
      </trkpt>
      <trkpt lat="46.17108" lon="6.54096">
        <ele>1536.882</ele>
        <time>2026-02-02T09:42:17Z</time>
      </trkpt>
      <trkpt lat="46.17108" lon="6.54096">
        <ele>1536.876</ele>
        <time>2026-02-02T09:42:22Z</time>
      </trkpt>
      <trkpt lat="46.17108" lon="6.54096">
        <ele>1536.874</ele>
        <time>2026-02-02T09:42:27Z</time>
      </trkpt>
      <trkpt lat="46.17108" lon="6.54096">
        <ele>1536.864</ele>
        <time>2026-02-02T09:42:32Z</time>
      </trkpt>
      <trkpt lat="46.17108" lon="6.54096">
        <ele>1536.402</ele>
        <time>2026-02-02T09:42:37Z</time>
      </trkpt>
      <trkpt lat="46.17108" lon="6.54096">
        <ele>1538.316</ele>
        <time>2026-02-02T09:42:42Z</time>
      </trkpt>
      <trkpt lat="46.17108" lon="6.54096">
        <ele>1538.392</ele>
        <time>2026-02-02T09:42:47Z</time>
      </trkpt>
      <trkpt lat="46.17108" lon="6.54096">
        <ele>1538.403</ele>
        <time>2026-02-02T09:42:52Z</time>
      </trkpt>
      <trkpt lat="46.17108" lon="6.54096">
        <ele>1538.393</ele>
        <time>2026-02-02T09:42:57Z</time>
      </trkpt>
      <trkpt lat="46.17108" lon="6.54096">
        <ele>1538.395</ele>
        <time>2026-02-02T09:43:02Z</time>
      </trkpt>
      <trkpt lat="46.17108" lon="6.54096">
        <ele>1536.755</ele>
        <time>2026-02-02T09:43:07Z</time>
      </trkpt>
      <trkpt lat="46.17108" lon="6.54096">
        <ele>1536.092</ele>
        <time>2026-02-02T09:43:12Z</time>
      </trkpt>
      <trkpt lat="46.17108" lon="6.54096">
        <ele>1536.127</ele>
        <time>2026-02-02T09:43:17Z</time>
      </trkpt>
      <trkpt lat="46.17108" lon="6.54096">
        <ele>1536.458</ele>
        <time>2026-02-02T09:43:22Z</time>
      </trkpt>
      <trkpt lat="46.17108" lon="6.54096">
        <ele>1536.438</ele>
        <time>2026-02-02T09:43:27Z</time>
      </trkpt>
      <trkpt lat="46.17108" lon="6.54096">
        <ele>1536.44</ele>
        <time>2026-02-02T09:43:32Z</time>
      </trkpt>
      <trkpt lat="46.17108" lon="6.54096">
        <ele>1536.591</ele>
        <time>2026-02-02T09:43:37Z</time>
      </trkpt>
      <trkpt lat="46.17108" lon="6.54096">
        <ele>1536.667</ele>
        <time>2026-02-02T09:43:42Z</time>
      </trkpt>
      <trkpt lat="46.17108" lon="6.54096">
        <ele>1536.759</ele>
        <time>2026-02-02T09:43:47Z</time>
      </trkpt>
      <trkpt lat="46.17108" lon="6.54096">
        <ele>1536.814</ele>
        <time>2026-02-02T09:43:52Z</time>
      </trkpt>
      <trkpt lat="46.17108" lon="6.54096">
        <ele>1536.821</ele>
        <time>2026-02-02T09:43:57Z</time>
      </trkpt>
      <trkpt lat="46.17108" lon="6.54096">
        <ele>1536.08</ele>
        <time>2026-02-02T09:44:02Z</time>
      </trkpt>
      <trkpt lat="46.17108" lon="6.54096">
        <ele>1535.266</ele>
        <time>2026-02-02T09:44:07Z</time>
      </trkpt>
      <trkpt lat="46.17108" lon="6.54096">
        <ele>1535.374</ele>
        <time>2026-02-02T09:44:12Z</time>
      </trkpt>
      <trkpt lat="46.17108" lon="6.54096">
        <ele>1534.995</ele>
        <time>2026-02-02T09:44:17Z</time>
      </trkpt>
      <trkpt lat="46.17108" lon="6.54096">
        <ele>1535.828</ele>
        <time>2026-02-02T09:44:22Z</time>
      </trkpt>
      <trkpt lat="46.17108" lon="6.54096">
        <ele>1535.942</ele>
        <time>2026-02-02T09:44:27Z</time>
      </trkpt>
      <trkpt lat="46.17108" lon="6.54096">
        <ele>1535.954</ele>
        <time>2026-02-02T09:44:32Z</time>
      </trkpt>
      <trkpt lat="46.17108" lon="6.54096">
        <ele>1535.873</ele>
        <time>2026-02-02T09:44:37Z</time>
      </trkpt>
      <trkpt lat="46.17108" lon="6.54096">
        <ele>1535.403</ele>
        <time>2026-02-02T09:44:42Z</time>
      </trkpt>
      <trkpt lat="46.17108" lon="6.54096">
        <ele>1535.518</ele>
        <time>2026-02-02T09:44:47Z</time>
      </trkpt>
      <trkpt lat="46.17108" lon="6.54096">
        <ele>1534.981</ele>
        <time>2026-02-02T09:44:52Z</time>
      </trkpt>
      <trkpt lat="46.17108" lon="6.54096">
        <ele>1534.596</ele>
        <time>2026-02-02T09:44:57Z</time>
      </trkpt>
      <trkpt lat="46.17108" lon="6.54096">
        <ele>1535.155</ele>
        <time>2026-02-02T09:45:02Z</time>
      </trkpt>
      <trkpt lat="46.17108" lon="6.54096">
        <ele>1534.98</ele>
        <time>2026-02-02T09:45:07Z</time>
      </trkpt>
      <trkpt lat="46.17108" lon="6.54096">
        <ele>1535.104</ele>
        <time>2026-02-02T09:45:12Z</time>
      </trkpt>
      <trkpt lat="46.17108" lon="6.54096">
        <ele>1535.157</ele>
        <time>2026-02-02T09:45:17Z</time>
      </trkpt>
      <trkpt lat="46.17108" lon="6.54096">
        <ele>1535.168</ele>
        <time>2026-02-02T09:45:22Z</time>
      </trkpt>
      <trkpt lat="46.17108" lon="6.54096">
        <ele>1535.175</ele>
        <time>2026-02-02T09:45:27Z</time>
      </trkpt>
      <trkpt lat="46.17108" lon="6.54096">
        <ele>1535.176</ele>
        <time>2026-02-02T09:45:32Z</time>
      </trkpt>
      <trkpt lat="46.17108" lon="6.54096">
        <ele>1535.124</ele>
        <time>2026-02-02T09:45:37Z</time>
      </trkpt>
      <trkpt lat="46.17108" lon="6.54096">
        <ele>1535.151</ele>
        <time>2026-02-02T09:45:42Z</time>
      </trkpt>
      <trkpt lat="46.17108" lon="6.54096">
        <ele>1535.167</ele>
        <time>2026-02-02T09:45:47Z</time>
      </trkpt>
      <trkpt lat="46.17108" lon="6.54096">
        <ele>1535.183</ele>
        <time>2026-02-02T09:45:52Z</time>
      </trkpt>
      <trkpt lat="46.17108" lon="6.54096">
        <ele>1535.178</ele>
        <time>2026-02-02T09:45:57Z</time>
      </trkpt>
      <trkpt lat="46.17108" lon="6.54096">
        <ele>1535.178</ele>
        <time>2026-02-02T09:46:02Z</time>
      </trkpt>
      <trkpt lat="46.17108" lon="6.54096">
        <ele>1535.172</ele>
        <time>2026-02-02T09:46:07Z</time>
      </trkpt>
      <trkpt lat="46.17108" lon="6.54096">
        <ele>1535.169</ele>
        <time>2026-02-02T09:46:12Z</time>
      </trkpt>
      <trkpt lat="46.17108" lon="6.54096">
        <ele>1535.171</ele>
        <time>2026-02-02T09:46:17Z</time>
      </trkpt>
      <trkpt lat="46.17108" lon="6.54096">
        <ele>1535.17</ele>
        <time>2026-02-02T09:46:22Z</time>
      </trkpt>
      <trkpt lat="46.17108" lon="6.54096">
        <ele>1535.164</ele>
        <time>2026-02-02T09:46:27Z</time>
      </trkpt>
      <trkpt lat="46.17108" lon="6.54096">
        <ele>1535.168</ele>
        <time>2026-02-02T09:46:32Z</time>
      </trkpt>
      <trkpt lat="46.17108" lon="6.54096">
        <ele>1535.158</ele>
        <time>2026-02-02T09:46:37Z</time>
      </trkpt>
      <trkpt lat="46.17108" lon="6.54096">
        <ele>1535.149</ele>
        <time>2026-02-02T09:46:42Z</time>
      </trkpt>
      <trkpt lat="46.17108" lon="6.54096">
        <ele>1535.145</ele>
        <time>2026-02-02T09:46:47Z</time>
      </trkpt>
      <trkpt lat="46.17108" lon="6.54096">
        <ele>1535.145</ele>
        <time>2026-02-02T09:46:52Z</time>
      </trkpt>
      <trkpt lat="46.17108" lon="6.54096">
        <ele>1535.136</ele>
        <time>2026-02-02T09:46:57Z</time>
      </trkpt>
      <trkpt lat="46.17108" lon="6.54096">
        <ele>1535.127</ele>
        <time>2026-02-02T09:47:02Z</time>
      </trkpt>
      <trkpt lat="46.17108" lon="6.54096">
        <ele>1535.125</ele>
        <time>2026-02-02T09:47:07Z</time>
      </trkpt>
      <trkpt lat="46.17108" lon="6.54096">
        <ele>1535.122</ele>
        <time>2026-02-02T09:47:12Z</time>
      </trkpt>
      <trkpt lat="46.17108" lon="6.54096">
        <ele>1535.058</ele>
        <time>2026-02-02T09:47:17Z</time>
      </trkpt>
      <trkpt lat="46.17108" lon="6.54096">
        <ele>1535.082</ele>
        <time>2026-02-02T09:47:22Z</time>
      </trkpt>
      <trkpt lat="46.17108" lon="6.54096">
        <ele>1535.107</ele>
        <time>2026-02-02T09:47:27Z</time>
      </trkpt>
      <trkpt lat="46.17108" lon="6.54096">
        <ele>1535.135</ele>
        <time>2026-02-02T09:47:32Z</time>
      </trkpt>
      <trkpt lat="46.17108" lon="6.54096">
        <ele>1535.148</ele>
        <time>2026-02-02T09:47:37Z</time>
      </trkpt>
      <trkpt lat="46.17108" lon="6.54096">
        <ele>1535.15</ele>
        <time>2026-02-02T09:47:42Z</time>
      </trkpt>
      <trkpt lat="46.17108" lon="6.54096">
        <ele>1535.15</ele>
        <time>2026-02-02T09:47:47Z</time>
      </trkpt>
      <trkpt lat="46.17108" lon="6.54096">
        <ele>1535.152</ele>
        <time>2026-02-02T09:47:52Z</time>
      </trkpt>
      <trkpt lat="46.17108" lon="6.54096">
        <ele>1535.153</ele>
        <time>2026-02-02T09:47:57Z</time>
      </trkpt>
      <trkpt lat="46.17108" lon="6.54096">
        <ele>1535.148</ele>
        <time>2026-02-02T09:48:02Z</time>
      </trkpt>
      <trkpt lat="46.17108" lon="6.54096">
        <ele>1535.148</ele>
        <time>2026-02-02T09:48:07Z</time>
      </trkpt>
      <trkpt lat="46.17108" lon="6.54096">
        <ele>1535.033</ele>
        <time>2026-02-02T09:48:12Z</time>
      </trkpt>
      <trkpt lat="46.17108" lon="6.54096">
        <ele>1535.086</ele>
        <time>2026-02-02T09:48:17Z</time>
      </trkpt>
      <trkpt lat="46.17108" lon="6.54096">
        <ele>1535.273</ele>
        <time>2026-02-02T09:48:22Z</time>
      </trkpt>
      <trkpt lat="46.17108" lon="6.54096">
        <ele>1535.239</ele>
        <time>2026-02-02T09:48:27Z</time>
      </trkpt>
      <trkpt lat="46.17108" lon="6.54096">
        <ele>1535.262</ele>
        <time>2026-02-02T09:48:32Z</time>
      </trkpt>
      <trkpt lat="46.17108" lon="6.54096">
        <ele>1535.209</ele>
        <time>2026-02-02T09:48:37Z</time>
      </trkpt>
      <trkpt lat="46.17108" lon="6.54096">
        <ele>1535.301</ele>
        <time>2026-02-02T09:48:42Z</time>
      </trkpt>
      <trkpt lat="46.17108" lon="6.54096">
        <ele>1535.329</ele>
        <time>2026-02-02T09:48:47Z</time>
      </trkpt>
      <trkpt lat="46.17108" lon="6.54096">
        <ele>1535.333</ele>
        <time>2026-02-02T09:48:52Z</time>
      </trkpt>
      <trkpt lat="46.17108" lon="6.54096">
        <ele>1535.341</ele>
        <time>2026-02-02T09:48:57Z</time>
      </trkpt>
      <trkpt lat="46.17108" lon="6.54096">
        <ele>1535.357</ele>
        <time>2026-02-02T09:49:02Z</time>
      </trkpt>
      <trkpt lat="46.17108" lon="6.54096">
        <ele>1535.369</ele>
        <time>2026-02-02T09:49:07Z</time>
      </trkpt>
      <trkpt lat="46.17108" lon="6.54096">
        <ele>1535.381</ele>
        <time>2026-02-02T09:49:12Z</time>
      </trkpt>
      <trkpt lat="46.17108" lon="6.54096">
        <ele>1535.401</ele>
        <time>2026-02-02T09:49:17Z</time>
      </trkpt>
      <trkpt lat="46.17108" lon="6.54096">
        <ele>1535.423</ele>
        <time>2026-02-02T09:49:22Z</time>
      </trkpt>
      <trkpt lat="46.17108" lon="6.54096">
        <ele>1535.447</ele>
        <time>2026-02-02T09:49:27Z</time>
      </trkpt>
      <trkpt lat="46.17108" lon="6.54096">
        <ele>1535.465</ele>
        <time>2026-02-02T09:49:32Z</time>
      </trkpt>
      <trkpt lat="46.17108" lon="6.54096">
        <ele>1535.475</ele>
        <time>2026-02-02T09:49:37Z</time>
      </trkpt>
      <trkpt lat="46.17108" lon="6.54096">
        <ele>1535.398</ele>
        <time>2026-02-02T09:49:42Z</time>
      </trkpt>
      <trkpt lat="46.17108" lon="6.54096">
        <ele>1536.302</ele>
        <time>2026-02-02T09:49:47Z</time>
      </trkpt>
      <trkpt lat="46.17108" lon="6.54096">
        <ele>1537.017</ele>
        <time>2026-02-02T09:49:52Z</time>
      </trkpt>
      <trkpt lat="46.17108" lon="6.54096">
        <ele>1536.717</ele>
        <time>2026-02-02T09:49:57Z</time>
      </trkpt>
      <trkpt lat="46.17108" lon="6.54096">
        <ele>1536.709</ele>
        <time>2026-02-02T09:50:02Z</time>
      </trkpt>
      <trkpt lat="46.17108" lon="6.54096">
        <ele>1536.708</ele>
        <time>2026-02-02T09:50:07Z</time>
      </trkpt>
      <trkpt lat="46.17108" lon="6.54096">
        <ele>1536.698</ele>
        <time>2026-02-02T09:50:12Z</time>
      </trkpt>
      <trkpt lat="46.17108" lon="6.54096">
        <ele>1536.672</ele>
        <time>2026-02-02T09:50:17Z</time>
      </trkpt>
      <trkpt lat="46.17108" lon="6.54096">
        <ele>1536.678</ele>
        <time>2026-02-02T09:50:22Z</time>
      </trkpt>
      <trkpt lat="46.17108" lon="6.54096">
        <ele>1536.686</ele>
        <time>2026-02-02T09:50:27Z</time>
      </trkpt>
      <trkpt lat="46.17108" lon="6.54096">
        <ele>1536.686</ele>
        <time>2026-02-02T09:50:32Z</time>
      </trkpt>
      <trkpt lat="46.17108" lon="6.54096">
        <ele>1536.691</ele>
        <time>2026-02-02T09:50:37Z</time>
      </trkpt>
      <trkpt lat="46.17108" lon="6.54096">
        <ele>1536.694</ele>
        <time>2026-02-02T09:50:42Z</time>
      </trkpt>
      <trkpt lat="46.17108" lon="6.54096">
        <ele>1536.697</ele>
        <time>2026-02-02T09:50:47Z</time>
      </trkpt>
      <trkpt lat="46.17108" lon="6.54096">
        <ele>1535.723</ele>
        <time>2026-02-02T09:50:52Z</time>
      </trkpt>
      <trkpt lat="46.17108" lon="6.54096">
        <ele>1534.75</ele>
        <time>2026-02-02T09:50:57Z</time>
      </trkpt>
      <trkpt lat="46.17108" lon="6.54096">
        <ele>1534.115</ele>
        <time>2026-02-02T09:51:02Z</time>
      </trkpt>
      <trkpt lat="46.17108" lon="6.54096">
        <ele>1534.119</ele>
        <time>2026-02-02T09:51:07Z</time>
      </trkpt>
      <trkpt lat="46.17108" lon="6.54096">
        <ele>1534.114</ele>
        <time>2026-02-02T09:51:12Z</time>
      </trkpt>
      <trkpt lat="46.17108" lon="6.54096">
        <ele>1534.112</ele>
        <time>2026-02-02T09:51:17Z</time>
      </trkpt>
      <trkpt lat="46.17108" lon="6.54096">
        <ele>1534.116</ele>
        <time>2026-02-02T09:51:22Z</time>
      </trkpt>
      <trkpt lat="46.17108" lon="6.54096">
        <ele>1534.113</ele>
        <time>2026-02-02T09:51:27Z</time>
      </trkpt>
      <trkpt lat="46.17108" lon="6.54096">
        <ele>1534.112</ele>
        <time>2026-02-02T09:51:32Z</time>
      </trkpt>
      <trkpt lat="46.17108" lon="6.54096">
        <ele>1534.138</ele>
        <time>2026-02-02T09:51:37Z</time>
      </trkpt>
      <trkpt lat="46.17108" lon="6.54096">
        <ele>1534.141</ele>
        <time>2026-02-02T09:51:42Z</time>
      </trkpt>
      <trkpt lat="46.17108" lon="6.54096">
        <ele>1534.142</ele>
        <time>2026-02-02T09:51:47Z</time>
      </trkpt>
      <trkpt lat="46.17108" lon="6.54096">
        <ele>1534.13</ele>
        <time>2026-02-02T09:51:52Z</time>
      </trkpt>
      <trkpt lat="46.17108" lon="6.54096">
        <ele>1534.121</ele>
        <time>2026-02-02T09:51:57Z</time>
      </trkpt>
      <trkpt lat="46.17108" lon="6.54096">
        <ele>1534.113</ele>
        <time>2026-02-02T09:52:02Z</time>
      </trkpt>
      <trkpt lat="46.17108" lon="6.54096">
        <ele>1534.116</ele>
        <time>2026-02-02T09:52:07Z</time>
      </trkpt>
      <trkpt lat="46.17108" lon="6.54096">
        <ele>1534.112</ele>
        <time>2026-02-02T09:52:12Z</time>
      </trkpt>
      <trkpt lat="46.17108" lon="6.54096">
        <ele>1534.102</ele>
        <time>2026-02-02T09:52:17Z</time>
      </trkpt>
      <trkpt lat="46.17108" lon="6.54096">
        <ele>1534.108</ele>
        <time>2026-02-02T09:52:22Z</time>
      </trkpt>
      <trkpt lat="46.17108" lon="6.54096">
        <ele>1534.112</ele>
        <time>2026-02-02T09:52:27Z</time>
      </trkpt>
      <trkpt lat="46.17108" lon="6.54096">
        <ele>1534.114</ele>
        <time>2026-02-02T09:52:32Z</time>
      </trkpt>
      <trkpt lat="46.17108" lon="6.54096">
        <ele>1534.107</ele>
        <time>2026-02-02T09:52:37Z</time>
      </trkpt>
      <trkpt lat="46.17108" lon="6.54096">
        <ele>1534.103</ele>
        <time>2026-02-02T09:52:42Z</time>
      </trkpt>
      <trkpt lat="46.17108" lon="6.54096">
        <ele>1534.105</ele>
        <time>2026-02-02T09:52:47Z</time>
      </trkpt>
      <trkpt lat="46.17108" lon="6.54096">
        <ele>1534.107</ele>
        <time>2026-02-02T09:52:52Z</time>
      </trkpt>
      <trkpt lat="46.17108" lon="6.54096">
        <ele>1534.101</ele>
        <time>2026-02-02T09:52:57Z</time>
      </trkpt>
      <trkpt lat="46.17108" lon="6.54096">
        <ele>1534.094</ele>
        <time>2026-02-02T09:53:02Z</time>
      </trkpt>
      <trkpt lat="46.17108" lon="6.54096">
        <ele>1534.08</ele>
        <time>2026-02-02T09:53:06Z</time>
      </trkpt>
      <trkpt lat="46.17108" lon="6.54096">
        <ele>1534.059</ele>
        <time>2026-02-02T09:53:12Z</time>
      </trkpt>
      <trkpt lat="46.17108" lon="6.54096">
        <ele>1534.06</ele>
        <time>2026-02-02T09:53:17Z</time>
      </trkpt>
      <trkpt lat="46.17108" lon="6.54096">
        <ele>1534.045</ele>
        <time>2026-02-02T09:53:22Z</time>
      </trkpt>
      <trkpt lat="46.17108" lon="6.54096">
        <ele>1534.039</ele>
        <time>2026-02-02T09:53:27Z</time>
      </trkpt>
      <trkpt lat="46.17108" lon="6.54096">
        <ele>1534.038</ele>
        <time>2026-02-02T09:53:32Z</time>
      </trkpt>
      <trkpt lat="46.17108" lon="6.54096">
        <ele>1534.019</ele>
        <time>2026-02-02T09:53:37Z</time>
      </trkpt>
      <trkpt lat="46.17108" lon="6.54096">
        <ele>1534.016</ele>
        <time>2026-02-02T09:53:42Z</time>
      </trkpt>
      <trkpt lat="46.17108" lon="6.54096">
        <ele>1533.996</ele>
        <time>2026-02-02T09:53:47Z</time>
      </trkpt>
      <trkpt lat="46.17108" lon="6.54096">
        <ele>1533.976</ele>
        <time>2026-02-02T09:53:52Z</time>
      </trkpt>
      <trkpt lat="46.17108" lon="6.54096">
        <ele>1533.974</ele>
        <time>2026-02-02T09:53:57Z</time>
      </trkpt>
      <trkpt lat="46.17108" lon="6.54096">
        <ele>1533.974</ele>
        <time>2026-02-02T09:54:02Z</time>
      </trkpt>
      <trkpt lat="46.17108" lon="6.54096">
        <ele>1534.382</ele>
        <time>2026-02-02T09:54:07Z</time>
      </trkpt>
      <trkpt lat="46.17108" lon="6.54096">
        <ele>1534.341</ele>
        <time>2026-02-02T09:54:12Z</time>
      </trkpt>
      <trkpt lat="46.17108" lon="6.54096">
        <ele>1534.714</ele>
        <time>2026-02-02T09:54:17Z</time>
      </trkpt>
      <trkpt lat="46.17108" lon="6.54096">
        <ele>1534.696</ele>
        <time>2026-02-02T09:54:22Z</time>
      </trkpt>
      <trkpt lat="46.17108" lon="6.54096">
        <ele>1534.702</ele>
        <time>2026-02-02T09:54:27Z</time>
      </trkpt>
      <trkpt lat="46.17108" lon="6.54096">
        <ele>1534.697</ele>
        <time>2026-02-02T09:54:32Z</time>
      </trkpt>
      <trkpt lat="46.17108" lon="6.54096">
        <ele>1534.694</ele>
        <time>2026-02-02T09:54:37Z</time>
      </trkpt>
      <trkpt lat="46.17108" lon="6.54096">
        <ele>1534.695</ele>
        <time>2026-02-02T09:54:42Z</time>
      </trkpt>
      <trkpt lat="46.17108" lon="6.54096">
        <ele>1534.694</ele>
        <time>2026-02-02T09:54:47Z</time>
      </trkpt>
      <trkpt lat="46.17108" lon="6.54096">
        <ele>1534.689</ele>
        <time>2026-02-02T09:54:52Z</time>
      </trkpt>
      <trkpt lat="46.17108" lon="6.54096">
        <ele>1534.684</ele>
        <time>2026-02-02T09:54:57Z</time>
      </trkpt>
      <trkpt lat="46.17108" lon="6.54096">
        <ele>1534.678</ele>
        <time>2026-02-02T09:55:02Z</time>
      </trkpt>
      <trkpt lat="46.17108" lon="6.54096">
        <ele>1534.675</ele>
        <time>2026-02-02T09:55:07Z</time>
      </trkpt>
      <trkpt lat="46.17108" lon="6.54096">
        <ele>1534.674</ele>
        <time>2026-02-02T09:55:12Z</time>
      </trkpt>
      <trkpt lat="46.17108" lon="6.54096">
        <ele>1534.672</ele>
        <time>2026-02-02T09:55:17Z</time>
      </trkpt>
      <trkpt lat="46.17108" lon="6.54096">
        <ele>1534.673</ele>
        <time>2026-02-02T09:55:22Z</time>
      </trkpt>
      <trkpt lat="46.17108" lon="6.54096">
        <ele>1534.673</ele>
        <time>2026-02-02T09:55:27Z</time>
      </trkpt>
      <trkpt lat="46.17108" lon="6.54096">
        <ele>1534.674</ele>
        <time>2026-02-02T09:55:32Z</time>
      </trkpt>
      <trkpt lat="46.17108" lon="6.54096">
        <ele>1534.682</ele>
        <time>2026-02-02T09:55:37Z</time>
      </trkpt>
      <trkpt lat="46.17108" lon="6.54096">
        <ele>1534.687</ele>
        <time>2026-02-02T09:55:42Z</time>
      </trkpt>
      <trkpt lat="46.17108" lon="6.54096">
        <ele>1534.687</ele>
        <time>2026-02-02T09:55:47Z</time>
      </trkpt>
      <trkpt lat="46.17108" lon="6.54096">
        <ele>1534.693</ele>
        <time>2026-02-02T09:55:52Z</time>
      </trkpt>
      <trkpt lat="46.17108" lon="6.54096">
        <ele>1534.689</ele>
        <time>2026-02-02T09:55:57Z</time>
      </trkpt>
      <trkpt lat="46.17108" lon="6.54096">
        <ele>1534.697</ele>
        <time>2026-02-02T09:56:02Z</time>
      </trkpt>
      <trkpt lat="46.17108" lon="6.54096">
        <ele>1534.7</ele>
        <time>2026-02-02T09:56:07Z</time>
      </trkpt>
      <trkpt lat="46.17108" lon="6.54096">
        <ele>1534.713</ele>
        <time>2026-02-02T09:56:12Z</time>
      </trkpt>
      <trkpt lat="46.17108" lon="6.54096">
        <ele>1534.72</ele>
        <time>2026-02-02T09:56:17Z</time>
      </trkpt>
      <trkpt lat="46.17108" lon="6.54096">
        <ele>1534.73</ele>
        <time>2026-02-02T09:56:22Z</time>
      </trkpt>
      <trkpt lat="46.17108" lon="6.54096">
        <ele>1534.738</ele>
        <time>2026-02-02T09:56:27Z</time>
      </trkpt>
      <trkpt lat="46.17108" lon="6.54096">
        <ele>1534.744</ele>
        <time>2026-02-02T09:56:32Z</time>
      </trkpt>
      <trkpt lat="46.17108" lon="6.54096">
        <ele>1534.749</ele>
        <time>2026-02-02T09:56:37Z</time>
      </trkpt>
      <trkpt lat="46.17108" lon="6.54096">
        <ele>1534.752</ele>
        <time>2026-02-02T09:56:42Z</time>
      </trkpt>
      <trkpt lat="46.17108" lon="6.54096">
        <ele>1534.753</ele>
        <time>2026-02-02T09:56:47Z</time>
      </trkpt>
      <trkpt lat="46.17108" lon="6.54096">
        <ele>1534.757</ele>
        <time>2026-02-02T09:56:52Z</time>
      </trkpt>
      <trkpt lat="46.17108" lon="6.54096">
        <ele>1534.75</ele>
        <time>2026-02-02T09:56:57Z</time>
      </trkpt>
      <trkpt lat="46.17108" lon="6.54096">
        <ele>1534.75</ele>
        <time>2026-02-02T09:57:02Z</time>
      </trkpt>
      <trkpt lat="46.17108" lon="6.54096">
        <ele>1534.753</ele>
        <time>2026-02-02T09:57:07Z</time>
      </trkpt>
      <trkpt lat="46.17108" lon="6.54096">
        <ele>1534.748</ele>
        <time>2026-02-02T09:57:12Z</time>
      </trkpt>
      <trkpt lat="46.17108" lon="6.54096">
        <ele>1534.747</ele>
        <time>2026-02-02T09:57:17Z</time>
      </trkpt>
      <trkpt lat="46.17108" lon="6.54096">
        <ele>1534.751</ele>
        <time>2026-02-02T09:57:22Z</time>
      </trkpt>
      <trkpt lat="46.17108" lon="6.54096">
        <ele>1537.167</ele>
        <time>2026-02-02T09:57:27Z</time>
      </trkpt>
      <trkpt lat="46.17108" lon="6.54096">
        <ele>1538.132</ele>
        <time>2026-02-02T09:57:32Z</time>
      </trkpt>
      <trkpt lat="46.17108" lon="6.54096">
        <ele>1538.781</ele>
        <time>2026-02-02T09:57:37Z</time>
      </trkpt>
      <trkpt lat="46.17108" lon="6.54096">
        <ele>1538.793</ele>
        <time>2026-02-02T09:57:42Z</time>
      </trkpt>
      <trkpt lat="46.17108" lon="6.54096">
        <ele>1538.611</ele>
        <time>2026-02-02T09:57:47Z</time>
      </trkpt>
      <trkpt lat="46.17108" lon="6.54096">
        <ele>1538.353</ele>
        <time>2026-02-02T09:57:52Z</time>
      </trkpt>
      <trkpt lat="46.17108" lon="6.54096">
        <ele>1538.02</ele>
        <time>2026-02-02T09:57:57Z</time>
      </trkpt>
      <trkpt lat="46.17108" lon="6.54096">
        <ele>1538.056</ele>
        <time>2026-02-02T09:58:02Z</time>
      </trkpt>
      <trkpt lat="46.17108" lon="6.54096">
        <ele>1538.095</ele>
        <time>2026-02-02T09:58:07Z</time>
      </trkpt>
      <trkpt lat="46.17108" lon="6.54096">
        <ele>1538.11</ele>
        <time>2026-02-02T09:58:12Z</time>
      </trkpt>
      <trkpt lat="46.17108" lon="6.54096">
        <ele>1538.112</ele>
        <time>2026-02-02T09:58:17Z</time>
      </trkpt>
      <trkpt lat="46.17108" lon="6.54096">
        <ele>1538.105</ele>
        <time>2026-02-02T09:58:22Z</time>
      </trkpt>
      <trkpt lat="46.17108" lon="6.54096">
        <ele>1538.104</ele>
        <time>2026-02-02T09:58:27Z</time>
      </trkpt>
      <trkpt lat="46.17108" lon="6.54096">
        <ele>1538.104</ele>
        <time>2026-02-02T09:58:32Z</time>
      </trkpt>
      <trkpt lat="46.17108" lon="6.54096">
        <ele>1538.104</ele>
        <time>2026-02-02T09:58:37Z</time>
      </trkpt>
      <trkpt lat="46.17108" lon="6.54096">
        <ele>1538.768</ele>
        <time>2026-02-02T09:58:42Z</time>
      </trkpt>
      <trkpt lat="46.17108" lon="6.54096">
        <ele>1538.944</ele>
        <time>2026-02-02T09:58:47Z</time>
      </trkpt>
      <trkpt lat="46.17108" lon="6.54096">
        <ele>1539.353</ele>
        <time>2026-02-02T09:58:52Z</time>
      </trkpt>
      <trkpt lat="46.17108" lon="6.54096">
        <ele>1539.24</ele>
        <time>2026-02-02T09:58:57Z</time>
      </trkpt>
      <trkpt lat="46.17108" lon="6.54096">
        <ele>1539.234</ele>
        <time>2026-02-02T09:59:02Z</time>
      </trkpt>
      <trkpt lat="46.17108" lon="6.54096">
        <ele>1539.233</ele>
        <time>2026-02-02T09:59:07Z</time>
      </trkpt>
      <trkpt lat="46.17108" lon="6.54096">
        <ele>1539.239</ele>
        <time>2026-02-02T09:59:12Z</time>
      </trkpt>
      <trkpt lat="46.17108" lon="6.54096">
        <ele>1539.243</ele>
        <time>2026-02-02T09:59:17Z</time>
      </trkpt>
      <trkpt lat="46.17108" lon="6.54096">
        <ele>1539.25</ele>
        <time>2026-02-02T09:59:22Z</time>
      </trkpt>
      <trkpt lat="46.17108" lon="6.54096">
        <ele>1539.262</ele>
        <time>2026-02-02T09:59:27Z</time>
      </trkpt>
      <trkpt lat="46.17108" lon="6.54096">
        <ele>1539.282</ele>
        <time>2026-02-02T09:59:32Z</time>
      </trkpt>
      <trkpt lat="46.17108" lon="6.54096">
        <ele>1539.292</ele>
        <time>2026-02-02T09:59:37Z</time>
      </trkpt>
      <trkpt lat="46.17108" lon="6.54096">
        <ele>1539.312</ele>
        <time>2026-02-02T09:59:42Z</time>
      </trkpt>
      <trkpt lat="46.17108" lon="6.54096">
        <ele>1539.321</ele>
        <time>2026-02-02T09:59:47Z</time>
      </trkpt>
      <trkpt lat="46.17108" lon="6.54096">
        <ele>1539.321</ele>
        <time>2026-02-02T09:59:52Z</time>
      </trkpt>
      <trkpt lat="46.17108" lon="6.54096">
        <ele>1539.324</ele>
        <time>2026-02-02T09:59:57Z</time>
      </trkpt>
      <trkpt lat="46.17108" lon="6.54096">
        <ele>1539.324</ele>
        <time>2026-02-02T10:00:02Z</time>
      </trkpt>
      <trkpt lat="46.17108" lon="6.54096">
        <ele>1539.325</ele>
        <time>2026-02-02T10:00:07Z</time>
      </trkpt>
      <trkpt lat="46.17108" lon="6.54096">
        <ele>1539.325</ele>
        <time>2026-02-02T10:00:12Z</time>
      </trkpt>
      <trkpt lat="46.17108" lon="6.54096">
        <ele>1539.33</ele>
        <time>2026-02-02T10:00:17Z</time>
      </trkpt>
      <trkpt lat="46.17108" lon="6.54096">
        <ele>1539.333</ele>
        <time>2026-02-02T10:00:22Z</time>
      </trkpt>
      <trkpt lat="46.17108" lon="6.54096">
        <ele>1539.333</ele>
        <time>2026-02-02T10:00:27Z</time>
      </trkpt>
      <trkpt lat="46.17108" lon="6.54096">
        <ele>1539.332</ele>
        <time>2026-02-02T10:00:32Z</time>
      </trkpt>
      <trkpt lat="46.17108" lon="6.54096">
        <ele>1539.329</ele>
        <time>2026-02-02T10:00:37Z</time>
      </trkpt>
      <trkpt lat="46.17108" lon="6.54096">
        <ele>1539.327</ele>
        <time>2026-02-02T10:00:42Z</time>
      </trkpt>
      <trkpt lat="46.17108" lon="6.54096">
        <ele>1539.326</ele>
        <time>2026-02-02T10:00:47Z</time>
      </trkpt>
      <trkpt lat="46.17108" lon="6.54096">
        <ele>1539.326</ele>
        <time>2026-02-02T10:00:52Z</time>
      </trkpt>
      <trkpt lat="46.17108" lon="6.54096">
        <ele>1539.317</ele>
        <time>2026-02-02T10:00:57Z</time>
      </trkpt>
      <trkpt lat="46.17108" lon="6.54096">
        <ele>1539.313</ele>
        <time>2026-02-02T10:01:02Z</time>
      </trkpt>
      <trkpt lat="46.17108" lon="6.54096">
        <ele>1539.099</ele>
        <time>2026-02-02T10:01:07Z</time>
      </trkpt>
      <trkpt lat="46.17108" lon="6.54096">
        <ele>1539.097</ele>
        <time>2026-02-02T10:01:12Z</time>
      </trkpt>
      <trkpt lat="46.17108" lon="6.54096">
        <ele>1538.963</ele>
        <time>2026-02-02T10:01:17Z</time>
      </trkpt>
      <trkpt lat="46.17108" lon="6.54096">
        <ele>1538.929</ele>
        <time>2026-02-02T10:01:22Z</time>
      </trkpt>
      <trkpt lat="46.17108" lon="6.54096">
        <ele>1538.918</ele>
        <time>2026-02-02T10:01:27Z</time>
      </trkpt>
      <trkpt lat="46.17108" lon="6.54096">
        <ele>1538.917</ele>
        <time>2026-02-02T10:01:32Z</time>
      </trkpt>
      <trkpt lat="46.17108" lon="6.54096">
        <ele>1538.915</ele>
        <time>2026-02-02T10:01:37Z</time>
      </trkpt>
      <trkpt lat="46.17108" lon="6.54096">
        <ele>1538.955</ele>
        <time>2026-02-02T10:01:42Z</time>
      </trkpt>
      <trkpt lat="46.17108" lon="6.54096">
        <ele>1538.959</ele>
        <time>2026-02-02T10:01:47Z</time>
      </trkpt>
      <trkpt lat="46.17108" lon="6.54096">
        <ele>1538.962</ele>
        <time>2026-02-02T10:01:52Z</time>
      </trkpt>
      <trkpt lat="46.17108" lon="6.54096">
        <ele>1538.963</ele>
        <time>2026-02-02T10:01:57Z</time>
      </trkpt>
      <trkpt lat="46.17108" lon="6.54096">
        <ele>1538.965</ele>
        <time>2026-02-02T10:02:02Z</time>
      </trkpt>
      <trkpt lat="46.17108" lon="6.54096">
        <ele>1538.974</ele>
        <time>2026-02-02T10:02:07Z</time>
      </trkpt>
      <trkpt lat="46.17108" lon="6.54096">
        <ele>1538.988</ele>
        <time>2026-02-02T10:02:12Z</time>
      </trkpt>
      <trkpt lat="46.17108" lon="6.54096">
        <ele>1538.996</ele>
        <time>2026-02-02T10:02:17Z</time>
      </trkpt>
      <trkpt lat="46.17108" lon="6.54096">
        <ele>1539.017</ele>
        <time>2026-02-02T10:02:22Z</time>
      </trkpt>
      <trkpt lat="46.17108" lon="6.54096">
        <ele>1539.04</ele>
        <time>2026-02-02T10:02:27Z</time>
      </trkpt>
      <trkpt lat="46.17108" lon="6.54096">
        <ele>1539.057</ele>
        <time>2026-02-02T10:02:32Z</time>
      </trkpt>
      <trkpt lat="46.17108" lon="6.54096">
        <ele>1539.081</ele>
        <time>2026-02-02T10:02:37Z</time>
      </trkpt>
      <trkpt lat="46.17108" lon="6.54096">
        <ele>1539.089</ele>
        <time>2026-02-02T10:02:42Z</time>
      </trkpt>
      <trkpt lat="46.17108" lon="6.54096">
        <ele>1539.101</ele>
        <time>2026-02-02T10:02:47Z</time>
      </trkpt>
      <trkpt lat="46.17108" lon="6.54096">
        <ele>1539.135</ele>
        <time>2026-02-02T10:02:52Z</time>
      </trkpt>
      <trkpt lat="46.17108" lon="6.54096">
        <ele>1539.154</ele>
        <time>2026-02-02T10:02:57Z</time>
      </trkpt>
      <trkpt lat="46.17108" lon="6.54096">
        <ele>1539.168</ele>
        <time>2026-02-02T10:03:02Z</time>
      </trkpt>
      <trkpt lat="46.17108" lon="6.54096">
        <ele>1539.167</ele>
        <time>2026-02-02T10:03:07Z</time>
      </trkpt>
      <trkpt lat="46.17108" lon="6.54096">
        <ele>1539.172</ele>
        <time>2026-02-02T10:03:12Z</time>
      </trkpt>
      <trkpt lat="46.17108" lon="6.54096">
        <ele>1539.18</ele>
        <time>2026-02-02T10:03:17Z</time>
      </trkpt>
      <trkpt lat="46.17108" lon="6.54096">
        <ele>1539.197</ele>
        <time>2026-02-02T10:03:22Z</time>
      </trkpt>
      <trkpt lat="46.17108" lon="6.54096">
        <ele>1539.209</ele>
        <time>2026-02-02T10:03:27Z</time>
      </trkpt>
      <trkpt lat="46.17108" lon="6.54096">
        <ele>1539.226</ele>
        <time>2026-02-02T10:03:32Z</time>
      </trkpt>
      <trkpt lat="46.17108" lon="6.54096">
        <ele>1539.244</ele>
        <time>2026-02-02T10:03:37Z</time>
      </trkpt>
      <trkpt lat="46.17108" lon="6.54096">
        <ele>1539.265</ele>
        <time>2026-02-02T10:03:42Z</time>
      </trkpt>
      <trkpt lat="46.17108" lon="6.54096">
        <ele>1539.282</ele>
        <time>2026-02-02T10:03:47Z</time>
      </trkpt>
      <trkpt lat="46.17108" lon="6.54096">
        <ele>1539.283</ele>
        <time>2026-02-02T10:03:52Z</time>
      </trkpt>
      <trkpt lat="46.17108" lon="6.54096">
        <ele>1539.278</ele>
        <time>2026-02-02T10:03:57Z</time>
      </trkpt>
      <trkpt lat="46.17108" lon="6.54096">
        <ele>1539.283</ele>
        <time>2026-02-02T10:04:02Z</time>
      </trkpt>
      <trkpt lat="46.17108" lon="6.54096">
        <ele>1539.279</ele>
        <time>2026-02-02T10:04:07Z</time>
      </trkpt>
      <trkpt lat="46.17108" lon="6.54096">
        <ele>1539.281</ele>
        <time>2026-02-02T10:04:12Z</time>
      </trkpt>
      <trkpt lat="46.17108" lon="6.54096">
        <ele>1539.284</ele>
        <time>2026-02-02T10:04:17Z</time>
      </trkpt>
      <trkpt lat="46.17108" lon="6.54096">
        <ele>1539.293</ele>
        <time>2026-02-02T10:04:22Z</time>
      </trkpt>
      <trkpt lat="46.17108" lon="6.54096">
        <ele>1539.296</ele>
        <time>2026-02-02T10:04:27Z</time>
      </trkpt>
      <trkpt lat="46.17108" lon="6.54096">
        <ele>1539.297</ele>
        <time>2026-02-02T10:04:32Z</time>
      </trkpt>
      <trkpt lat="46.17108" lon="6.54096">
        <ele>1539.296</ele>
        <time>2026-02-02T10:04:37Z</time>
      </trkpt>
      <trkpt lat="46.17108" lon="6.54096">
        <ele>1539.301</ele>
        <time>2026-02-02T10:04:42Z</time>
      </trkpt>
      <trkpt lat="46.17108" lon="6.54096">
        <ele>1539.307</ele>
        <time>2026-02-02T10:04:47Z</time>
      </trkpt>
      <trkpt lat="46.17108" lon="6.54096">
        <ele>1539.316</ele>
        <time>2026-02-02T10:04:52Z</time>
      </trkpt>
      <trkpt lat="46.17108" lon="6.54096">
        <ele>1539.321</ele>
        <time>2026-02-02T10:04:57Z</time>
      </trkpt>
      <trkpt lat="46.17108" lon="6.54096">
        <ele>1539.327</ele>
        <time>2026-02-02T10:05:02Z</time>
      </trkpt>
      <trkpt lat="46.17108" lon="6.54096">
        <ele>1539.326</ele>
        <time>2026-02-02T10:05:07Z</time>
      </trkpt>
      <trkpt lat="46.17108" lon="6.54096">
        <ele>1539.328</ele>
        <time>2026-02-02T10:05:12Z</time>
      </trkpt>
      <trkpt lat="46.17108" lon="6.54096">
        <ele>1539.33</ele>
        <time>2026-02-02T10:05:17Z</time>
      </trkpt>
      <trkpt lat="46.17108" lon="6.54096">
        <ele>1539.322</ele>
        <time>2026-02-02T10:05:22Z</time>
      </trkpt>
      <trkpt lat="46.17108" lon="6.54096">
        <ele>1539.328</ele>
        <time>2026-02-02T10:05:27Z</time>
      </trkpt>
      <trkpt lat="46.17108" lon="6.54096">
        <ele>1539.325</ele>
        <time>2026-02-02T10:05:32Z</time>
      </trkpt>
      <trkpt lat="46.17108" lon="6.54096">
        <ele>1539.331</ele>
        <time>2026-02-02T10:05:37Z</time>
      </trkpt>
      <trkpt lat="46.17108" lon="6.54096">
        <ele>1539.328</ele>
        <time>2026-02-02T10:05:42Z</time>
      </trkpt>
      <trkpt lat="46.17108" lon="6.54096">
        <ele>1539.335</ele>
        <time>2026-02-02T10:05:47Z</time>
      </trkpt>
      <trkpt lat="46.17108" lon="6.54096">
        <ele>1539.34</ele>
        <time>2026-02-02T10:05:52Z</time>
      </trkpt>
      <trkpt lat="46.17108" lon="6.54096">
        <ele>1539.344</ele>
        <time>2026-02-02T10:05:57Z</time>
      </trkpt>
      <trkpt lat="46.17108" lon="6.54096">
        <ele>1539.347</ele>
        <time>2026-02-02T10:06:02Z</time>
      </trkpt>
      <trkpt lat="46.17108" lon="6.54096">
        <ele>1539.357</ele>
        <time>2026-02-02T10:06:07Z</time>
      </trkpt>
      <trkpt lat="46.17108" lon="6.54096">
        <ele>1539.369</ele>
        <time>2026-02-02T10:06:12Z</time>
      </trkpt>
      <trkpt lat="46.17108" lon="6.54096">
        <ele>1539.365</ele>
        <time>2026-02-02T10:06:17Z</time>
      </trkpt>
      <trkpt lat="46.17108" lon="6.54096">
        <ele>1539.366</ele>
        <time>2026-02-02T10:06:22Z</time>
      </trkpt>
      <trkpt lat="46.17108" lon="6.54096">
        <ele>1539.365</ele>
        <time>2026-02-02T10:06:27Z</time>
      </trkpt>
      <trkpt lat="46.17108" lon="6.54096">
        <ele>1539.364</ele>
        <time>2026-02-02T10:06:32Z</time>
      </trkpt>
      <trkpt lat="46.17108" lon="6.54096">
        <ele>1539.373</ele>
        <time>2026-02-02T10:06:37Z</time>
      </trkpt>
      <trkpt lat="46.17108" lon="6.54096">
        <ele>1539.38</ele>
        <time>2026-02-02T10:06:42Z</time>
      </trkpt>
      <trkpt lat="46.17108" lon="6.54096">
        <ele>1539.383</ele>
        <time>2026-02-02T10:06:47Z</time>
      </trkpt>
      <trkpt lat="46.17108" lon="6.54096">
        <ele>1539.384</ele>
        <time>2026-02-02T10:06:52Z</time>
      </trkpt>
      <trkpt lat="46.17108" lon="6.54096">
        <ele>1539.39</ele>
        <time>2026-02-02T10:06:57Z</time>
      </trkpt>
      <trkpt lat="46.17108" lon="6.54096">
        <ele>1539.401</ele>
        <time>2026-02-02T10:07:02Z</time>
      </trkpt>
      <trkpt lat="46.17108" lon="6.54096">
        <ele>1539.411</ele>
        <time>2026-02-02T10:07:07Z</time>
      </trkpt>
      <trkpt lat="46.17108" lon="6.54096">
        <ele>1539.419</ele>
        <time>2026-02-02T10:07:12Z</time>
      </trkpt>
      <trkpt lat="46.17108" lon="6.54096">
        <ele>1539.424</ele>
        <time>2026-02-02T10:07:17Z</time>
      </trkpt>
      <trkpt lat="46.17108" lon="6.54096">
        <ele>1539.435</ele>
        <time>2026-02-02T10:07:22Z</time>
      </trkpt>
      <trkpt lat="46.17108" lon="6.54096">
        <ele>1539.445</ele>
        <time>2026-02-02T10:07:27Z</time>
      </trkpt>
      <trkpt lat="46.17108" lon="6.54096">
        <ele>1539.451</ele>
        <time>2026-02-02T10:07:32Z</time>
      </trkpt>
      <trkpt lat="46.17108" lon="6.54096">
        <ele>1539.457</ele>
        <time>2026-02-02T10:07:37Z</time>
      </trkpt>
      <trkpt lat="46.17108" lon="6.54096">
        <ele>1539.453</ele>
        <time>2026-02-02T10:07:42Z</time>
      </trkpt>
      <trkpt lat="46.17108" lon="6.54096">
        <ele>1539.45</ele>
        <time>2026-02-02T10:07:47Z</time>
      </trkpt>
      <trkpt lat="46.17108" lon="6.54096">
        <ele>1539.449</ele>
        <time>2026-02-02T10:07:52Z</time>
      </trkpt>
      <trkpt lat="46.17108" lon="6.54096">
        <ele>1539.45</ele>
        <time>2026-02-02T10:07:57Z</time>
      </trkpt>
      <trkpt lat="46.17108" lon="6.54096">
        <ele>1539.451</ele>
        <time>2026-02-02T10:08:02Z</time>
      </trkpt>
      <trkpt lat="46.17108" lon="6.54096">
        <ele>1539.459</ele>
        <time>2026-02-02T10:08:07Z</time>
      </trkpt>
      <trkpt lat="46.17108" lon="6.54096">
        <ele>1539.471</ele>
        <time>2026-02-02T10:08:12Z</time>
      </trkpt>
      <trkpt lat="46.17108" lon="6.54096">
        <ele>1539.483</ele>
        <time>2026-02-02T10:08:17Z</time>
      </trkpt>
      <trkpt lat="46.17108" lon="6.54096">
        <ele>1539.502</ele>
        <time>2026-02-02T10:08:22Z</time>
      </trkpt>
      <trkpt lat="46.17108" lon="6.54096">
        <ele>1539.511</ele>
        <time>2026-02-02T10:08:27Z</time>
      </trkpt>
      <trkpt lat="46.17108" lon="6.54096">
        <ele>1539.532</ele>
        <time>2026-02-02T10:08:32Z</time>
      </trkpt>
      <trkpt lat="46.17108" lon="6.54096">
        <ele>1539.543</ele>
        <time>2026-02-02T10:08:37Z</time>
      </trkpt>
      <trkpt lat="46.17108" lon="6.54096">
        <ele>1539.983</ele>
        <time>2026-02-02T10:08:42Z</time>
      </trkpt>
      <trkpt lat="46.17108" lon="6.54096">
        <ele>1540.484</ele>
        <time>2026-02-02T10:08:47Z</time>
      </trkpt>
      <trkpt lat="46.17108" lon="6.54096">
        <ele>1540.937</ele>
        <time>2026-02-02T10:08:52Z</time>
      </trkpt>
      <trkpt lat="46.17108" lon="6.54096">
        <ele>1541.275</ele>
        <time>2026-02-02T10:08:57Z</time>
      </trkpt>
      <trkpt lat="46.17109" lon="6.54095">
        <ele>1541.282</ele>
        <time>2026-02-02T10:09:02Z</time>
      </trkpt>
      <trkpt lat="46.17109" lon="6.54095">
        <ele>1541.292</ele>
        <time>2026-02-02T10:09:07Z</time>
      </trkpt>
      <trkpt lat="46.17109" lon="6.54095">
        <ele>1541.296</ele>
        <time>2026-02-02T10:09:12Z</time>
      </trkpt>
      <trkpt lat="46.17109" lon="6.54095">
        <ele>1541.302</ele>
        <time>2026-02-02T10:09:17Z</time>
      </trkpt>
      <trkpt lat="46.17111" lon="6.54096">
        <ele>1541.634</ele>
        <time>2026-02-02T10:09:22Z</time>
      </trkpt>
      <trkpt lat="46.17113" lon="6.54097">
        <ele>1542.136</ele>
        <time>2026-02-02T10:09:27Z</time>
      </trkpt>
      <trkpt lat="46.17116" lon="6.54097">
        <ele>1541.748</ele>
        <time>2026-02-02T10:09:32Z</time>
      </trkpt>
      <trkpt lat="46.17119" lon="6.54097">
        <ele>1540.788</ele>
        <time>2026-02-02T10:09:37Z</time>
      </trkpt>
      <trkpt lat="46.17121" lon="6.54097">
        <ele>1542.115</ele>
        <time>2026-02-02T10:09:42Z</time>
      </trkpt>
      <trkpt lat="46.17121" lon="6.54097">
        <ele>1543.083</ele>
        <time>2026-02-02T10:09:47Z</time>
      </trkpt>
      <trkpt lat="46.17125" lon="6.54097">
        <ele>1544.281</ele>
        <time>2026-02-02T10:09:52Z</time>
      </trkpt>
      <trkpt lat="46.17128" lon="6.54097">
        <ele>1544.138</ele>
        <time>2026-02-02T10:09:57Z</time>
      </trkpt>
      <trkpt lat="46.1713" lon="6.54097">
        <ele>1544.58</ele>
        <time>2026-02-02T10:10:02Z</time>
      </trkpt>
      <trkpt lat="46.17134" lon="6.54096">
        <ele>1544.727</ele>
        <time>2026-02-02T10:10:07Z</time>
      </trkpt>
      <trkpt lat="46.17137" lon="6.54094">
        <ele>1545.063</ele>
        <time>2026-02-02T10:10:12Z</time>
      </trkpt>
      <trkpt lat="46.1714" lon="6.54094">
        <ele>1545.363</ele>
        <time>2026-02-02T10:10:17Z</time>
      </trkpt>
      <trkpt lat="46.17143" lon="6.54093">
        <ele>1546.579</ele>
        <time>2026-02-02T10:10:22Z</time>
      </trkpt>
      <trkpt lat="46.17146" lon="6.5409">
        <ele>1547.948</ele>
        <time>2026-02-02T10:10:27Z</time>
      </trkpt>
      <trkpt lat="46.17148" lon="6.54087">
        <ele>1549.948</ele>
        <time>2026-02-02T10:10:32Z</time>
      </trkpt>
      <trkpt lat="46.1715" lon="6.54084">
        <ele>1550.185</ele>
        <time>2026-02-02T10:10:37Z</time>
      </trkpt>
      <trkpt lat="46.17151" lon="6.54082">
        <ele>1550.716</ele>
        <time>2026-02-02T10:10:42Z</time>
      </trkpt>
      <trkpt lat="46.17152" lon="6.54079">
        <ele>1550.714</ele>
        <time>2026-02-02T10:10:47Z</time>
      </trkpt>
      <trkpt lat="46.17154" lon="6.54076">
        <ele>1550.746</ele>
        <time>2026-02-02T10:10:52Z</time>
      </trkpt>
      <trkpt lat="46.17155" lon="6.54073">
        <ele>1552.15</ele>
        <time>2026-02-02T10:10:57Z</time>
      </trkpt>
      <trkpt lat="46.17157" lon="6.54069">
        <ele>1552.261</ele>
        <time>2026-02-02T10:11:02Z</time>
      </trkpt>
      <trkpt lat="46.17158" lon="6.54066">
        <ele>1553.123</ele>
        <time>2026-02-02T10:11:07Z</time>
      </trkpt>
      <trkpt lat="46.1716" lon="6.54063">
        <ele>1553.651</ele>
        <time>2026-02-02T10:11:12Z</time>
      </trkpt>
      <trkpt lat="46.17162" lon="6.5406">
        <ele>1554.137</ele>
        <time>2026-02-02T10:11:17Z</time>
      </trkpt>
      <trkpt lat="46.17163" lon="6.54057">
        <ele>1555.446</ele>
        <time>2026-02-02T10:11:22Z</time>
      </trkpt>
      <trkpt lat="46.17164" lon="6.54054">
        <ele>1556.785</ele>
        <time>2026-02-02T10:11:27Z</time>
      </trkpt>
      <trkpt lat="46.17166" lon="6.54051">
        <ele>1557.358</ele>
        <time>2026-02-02T10:11:32Z</time>
      </trkpt>
      <trkpt lat="46.17168" lon="6.54048">
        <ele>1557.378</ele>
        <time>2026-02-02T10:11:37Z</time>
      </trkpt>
      <trkpt lat="46.1717" lon="6.54045">
        <ele>1558.4</ele>
        <time>2026-02-02T10:11:42Z</time>
      </trkpt>
      <trkpt lat="46.17172" lon="6.54043">
        <ele>1558.568</ele>
        <time>2026-02-02T10:11:47Z</time>
      </trkpt>
      <trkpt lat="46.17173" lon="6.54041">
        <ele>1559.479</ele>
        <time>2026-02-02T10:11:52Z</time>
      </trkpt>
      <trkpt lat="46.17175" lon="6.54038">
        <ele>1559.984</ele>
        <time>2026-02-02T10:11:57Z</time>
      </trkpt>
      <trkpt lat="46.17177" lon="6.54035">
        <ele>1560.236</ele>
        <time>2026-02-02T10:12:02Z</time>
      </trkpt>
      <trkpt lat="46.17179" lon="6.54033">
        <ele>1561.092</ele>
        <time>2026-02-02T10:12:07Z</time>
      </trkpt>
      <trkpt lat="46.17182" lon="6.5403">
        <ele>1562.448</ele>
        <time>2026-02-02T10:12:12Z</time>
      </trkpt>
      <trkpt lat="46.17184" lon="6.54028">
        <ele>1564.683</ele>
        <time>2026-02-02T10:12:17Z</time>
      </trkpt>
      <trkpt lat="46.17185" lon="6.54025">
        <ele>1564.016</ele>
        <time>2026-02-02T10:12:22Z</time>
      </trkpt>
      <trkpt lat="46.17187" lon="6.54022">
        <ele>1564.593</ele>
        <time>2026-02-02T10:12:27Z</time>
      </trkpt>
      <trkpt lat="46.17188" lon="6.5402">
        <ele>1564.784</ele>
        <time>2026-02-02T10:12:32Z</time>
      </trkpt>
      <trkpt lat="46.1719" lon="6.54017">
        <ele>1565.75</ele>
        <time>2026-02-02T10:12:37Z</time>
      </trkpt>
      <trkpt lat="46.17191" lon="6.54015">
        <ele>1566.074</ele>
        <time>2026-02-02T10:12:42Z</time>
      </trkpt>
      <trkpt lat="46.17192" lon="6.54014">
        <ele>1566.917</ele>
        <time>2026-02-02T10:12:47Z</time>
      </trkpt>
      <trkpt lat="46.17194" lon="6.54012">
        <ele>1567.938</ele>
        <time>2026-02-02T10:12:52Z</time>
      </trkpt>
      <trkpt lat="46.17195" lon="6.5401">
        <ele>1567.459</ele>
        <time>2026-02-02T10:12:57Z</time>
      </trkpt>
      <trkpt lat="46.17197" lon="6.54011">
        <ele>1566.676</ele>
        <time>2026-02-02T10:13:02Z</time>
      </trkpt>
      <trkpt lat="46.17198" lon="6.54013">
        <ele>1566.326</ele>
        <time>2026-02-02T10:13:07Z</time>
      </trkpt>
      <trkpt lat="46.172" lon="6.54016">
        <ele>1564.526</ele>
        <time>2026-02-02T10:13:12Z</time>
      </trkpt>
      <trkpt lat="46.17202" lon="6.54019">
        <ele>1563.647</ele>
        <time>2026-02-02T10:13:17Z</time>
      </trkpt>
      <trkpt lat="46.17203" lon="6.54022">
        <ele>1565.084</ele>
        <time>2026-02-02T10:13:22Z</time>
      </trkpt>
      <trkpt lat="46.17205" lon="6.54024">
        <ele>1565.037</ele>
        <time>2026-02-02T10:13:27Z</time>
      </trkpt>
      <trkpt lat="46.17207" lon="6.54027">
        <ele>1565.326</ele>
        <time>2026-02-02T10:13:32Z</time>
      </trkpt>
      <trkpt lat="46.17208" lon="6.54029">
        <ele>1565.642</ele>
        <time>2026-02-02T10:13:37Z</time>
      </trkpt>
      <trkpt lat="46.1721" lon="6.54031">
        <ele>1564.754</ele>
        <time>2026-02-02T10:13:42Z</time>
      </trkpt>
      <trkpt lat="46.17212" lon="6.54033">
        <ele>1565.97</ele>
        <time>2026-02-02T10:13:47Z</time>
      </trkpt>
      <trkpt lat="46.17214" lon="6.54037">
        <ele>1566.748</ele>
        <time>2026-02-02T10:13:52Z</time>
      </trkpt>
      <trkpt lat="46.17216" lon="6.5404">
        <ele>1568.182</ele>
        <time>2026-02-02T10:13:57Z</time>
      </trkpt>
      <trkpt lat="46.17219" lon="6.54042">
        <ele>1569.738</ele>
        <time>2026-02-02T10:14:02Z</time>
      </trkpt>
      <trkpt lat="46.17221" lon="6.54045">
        <ele>1571.026</ele>
        <time>2026-02-02T10:14:07Z</time>
      </trkpt>
      <trkpt lat="46.17223" lon="6.54047">
        <ele>1570.928</ele>
        <time>2026-02-02T10:14:12Z</time>
      </trkpt>
      <trkpt lat="46.17225" lon="6.54049">
        <ele>1571.173</ele>
        <time>2026-02-02T10:14:17Z</time>
      </trkpt>
      <trkpt lat="46.17228" lon="6.54051">
        <ele>1571.585</ele>
        <time>2026-02-02T10:14:22Z</time>
      </trkpt>
      <trkpt lat="46.1723" lon="6.54052">
        <ele>1572.745</ele>
        <time>2026-02-02T10:14:27Z</time>
      </trkpt>
      <trkpt lat="46.17233" lon="6.54054">
        <ele>1573.794</ele>
        <time>2026-02-02T10:14:32Z</time>
      </trkpt>
      <trkpt lat="46.17235" lon="6.54055">
        <ele>1574.343</ele>
        <time>2026-02-02T10:14:37Z</time>
      </trkpt>
      <trkpt lat="46.17237" lon="6.54057">
        <ele>1575.658</ele>
        <time>2026-02-02T10:14:42Z</time>
      </trkpt>
      <trkpt lat="46.1724" lon="6.54058">
        <ele>1576.215</ele>
        <time>2026-02-02T10:14:47Z</time>
      </trkpt>
      <trkpt lat="46.17243" lon="6.54059">
        <ele>1576.42</ele>
        <time>2026-02-02T10:14:52Z</time>
      </trkpt>
      <trkpt lat="46.17244" lon="6.54061">
        <ele>1576.26</ele>
        <time>2026-02-02T10:14:57Z</time>
      </trkpt>
      <trkpt lat="46.17246" lon="6.54063">
        <ele>1576.466</ele>
        <time>2026-02-02T10:15:02Z</time>
      </trkpt>
      <trkpt lat="46.17248" lon="6.54065">
        <ele>1578.08</ele>
        <time>2026-02-02T10:15:07Z</time>
      </trkpt>
      <trkpt lat="46.1725" lon="6.54067">
        <ele>1578.749</ele>
        <time>2026-02-02T10:15:12Z</time>
      </trkpt>
      <trkpt lat="46.17252" lon="6.54069">
        <ele>1579.609</ele>
        <time>2026-02-02T10:15:17Z</time>
      </trkpt>
      <trkpt lat="46.17255" lon="6.54071">
        <ele>1580.446</ele>
        <time>2026-02-02T10:15:22Z</time>
      </trkpt>
      <trkpt lat="46.17258" lon="6.54072">
        <ele>1580.823</ele>
        <time>2026-02-02T10:15:27Z</time>
      </trkpt>
      <trkpt lat="46.1726" lon="6.54073">
        <ele>1582.526</ele>
        <time>2026-02-02T10:15:32Z</time>
      </trkpt>
      <trkpt lat="46.17263" lon="6.54074">
        <ele>1584.059</ele>
        <time>2026-02-02T10:15:37Z</time>
      </trkpt>
      <trkpt lat="46.17264" lon="6.54074">
        <ele>1584.373</ele>
        <time>2026-02-02T10:15:42Z</time>
      </trkpt>
      <trkpt lat="46.17265" lon="6.54074">
        <ele>1584.795</ele>
        <time>2026-02-02T10:15:47Z</time>
      </trkpt>
      <trkpt lat="46.17268" lon="6.54074">
        <ele>1586.529</ele>
        <time>2026-02-02T10:15:52Z</time>
      </trkpt>
      <trkpt lat="46.17272" lon="6.54075">
        <ele>1587.117</ele>
        <time>2026-02-02T10:15:57Z</time>
      </trkpt>
      <trkpt lat="46.17275" lon="6.54075">
        <ele>1588.255</ele>
        <time>2026-02-02T10:16:02Z</time>
      </trkpt>
      <trkpt lat="46.17277" lon="6.54076">
        <ele>1589.353</ele>
        <time>2026-02-02T10:16:07Z</time>
      </trkpt>
      <trkpt lat="46.17281" lon="6.54076">
        <ele>1590.299</ele>
        <time>2026-02-02T10:16:12Z</time>
      </trkpt>
      <trkpt lat="46.17282" lon="6.54076">
        <ele>1590.548</ele>
        <time>2026-02-02T10:16:17Z</time>
      </trkpt>
      <trkpt lat="46.17282" lon="6.54076">
        <ele>1590.545</ele>
        <time>2026-02-02T10:16:22Z</time>
      </trkpt>
      <trkpt lat="46.17282" lon="6.54076">
        <ele>1590.539</ele>
        <time>2026-02-02T10:16:27Z</time>
      </trkpt>
      <trkpt lat="46.17286" lon="6.54076">
        <ele>1590.683</ele>
        <time>2026-02-02T10:16:32Z</time>
      </trkpt>
      <trkpt lat="46.1729" lon="6.54076">
        <ele>1590.486</ele>
        <time>2026-02-02T10:16:37Z</time>
      </trkpt>
      <trkpt lat="46.17293" lon="6.54077">
        <ele>1590.966</ele>
        <time>2026-02-02T10:16:42Z</time>
      </trkpt>
      <trkpt lat="46.17296" lon="6.54077">
        <ele>1591.226</ele>
        <time>2026-02-02T10:16:47Z</time>
      </trkpt>
      <trkpt lat="46.17299" lon="6.54077">
        <ele>1591.992</ele>
        <time>2026-02-02T10:16:52Z</time>
      </trkpt>
      <trkpt lat="46.17303" lon="6.54077">
        <ele>1593.243</ele>
        <time>2026-02-02T10:16:57Z</time>
      </trkpt>
      <trkpt lat="46.17306" lon="6.54078">
        <ele>1594.498</ele>
        <time>2026-02-02T10:17:02Z</time>
      </trkpt>
      <trkpt lat="46.17308" lon="6.54078">
        <ele>1595.166</ele>
        <time>2026-02-02T10:17:07Z</time>
      </trkpt>
      <trkpt lat="46.17311" lon="6.54077">
        <ele>1596.156</ele>
        <time>2026-02-02T10:17:12Z</time>
      </trkpt>
      <trkpt lat="46.17315" lon="6.54079">
        <ele>1596.504</ele>
        <time>2026-02-02T10:17:17Z</time>
      </trkpt>
      <trkpt lat="46.17318" lon="6.54079">
        <ele>1597.738</ele>
        <time>2026-02-02T10:17:22Z</time>
      </trkpt>
      <trkpt lat="46.17321" lon="6.5408">
        <ele>1598.402</ele>
        <time>2026-02-02T10:17:27Z</time>
      </trkpt>
      <trkpt lat="46.17321" lon="6.5408">
        <ele>1598.739</ele>
        <time>2026-02-02T10:17:32Z</time>
      </trkpt>
      <trkpt lat="46.17321" lon="6.54079">
        <ele>1598.753</ele>
        <time>2026-02-02T10:17:37Z</time>
      </trkpt>
      <trkpt lat="46.17321" lon="6.54079">
        <ele>1598.764</ele>
        <time>2026-02-02T10:17:42Z</time>
      </trkpt>
      <trkpt lat="46.17321" lon="6.54079">
        <ele>1598.771</ele>
        <time>2026-02-02T10:17:47Z</time>
      </trkpt>
      <trkpt lat="46.17325" lon="6.54079">
        <ele>1602.019</ele>
        <time>2026-02-02T10:17:52Z</time>
      </trkpt>
      <trkpt lat="46.17325" lon="6.54079">
        <ele>1600.733</ele>
        <time>2026-02-02T10:17:56Z</time>
      </trkpt>
      <trkpt lat="46.17325" lon="6.54079">
        <ele>1600.786</ele>
        <time>2026-02-02T10:18:02Z</time>
      </trkpt>
      <trkpt lat="46.17325" lon="6.54079">
        <ele>1600.974</ele>
        <time>2026-02-02T10:18:07Z</time>
      </trkpt>
      <trkpt lat="46.17328" lon="6.54079">
        <ele>1600.634</ele>
        <time>2026-02-02T10:18:12Z</time>
      </trkpt>
      <trkpt lat="46.17331" lon="6.54082">
        <ele>1598.076</ele>
        <time>2026-02-02T10:18:17Z</time>
      </trkpt>
      <trkpt lat="46.17333" lon="6.54085">
        <ele>1597.753</ele>
        <time>2026-02-02T10:18:22Z</time>
      </trkpt>
      <trkpt lat="46.17336" lon="6.54086">
        <ele>1600.199</ele>
        <time>2026-02-02T10:18:27Z</time>
      </trkpt>
      <trkpt lat="46.17339" lon="6.54085">
        <ele>1600.594</ele>
        <time>2026-02-02T10:18:32Z</time>
      </trkpt>
      <trkpt lat="46.17343" lon="6.54084">
        <ele>1600.836</ele>
        <time>2026-02-02T10:18:37Z</time>
      </trkpt>
      <trkpt lat="46.17346" lon="6.54088">
        <ele>1600.581</ele>
        <time>2026-02-02T10:18:42Z</time>
      </trkpt>
      <trkpt lat="46.17348" lon="6.54092">
        <ele>1600.411</ele>
        <time>2026-02-02T10:18:47Z</time>
      </trkpt>
      <trkpt lat="46.17352" lon="6.54095">
        <ele>1601.248</ele>
        <time>2026-02-02T10:18:52Z</time>
      </trkpt>
      <trkpt lat="46.17353" lon="6.54099">
        <ele>1601.291</ele>
        <time>2026-02-02T10:18:57Z</time>
      </trkpt>
      <trkpt lat="46.17355" lon="6.54103">
        <ele>1602.017</ele>
        <time>2026-02-02T10:19:02Z</time>
      </trkpt>
      <trkpt lat="46.17356" lon="6.54106">
        <ele>1603.67</ele>
        <time>2026-02-02T10:19:07Z</time>
      </trkpt>
      <trkpt lat="46.17359" lon="6.54109">
        <ele>1604.655</ele>
        <time>2026-02-02T10:19:12Z</time>
      </trkpt>
      <trkpt lat="46.1736" lon="6.54113">
        <ele>1608.068</ele>
        <time>2026-02-02T10:19:17Z</time>
      </trkpt>
      <trkpt lat="46.17362" lon="6.54116">
        <ele>1608.928</ele>
        <time>2026-02-02T10:19:22Z</time>
      </trkpt>
      <trkpt lat="46.17366" lon="6.54118">
        <ele>1609.016</ele>
        <time>2026-02-02T10:19:27Z</time>
      </trkpt>
      <trkpt lat="46.17368" lon="6.54122">
        <ele>1610.763</ele>
        <time>2026-02-02T10:19:32Z</time>
      </trkpt>
      <trkpt lat="46.17369" lon="6.54126">
        <ele>1610.533</ele>
        <time>2026-02-02T10:19:37Z</time>
      </trkpt>
      <trkpt lat="46.1737" lon="6.54131">
        <ele>1610.361</ele>
        <time>2026-02-02T10:19:42Z</time>
      </trkpt>
      <trkpt lat="46.17372" lon="6.54136">
        <ele>1610.926</ele>
        <time>2026-02-02T10:19:47Z</time>
      </trkpt>
      <trkpt lat="46.17373" lon="6.5414">
        <ele>1611.491</ele>
        <time>2026-02-02T10:19:52Z</time>
      </trkpt>
      <trkpt lat="46.17375" lon="6.54143">
        <ele>1612.288</ele>
        <time>2026-02-02T10:19:57Z</time>
      </trkpt>
      <trkpt lat="46.17378" lon="6.54142">
        <ele>1612.843</ele>
        <time>2026-02-02T10:20:02Z</time>
      </trkpt>
      <trkpt lat="46.17379" lon="6.54144">
        <ele>1612.064</ele>
        <time>2026-02-02T10:20:07Z</time>
      </trkpt>
      <trkpt lat="46.17381" lon="6.54148">
        <ele>1613.107</ele>
        <time>2026-02-02T10:20:12Z</time>
      </trkpt>
      <trkpt lat="46.17383" lon="6.54152">
        <ele>1615.106</ele>
        <time>2026-02-02T10:20:17Z</time>
      </trkpt>
      <trkpt lat="46.17386" lon="6.54156">
        <ele>1614.056</ele>
        <time>2026-02-02T10:20:22Z</time>
      </trkpt>
      <trkpt lat="46.17388" lon="6.54159">
        <ele>1614.685</ele>
        <time>2026-02-02T10:20:27Z</time>
      </trkpt>
      <trkpt lat="46.1739" lon="6.54163">
        <ele>1616.108</ele>
        <time>2026-02-02T10:20:32Z</time>
      </trkpt>
      <trkpt lat="46.17393" lon="6.54167">
        <ele>1616.876</ele>
        <time>2026-02-02T10:20:37Z</time>
      </trkpt>
      <trkpt lat="46.17396" lon="6.5417">
        <ele>1617.47</ele>
        <time>2026-02-02T10:20:42Z</time>
      </trkpt>
      <trkpt lat="46.17399" lon="6.54173">
        <ele>1618.351</ele>
        <time>2026-02-02T10:20:47Z</time>
      </trkpt>
      <trkpt lat="46.17403" lon="6.54178">
        <ele>1617.2</ele>
        <time>2026-02-02T10:20:52Z</time>
      </trkpt>
      <trkpt lat="46.17406" lon="6.54181">
        <ele>1616.818</ele>
        <time>2026-02-02T10:20:57Z</time>
      </trkpt>
      <trkpt lat="46.1741" lon="6.54184">
        <ele>1616.909</ele>
        <time>2026-02-02T10:21:02Z</time>
      </trkpt>
      <trkpt lat="46.17412" lon="6.54187">
        <ele>1615.369</ele>
        <time>2026-02-02T10:21:07Z</time>
      </trkpt>
      <trkpt lat="46.17413" lon="6.54195">
        <ele>1615.711</ele>
        <time>2026-02-02T10:21:12Z</time>
      </trkpt>
      <trkpt lat="46.17414" lon="6.54195">
        <ele>1616.006</ele>
        <time>2026-02-02T10:21:17Z</time>
      </trkpt>
      <trkpt lat="46.17416" lon="6.54199">
        <ele>1616.235</ele>
        <time>2026-02-02T10:21:22Z</time>
      </trkpt>
      <trkpt lat="46.17419" lon="6.54203">
        <ele>1617.19</ele>
        <time>2026-02-02T10:21:27Z</time>
      </trkpt>
      <trkpt lat="46.17423" lon="6.54206">
        <ele>1616.952</ele>
        <time>2026-02-02T10:21:32Z</time>
      </trkpt>
      <trkpt lat="46.17427" lon="6.54209">
        <ele>1617.453</ele>
        <time>2026-02-02T10:21:37Z</time>
      </trkpt>
      <trkpt lat="46.17432" lon="6.54214">
        <ele>1617.468</ele>
        <time>2026-02-02T10:21:42Z</time>
      </trkpt>
      <trkpt lat="46.17436" lon="6.54219">
        <ele>1617.052</ele>
        <time>2026-02-02T10:21:47Z</time>
      </trkpt>
      <trkpt lat="46.17439" lon="6.54224">
        <ele>1616.908</ele>
        <time>2026-02-02T10:21:52Z</time>
      </trkpt>
      <trkpt lat="46.17442" lon="6.54228">
        <ele>1617.554</ele>
        <time>2026-02-02T10:21:57Z</time>
      </trkpt>
      <trkpt lat="46.17444" lon="6.5423">
        <ele>1617.609</ele>
        <time>2026-02-02T10:22:02Z</time>
      </trkpt>
      <trkpt lat="46.17444" lon="6.5423">
        <ele>1617.617</ele>
        <time>2026-02-02T10:22:07Z</time>
      </trkpt>
      <trkpt lat="46.17444" lon="6.54231">
        <ele>1617.621</ele>
        <time>2026-02-02T10:22:12Z</time>
      </trkpt>
      <trkpt lat="46.17444" lon="6.54231">
        <ele>1617.626</ele>
        <time>2026-02-02T10:22:17Z</time>
      </trkpt>
      <trkpt lat="46.17444" lon="6.54231">
        <ele>1617.631</ele>
        <time>2026-02-02T10:22:22Z</time>
      </trkpt>
      <trkpt lat="46.17444" lon="6.54231">
        <ele>1617.633</ele>
        <time>2026-02-02T10:22:27Z</time>
      </trkpt>
      <trkpt lat="46.17444" lon="6.54231">
        <ele>1617.637</ele>
        <time>2026-02-02T10:22:32Z</time>
      </trkpt>
      <trkpt lat="46.17444" lon="6.54231">
        <ele>1617.642</ele>
        <time>2026-02-02T10:22:37Z</time>
      </trkpt>
      <trkpt lat="46.17447" lon="6.54234">
        <ele>1617.81</ele>
        <time>2026-02-02T10:22:42Z</time>
      </trkpt>
      <trkpt lat="46.17451" lon="6.54239">
        <ele>1618.087</ele>
        <time>2026-02-02T10:22:47Z</time>
      </trkpt>
      <trkpt lat="46.17455" lon="6.54244">
        <ele>1617.301</ele>
        <time>2026-02-02T10:22:52Z</time>
      </trkpt>
      <trkpt lat="46.17459" lon="6.5425">
        <ele>1617.836</ele>
        <time>2026-02-02T10:22:57Z</time>
      </trkpt>
      <trkpt lat="46.17463" lon="6.54255">
        <ele>1616.885</ele>
        <time>2026-02-02T10:23:02Z</time>
      </trkpt>
      <trkpt lat="46.1747" lon="6.54265">
        <ele>1616.426</ele>
        <time>2026-02-02T10:23:07Z</time>
      </trkpt>
      <trkpt lat="46.17473" lon="6.5427">
        <ele>1614.646</ele>
        <time>2026-02-02T10:23:12Z</time>
      </trkpt>
      <trkpt lat="46.17477" lon="6.54276">
        <ele>1614.357</ele>
        <time>2026-02-02T10:23:17Z</time>
      </trkpt>
      <trkpt lat="46.17481" lon="6.54282">
        <ele>1613.286</ele>
        <time>2026-02-02T10:23:22Z</time>
      </trkpt>
      <trkpt lat="46.17484" lon="6.54287">
        <ele>1614.736</ele>
        <time>2026-02-02T10:23:27Z</time>
      </trkpt>
      <trkpt lat="46.17487" lon="6.54291">
        <ele>1615.611</ele>
        <time>2026-02-02T10:23:32Z</time>
      </trkpt>
      <trkpt lat="46.1749" lon="6.54295">
        <ele>1616.218</ele>
        <time>2026-02-02T10:23:37Z</time>
      </trkpt>
      <trkpt lat="46.17493" lon="6.54299">
        <ele>1615.822</ele>
        <time>2026-02-02T10:23:42Z</time>
      </trkpt>
      <trkpt lat="46.17496" lon="6.54303">
        <ele>1616.223</ele>
        <time>2026-02-02T10:23:47Z</time>
      </trkpt>
      <trkpt lat="46.17499" lon="6.54306">
        <ele>1616.665</ele>
        <time>2026-02-02T10:23:52Z</time>
      </trkpt>
      <trkpt lat="46.17502" lon="6.5431">
        <ele>1616.506</ele>
        <time>2026-02-02T10:23:57Z</time>
      </trkpt>
      <trkpt lat="46.17505" lon="6.54313">
        <ele>1617.78</ele>
        <time>2026-02-02T10:24:02Z</time>
      </trkpt>
      <trkpt lat="46.17507" lon="6.54317">
        <ele>1618.249</ele>
        <time>2026-02-02T10:24:07Z</time>
      </trkpt>
      <trkpt lat="46.17509" lon="6.5432">
        <ele>1618.31</ele>
        <time>2026-02-02T10:24:12Z</time>
      </trkpt>
      <trkpt lat="46.17511" lon="6.54325">
        <ele>1620.385</ele>
        <time>2026-02-02T10:24:17Z</time>
      </trkpt>
      <trkpt lat="46.17513" lon="6.54328">
        <ele>1621.258</ele>
        <time>2026-02-02T10:24:22Z</time>
      </trkpt>
      <trkpt lat="46.17515" lon="6.54331">
        <ele>1622.841</ele>
        <time>2026-02-02T10:24:27Z</time>
      </trkpt>
      <trkpt lat="46.17517" lon="6.54334">
        <ele>1623.568</ele>
        <time>2026-02-02T10:24:32Z</time>
      </trkpt>
      <trkpt lat="46.1752" lon="6.54336">
        <ele>1624.277</ele>
        <time>2026-02-02T10:24:37Z</time>
      </trkpt>
      <trkpt lat="46.17524" lon="6.54339">
        <ele>1624.289</ele>
        <time>2026-02-02T10:24:42Z</time>
      </trkpt>
      <trkpt lat="46.17527" lon="6.54341">
        <ele>1625.314</ele>
        <time>2026-02-02T10:24:47Z</time>
      </trkpt>
      <trkpt lat="46.1753" lon="6.54343">
        <ele>1625.836</ele>
        <time>2026-02-02T10:24:52Z</time>
      </trkpt>
      <trkpt lat="46.17532" lon="6.54347">
        <ele>1625.422</ele>
        <time>2026-02-02T10:24:57Z</time>
      </trkpt>
      <trkpt lat="46.17535" lon="6.54349">
        <ele>1624.839</ele>
        <time>2026-02-02T10:25:02Z</time>
      </trkpt>
      <trkpt lat="46.17537" lon="6.54351">
        <ele>1625.415</ele>
        <time>2026-02-02T10:25:07Z</time>
      </trkpt>
      <trkpt lat="46.17539" lon="6.54354">
        <ele>1625.244</ele>
        <time>2026-02-02T10:25:12Z</time>
      </trkpt>
      <trkpt lat="46.17541" lon="6.54357">
        <ele>1625.873</ele>
        <time>2026-02-02T10:25:17Z</time>
      </trkpt>
      <trkpt lat="46.17543" lon="6.5436">
        <ele>1626.342</ele>
        <time>2026-02-02T10:25:22Z</time>
      </trkpt>
      <trkpt lat="46.17544" lon="6.54364">
        <ele>1628.218</ele>
        <time>2026-02-02T10:25:27Z</time>
      </trkpt>
      <trkpt lat="46.17545" lon="6.54366">
        <ele>1628.183</ele>
        <time>2026-02-02T10:25:32Z</time>
      </trkpt>
      <trkpt lat="46.17547" lon="6.5437">
        <ele>1627.921</ele>
        <time>2026-02-02T10:25:37Z</time>
      </trkpt>
      <trkpt lat="46.17549" lon="6.54374">
        <ele>1628.944</ele>
        <time>2026-02-02T10:25:42Z</time>
      </trkpt>
      <trkpt lat="46.17551" lon="6.54377">
        <ele>1629.894</ele>
        <time>2026-02-02T10:25:47Z</time>
      </trkpt>
      <trkpt lat="46.17553" lon="6.5438">
        <ele>1631.699</ele>
        <time>2026-02-02T10:25:52Z</time>
      </trkpt>
      <trkpt lat="46.17555" lon="6.54383">
        <ele>1631.079</ele>
        <time>2026-02-02T10:25:57Z</time>
      </trkpt>
      <trkpt lat="46.17557" lon="6.54386">
        <ele>1632.532</ele>
        <time>2026-02-02T10:26:02Z</time>
      </trkpt>
      <trkpt lat="46.17557" lon="6.54389">
        <ele>1632.981</ele>
        <time>2026-02-02T10:26:07Z</time>
      </trkpt>
      <trkpt lat="46.17559" lon="6.54391">
        <ele>1634.025</ele>
        <time>2026-02-02T10:26:12Z</time>
      </trkpt>
      <trkpt lat="46.17561" lon="6.54394">
        <ele>1633.892</ele>
        <time>2026-02-02T10:26:17Z</time>
      </trkpt>
      <trkpt lat="46.17563" lon="6.54398">
        <ele>1634.256</ele>
        <time>2026-02-02T10:26:22Z</time>
      </trkpt>
      <trkpt lat="46.17564" lon="6.54401">
        <ele>1635.332</ele>
        <time>2026-02-02T10:26:27Z</time>
      </trkpt>
      <trkpt lat="46.17566" lon="6.54404">
        <ele>1635.607</ele>
        <time>2026-02-02T10:26:32Z</time>
      </trkpt>
      <trkpt lat="46.17568" lon="6.54406">
        <ele>1636.951</ele>
        <time>2026-02-02T10:26:37Z</time>
      </trkpt>
      <trkpt lat="46.17568" lon="6.5441">
        <ele>1638.707</ele>
        <time>2026-02-02T10:26:42Z</time>
      </trkpt>
      <trkpt lat="46.17568" lon="6.54414">
        <ele>1640.469</ele>
        <time>2026-02-02T10:26:47Z</time>
      </trkpt>
      <trkpt lat="46.17569" lon="6.54417">
        <ele>1641.104</ele>
        <time>2026-02-02T10:26:52Z</time>
      </trkpt>
      <trkpt lat="46.1757" lon="6.5442">
        <ele>1642.088</ele>
        <time>2026-02-02T10:26:57Z</time>
      </trkpt>
      <trkpt lat="46.17571" lon="6.54424">
        <ele>1642.829</ele>
        <time>2026-02-02T10:27:02Z</time>
      </trkpt>
      <trkpt lat="46.17572" lon="6.54428">
        <ele>1643.109</ele>
        <time>2026-02-02T10:27:07Z</time>
      </trkpt>
      <trkpt lat="46.17574" lon="6.54431">
        <ele>1644.093</ele>
        <time>2026-02-02T10:27:12Z</time>
      </trkpt>
      <trkpt lat="46.17575" lon="6.54434">
        <ele>1644.652</ele>
        <time>2026-02-02T10:27:17Z</time>
      </trkpt>
      <trkpt lat="46.17576" lon="6.54437">
        <ele>1643.2</ele>
        <time>2026-02-02T10:27:22Z</time>
      </trkpt>
      <trkpt lat="46.17576" lon="6.54441">
        <ele>1644.994</ele>
        <time>2026-02-02T10:27:27Z</time>
      </trkpt>
      <trkpt lat="46.17577" lon="6.54445">
        <ele>1646.732</ele>
        <time>2026-02-02T10:27:32Z</time>
      </trkpt>
      <trkpt lat="46.17578" lon="6.54449">
        <ele>1647.131</ele>
        <time>2026-02-02T10:27:37Z</time>
      </trkpt>
      <trkpt lat="46.17579" lon="6.54452">
        <ele>1648.717</ele>
        <time>2026-02-02T10:27:42Z</time>
      </trkpt>
      <trkpt lat="46.17579" lon="6.54457">
        <ele>1649.314</ele>
        <time>2026-02-02T10:27:47Z</time>
      </trkpt>
      <trkpt lat="46.17579" lon="6.5446">
        <ele>1649.545</ele>
        <time>2026-02-02T10:27:52Z</time>
      </trkpt>
      <trkpt lat="46.1758" lon="6.54464">
        <ele>1649.745</ele>
        <time>2026-02-02T10:27:57Z</time>
      </trkpt>
      <trkpt lat="46.1758" lon="6.54468">
        <ele>1650.403</ele>
        <time>2026-02-02T10:28:02Z</time>
      </trkpt>
      <trkpt lat="46.17583" lon="6.54471">
        <ele>1650.843</ele>
        <time>2026-02-02T10:28:07Z</time>
      </trkpt>
      <trkpt lat="46.17585" lon="6.54474">
        <ele>1651.712</ele>
        <time>2026-02-02T10:28:12Z</time>
      </trkpt>
      <trkpt lat="46.17587" lon="6.54478">
        <ele>1651.479</ele>
        <time>2026-02-02T10:28:17Z</time>
      </trkpt>
      <trkpt lat="46.17589" lon="6.54481">
        <ele>1652.294</ele>
        <time>2026-02-02T10:28:22Z</time>
      </trkpt>
      <trkpt lat="46.17591" lon="6.54484">
        <ele>1652.473</ele>
        <time>2026-02-02T10:28:27Z</time>
      </trkpt>
      <trkpt lat="46.17592" lon="6.54487">
        <ele>1652.962</ele>
        <time>2026-02-02T10:28:32Z</time>
      </trkpt>
      <trkpt lat="46.17594" lon="6.5449">
        <ele>1653.931</ele>
        <time>2026-02-02T10:28:37Z</time>
      </trkpt>
      <trkpt lat="46.17597" lon="6.54492">
        <ele>1653.475</ele>
        <time>2026-02-02T10:28:42Z</time>
      </trkpt>
      <trkpt lat="46.17599" lon="6.54496">
        <ele>1653.777</ele>
        <time>2026-02-02T10:28:47Z</time>
      </trkpt>
      <trkpt lat="46.17599" lon="6.545">
        <ele>1655.989</ele>
        <time>2026-02-02T10:28:52Z</time>
      </trkpt>
      <trkpt lat="46.176" lon="6.54504">
        <ele>1655.765</ele>
        <time>2026-02-02T10:28:57Z</time>
      </trkpt>
      <trkpt lat="46.17602" lon="6.54507">
        <ele>1655.668</ele>
        <time>2026-02-02T10:29:02Z</time>
      </trkpt>
      <trkpt lat="46.17605" lon="6.54508">
        <ele>1655.363</ele>
        <time>2026-02-02T10:29:07Z</time>
      </trkpt>
      <trkpt lat="46.17607" lon="6.5451">
        <ele>1655.136</ele>
        <time>2026-02-02T10:29:12Z</time>
      </trkpt>
      <trkpt lat="46.17609" lon="6.54512">
        <ele>1655.901</ele>
        <time>2026-02-02T10:29:17Z</time>
      </trkpt>
      <trkpt lat="46.17611" lon="6.54515">
        <ele>1656.357</ele>
        <time>2026-02-02T10:29:22Z</time>
      </trkpt>
      <trkpt lat="46.17612" lon="6.54516">
        <ele>1657.032</ele>
        <time>2026-02-02T10:29:27Z</time>
      </trkpt>
      <trkpt lat="46.17613" lon="6.54519">
        <ele>1657.933</ele>
        <time>2026-02-02T10:29:32Z</time>
      </trkpt>
      <trkpt lat="46.17615" lon="6.54523">
        <ele>1657.834</ele>
        <time>2026-02-02T10:29:37Z</time>
      </trkpt>
      <trkpt lat="46.17616" lon="6.54526">
        <ele>1658.599</ele>
        <time>2026-02-02T10:29:42Z</time>
      </trkpt>
      <trkpt lat="46.17616" lon="6.54529">
        <ele>1658.714</ele>
        <time>2026-02-02T10:29:47Z</time>
      </trkpt>
      <trkpt lat="46.17616" lon="6.54533">
        <ele>1660.078</ele>
        <time>2026-02-02T10:29:52Z</time>
      </trkpt>
      <trkpt lat="46.17616" lon="6.54537">
        <ele>1661.013</ele>
        <time>2026-02-02T10:29:57Z</time>
      </trkpt>
      <trkpt lat="46.17616" lon="6.5454">
        <ele>1663.002</ele>
        <time>2026-02-02T10:30:02Z</time>
      </trkpt>
      <trkpt lat="46.17615" lon="6.54544">
        <ele>1664.019</ele>
        <time>2026-02-02T10:30:07Z</time>
      </trkpt>
      <trkpt lat="46.17614" lon="6.54547">
        <ele>1666.105</ele>
        <time>2026-02-02T10:30:12Z</time>
      </trkpt>
      <trkpt lat="46.17613" lon="6.54551">
        <ele>1667.46</ele>
        <time>2026-02-02T10:30:17Z</time>
      </trkpt>
      <trkpt lat="46.17612" lon="6.54555">
        <ele>1668.629</ele>
        <time>2026-02-02T10:30:22Z</time>
      </trkpt>
      <trkpt lat="46.17611" lon="6.54558">
        <ele>1669.949</ele>
        <time>2026-02-02T10:30:27Z</time>
      </trkpt>
      <trkpt lat="46.17612" lon="6.54561">
        <ele>1671.009</ele>
        <time>2026-02-02T10:30:32Z</time>
      </trkpt>
      <trkpt lat="46.17612" lon="6.54564">
        <ele>1671.631</ele>
        <time>2026-02-02T10:30:37Z</time>
      </trkpt>
      <trkpt lat="46.17612" lon="6.54568">
        <ele>1672.038</ele>
        <time>2026-02-02T10:30:42Z</time>
      </trkpt>
      <trkpt lat="46.17612" lon="6.54572">
        <ele>1672.651</ele>
        <time>2026-02-02T10:30:47Z</time>
      </trkpt>
      <trkpt lat="46.17611" lon="6.54576">
        <ele>1673.686</ele>
        <time>2026-02-02T10:30:52Z</time>
      </trkpt>
      <trkpt lat="46.17609" lon="6.54579">
        <ele>1675.245</ele>
        <time>2026-02-02T10:30:57Z</time>
      </trkpt>
      <trkpt lat="46.17609" lon="6.54582">
        <ele>1676.752</ele>
        <time>2026-02-02T10:31:02Z</time>
      </trkpt>
      <trkpt lat="46.17608" lon="6.54586">
        <ele>1676.67</ele>
        <time>2026-02-02T10:31:07Z</time>
      </trkpt>
      <trkpt lat="46.17608" lon="6.54589">
        <ele>1677.217</ele>
        <time>2026-02-02T10:31:12Z</time>
      </trkpt>
      <trkpt lat="46.17609" lon="6.54593">
        <ele>1677.226</ele>
        <time>2026-02-02T10:31:17Z</time>
      </trkpt>
      <trkpt lat="46.1761" lon="6.54597">
        <ele>1676.663</ele>
        <time>2026-02-02T10:31:22Z</time>
      </trkpt>
      <trkpt lat="46.17612" lon="6.546">
        <ele>1676.247</ele>
        <time>2026-02-02T10:31:27Z</time>
      </trkpt>
      <trkpt lat="46.17614" lon="6.54602">
        <ele>1676.968</ele>
        <time>2026-02-02T10:31:32Z</time>
      </trkpt>
      <trkpt lat="46.17615" lon="6.54605">
        <ele>1677.557</ele>
        <time>2026-02-02T10:31:37Z</time>
      </trkpt>
      <trkpt lat="46.17616" lon="6.54608">
        <ele>1679.197</ele>
        <time>2026-02-02T10:31:42Z</time>
      </trkpt>
      <trkpt lat="46.17618" lon="6.54611">
        <ele>1679.179</ele>
        <time>2026-02-02T10:31:47Z</time>
      </trkpt>
      <trkpt lat="46.17619" lon="6.54613">
        <ele>1679.885</ele>
        <time>2026-02-02T10:31:52Z</time>
      </trkpt>
      <trkpt lat="46.1762" lon="6.54616">
        <ele>1680.276</ele>
        <time>2026-02-02T10:31:57Z</time>
      </trkpt>
      <trkpt lat="46.17621" lon="6.54619">
        <ele>1681.753</ele>
        <time>2026-02-02T10:32:02Z</time>
      </trkpt>
      <trkpt lat="46.17622" lon="6.54623">
        <ele>1682.076</ele>
        <time>2026-02-02T10:32:07Z</time>
      </trkpt>
      <trkpt lat="46.17623" lon="6.54626">
        <ele>1682.432</ele>
        <time>2026-02-02T10:32:12Z</time>
      </trkpt>
      <trkpt lat="46.17623" lon="6.5463">
        <ele>1682.248</ele>
        <time>2026-02-02T10:32:17Z</time>
      </trkpt>
      <trkpt lat="46.17624" lon="6.54633">
        <ele>1683.09</ele>
        <time>2026-02-02T10:32:22Z</time>
      </trkpt>
      <trkpt lat="46.17624" lon="6.54636">
        <ele>1683.215</ele>
        <time>2026-02-02T10:32:27Z</time>
      </trkpt>
      <trkpt lat="46.17625" lon="6.54639">
        <ele>1683.839</ele>
        <time>2026-02-02T10:32:32Z</time>
      </trkpt>
      <trkpt lat="46.17626" lon="6.54643">
        <ele>1683.286</ele>
        <time>2026-02-02T10:32:37Z</time>
      </trkpt>
      <trkpt lat="46.17626" lon="6.54646">
        <ele>1684.854</ele>
        <time>2026-02-02T10:32:42Z</time>
      </trkpt>
      <trkpt lat="46.17626" lon="6.5465">
        <ele>1686.145</ele>
        <time>2026-02-02T10:32:47Z</time>
      </trkpt>
      <trkpt lat="46.17626" lon="6.54653">
        <ele>1687.095</ele>
        <time>2026-02-02T10:32:52Z</time>
      </trkpt>
      <trkpt lat="46.17627" lon="6.54656">
        <ele>1688.348</ele>
        <time>2026-02-02T10:32:57Z</time>
      </trkpt>
      <trkpt lat="46.17628" lon="6.5466">
        <ele>1689.619</ele>
        <time>2026-02-02T10:33:02Z</time>
      </trkpt>
      <trkpt lat="46.17631" lon="6.54659">
        <ele>1689.549</ele>
        <time>2026-02-02T10:33:07Z</time>
      </trkpt>
      <trkpt lat="46.17634" lon="6.54657">
        <ele>1690.876</ele>
        <time>2026-02-02T10:33:12Z</time>
      </trkpt>
      <trkpt lat="46.17636" lon="6.54655">
        <ele>1692.994</ele>
        <time>2026-02-02T10:33:17Z</time>
      </trkpt>
      <trkpt lat="46.17639" lon="6.54653">
        <ele>1693.071</ele>
        <time>2026-02-02T10:33:22Z</time>
      </trkpt>
      <trkpt lat="46.17641" lon="6.54651">
        <ele>1693.279</ele>
        <time>2026-02-02T10:33:27Z</time>
      </trkpt>
      <trkpt lat="46.17644" lon="6.54649">
        <ele>1695.094</ele>
        <time>2026-02-02T10:33:32Z</time>
      </trkpt>
      <trkpt lat="46.17646" lon="6.54648">
        <ele>1695.192</ele>
        <time>2026-02-02T10:33:37Z</time>
      </trkpt>
      <trkpt lat="46.17648" lon="6.54647">
        <ele>1696.744</ele>
        <time>2026-02-02T10:33:42Z</time>
      </trkpt>
      <trkpt lat="46.1765" lon="6.54644">
        <ele>1696.699</ele>
        <time>2026-02-02T10:33:47Z</time>
      </trkpt>
      <trkpt lat="46.17653" lon="6.54641">
        <ele>1696.836</ele>
        <time>2026-02-02T10:33:52Z</time>
      </trkpt>
      <trkpt lat="46.17655" lon="6.54639">
        <ele>1697.067</ele>
        <time>2026-02-02T10:33:57Z</time>
      </trkpt>
      <trkpt lat="46.17656" lon="6.54636">
        <ele>1696.619</ele>
        <time>2026-02-02T10:34:02Z</time>
      </trkpt>
      <trkpt lat="46.17659" lon="6.54633">
        <ele>1698.481</ele>
        <time>2026-02-02T10:34:07Z</time>
      </trkpt>
      <trkpt lat="46.1766" lon="6.5463">
        <ele>1698.334</ele>
        <time>2026-02-02T10:34:12Z</time>
      </trkpt>
      <trkpt lat="46.17662" lon="6.54627">
        <ele>1698.231</ele>
        <time>2026-02-02T10:34:17Z</time>
      </trkpt>
      <trkpt lat="46.17662" lon="6.54624">
        <ele>1698.267</ele>
        <time>2026-02-02T10:34:22Z</time>
      </trkpt>
      <trkpt lat="46.17663" lon="6.54622">
        <ele>1698.654</ele>
        <time>2026-02-02T10:34:27Z</time>
      </trkpt>
      <trkpt lat="46.17663" lon="6.54623">
        <ele>1699.359</ele>
        <time>2026-02-02T10:34:32Z</time>
      </trkpt>
      <trkpt lat="46.17663" lon="6.54626">
        <ele>1698.047</ele>
        <time>2026-02-02T10:34:37Z</time>
      </trkpt>
      <trkpt lat="46.17664" lon="6.54629">
        <ele>1698.225</ele>
        <time>2026-02-02T10:34:42Z</time>
      </trkpt>
      <trkpt lat="46.17665" lon="6.54632">
        <ele>1698.36</ele>
        <time>2026-02-02T10:34:47Z</time>
      </trkpt>
      <trkpt lat="46.17666" lon="6.54636">
        <ele>1698.005</ele>
        <time>2026-02-02T10:34:52Z</time>
      </trkpt>
      <trkpt lat="46.17667" lon="6.5464">
        <ele>1697.711</ele>
        <time>2026-02-02T10:34:57Z</time>
      </trkpt>
      <trkpt lat="46.17668" lon="6.54644">
        <ele>1699.051</ele>
        <time>2026-02-02T10:35:02Z</time>
      </trkpt>
      <trkpt lat="46.17668" lon="6.54649">
        <ele>1699.884</ele>
        <time>2026-02-02T10:35:07Z</time>
      </trkpt>
      <trkpt lat="46.17668" lon="6.54652">
        <ele>1700.074</ele>
        <time>2026-02-02T10:35:12Z</time>
      </trkpt>
      <trkpt lat="46.17668" lon="6.54656">
        <ele>1700.67</ele>
        <time>2026-02-02T10:35:17Z</time>
      </trkpt>
      <trkpt lat="46.17669" lon="6.5466">
        <ele>1700.986</ele>
        <time>2026-02-02T10:35:22Z</time>
      </trkpt>
      <trkpt lat="46.17669" lon="6.54664">
        <ele>1701.852</ele>
        <time>2026-02-02T10:35:27Z</time>
      </trkpt>
      <trkpt lat="46.1767" lon="6.54667">
        <ele>1703.633</ele>
        <time>2026-02-02T10:35:32Z</time>
      </trkpt>
      <trkpt lat="46.1767" lon="6.5467">
        <ele>1704.547</ele>
        <time>2026-02-02T10:35:37Z</time>
      </trkpt>
      <trkpt lat="46.1767" lon="6.54674">
        <ele>1704.779</ele>
        <time>2026-02-02T10:35:42Z</time>
      </trkpt>
      <trkpt lat="46.17671" lon="6.54678">
        <ele>1704.919</ele>
        <time>2026-02-02T10:35:47Z</time>
      </trkpt>
      <trkpt lat="46.17672" lon="6.54682">
        <ele>1706.212</ele>
        <time>2026-02-02T10:35:52Z</time>
      </trkpt>
      <trkpt lat="46.17672" lon="6.54686">
        <ele>1707.025</ele>
        <time>2026-02-02T10:35:57Z</time>
      </trkpt>
      <trkpt lat="46.17672" lon="6.5469">
        <ele>1706.951</ele>
        <time>2026-02-02T10:36:02Z</time>
      </trkpt>
      <trkpt lat="46.17672" lon="6.54694">
        <ele>1708.534</ele>
        <time>2026-02-02T10:36:07Z</time>
      </trkpt>
      <trkpt lat="46.17672" lon="6.54698">
        <ele>1708.782</ele>
        <time>2026-02-02T10:36:12Z</time>
      </trkpt>
      <trkpt lat="46.17672" lon="6.54701">
        <ele>1709.825</ele>
        <time>2026-02-02T10:36:17Z</time>
      </trkpt>
      <trkpt lat="46.17672" lon="6.54704">
        <ele>1709.829</ele>
        <time>2026-02-02T10:36:22Z</time>
      </trkpt>
      <trkpt lat="46.17672" lon="6.54708">
        <ele>1710.683</ele>
        <time>2026-02-02T10:36:27Z</time>
      </trkpt>
      <trkpt lat="46.17671" lon="6.54711">
        <ele>1710.46</ele>
        <time>2026-02-02T10:36:32Z</time>
      </trkpt>
      <trkpt lat="46.17671" lon="6.54713">
        <ele>1711.63</ele>
        <time>2026-02-02T10:36:37Z</time>
      </trkpt>
      <trkpt lat="46.1767" lon="6.54716">
        <ele>1713.44</ele>
        <time>2026-02-02T10:36:42Z</time>
      </trkpt>
      <trkpt lat="46.1767" lon="6.54719">
        <ele>1714.478</ele>
        <time>2026-02-02T10:36:47Z</time>
      </trkpt>
      <trkpt lat="46.17669" lon="6.54722">
        <ele>1715.065</ele>
        <time>2026-02-02T10:36:52Z</time>
      </trkpt>
      <trkpt lat="46.17668" lon="6.54725">
        <ele>1714.917</ele>
        <time>2026-02-02T10:36:57Z</time>
      </trkpt>
      <trkpt lat="46.17668" lon="6.54728">
        <ele>1716.83</ele>
        <time>2026-02-02T10:37:02Z</time>
      </trkpt>
      <trkpt lat="46.17667" lon="6.54731">
        <ele>1716.895</ele>
        <time>2026-02-02T10:37:07Z</time>
      </trkpt>
      <trkpt lat="46.17667" lon="6.54732">
        <ele>1716.814</ele>
        <time>2026-02-02T10:37:12Z</time>
      </trkpt>
      <trkpt lat="46.17667" lon="6.54732">
        <ele>1716.891</ele>
        <time>2026-02-02T10:37:17Z</time>
      </trkpt>
      <trkpt lat="46.17667" lon="6.54732">
        <ele>1716.895</ele>
        <time>2026-02-02T10:37:22Z</time>
      </trkpt>
      <trkpt lat="46.17667" lon="6.54732">
        <ele>1716.892</ele>
        <time>2026-02-02T10:37:27Z</time>
      </trkpt>
      <trkpt lat="46.17667" lon="6.54732">
        <ele>1716.893</ele>
        <time>2026-02-02T10:37:32Z</time>
      </trkpt>
      <trkpt lat="46.17667" lon="6.54732">
        <ele>1716.882</ele>
        <time>2026-02-02T10:37:37Z</time>
      </trkpt>
      <trkpt lat="46.17667" lon="6.54732">
        <ele>1716.871</ele>
        <time>2026-02-02T10:37:42Z</time>
      </trkpt>
      <trkpt lat="46.17666" lon="6.54735">
        <ele>1719.044</ele>
        <time>2026-02-02T10:37:47Z</time>
      </trkpt>
      <trkpt lat="46.17667" lon="6.54735">
        <ele>1720.841</ele>
        <time>2026-02-02T10:37:52Z</time>
      </trkpt>
      <trkpt lat="46.17671" lon="6.54734">
        <ele>1722.084</ele>
        <time>2026-02-02T10:37:57Z</time>
      </trkpt>
      <trkpt lat="46.17675" lon="6.54732">
        <ele>1724.455</ele>
        <time>2026-02-02T10:38:02Z</time>
      </trkpt>
      <trkpt lat="46.17679" lon="6.5473">
        <ele>1724.451</ele>
        <time>2026-02-02T10:38:07Z</time>
      </trkpt>
      <trkpt lat="46.17682" lon="6.54728">
        <ele>1724.075</ele>
        <time>2026-02-02T10:38:12Z</time>
      </trkpt>
      <trkpt lat="46.17685" lon="6.54727">
        <ele>1724.732</ele>
        <time>2026-02-02T10:38:17Z</time>
      </trkpt>
      <trkpt lat="46.17689" lon="6.54725">
        <ele>1724.262</ele>
        <time>2026-02-02T10:38:22Z</time>
      </trkpt>
      <trkpt lat="46.17691" lon="6.54724">
        <ele>1724.368</ele>
        <time>2026-02-02T10:38:27Z</time>
      </trkpt>
      <trkpt lat="46.17694" lon="6.54722">
        <ele>1724.363</ele>
        <time>2026-02-02T10:38:32Z</time>
      </trkpt>
      <trkpt lat="46.17696" lon="6.54719">
        <ele>1724.057</ele>
        <time>2026-02-02T10:38:37Z</time>
      </trkpt>
      <trkpt lat="46.17698" lon="6.54717">
        <ele>1725.031</ele>
        <time>2026-02-02T10:38:42Z</time>
      </trkpt>
      <trkpt lat="46.177" lon="6.54714">
        <ele>1725.41</ele>
        <time>2026-02-02T10:38:47Z</time>
      </trkpt>
      <trkpt lat="46.17702" lon="6.54712">
        <ele>1725.231</ele>
        <time>2026-02-02T10:38:52Z</time>
      </trkpt>
      <trkpt lat="46.17703" lon="6.54708">
        <ele>1726.105</ele>
        <time>2026-02-02T10:38:57Z</time>
      </trkpt>
      <trkpt lat="46.17704" lon="6.54704">
        <ele>1726.315</ele>
        <time>2026-02-02T10:39:02Z</time>
      </trkpt>
      <trkpt lat="46.17705" lon="6.547">
        <ele>1727.154</ele>
        <time>2026-02-02T10:39:07Z</time>
      </trkpt>
      <trkpt lat="46.17705" lon="6.54696">
        <ele>1728.206</ele>
        <time>2026-02-02T10:39:12Z</time>
      </trkpt>
      <trkpt lat="46.17707" lon="6.54693">
        <ele>1729.735</ele>
        <time>2026-02-02T10:39:17Z</time>
      </trkpt>
      <trkpt lat="46.17709" lon="6.54689">
        <ele>1731.171</ele>
        <time>2026-02-02T10:39:22Z</time>
      </trkpt>
      <trkpt lat="46.17711" lon="6.54686">
        <ele>1731.446</ele>
        <time>2026-02-02T10:39:27Z</time>
      </trkpt>
      <trkpt lat="46.17713" lon="6.54685">
        <ele>1733.07</ele>
        <time>2026-02-02T10:39:32Z</time>
      </trkpt>
      <trkpt lat="46.17715" lon="6.54684">
        <ele>1733.889</ele>
        <time>2026-02-02T10:39:37Z</time>
      </trkpt>
      <trkpt lat="46.17718" lon="6.54682">
        <ele>1733.068</ele>
        <time>2026-02-02T10:39:42Z</time>
      </trkpt>
      <trkpt lat="46.17718" lon="6.5468">
        <ele>1733.118</ele>
        <time>2026-02-02T10:39:47Z</time>
      </trkpt>
      <trkpt lat="46.1772" lon="6.54678">
        <ele>1733.019</ele>
        <time>2026-02-02T10:39:52Z</time>
      </trkpt>
      <trkpt lat="46.1772" lon="6.54677">
        <ele>1732.466</ele>
        <time>2026-02-02T10:39:57Z</time>
      </trkpt>
      <trkpt lat="46.1772" lon="6.54677">
        <ele>1732.476</ele>
        <time>2026-02-02T10:40:02Z</time>
      </trkpt>
      <trkpt lat="46.1772" lon="6.54677">
        <ele>1732.489</ele>
        <time>2026-02-02T10:40:07Z</time>
      </trkpt>
      <trkpt lat="46.1772" lon="6.54677">
        <ele>1732.515</ele>
        <time>2026-02-02T10:40:12Z</time>
      </trkpt>
      <trkpt lat="46.1772" lon="6.54677">
        <ele>1733.986</ele>
        <time>2026-02-02T10:40:17Z</time>
      </trkpt>
      <trkpt lat="46.1772" lon="6.54677">
        <ele>1734.063</ele>
        <time>2026-02-02T10:40:22Z</time>
      </trkpt>
      <trkpt lat="46.1772" lon="6.54677">
        <ele>1733.322</ele>
        <time>2026-02-02T10:40:27Z</time>
      </trkpt>
      <trkpt lat="46.1772" lon="6.54677">
        <ele>1733.006</ele>
        <time>2026-02-02T10:40:32Z</time>
      </trkpt>
      <trkpt lat="46.17721" lon="6.5468">
        <ele>1733.53</ele>
        <time>2026-02-02T10:40:37Z</time>
      </trkpt>
      <trkpt lat="46.1772" lon="6.54684">
        <ele>1734.906</ele>
        <time>2026-02-02T10:40:42Z</time>
      </trkpt>
      <trkpt lat="46.17719" lon="6.54687">
        <ele>1736.607</ele>
        <time>2026-02-02T10:40:47Z</time>
      </trkpt>
      <trkpt lat="46.17719" lon="6.54691">
        <ele>1738.087</ele>
        <time>2026-02-02T10:40:52Z</time>
      </trkpt>
      <trkpt lat="46.17718" lon="6.54695">
        <ele>1738.99</ele>
        <time>2026-02-02T10:40:57Z</time>
      </trkpt>
      <trkpt lat="46.17718" lon="6.54698">
        <ele>1740.293</ele>
        <time>2026-02-02T10:41:02Z</time>
      </trkpt>
      <trkpt lat="46.17719" lon="6.54702">
        <ele>1739.541</ele>
        <time>2026-02-02T10:41:07Z</time>
      </trkpt>
      <trkpt lat="46.17719" lon="6.54706">
        <ele>1740.001</ele>
        <time>2026-02-02T10:41:12Z</time>
      </trkpt>
      <trkpt lat="46.17719" lon="6.54709">
        <ele>1739.527</ele>
        <time>2026-02-02T10:41:17Z</time>
      </trkpt>
      <trkpt lat="46.17719" lon="6.54713">
        <ele>1739.916</ele>
        <time>2026-02-02T10:41:22Z</time>
      </trkpt>
      <trkpt lat="46.17719" lon="6.54717">
        <ele>1741.108</ele>
        <time>2026-02-02T10:41:27Z</time>
      </trkpt>
      <trkpt lat="46.17719" lon="6.5472">
        <ele>1742.45</ele>
        <time>2026-02-02T10:41:32Z</time>
      </trkpt>
      <trkpt lat="46.17717" lon="6.54723">
        <ele>1742.928</ele>
        <time>2026-02-02T10:41:37Z</time>
      </trkpt>
      <trkpt lat="46.17716" lon="6.54726">
        <ele>1743.766</ele>
        <time>2026-02-02T10:41:42Z</time>
      </trkpt>
      <trkpt lat="46.17715" lon="6.5473">
        <ele>1743.959</ele>
        <time>2026-02-02T10:41:47Z</time>
      </trkpt>
      <trkpt lat="46.17715" lon="6.54731">
        <ele>1743.624</ele>
        <time>2026-02-02T10:41:52Z</time>
      </trkpt>
      <trkpt lat="46.17715" lon="6.54731">
        <ele>1743.372</ele>
        <time>2026-02-02T10:41:57Z</time>
      </trkpt>
      <trkpt lat="46.17716" lon="6.54731">
        <ele>1744.101</ele>
        <time>2026-02-02T10:42:02Z</time>
      </trkpt>
      <trkpt lat="46.17719" lon="6.54729">
        <ele>1744.874</ele>
        <time>2026-02-02T10:42:07Z</time>
      </trkpt>
      <trkpt lat="46.17721" lon="6.54726">
        <ele>1745.516</ele>
        <time>2026-02-02T10:42:12Z</time>
      </trkpt>
      <trkpt lat="46.17724" lon="6.54724">
        <ele>1745.747</ele>
        <time>2026-02-02T10:42:17Z</time>
      </trkpt>
      <trkpt lat="46.17727" lon="6.54721">
        <ele>1745.947</ele>
        <time>2026-02-02T10:42:22Z</time>
      </trkpt>
      <trkpt lat="46.17729" lon="6.54717">
        <ele>1746.941</ele>
        <time>2026-02-02T10:42:27Z</time>
      </trkpt>
      <trkpt lat="46.17732" lon="6.54715">
        <ele>1749.594</ele>
        <time>2026-02-02T10:42:32Z</time>
      </trkpt>
      <trkpt lat="46.17734" lon="6.54713">
        <ele>1750.625</ele>
        <time>2026-02-02T10:42:37Z</time>
      </trkpt>
      <trkpt lat="46.17737" lon="6.54711">
        <ele>1751.097</ele>
        <time>2026-02-02T10:42:42Z</time>
      </trkpt>
      <trkpt lat="46.17739" lon="6.54708">
        <ele>1750.634</ele>
        <time>2026-02-02T10:42:47Z</time>
      </trkpt>
      <trkpt lat="46.1774" lon="6.54706">
        <ele>1750.604</ele>
        <time>2026-02-02T10:42:52Z</time>
      </trkpt>
      <trkpt lat="46.17742" lon="6.54703">
        <ele>1751.138</ele>
        <time>2026-02-02T10:42:57Z</time>
      </trkpt>
      <trkpt lat="46.17743" lon="6.547">
        <ele>1751.699</ele>
        <time>2026-02-02T10:43:02Z</time>
      </trkpt>
      <trkpt lat="46.17744" lon="6.54698">
        <ele>1752.484</ele>
        <time>2026-02-02T10:43:07Z</time>
      </trkpt>
      <trkpt lat="46.17744" lon="6.54699">
        <ele>1751.847</ele>
        <time>2026-02-02T10:43:12Z</time>
      </trkpt>
      <trkpt lat="46.17744" lon="6.54702">
        <ele>1752.962</ele>
        <time>2026-02-02T10:43:17Z</time>
      </trkpt>
      <trkpt lat="46.17744" lon="6.54706">
        <ele>1753.161</ele>
        <time>2026-02-02T10:43:22Z</time>
      </trkpt>
      <trkpt lat="46.17743" lon="6.5471">
        <ele>1753.645</ele>
        <time>2026-02-02T10:43:27Z</time>
      </trkpt>
      <trkpt lat="46.17743" lon="6.54714">
        <ele>1753.943</ele>
        <time>2026-02-02T10:43:32Z</time>
      </trkpt>
      <trkpt lat="46.17742" lon="6.54717">
        <ele>1754.409</ele>
        <time>2026-02-02T10:43:37Z</time>
      </trkpt>
      <trkpt lat="46.17741" lon="6.54722">
        <ele>1754.895</ele>
        <time>2026-02-02T10:43:42Z</time>
      </trkpt>
      <trkpt lat="46.17741" lon="6.54726">
        <ele>1755.448</ele>
        <time>2026-02-02T10:43:47Z</time>
      </trkpt>
      <trkpt lat="46.1774" lon="6.54728">
        <ele>1757.028</ele>
        <time>2026-02-02T10:43:52Z</time>
      </trkpt>
      <trkpt lat="46.1774" lon="6.54728">
        <ele>1757.063</ele>
        <time>2026-02-02T10:43:57Z</time>
      </trkpt>
      <trkpt lat="46.17741" lon="6.54729">
        <ele>1755.872</ele>
        <time>2026-02-02T10:44:02Z</time>
      </trkpt>
      <trkpt lat="46.17744" lon="6.54726">
        <ele>1756.269</ele>
        <time>2026-02-02T10:44:07Z</time>
      </trkpt>
      <trkpt lat="46.17747" lon="6.54725">
        <ele>1756.981</ele>
        <time>2026-02-02T10:44:12Z</time>
      </trkpt>
      <trkpt lat="46.17749" lon="6.54723">
        <ele>1756.381</ele>
        <time>2026-02-02T10:44:17Z</time>
      </trkpt>
      <trkpt lat="46.17751" lon="6.5472">
        <ele>1755.927</ele>
        <time>2026-02-02T10:44:22Z</time>
      </trkpt>
      <trkpt lat="46.17754" lon="6.54717">
        <ele>1756.261</ele>
        <time>2026-02-02T10:44:27Z</time>
      </trkpt>
      <trkpt lat="46.17755" lon="6.54714">
        <ele>1757.73</ele>
        <time>2026-02-02T10:44:32Z</time>
      </trkpt>
      <trkpt lat="46.17756" lon="6.54712">
        <ele>1758.76</ele>
        <time>2026-02-02T10:44:37Z</time>
      </trkpt>
      <trkpt lat="46.17756" lon="6.54712">
        <ele>1758.636</ele>
        <time>2026-02-02T10:44:42Z</time>
      </trkpt>
      <trkpt lat="46.17756" lon="6.54714">
        <ele>1758.367</ele>
        <time>2026-02-02T10:44:47Z</time>
      </trkpt>
      <trkpt lat="46.17756" lon="6.54718">
        <ele>1759.691</ele>
        <time>2026-02-02T10:44:52Z</time>
      </trkpt>
      <trkpt lat="46.17756" lon="6.54721">
        <ele>1760.97</ele>
        <time>2026-02-02T10:44:57Z</time>
      </trkpt>
      <trkpt lat="46.17756" lon="6.54725">
        <ele>1762.275</ele>
        <time>2026-02-02T10:45:02Z</time>
      </trkpt>
      <trkpt lat="46.17756" lon="6.54729">
        <ele>1762.195</ele>
        <time>2026-02-02T10:45:07Z</time>
      </trkpt>
      <trkpt lat="46.17754" lon="6.54732">
        <ele>1763.003</ele>
        <time>2026-02-02T10:45:12Z</time>
      </trkpt>
      <trkpt lat="46.17754" lon="6.54734">
        <ele>1764.517</ele>
        <time>2026-02-02T10:45:17Z</time>
      </trkpt>
      <trkpt lat="46.17754" lon="6.54734">
        <ele>1764.355</ele>
        <time>2026-02-02T10:45:22Z</time>
      </trkpt>
      <trkpt lat="46.17756" lon="6.54733">
        <ele>1763.793</ele>
        <time>2026-02-02T10:45:27Z</time>
      </trkpt>
      <trkpt lat="46.17759" lon="6.54732">
        <ele>1765.94</ele>
        <time>2026-02-02T10:45:32Z</time>
      </trkpt>
      <trkpt lat="46.17761" lon="6.54729">
        <ele>1767.777</ele>
        <time>2026-02-02T10:45:37Z</time>
      </trkpt>
      <trkpt lat="46.17763" lon="6.54727">
        <ele>1768.306</ele>
        <time>2026-02-02T10:45:42Z</time>
      </trkpt>
      <trkpt lat="46.17764" lon="6.54726">
        <ele>1767.96</ele>
        <time>2026-02-02T10:45:47Z</time>
      </trkpt>
      <trkpt lat="46.17765" lon="6.54722">
        <ele>1768.063</ele>
        <time>2026-02-02T10:45:52Z</time>
      </trkpt>
      <trkpt lat="46.17766" lon="6.54718">
        <ele>1768.755</ele>
        <time>2026-02-02T10:45:57Z</time>
      </trkpt>
      <trkpt lat="46.17767" lon="6.54715">
        <ele>1768.797</ele>
        <time>2026-02-02T10:46:02Z</time>
      </trkpt>
      <trkpt lat="46.17767" lon="6.54714">
        <ele>1768.731</ele>
        <time>2026-02-02T10:46:07Z</time>
      </trkpt>
      <trkpt lat="46.17767" lon="6.54714">
        <ele>1768.409</ele>
        <time>2026-02-02T10:46:12Z</time>
      </trkpt>
      <trkpt lat="46.17767" lon="6.54714">
        <ele>1767.429</ele>
        <time>2026-02-02T10:46:17Z</time>
      </trkpt>
      <trkpt lat="46.17767" lon="6.54714">
        <ele>1766.412</ele>
        <time>2026-02-02T10:46:22Z</time>
      </trkpt>
      <trkpt lat="46.17767" lon="6.54714">
        <ele>1766.988</ele>
        <time>2026-02-02T10:46:27Z</time>
      </trkpt>
      <trkpt lat="46.17767" lon="6.54714">
        <ele>1768.739</ele>
        <time>2026-02-02T10:46:32Z</time>
      </trkpt>
      <trkpt lat="46.17767" lon="6.54714">
        <ele>1768.944</ele>
        <time>2026-02-02T10:46:37Z</time>
      </trkpt>
      <trkpt lat="46.17767" lon="6.54714">
        <ele>1767.825</ele>
        <time>2026-02-02T10:46:42Z</time>
      </trkpt>
      <trkpt lat="46.17767" lon="6.54714">
        <ele>1768.621</ele>
        <time>2026-02-02T10:46:47Z</time>
      </trkpt>
      <trkpt lat="46.17767" lon="6.54714">
        <ele>1768.648</ele>
        <time>2026-02-02T10:46:52Z</time>
      </trkpt>
      <trkpt lat="46.17767" lon="6.54714">
        <ele>1768.467</ele>
        <time>2026-02-02T10:46:57Z</time>
      </trkpt>
      <trkpt lat="46.17767" lon="6.54714">
        <ele>1771.677</ele>
        <time>2026-02-02T10:47:02Z</time>
      </trkpt>
      <trkpt lat="46.17767" lon="6.54714">
        <ele>1774.037</ele>
        <time>2026-02-02T10:47:07Z</time>
      </trkpt>
      <trkpt lat="46.17767" lon="6.54714">
        <ele>1774.545</ele>
        <time>2026-02-02T10:47:12Z</time>
      </trkpt>
      <trkpt lat="46.17767" lon="6.54714">
        <ele>1774.403</ele>
        <time>2026-02-02T10:47:17Z</time>
      </trkpt>
      <trkpt lat="46.17767" lon="6.54714">
        <ele>1774.929</ele>
        <time>2026-02-02T10:47:22Z</time>
      </trkpt>
      <trkpt lat="46.17767" lon="6.54714">
        <ele>1774.849</ele>
        <time>2026-02-02T10:47:27Z</time>
      </trkpt>
      <trkpt lat="46.17767" lon="6.54714">
        <ele>1774.69</ele>
        <time>2026-02-02T10:47:32Z</time>
      </trkpt>
      <trkpt lat="46.17767" lon="6.54714">
        <ele>1774.678</ele>
        <time>2026-02-02T10:47:37Z</time>
      </trkpt>
      <trkpt lat="46.17767" lon="6.54714">
        <ele>1774.68</ele>
        <time>2026-02-02T10:47:42Z</time>
      </trkpt>
      <trkpt lat="46.17767" lon="6.54714">
        <ele>1774.684</ele>
        <time>2026-02-02T10:47:47Z</time>
      </trkpt>
      <trkpt lat="46.17767" lon="6.54714">
        <ele>1774.689</ele>
        <time>2026-02-02T10:47:52Z</time>
      </trkpt>
      <trkpt lat="46.17767" lon="6.54714">
        <ele>1774.688</ele>
        <time>2026-02-02T10:47:57Z</time>
      </trkpt>
      <trkpt lat="46.17767" lon="6.54714">
        <ele>1774.684</ele>
        <time>2026-02-02T10:48:02Z</time>
      </trkpt>
      <trkpt lat="46.17767" lon="6.54714">
        <ele>1774.676</ele>
        <time>2026-02-02T10:48:07Z</time>
      </trkpt>
      <trkpt lat="46.17767" lon="6.54714">
        <ele>1774.678</ele>
        <time>2026-02-02T10:48:12Z</time>
      </trkpt>
      <trkpt lat="46.17767" lon="6.54714">
        <ele>1774.674</ele>
        <time>2026-02-02T10:48:17Z</time>
      </trkpt>
      <trkpt lat="46.17767" lon="6.54714">
        <ele>1774.67</ele>
        <time>2026-02-02T10:48:22Z</time>
      </trkpt>
      <trkpt lat="46.17777" lon="6.54726">
        <ele>1774.67</ele>
        <time>2026-02-02T10:48:27Z</time>
      </trkpt>
      <trkpt lat="46.17777" lon="6.54726">
        <ele>1774.592</ele>
        <time>2026-02-02T10:48:32Z</time>
      </trkpt>
      <trkpt lat="46.17778" lon="6.5473">
        <ele>1775.768</ele>
        <time>2026-02-02T10:48:37Z</time>
      </trkpt>
      <trkpt lat="46.17777" lon="6.54734">
        <ele>1776.621</ele>
        <time>2026-02-02T10:48:42Z</time>
      </trkpt>
      <trkpt lat="46.17776" lon="6.54735">
        <ele>1778.079</ele>
        <time>2026-02-02T10:48:47Z</time>
      </trkpt>
      <trkpt lat="46.17775" lon="6.54738">
        <ele>1779.862</ele>
        <time>2026-02-02T10:48:52Z</time>
      </trkpt>
      <trkpt lat="46.17773" lon="6.54741">
        <ele>1780.059</ele>
        <time>2026-02-02T10:48:57Z</time>
      </trkpt>
      <trkpt lat="46.17773" lon="6.54743">
        <ele>1780.879</ele>
        <time>2026-02-02T10:49:02Z</time>
      </trkpt>
      <trkpt lat="46.17773" lon="6.54744">
        <ele>1780.643</ele>
        <time>2026-02-02T10:49:07Z</time>
      </trkpt>
      <trkpt lat="46.17775" lon="6.54745">
        <ele>1781.938</ele>
        <time>2026-02-02T10:49:12Z</time>
      </trkpt>
      <trkpt lat="46.17778" lon="6.54743">
        <ele>1782.059</ele>
        <time>2026-02-02T10:49:17Z</time>
      </trkpt>
      <trkpt lat="46.17781" lon="6.54742">
        <ele>1783.138</ele>
        <time>2026-02-02T10:49:22Z</time>
      </trkpt>
      <trkpt lat="46.17783" lon="6.54742">
        <ele>1783.3</ele>
        <time>2026-02-02T10:49:27Z</time>
      </trkpt>
      <trkpt lat="46.17783" lon="6.54742">
        <ele>1783.061</ele>
        <time>2026-02-02T10:49:32Z</time>
      </trkpt>
      <trkpt lat="46.17783" lon="6.54742">
        <ele>1784.208</ele>
        <time>2026-02-02T10:49:37Z</time>
      </trkpt>
      <trkpt lat="46.17783" lon="6.54742">
        <ele>1784.388</ele>
        <time>2026-02-02T10:49:42Z</time>
      </trkpt>
      <trkpt lat="46.17783" lon="6.54742">
        <ele>1785.171</ele>
        <time>2026-02-02T10:49:47Z</time>
      </trkpt>
      <trkpt lat="46.17783" lon="6.54742">
        <ele>1785.407</ele>
        <time>2026-02-02T10:49:52Z</time>
      </trkpt>
      <trkpt lat="46.17783" lon="6.54742">
        <ele>1786.243</ele>
        <time>2026-02-02T10:49:57Z</time>
      </trkpt>
      <trkpt lat="46.17783" lon="6.54742">
        <ele>1786.081</ele>
        <time>2026-02-02T10:50:02Z</time>
      </trkpt>
      <trkpt lat="46.17783" lon="6.54742">
        <ele>1784.657</ele>
        <time>2026-02-02T10:50:07Z</time>
      </trkpt>
      <trkpt lat="46.17778" lon="6.54757">
        <ele>1783.478</ele>
        <time>2026-02-02T10:50:12Z</time>
      </trkpt>
      <trkpt lat="46.1778" lon="6.54759">
        <ele>1782.585</ele>
        <time>2026-02-02T10:50:17Z</time>
      </trkpt>
      <trkpt lat="46.17782" lon="6.5476">
        <ele>1782.365</ele>
        <time>2026-02-02T10:50:22Z</time>
      </trkpt>
      <trkpt lat="46.17784" lon="6.5476">
        <ele>1785.168</ele>
        <time>2026-02-02T10:50:27Z</time>
      </trkpt>
      <trkpt lat="46.17787" lon="6.54761">
        <ele>1783.509</ele>
        <time>2026-02-02T10:50:32Z</time>
      </trkpt>
      <trkpt lat="46.17788" lon="6.54762">
        <ele>1785.455</ele>
        <time>2026-02-02T10:50:37Z</time>
      </trkpt>
      <trkpt lat="46.17789" lon="6.54764">
        <ele>1788.246</ele>
        <time>2026-02-02T10:50:42Z</time>
      </trkpt>
      <trkpt lat="46.17791" lon="6.54764">
        <ele>1790.355</ele>
        <time>2026-02-02T10:50:47Z</time>
      </trkpt>
      <trkpt lat="46.17793" lon="6.54763">
        <ele>1791.716</ele>
        <time>2026-02-02T10:50:52Z</time>
      </trkpt>
      <trkpt lat="46.17795" lon="6.54762">
        <ele>1793.328</ele>
        <time>2026-02-02T10:50:57Z</time>
      </trkpt>
      <trkpt lat="46.17796" lon="6.54762">
        <ele>1794.457</ele>
        <time>2026-02-02T10:51:02Z</time>
      </trkpt>
      <trkpt lat="46.17797" lon="6.54761">
        <ele>1794.779</ele>
        <time>2026-02-02T10:51:07Z</time>
      </trkpt>
      <trkpt lat="46.17799" lon="6.5476">
        <ele>1794.967</ele>
        <time>2026-02-02T10:51:12Z</time>
      </trkpt>
      <trkpt lat="46.178" lon="6.5476">
        <ele>1795.11</ele>
        <time>2026-02-02T10:51:17Z</time>
      </trkpt>
      <trkpt lat="46.17801" lon="6.5476">
        <ele>1795.117</ele>
        <time>2026-02-02T10:51:22Z</time>
      </trkpt>
      <trkpt lat="46.17801" lon="6.54759">
        <ele>1794.917</ele>
        <time>2026-02-02T10:51:27Z</time>
      </trkpt>
      <trkpt lat="46.17801" lon="6.54759">
        <ele>1794.765</ele>
        <time>2026-02-02T10:51:32Z</time>
      </trkpt>
      <trkpt lat="46.17801" lon="6.54758">
        <ele>1795.018</ele>
        <time>2026-02-02T10:51:37Z</time>
      </trkpt>
      <trkpt lat="46.17801" lon="6.54758">
        <ele>1794.477</ele>
        <time>2026-02-02T10:51:42Z</time>
      </trkpt>
      <trkpt lat="46.17801" lon="6.54758">
        <ele>1793.648</ele>
        <time>2026-02-02T10:51:47Z</time>
      </trkpt>
      <trkpt lat="46.17801" lon="6.54758">
        <ele>1794.234</ele>
        <time>2026-02-02T10:51:52Z</time>
      </trkpt>
      <trkpt lat="46.17801" lon="6.54758">
        <ele>1796.011</ele>
        <time>2026-02-02T10:51:57Z</time>
      </trkpt>
      <trkpt lat="46.17801" lon="6.54758">
        <ele>1796.39</ele>
        <time>2026-02-02T10:52:02Z</time>
      </trkpt>
      <trkpt lat="46.17801" lon="6.54758">
        <ele>1795.768</ele>
        <time>2026-02-02T10:52:07Z</time>
      </trkpt>
      <trkpt lat="46.17801" lon="6.54758">
        <ele>1795.907</ele>
        <time>2026-02-02T10:52:12Z</time>
      </trkpt>
      <trkpt lat="46.17801" lon="6.54758">
        <ele>1795.287</ele>
        <time>2026-02-02T10:52:17Z</time>
      </trkpt>
      <trkpt lat="46.17801" lon="6.54758">
        <ele>1795.803</ele>
        <time>2026-02-02T10:52:22Z</time>
      </trkpt>
      <trkpt lat="46.17801" lon="6.54758">
        <ele>1795.235</ele>
        <time>2026-02-02T10:52:27Z</time>
      </trkpt>
      <trkpt lat="46.17801" lon="6.54758">
        <ele>1795.929</ele>
        <time>2026-02-02T10:52:32Z</time>
      </trkpt>
      <trkpt lat="46.17801" lon="6.54758">
        <ele>1796.274</ele>
        <time>2026-02-02T10:52:37Z</time>
      </trkpt>
      <trkpt lat="46.17801" lon="6.54758">
        <ele>1797.373</ele>
        <time>2026-02-02T10:52:42Z</time>
      </trkpt>
      <trkpt lat="46.17801" lon="6.54758">
        <ele>1798.04</ele>
        <time>2026-02-02T10:52:47Z</time>
      </trkpt>
      <trkpt lat="46.17801" lon="6.54758">
        <ele>1799.143</ele>
        <time>2026-02-02T10:52:52Z</time>
      </trkpt>
      <trkpt lat="46.17801" lon="6.54758">
        <ele>1799.254</ele>
        <time>2026-02-02T10:52:57Z</time>
      </trkpt>
      <trkpt lat="46.17801" lon="6.54758">
        <ele>1798.718</ele>
        <time>2026-02-02T10:53:02Z</time>
      </trkpt>
      <trkpt lat="46.17801" lon="6.54758">
        <ele>1798.59</ele>
        <time>2026-02-02T10:53:07Z</time>
      </trkpt>
      <trkpt lat="46.17801" lon="6.54758">
        <ele>1798.577</ele>
        <time>2026-02-02T10:53:12Z</time>
      </trkpt>
      <trkpt lat="46.17801" lon="6.54758">
        <ele>1798.956</ele>
        <time>2026-02-02T10:53:17Z</time>
      </trkpt>
      <trkpt lat="46.17801" lon="6.54758">
        <ele>1800.94</ele>
        <time>2026-02-02T10:53:22Z</time>
      </trkpt>
      <trkpt lat="46.17801" lon="6.54758">
        <ele>1801.021</ele>
        <time>2026-02-02T10:53:27Z</time>
      </trkpt>
      <trkpt lat="46.17801" lon="6.54758">
        <ele>1800.923</ele>
        <time>2026-02-02T10:53:32Z</time>
      </trkpt>
      <trkpt lat="46.17801" lon="6.54773">
        <ele>1800.471</ele>
        <time>2026-02-02T10:53:37Z</time>
      </trkpt>
      <trkpt lat="46.17802" lon="6.54773">
        <ele>1799.624</ele>
        <time>2026-02-02T10:53:42Z</time>
      </trkpt>
      <trkpt lat="46.17802" lon="6.54774">
        <ele>1798.943</ele>
        <time>2026-02-02T10:53:47Z</time>
      </trkpt>
      <trkpt lat="46.17801" lon="6.54777">
        <ele>1799.244</ele>
        <time>2026-02-02T10:53:52Z</time>
      </trkpt>
      <trkpt lat="46.178" lon="6.54779">
        <ele>1800.899</ele>
        <time>2026-02-02T10:53:57Z</time>
      </trkpt>
      <trkpt lat="46.178" lon="6.54779">
        <ele>1800.702</ele>
        <time>2026-02-02T10:54:02Z</time>
      </trkpt>
      <trkpt lat="46.178" lon="6.54779">
        <ele>1800.888</ele>
        <time>2026-02-02T10:54:07Z</time>
      </trkpt>
      <trkpt lat="46.17801" lon="6.54779">
        <ele>1801.414</ele>
        <time>2026-02-02T10:54:12Z</time>
      </trkpt>
      <trkpt lat="46.17803" lon="6.5478">
        <ele>1802.276</ele>
        <time>2026-02-02T10:54:17Z</time>
      </trkpt>
      <trkpt lat="46.17806" lon="6.5478">
        <ele>1802.625</ele>
        <time>2026-02-02T10:54:22Z</time>
      </trkpt>
      <trkpt lat="46.17808" lon="6.54779">
        <ele>1803.092</ele>
        <time>2026-02-02T10:54:27Z</time>
      </trkpt>
      <trkpt lat="46.17809" lon="6.54778">
        <ele>1803.143</ele>
        <time>2026-02-02T10:54:32Z</time>
      </trkpt>
      <trkpt lat="46.1781" lon="6.5478">
        <ele>1803.445</ele>
        <time>2026-02-02T10:54:37Z</time>
      </trkpt>
      <trkpt lat="46.1781" lon="6.54782">
        <ele>1803.471</ele>
        <time>2026-02-02T10:54:42Z</time>
      </trkpt>
      <trkpt lat="46.1781" lon="6.54783">
        <ele>1803.968</ele>
        <time>2026-02-02T10:54:47Z</time>
      </trkpt>
      <trkpt lat="46.17811" lon="6.54786">
        <ele>1804.223</ele>
        <time>2026-02-02T10:54:52Z</time>
      </trkpt>
      <trkpt lat="46.17811" lon="6.54789">
        <ele>1804.329</ele>
        <time>2026-02-02T10:54:57Z</time>
      </trkpt>
      <trkpt lat="46.17812" lon="6.54793">
        <ele>1804.841</ele>
        <time>2026-02-02T10:55:02Z</time>
      </trkpt>
      <trkpt lat="46.17814" lon="6.54795">
        <ele>1806.145</ele>
        <time>2026-02-02T10:55:07Z</time>
      </trkpt>
      <trkpt lat="46.17815" lon="6.54797">
        <ele>1807.57</ele>
        <time>2026-02-02T10:55:12Z</time>
      </trkpt>
      <trkpt lat="46.17817" lon="6.54799">
        <ele>1808.369</ele>
        <time>2026-02-02T10:55:17Z</time>
      </trkpt>
      <trkpt lat="46.17818" lon="6.54799">
        <ele>1808.842</ele>
        <time>2026-02-02T10:55:22Z</time>
      </trkpt>
      <trkpt lat="46.1782" lon="6.54802">
        <ele>1809.429</ele>
        <time>2026-02-02T10:55:27Z</time>
      </trkpt>
      <trkpt lat="46.17822" lon="6.54803">
        <ele>1810.083</ele>
        <time>2026-02-02T10:55:32Z</time>
      </trkpt>
      <trkpt lat="46.17824" lon="6.54805">
        <ele>1810.735</ele>
        <time>2026-02-02T10:55:37Z</time>
      </trkpt>
      <trkpt lat="46.17825" lon="6.54805">
        <ele>1811.458</ele>
        <time>2026-02-02T10:55:42Z</time>
      </trkpt>
      <trkpt lat="46.17827" lon="6.54806">
        <ele>1811.998</ele>
        <time>2026-02-02T10:55:47Z</time>
      </trkpt>
      <trkpt lat="46.17829" lon="6.54808">
        <ele>1813.977</ele>
        <time>2026-02-02T10:55:52Z</time>
      </trkpt>
      <trkpt lat="46.17832" lon="6.54809">
        <ele>1815.099</ele>
        <time>2026-02-02T10:55:57Z</time>
      </trkpt>
      <trkpt lat="46.17838" lon="6.54808">
        <ele>1814.383</ele>
        <time>2026-02-02T10:56:02Z</time>
      </trkpt>
      <trkpt lat="46.1784" lon="6.54809">
        <ele>1815.808</ele>
        <time>2026-02-02T10:56:07Z</time>
      </trkpt>
      <trkpt lat="46.17842" lon="6.5481">
        <ele>1816.735</ele>
        <time>2026-02-02T10:56:12Z</time>
      </trkpt>
      <trkpt lat="46.17844" lon="6.5481">
        <ele>1817.749</ele>
        <time>2026-02-02T10:56:17Z</time>
      </trkpt>
      <trkpt lat="46.17846" lon="6.54812">
        <ele>1818.605</ele>
        <time>2026-02-02T10:56:22Z</time>
      </trkpt>
      <trkpt lat="46.17848" lon="6.54814">
        <ele>1819.57</ele>
        <time>2026-02-02T10:56:27Z</time>
      </trkpt>
      <trkpt lat="46.1785" lon="6.54815">
        <ele>1818.865</ele>
        <time>2026-02-02T10:56:32Z</time>
      </trkpt>
      <trkpt lat="46.17852" lon="6.54817">
        <ele>1818.574</ele>
        <time>2026-02-02T10:56:37Z</time>
      </trkpt>
      <trkpt lat="46.17854" lon="6.54819">
        <ele>1818.634</ele>
        <time>2026-02-02T10:56:42Z</time>
      </trkpt>
      <trkpt lat="46.17855" lon="6.54822">
        <ele>1819.76</ele>
        <time>2026-02-02T10:56:47Z</time>
      </trkpt>
      <trkpt lat="46.17855" lon="6.54825">
        <ele>1820.364</ele>
        <time>2026-02-02T10:56:52Z</time>
      </trkpt>
      <trkpt lat="46.17855" lon="6.54829">
        <ele>1821.169</ele>
        <time>2026-02-02T10:56:57Z</time>
      </trkpt>
      <trkpt lat="46.17854" lon="6.54831">
        <ele>1822.536</ele>
        <time>2026-02-02T10:57:02Z</time>
      </trkpt>
      <trkpt lat="46.17854" lon="6.54831">
        <ele>1822.535</ele>
        <time>2026-02-02T10:57:07Z</time>
      </trkpt>
      <trkpt lat="46.17854" lon="6.54831">
        <ele>1822.535</ele>
        <time>2026-02-02T10:57:12Z</time>
      </trkpt>
      <trkpt lat="46.17854" lon="6.54831">
        <ele>1822.539</ele>
        <time>2026-02-02T10:57:17Z</time>
      </trkpt>
      <trkpt lat="46.17854" lon="6.54831">
        <ele>1822.53</ele>
        <time>2026-02-02T10:57:22Z</time>
      </trkpt>
      <trkpt lat="46.17854" lon="6.54831">
        <ele>1823.457</ele>
        <time>2026-02-02T10:57:27Z</time>
      </trkpt>
      <trkpt lat="46.17854" lon="6.54831">
        <ele>1824.237</ele>
        <time>2026-02-02T10:57:32Z</time>
      </trkpt>
      <trkpt lat="46.17854" lon="6.54831">
        <ele>1824.262</ele>
        <time>2026-02-02T10:57:37Z</time>
      </trkpt>
      <trkpt lat="46.17854" lon="6.54831">
        <ele>1824.182</ele>
        <time>2026-02-02T10:57:42Z</time>
      </trkpt>
      <trkpt lat="46.17854" lon="6.54831">
        <ele>1823.793</ele>
        <time>2026-02-02T10:57:47Z</time>
      </trkpt>
      <trkpt lat="46.17854" lon="6.54831">
        <ele>1822.758</ele>
        <time>2026-02-02T10:57:52Z</time>
      </trkpt>
      <trkpt lat="46.17854" lon="6.54831">
        <ele>1822.398</ele>
        <time>2026-02-02T10:57:57Z</time>
      </trkpt>
      <trkpt lat="46.17854" lon="6.54831">
        <ele>1822.021</ele>
        <time>2026-02-02T10:58:02Z</time>
      </trkpt>
      <trkpt lat="46.17854" lon="6.54831">
        <ele>1822.021</ele>
        <time>2026-02-02T10:58:07Z</time>
      </trkpt>
      <trkpt lat="46.17854" lon="6.54831">
        <ele>1822.025</ele>
        <time>2026-02-02T10:58:12Z</time>
      </trkpt>
      <trkpt lat="46.17854" lon="6.54831">
        <ele>1822.028</ele>
        <time>2026-02-02T10:58:17Z</time>
      </trkpt>
      <trkpt lat="46.17854" lon="6.54831">
        <ele>1822.482</ele>
        <time>2026-02-02T10:58:22Z</time>
      </trkpt>
      <trkpt lat="46.17854" lon="6.54831">
        <ele>1822.777</ele>
        <time>2026-02-02T10:58:27Z</time>
      </trkpt>
      <trkpt lat="46.17854" lon="6.54831">
        <ele>1823.283</ele>
        <time>2026-02-02T10:58:32Z</time>
      </trkpt>
      <trkpt lat="46.17854" lon="6.54831">
        <ele>1822.382</ele>
        <time>2026-02-02T10:58:37Z</time>
      </trkpt>
      <trkpt lat="46.17854" lon="6.54831">
        <ele>1822.722</ele>
        <time>2026-02-02T10:58:42Z</time>
      </trkpt>
      <trkpt lat="46.17854" lon="6.54831">
        <ele>1822.081</ele>
        <time>2026-02-02T10:58:47Z</time>
      </trkpt>
      <trkpt lat="46.17854" lon="6.54831">
        <ele>1821.889</ele>
        <time>2026-02-02T10:58:52Z</time>
      </trkpt>
      <trkpt lat="46.17854" lon="6.54831">
        <ele>1821.889</ele>
        <time>2026-02-02T10:58:57Z</time>
      </trkpt>
      <trkpt lat="46.17854" lon="6.54831">
        <ele>1821.886</ele>
        <time>2026-02-02T10:59:02Z</time>
      </trkpt>
      <trkpt lat="46.17854" lon="6.54831">
        <ele>1821.886</ele>
        <time>2026-02-02T10:59:07Z</time>
      </trkpt>
      <trkpt lat="46.17854" lon="6.54831">
        <ele>1821.885</ele>
        <time>2026-02-02T10:59:12Z</time>
      </trkpt>
      <trkpt lat="46.17854" lon="6.54831">
        <ele>1821.881</ele>
        <time>2026-02-02T10:59:17Z</time>
      </trkpt>
      <trkpt lat="46.17854" lon="6.54831">
        <ele>1821.626</ele>
        <time>2026-02-02T10:59:22Z</time>
      </trkpt>
      <trkpt lat="46.17854" lon="6.54831">
        <ele>1821.514</ele>
        <time>2026-02-02T10:59:27Z</time>
      </trkpt>
      <trkpt lat="46.17854" lon="6.54831">
        <ele>1821.594</ele>
        <time>2026-02-02T10:59:32Z</time>
      </trkpt>
      <trkpt lat="46.17854" lon="6.54831">
        <ele>1821.589</ele>
        <time>2026-02-02T10:59:37Z</time>
      </trkpt>
      <trkpt lat="46.17854" lon="6.54831">
        <ele>1821.587</ele>
        <time>2026-02-02T10:59:42Z</time>
      </trkpt>
      <trkpt lat="46.17854" lon="6.54831">
        <ele>1821.59</ele>
        <time>2026-02-02T10:59:47Z</time>
      </trkpt>
      <trkpt lat="46.17854" lon="6.54831">
        <ele>1821.586</ele>
        <time>2026-02-02T10:59:52Z</time>
      </trkpt>
      <trkpt lat="46.17854" lon="6.54831">
        <ele>1821.582</ele>
        <time>2026-02-02T10:59:57Z</time>
      </trkpt>
      <trkpt lat="46.17854" lon="6.54831">
        <ele>1821.576</ele>
        <time>2026-02-02T11:00:02Z</time>
      </trkpt>
      <trkpt lat="46.17854" lon="6.54831">
        <ele>1821.575</ele>
        <time>2026-02-02T11:00:07Z</time>
      </trkpt>
      <trkpt lat="46.17854" lon="6.54831">
        <ele>1821.563</ele>
        <time>2026-02-02T11:00:12Z</time>
      </trkpt>
      <trkpt lat="46.17854" lon="6.54831">
        <ele>1821.557</ele>
        <time>2026-02-02T11:00:17Z</time>
      </trkpt>
      <trkpt lat="46.17854" lon="6.54831">
        <ele>1821.551</ele>
        <time>2026-02-02T11:00:22Z</time>
      </trkpt>
      <trkpt lat="46.17854" lon="6.54831">
        <ele>1821.554</ele>
        <time>2026-02-02T11:00:27Z</time>
      </trkpt>
      <trkpt lat="46.17854" lon="6.54831">
        <ele>1821.55</ele>
        <time>2026-02-02T11:00:32Z</time>
      </trkpt>
      <trkpt lat="46.17854" lon="6.54831">
        <ele>1821.547</ele>
        <time>2026-02-02T11:00:37Z</time>
      </trkpt>
      <trkpt lat="46.17854" lon="6.54831">
        <ele>1821.547</ele>
        <time>2026-02-02T11:00:42Z</time>
      </trkpt>
      <trkpt lat="46.17854" lon="6.54831">
        <ele>1821.545</ele>
        <time>2026-02-02T11:00:47Z</time>
      </trkpt>
      <trkpt lat="46.17854" lon="6.54831">
        <ele>1821.545</ele>
        <time>2026-02-02T11:00:52Z</time>
      </trkpt>
      <trkpt lat="46.17854" lon="6.54831">
        <ele>1821.541</ele>
        <time>2026-02-02T11:00:57Z</time>
      </trkpt>
      <trkpt lat="46.17854" lon="6.54831">
        <ele>1821.542</ele>
        <time>2026-02-02T11:01:02Z</time>
      </trkpt>
      <trkpt lat="46.17854" lon="6.54831">
        <ele>1821.54</ele>
        <time>2026-02-02T11:01:07Z</time>
      </trkpt>
      <trkpt lat="46.17854" lon="6.54831">
        <ele>1821.54</ele>
        <time>2026-02-02T11:01:12Z</time>
      </trkpt>
      <trkpt lat="46.17854" lon="6.54831">
        <ele>1821.535</ele>
        <time>2026-02-02T11:01:17Z</time>
      </trkpt>
      <trkpt lat="46.17854" lon="6.54831">
        <ele>1821.535</ele>
        <time>2026-02-02T11:01:22Z</time>
      </trkpt>
      <trkpt lat="46.17854" lon="6.54831">
        <ele>1821.535</ele>
        <time>2026-02-02T11:01:27Z</time>
      </trkpt>
      <trkpt lat="46.17854" lon="6.54831">
        <ele>1821.102</ele>
        <time>2026-02-02T11:01:32Z</time>
      </trkpt>
      <trkpt lat="46.17854" lon="6.54831">
        <ele>1821.062</ele>
        <time>2026-02-02T11:01:37Z</time>
      </trkpt>
      <trkpt lat="46.17854" lon="6.54831">
        <ele>1821.058</ele>
        <time>2026-02-02T11:01:42Z</time>
      </trkpt>
      <trkpt lat="46.17854" lon="6.54831">
        <ele>1821.053</ele>
        <time>2026-02-02T11:01:47Z</time>
      </trkpt>
      <trkpt lat="46.17854" lon="6.54831">
        <ele>1821.02</ele>
        <time>2026-02-02T11:01:52Z</time>
      </trkpt>
      <trkpt lat="46.17854" lon="6.54831">
        <ele>1821.017</ele>
        <time>2026-02-02T11:01:57Z</time>
      </trkpt>
      <trkpt lat="46.17854" lon="6.54831">
        <ele>1820.988</ele>
        <time>2026-02-02T11:02:02Z</time>
      </trkpt>
      <trkpt lat="46.17854" lon="6.54831">
        <ele>1820.978</ele>
        <time>2026-02-02T11:02:07Z</time>
      </trkpt>
      <trkpt lat="46.17854" lon="6.54831">
        <ele>1820.689</ele>
        <time>2026-02-02T11:02:12Z</time>
      </trkpt>
      <trkpt lat="46.17854" lon="6.54831">
        <ele>1820.684</ele>
        <time>2026-02-02T11:02:17Z</time>
      </trkpt>
      <trkpt lat="46.17854" lon="6.54831">
        <ele>1820.677</ele>
        <time>2026-02-02T11:02:22Z</time>
      </trkpt>
      <trkpt lat="46.17854" lon="6.54831">
        <ele>1820.672</ele>
        <time>2026-02-02T11:02:27Z</time>
      </trkpt>
      <trkpt lat="46.17854" lon="6.54831">
        <ele>1820.672</ele>
        <time>2026-02-02T11:02:32Z</time>
      </trkpt>
      <trkpt lat="46.17854" lon="6.54831">
        <ele>1820.67</ele>
        <time>2026-02-02T11:02:37Z</time>
      </trkpt>
      <trkpt lat="46.17854" lon="6.54831">
        <ele>1820.667</ele>
        <time>2026-02-02T11:02:42Z</time>
      </trkpt>
      <trkpt lat="46.17854" lon="6.54831">
        <ele>1820.657</ele>
        <time>2026-02-02T11:02:47Z</time>
      </trkpt>
      <trkpt lat="46.17854" lon="6.54831">
        <ele>1820.922</ele>
        <time>2026-02-02T11:02:52Z</time>
      </trkpt>
      <trkpt lat="46.17854" lon="6.54831">
        <ele>1821.22</ele>
        <time>2026-02-02T11:02:57Z</time>
      </trkpt>
      <trkpt lat="46.17854" lon="6.54831">
        <ele>1821.367</ele>
        <time>2026-02-02T11:03:02Z</time>
      </trkpt>
      <trkpt lat="46.17854" lon="6.54831">
        <ele>1821.355</ele>
        <time>2026-02-02T11:03:07Z</time>
      </trkpt>
      <trkpt lat="46.17854" lon="6.54831">
        <ele>1821.346</ele>
        <time>2026-02-02T11:03:12Z</time>
      </trkpt>
      <trkpt lat="46.17854" lon="6.54831">
        <ele>1821.335</ele>
        <time>2026-02-02T11:03:17Z</time>
      </trkpt>
      <trkpt lat="46.17854" lon="6.54831">
        <ele>1821.317</ele>
        <time>2026-02-02T11:03:22Z</time>
      </trkpt>
      <trkpt lat="46.17854" lon="6.54831">
        <ele>1821.289</ele>
        <time>2026-02-02T11:03:27Z</time>
      </trkpt>
      <trkpt lat="46.17854" lon="6.54831">
        <ele>1821.275</ele>
        <time>2026-02-02T11:03:32Z</time>
      </trkpt>
      <trkpt lat="46.17854" lon="6.54831">
        <ele>1821.266</ele>
        <time>2026-02-02T11:03:37Z</time>
      </trkpt>
      <trkpt lat="46.17854" lon="6.54831">
        <ele>1821.262</ele>
        <time>2026-02-02T11:03:42Z</time>
      </trkpt>
      <trkpt lat="46.17854" lon="6.54831">
        <ele>1821.258</ele>
        <time>2026-02-02T11:03:47Z</time>
      </trkpt>
      <trkpt lat="46.17854" lon="6.54831">
        <ele>1821.262</ele>
        <time>2026-02-02T11:03:52Z</time>
      </trkpt>
      <trkpt lat="46.17854" lon="6.54831">
        <ele>1821.342</ele>
        <time>2026-02-02T11:03:57Z</time>
      </trkpt>
      <trkpt lat="46.17854" lon="6.54831">
        <ele>1821.751</ele>
        <time>2026-02-02T11:04:02Z</time>
      </trkpt>
      <trkpt lat="46.17854" lon="6.54831">
        <ele>1820.328</ele>
        <time>2026-02-02T11:04:07Z</time>
      </trkpt>
      <trkpt lat="46.17854" lon="6.54831">
        <ele>1820.317</ele>
        <time>2026-02-02T11:04:12Z</time>
      </trkpt>
      <trkpt lat="46.17854" lon="6.54831">
        <ele>1820.312</ele>
        <time>2026-02-02T11:04:17Z</time>
      </trkpt>
      <trkpt lat="46.17854" lon="6.54831">
        <ele>1820.297</ele>
        <time>2026-02-02T11:04:22Z</time>
      </trkpt>
      <trkpt lat="46.17854" lon="6.54831">
        <ele>1820.287</ele>
        <time>2026-02-02T11:04:27Z</time>
      </trkpt>
      <trkpt lat="46.17854" lon="6.54831">
        <ele>1820.274</ele>
        <time>2026-02-02T11:04:32Z</time>
      </trkpt>
      <trkpt lat="46.17854" lon="6.54831">
        <ele>1820.256</ele>
        <time>2026-02-02T11:04:37Z</time>
      </trkpt>
      <trkpt lat="46.17854" lon="6.54831">
        <ele>1820.245</ele>
        <time>2026-02-02T11:04:42Z</time>
      </trkpt>
      <trkpt lat="46.17854" lon="6.54831">
        <ele>1820.243</ele>
        <time>2026-02-02T11:04:47Z</time>
      </trkpt>
      <trkpt lat="46.17854" lon="6.54831">
        <ele>1820.238</ele>
        <time>2026-02-02T11:04:52Z</time>
      </trkpt>
      <trkpt lat="46.17854" lon="6.54831">
        <ele>1820.235</ele>
        <time>2026-02-02T11:04:57Z</time>
      </trkpt>
      <trkpt lat="46.17854" lon="6.54831">
        <ele>1820.228</ele>
        <time>2026-02-02T11:05:02Z</time>
      </trkpt>
      <trkpt lat="46.17854" lon="6.54831">
        <ele>1820.159</ele>
        <time>2026-02-02T11:05:07Z</time>
      </trkpt>
      <trkpt lat="46.17854" lon="6.54831">
        <ele>1820.148</ele>
        <time>2026-02-02T11:05:12Z</time>
      </trkpt>
      <trkpt lat="46.17854" lon="6.54831">
        <ele>1820.139</ele>
        <time>2026-02-02T11:05:17Z</time>
      </trkpt>
      <trkpt lat="46.17854" lon="6.54831">
        <ele>1820.137</ele>
        <time>2026-02-02T11:05:22Z</time>
      </trkpt>
      <trkpt lat="46.17854" lon="6.54831">
        <ele>1820.134</ele>
        <time>2026-02-02T11:05:27Z</time>
      </trkpt>
      <trkpt lat="46.17854" lon="6.54831">
        <ele>1820.131</ele>
        <time>2026-02-02T11:05:32Z</time>
      </trkpt>
      <trkpt lat="46.17854" lon="6.54831">
        <ele>1820.127</ele>
        <time>2026-02-02T11:05:37Z</time>
      </trkpt>
      <trkpt lat="46.17854" lon="6.54831">
        <ele>1820.122</ele>
        <time>2026-02-02T11:05:42Z</time>
      </trkpt>
      <trkpt lat="46.17854" lon="6.54831">
        <ele>1820.117</ele>
        <time>2026-02-02T11:05:47Z</time>
      </trkpt>
      <trkpt lat="46.17854" lon="6.54831">
        <ele>1820.114</ele>
        <time>2026-02-02T11:05:52Z</time>
      </trkpt>
      <trkpt lat="46.17854" lon="6.54831">
        <ele>1820.111</ele>
        <time>2026-02-02T11:05:57Z</time>
      </trkpt>
      <trkpt lat="46.17854" lon="6.54831">
        <ele>1820.107</ele>
        <time>2026-02-02T11:06:02Z</time>
      </trkpt>
      <trkpt lat="46.17854" lon="6.54831">
        <ele>1820.101</ele>
        <time>2026-02-02T11:06:07Z</time>
      </trkpt>
      <trkpt lat="46.17854" lon="6.54831">
        <ele>1820.093</ele>
        <time>2026-02-02T11:06:12Z</time>
      </trkpt>
      <trkpt lat="46.17854" lon="6.54831">
        <ele>1820.086</ele>
        <time>2026-02-02T11:06:17Z</time>
      </trkpt>
      <trkpt lat="46.17854" lon="6.54831">
        <ele>1820.07</ele>
        <time>2026-02-02T11:06:22Z</time>
      </trkpt>
      <trkpt lat="46.17854" lon="6.54831">
        <ele>1820.051</ele>
        <time>2026-02-02T11:06:27Z</time>
      </trkpt>
      <trkpt lat="46.17854" lon="6.54831">
        <ele>1820.043</ele>
        <time>2026-02-02T11:06:32Z</time>
      </trkpt>
      <trkpt lat="46.17854" lon="6.54831">
        <ele>1820.039</ele>
        <time>2026-02-02T11:06:37Z</time>
      </trkpt>
      <trkpt lat="46.17854" lon="6.54831">
        <ele>1820.029</ele>
        <time>2026-02-02T11:06:42Z</time>
      </trkpt>
      <trkpt lat="46.17854" lon="6.54831">
        <ele>1820.011</ele>
        <time>2026-02-02T11:06:47Z</time>
      </trkpt>
      <trkpt lat="46.17854" lon="6.54831">
        <ele>1819.996</ele>
        <time>2026-02-02T11:06:52Z</time>
      </trkpt>
      <trkpt lat="46.17854" lon="6.54831">
        <ele>1819.988</ele>
        <time>2026-02-02T11:06:57Z</time>
      </trkpt>
      <trkpt lat="46.17854" lon="6.54831">
        <ele>1819.976</ele>
        <time>2026-02-02T11:07:02Z</time>
      </trkpt>
      <trkpt lat="46.17854" lon="6.54831">
        <ele>1819.971</ele>
        <time>2026-02-02T11:07:07Z</time>
      </trkpt>
      <trkpt lat="46.17854" lon="6.54831">
        <ele>1819.966</ele>
        <time>2026-02-02T11:07:12Z</time>
      </trkpt>
      <trkpt lat="46.17854" lon="6.54831">
        <ele>1819.961</ele>
        <time>2026-02-02T11:07:17Z</time>
      </trkpt>
      <trkpt lat="46.17854" lon="6.54831">
        <ele>1819.96</ele>
        <time>2026-02-02T11:07:22Z</time>
      </trkpt>
      <trkpt lat="46.17854" lon="6.54831">
        <ele>1819.96</ele>
        <time>2026-02-02T11:07:27Z</time>
      </trkpt>
      <trkpt lat="46.17854" lon="6.54831">
        <ele>1819.957</ele>
        <time>2026-02-02T11:07:32Z</time>
      </trkpt>
      <trkpt lat="46.17854" lon="6.54831">
        <ele>1819.952</ele>
        <time>2026-02-02T11:07:37Z</time>
      </trkpt>
      <trkpt lat="46.17854" lon="6.54831">
        <ele>1819.951</ele>
        <time>2026-02-02T11:07:42Z</time>
      </trkpt>
      <trkpt lat="46.17854" lon="6.54831">
        <ele>1819.907</ele>
        <time>2026-02-02T11:07:47Z</time>
      </trkpt>
      <trkpt lat="46.17854" lon="6.54831">
        <ele>1819.9</ele>
        <time>2026-02-02T11:07:52Z</time>
      </trkpt>
      <trkpt lat="46.17854" lon="6.54831">
        <ele>1819.895</ele>
        <time>2026-02-02T11:07:57Z</time>
      </trkpt>
      <trkpt lat="46.17854" lon="6.54831">
        <ele>1819.895</ele>
        <time>2026-02-02T11:08:02Z</time>
      </trkpt>
      <trkpt lat="46.17854" lon="6.54831">
        <ele>1819.9</ele>
        <time>2026-02-02T11:08:07Z</time>
      </trkpt>
      <trkpt lat="46.17854" lon="6.54831">
        <ele>1819.899</ele>
        <time>2026-02-02T11:08:12Z</time>
      </trkpt>
      <trkpt lat="46.17854" lon="6.54831">
        <ele>1819.899</ele>
        <time>2026-02-02T11:08:17Z</time>
      </trkpt>
      <trkpt lat="46.17854" lon="6.54831">
        <ele>1820.214</ele>
        <time>2026-02-02T11:08:22Z</time>
      </trkpt>
      <trkpt lat="46.17854" lon="6.54831">
        <ele>1820.211</ele>
        <time>2026-02-02T11:08:27Z</time>
      </trkpt>
      <trkpt lat="46.17854" lon="6.54831">
        <ele>1820.208</ele>
        <time>2026-02-02T11:08:32Z</time>
      </trkpt>
      <trkpt lat="46.17854" lon="6.54831">
        <ele>1820.191</ele>
        <time>2026-02-02T11:08:37Z</time>
      </trkpt>
      <trkpt lat="46.17854" lon="6.54831">
        <ele>1820.192</ele>
        <time>2026-02-02T11:08:42Z</time>
      </trkpt>
      <trkpt lat="46.17854" lon="6.54831">
        <ele>1820.2</ele>
        <time>2026-02-02T11:08:47Z</time>
      </trkpt>
      <trkpt lat="46.17854" lon="6.54831">
        <ele>1820.2</ele>
        <time>2026-02-02T11:08:52Z</time>
      </trkpt>
      <trkpt lat="46.17854" lon="6.54831">
        <ele>1820.203</ele>
        <time>2026-02-02T11:08:57Z</time>
      </trkpt>
      <trkpt lat="46.17854" lon="6.54831">
        <ele>1820.202</ele>
        <time>2026-02-02T11:09:02Z</time>
      </trkpt>
      <trkpt lat="46.17854" lon="6.54831">
        <ele>1820.199</ele>
        <time>2026-02-02T11:09:07Z</time>
      </trkpt>
      <trkpt lat="46.17854" lon="6.54831">
        <ele>1819.979</ele>
        <time>2026-02-02T11:09:12Z</time>
      </trkpt>
      <trkpt lat="46.17854" lon="6.54831">
        <ele>1819.969</ele>
        <time>2026-02-02T11:09:17Z</time>
      </trkpt>
      <trkpt lat="46.17854" lon="6.54831">
        <ele>1820.186</ele>
        <time>2026-02-02T11:09:22Z</time>
      </trkpt>
      <trkpt lat="46.17854" lon="6.54831">
        <ele>1820.181</ele>
        <time>2026-02-02T11:09:27Z</time>
      </trkpt>
      <trkpt lat="46.17854" lon="6.54831">
        <ele>1820.043</ele>
        <time>2026-02-02T11:09:32Z</time>
      </trkpt>
      <trkpt lat="46.17854" lon="6.54831">
        <ele>1820.13</ele>
        <time>2026-02-02T11:09:37Z</time>
      </trkpt>
      <trkpt lat="46.17854" lon="6.54831">
        <ele>1820.126</ele>
        <time>2026-02-02T11:09:42Z</time>
      </trkpt>
      <trkpt lat="46.17854" lon="6.54831">
        <ele>1820.115</ele>
        <time>2026-02-02T11:09:47Z</time>
      </trkpt>
      <trkpt lat="46.17854" lon="6.54831">
        <ele>1820.097</ele>
        <time>2026-02-02T11:09:52Z</time>
      </trkpt>
      <trkpt lat="46.17854" lon="6.54831">
        <ele>1820.092</ele>
        <time>2026-02-02T11:09:57Z</time>
      </trkpt>
      <trkpt lat="46.17854" lon="6.54831">
        <ele>1820.075</ele>
        <time>2026-02-02T11:10:02Z</time>
      </trkpt>
      <trkpt lat="46.17854" lon="6.54831">
        <ele>1820.074</ele>
        <time>2026-02-02T11:10:07Z</time>
      </trkpt>
      <trkpt lat="46.17844" lon="6.54841">
        <ele>1819.869</ele>
        <time>2026-02-02T11:10:12Z</time>
      </trkpt>
      <trkpt lat="46.17844" lon="6.54842">
        <ele>1819.87</ele>
        <time>2026-02-02T11:10:17Z</time>
      </trkpt>
      <trkpt lat="46.17843" lon="6.54842">
        <ele>1819.865</ele>
        <time>2026-02-02T11:10:22Z</time>
      </trkpt>
      <trkpt lat="46.17843" lon="6.54842">
        <ele>1819.858</ele>
        <time>2026-02-02T11:10:27Z</time>
      </trkpt>
      <trkpt lat="46.17843" lon="6.54842">
        <ele>1819.84</ele>
        <time>2026-02-02T11:10:32Z</time>
      </trkpt>
      <trkpt lat="46.17843" lon="6.54842">
        <ele>1819.834</ele>
        <time>2026-02-02T11:10:37Z</time>
      </trkpt>
      <trkpt lat="46.17843" lon="6.54842">
        <ele>1819.831</ele>
        <time>2026-02-02T11:10:42Z</time>
      </trkpt>
      <trkpt lat="46.17843" lon="6.54842">
        <ele>1819.139</ele>
        <time>2026-02-02T11:10:47Z</time>
      </trkpt>
      <trkpt lat="46.17843" lon="6.54842">
        <ele>1819.139</ele>
        <time>2026-02-02T11:10:52Z</time>
      </trkpt>
      <trkpt lat="46.17843" lon="6.54843">
        <ele>1818.376</ele>
        <time>2026-02-02T11:10:57Z</time>
      </trkpt>
      <trkpt lat="46.17844" lon="6.54845">
        <ele>1817.019</ele>
        <time>2026-02-02T11:11:02Z</time>
      </trkpt>
      <trkpt lat="46.17849" lon="6.54853">
        <ele>1814.667</ele>
        <time>2026-02-02T11:11:07Z</time>
      </trkpt>
      <trkpt lat="46.17844" lon="6.54863">
        <ele>1811.906</ele>
        <time>2026-02-02T11:11:12Z</time>
      </trkpt>
      <trkpt lat="46.17842" lon="6.54866">
        <ele>1811.496</ele>
        <time>2026-02-02T11:11:17Z</time>
      </trkpt>
      <trkpt lat="46.17839" lon="6.54873">
        <ele>1809.977</ele>
        <time>2026-02-02T11:11:22Z</time>
      </trkpt>
      <trkpt lat="46.17838" lon="6.54887">
        <ele>1804.094</ele>
        <time>2026-02-02T11:11:27Z</time>
      </trkpt>
      <trkpt lat="46.17838" lon="6.54909">
        <ele>1795.788</ele>
        <time>2026-02-02T11:11:32Z</time>
      </trkpt>
      <trkpt lat="46.17834" lon="6.54916">
        <ele>1793.377</ele>
        <time>2026-02-02T11:11:37Z</time>
      </trkpt>
      <trkpt lat="46.17834" lon="6.54916">
        <ele>1794.664</ele>
        <time>2026-02-02T11:11:42Z</time>
      </trkpt>
      <trkpt lat="46.17834" lon="6.54916">
        <ele>1797.093</ele>
        <time>2026-02-02T11:11:47Z</time>
      </trkpt>
      <trkpt lat="46.17834" lon="6.54916">
        <ele>1798.247</ele>
        <time>2026-02-02T11:11:52Z</time>
      </trkpt>
      <trkpt lat="46.17834" lon="6.54916">
        <ele>1798.889</ele>
        <time>2026-02-02T11:11:57Z</time>
      </trkpt>
      <trkpt lat="46.17834" lon="6.54916">
        <ele>1798.892</ele>
        <time>2026-02-02T11:12:02Z</time>
      </trkpt>
      <trkpt lat="46.17834" lon="6.54916">
        <ele>1798.803</ele>
        <time>2026-02-02T11:12:07Z</time>
      </trkpt>
      <trkpt lat="46.17834" lon="6.54916">
        <ele>1798.805</ele>
        <time>2026-02-02T11:12:12Z</time>
      </trkpt>
      <trkpt lat="46.17834" lon="6.54916">
        <ele>1798.809</ele>
        <time>2026-02-02T11:12:17Z</time>
      </trkpt>
      <trkpt lat="46.17834" lon="6.54916">
        <ele>1798.815</ele>
        <time>2026-02-02T11:12:22Z</time>
      </trkpt>
      <trkpt lat="46.17834" lon="6.54916">
        <ele>1798.699</ele>
        <time>2026-02-02T11:12:27Z</time>
      </trkpt>
      <trkpt lat="46.17834" lon="6.54916">
        <ele>1798.061</ele>
        <time>2026-02-02T11:12:32Z</time>
      </trkpt>
      <trkpt lat="46.17834" lon="6.54916">
        <ele>1797.845</ele>
        <time>2026-02-02T11:12:37Z</time>
      </trkpt>
      <trkpt lat="46.17834" lon="6.54916">
        <ele>1797.492</ele>
        <time>2026-02-02T11:12:42Z</time>
      </trkpt>
      <trkpt lat="46.17834" lon="6.54916">
        <ele>1797.503</ele>
        <time>2026-02-02T11:12:47Z</time>
      </trkpt>
      <trkpt lat="46.17834" lon="6.54916">
        <ele>1795.609</ele>
        <time>2026-02-02T11:12:52Z</time>
      </trkpt>
      <trkpt lat="46.17831" lon="6.54917">
        <ele>1795.25</ele>
        <time>2026-02-02T11:12:57Z</time>
      </trkpt>
      <trkpt lat="46.1782" lon="6.54921">
        <ele>1791.541</ele>
        <time>2026-02-02T11:13:02Z</time>
      </trkpt>
      <trkpt lat="46.17817" lon="6.54936">
        <ele>1785.311</ele>
        <time>2026-02-02T11:13:07Z</time>
      </trkpt>
      <trkpt lat="46.17818" lon="6.54959">
        <ele>1776.394</ele>
        <time>2026-02-02T11:13:12Z</time>
      </trkpt>
      <trkpt lat="46.17808" lon="6.54981">
        <ele>1766.408</ele>
        <time>2026-02-02T11:13:17Z</time>
      </trkpt>
      <trkpt lat="46.1781" lon="6.55">
        <ele>1760.149</ele>
        <time>2026-02-02T11:13:22Z</time>
      </trkpt>
      <trkpt lat="46.1781" lon="6.55">
        <ele>1761.045</ele>
        <time>2026-02-02T11:13:27Z</time>
      </trkpt>
      <trkpt lat="46.1781" lon="6.55">
        <ele>1761.202</ele>
        <time>2026-02-02T11:13:32Z</time>
      </trkpt>
      <trkpt lat="46.1781" lon="6.55">
        <ele>1761.175</ele>
        <time>2026-02-02T11:13:37Z</time>
      </trkpt>
      <trkpt lat="46.1781" lon="6.55">
        <ele>1761.158</ele>
        <time>2026-02-02T11:13:42Z</time>
      </trkpt>
      <trkpt lat="46.1781" lon="6.54999">
        <ele>1761.17</ele>
        <time>2026-02-02T11:13:47Z</time>
      </trkpt>
      <trkpt lat="46.1781" lon="6.54999">
        <ele>1761.172</ele>
        <time>2026-02-02T11:13:52Z</time>
      </trkpt>
      <trkpt lat="46.17805" lon="6.55002">
        <ele>1758.936</ele>
        <time>2026-02-02T11:13:57Z</time>
      </trkpt>
      <trkpt lat="46.17796" lon="6.55021">
        <ele>1755.068</ele>
        <time>2026-02-02T11:14:02Z</time>
      </trkpt>
      <trkpt lat="46.17799" lon="6.55045">
        <ele>1747.772</ele>
        <time>2026-02-02T11:14:07Z</time>
      </trkpt>
      <trkpt lat="46.17804" lon="6.55072">
        <ele>1739.027</ele>
        <time>2026-02-02T11:14:12Z</time>
      </trkpt>
      <trkpt lat="46.17805" lon="6.55098">
        <ele>1729.335</ele>
        <time>2026-02-02T11:14:17Z</time>
      </trkpt>
      <trkpt lat="46.17805" lon="6.55124">
        <ele>1722.348</ele>
        <time>2026-02-02T11:14:22Z</time>
      </trkpt>
      <trkpt lat="46.17804" lon="6.55141">
        <ele>1717.55</ele>
        <time>2026-02-02T11:14:27Z</time>
      </trkpt>
      <trkpt lat="46.17815" lon="6.55161">
        <ele>1706.118</ele>
        <time>2026-02-02T11:14:32Z</time>
      </trkpt>
      <trkpt lat="46.17827" lon="6.55171">
        <ele>1699.97</ele>
        <time>2026-02-02T11:14:37Z</time>
      </trkpt>
      <trkpt lat="46.17828" lon="6.55173">
        <ele>1699.228</ele>
        <time>2026-02-02T11:14:42Z</time>
      </trkpt>
      <trkpt lat="46.17828" lon="6.55173">
        <ele>1699.333</ele>
        <time>2026-02-02T11:14:47Z</time>
      </trkpt>
      <trkpt lat="46.17828" lon="6.55183">
        <ele>1696.56</ele>
        <time>2026-02-02T11:14:52Z</time>
      </trkpt>
      <trkpt lat="46.17816" lon="6.55208">
        <ele>1693.272</ele>
        <time>2026-02-02T11:14:57Z</time>
      </trkpt>
      <trkpt lat="46.1781" lon="6.55227">
        <ele>1693.771</ele>
        <time>2026-02-02T11:15:02Z</time>
      </trkpt>
      <trkpt lat="46.17809" lon="6.55229">
        <ele>1693.481</ele>
        <time>2026-02-02T11:15:07Z</time>
      </trkpt>
      <trkpt lat="46.17809" lon="6.55229">
        <ele>1693.075</ele>
        <time>2026-02-02T11:15:12Z</time>
      </trkpt>
      <trkpt lat="46.17809" lon="6.55229">
        <ele>1693.387</ele>
        <time>2026-02-02T11:15:17Z</time>
      </trkpt>
      <trkpt lat="46.17809" lon="6.55229">
        <ele>1692.282</ele>
        <time>2026-02-02T11:15:22Z</time>
      </trkpt>
      <trkpt lat="46.17809" lon="6.55229">
        <ele>1692.115</ele>
        <time>2026-02-02T11:15:27Z</time>
      </trkpt>
      <trkpt lat="46.17809" lon="6.55229">
        <ele>1692.126</ele>
        <time>2026-02-02T11:15:32Z</time>
      </trkpt>
      <trkpt lat="46.17809" lon="6.55229">
        <ele>1692.123</ele>
        <time>2026-02-02T11:15:37Z</time>
      </trkpt>
      <trkpt lat="46.17809" lon="6.55229">
        <ele>1692.124</ele>
        <time>2026-02-02T11:15:42Z</time>
      </trkpt>
      <trkpt lat="46.17809" lon="6.55229">
        <ele>1692.132</ele>
        <time>2026-02-02T11:15:47Z</time>
      </trkpt>
      <trkpt lat="46.17809" lon="6.55229">
        <ele>1692.131</ele>
        <time>2026-02-02T11:15:52Z</time>
      </trkpt>
      <trkpt lat="46.17809" lon="6.55229">
        <ele>1692.133</ele>
        <time>2026-02-02T11:15:57Z</time>
      </trkpt>
      <trkpt lat="46.17809" lon="6.55229">
        <ele>1692.129</ele>
        <time>2026-02-02T11:16:02Z</time>
      </trkpt>
      <trkpt lat="46.17809" lon="6.55229">
        <ele>1692.116</ele>
        <time>2026-02-02T11:16:07Z</time>
      </trkpt>
      <trkpt lat="46.17809" lon="6.55229">
        <ele>1692.119</ele>
        <time>2026-02-02T11:16:12Z</time>
      </trkpt>
      <trkpt lat="46.17809" lon="6.55229">
        <ele>1692.109</ele>
        <time>2026-02-02T11:16:17Z</time>
      </trkpt>
      <trkpt lat="46.17809" lon="6.55229">
        <ele>1692.106</ele>
        <time>2026-02-02T11:16:22Z</time>
      </trkpt>
      <trkpt lat="46.17809" lon="6.55229">
        <ele>1692.093</ele>
        <time>2026-02-02T11:16:27Z</time>
      </trkpt>
      <trkpt lat="46.17809" lon="6.55229">
        <ele>1692.095</ele>
        <time>2026-02-02T11:16:32Z</time>
      </trkpt>
      <trkpt lat="46.17809" lon="6.55229">
        <ele>1692.089</ele>
        <time>2026-02-02T11:16:37Z</time>
      </trkpt>
      <trkpt lat="46.17809" lon="6.55229">
        <ele>1694.238</ele>
        <time>2026-02-02T11:16:42Z</time>
      </trkpt>
      <trkpt lat="46.17809" lon="6.55229">
        <ele>1697.106</ele>
        <time>2026-02-02T11:16:47Z</time>
      </trkpt>
      <trkpt lat="46.17809" lon="6.55229">
        <ele>1698.076</ele>
        <time>2026-02-02T11:16:52Z</time>
      </trkpt>
      <trkpt lat="46.17809" lon="6.55229">
        <ele>1698.091</ele>
        <time>2026-02-02T11:16:57Z</time>
      </trkpt>
      <trkpt lat="46.17809" lon="6.55229">
        <ele>1698.103</ele>
        <time>2026-02-02T11:17:02Z</time>
      </trkpt>
      <trkpt lat="46.17809" lon="6.55229">
        <ele>1698.144</ele>
        <time>2026-02-02T11:17:07Z</time>
      </trkpt>
      <trkpt lat="46.17809" lon="6.55229">
        <ele>1698.168</ele>
        <time>2026-02-02T11:17:12Z</time>
      </trkpt>
      <trkpt lat="46.17809" lon="6.55229">
        <ele>1698.141</ele>
        <time>2026-02-02T11:17:17Z</time>
      </trkpt>
      <trkpt lat="46.17809" lon="6.55229">
        <ele>1698.109</ele>
        <time>2026-02-02T11:17:22Z</time>
      </trkpt>
      <trkpt lat="46.17809" lon="6.55229">
        <ele>1698.115</ele>
        <time>2026-02-02T11:17:27Z</time>
      </trkpt>
      <trkpt lat="46.17809" lon="6.55229">
        <ele>1698.099</ele>
        <time>2026-02-02T11:17:32Z</time>
      </trkpt>
      <trkpt lat="46.17809" lon="6.55229">
        <ele>1698.091</ele>
        <time>2026-02-02T11:17:37Z</time>
      </trkpt>
      <trkpt lat="46.17809" lon="6.55229">
        <ele>1698.02</ele>
        <time>2026-02-02T11:17:42Z</time>
      </trkpt>
      <trkpt lat="46.17809" lon="6.55229">
        <ele>1698.018</ele>
        <time>2026-02-02T11:17:47Z</time>
      </trkpt>
      <trkpt lat="46.17809" lon="6.55229">
        <ele>1697.99</ele>
        <time>2026-02-02T11:17:52Z</time>
      </trkpt>
      <trkpt lat="46.17809" lon="6.55229">
        <ele>1697.976</ele>
        <time>2026-02-02T11:17:57Z</time>
      </trkpt>
      <trkpt lat="46.17809" lon="6.55229">
        <ele>1697.97</ele>
        <time>2026-02-02T11:18:02Z</time>
      </trkpt>
      <trkpt lat="46.17809" lon="6.55229">
        <ele>1697.995</ele>
        <time>2026-02-02T11:18:07Z</time>
      </trkpt>
      <trkpt lat="46.17809" lon="6.55229">
        <ele>1697.993</ele>
        <time>2026-02-02T11:18:12Z</time>
      </trkpt>
      <trkpt lat="46.17809" lon="6.55229">
        <ele>1698.021</ele>
        <time>2026-02-02T11:18:17Z</time>
      </trkpt>
      <trkpt lat="46.17809" lon="6.55229">
        <ele>1698.042</ele>
        <time>2026-02-02T11:18:22Z</time>
      </trkpt>
      <trkpt lat="46.17809" lon="6.55229">
        <ele>1698.105</ele>
        <time>2026-02-02T11:18:27Z</time>
      </trkpt>
      <trkpt lat="46.17809" lon="6.55229">
        <ele>1698.08</ele>
        <time>2026-02-02T11:18:32Z</time>
      </trkpt>
      <trkpt lat="46.17809" lon="6.55229">
        <ele>1698.041</ele>
        <time>2026-02-02T11:18:37Z</time>
      </trkpt>
      <trkpt lat="46.17809" lon="6.55229">
        <ele>1698.007</ele>
        <time>2026-02-02T11:18:42Z</time>
      </trkpt>
      <trkpt lat="46.17809" lon="6.55229">
        <ele>1697.791</ele>
        <time>2026-02-02T11:18:47Z</time>
      </trkpt>
      <trkpt lat="46.17809" lon="6.55229">
        <ele>1697.738</ele>
        <time>2026-02-02T11:18:52Z</time>
      </trkpt>
      <trkpt lat="46.17809" lon="6.55229">
        <ele>1697.674</ele>
        <time>2026-02-02T11:18:57Z</time>
      </trkpt>
      <trkpt lat="46.17809" lon="6.55229">
        <ele>1697.658</ele>
        <time>2026-02-02T11:19:02Z</time>
      </trkpt>
      <trkpt lat="46.17809" lon="6.55229">
        <ele>1697.634</ele>
        <time>2026-02-02T11:19:07Z</time>
      </trkpt>
      <trkpt lat="46.17809" lon="6.55229">
        <ele>1697.66</ele>
        <time>2026-02-02T11:19:12Z</time>
      </trkpt>
      <trkpt lat="46.17809" lon="6.55229">
        <ele>1697.666</ele>
        <time>2026-02-02T11:19:17Z</time>
      </trkpt>
      <trkpt lat="46.17809" lon="6.55229">
        <ele>1697.652</ele>
        <time>2026-02-02T11:19:22Z</time>
      </trkpt>
      <trkpt lat="46.17809" lon="6.55229">
        <ele>1697.63</ele>
        <time>2026-02-02T11:19:27Z</time>
      </trkpt>
      <trkpt lat="46.17809" lon="6.55229">
        <ele>1697.581</ele>
        <time>2026-02-02T11:19:32Z</time>
      </trkpt>
      <trkpt lat="46.17809" lon="6.55229">
        <ele>1697.551</ele>
        <time>2026-02-02T11:19:37Z</time>
      </trkpt>
      <trkpt lat="46.17809" lon="6.55229">
        <ele>1697.518</ele>
        <time>2026-02-02T11:19:42Z</time>
      </trkpt>
      <trkpt lat="46.17809" lon="6.55229">
        <ele>1697.475</ele>
        <time>2026-02-02T11:19:47Z</time>
      </trkpt>
      <trkpt lat="46.17809" lon="6.55229">
        <ele>1697.464</ele>
        <time>2026-02-02T11:19:52Z</time>
      </trkpt>
      <trkpt lat="46.17809" lon="6.55229">
        <ele>1697.459</ele>
        <time>2026-02-02T11:19:57Z</time>
      </trkpt>
      <trkpt lat="46.17809" lon="6.55229">
        <ele>1697.442</ele>
        <time>2026-02-02T11:20:02Z</time>
      </trkpt>
      <trkpt lat="46.17809" lon="6.55229">
        <ele>1697.448</ele>
        <time>2026-02-02T11:20:07Z</time>
      </trkpt>
      <trkpt lat="46.17809" lon="6.55229">
        <ele>1697.441</ele>
        <time>2026-02-02T11:20:12Z</time>
      </trkpt>
      <trkpt lat="46.17809" lon="6.55229">
        <ele>1697.445</ele>
        <time>2026-02-02T11:20:17Z</time>
      </trkpt>
      <trkpt lat="46.17809" lon="6.55229">
        <ele>1697.437</ele>
        <time>2026-02-02T11:20:22Z</time>
      </trkpt>
      <trkpt lat="46.17809" lon="6.55229">
        <ele>1697.431</ele>
        <time>2026-02-02T11:20:27Z</time>
      </trkpt>
      <trkpt lat="46.17809" lon="6.55229">
        <ele>1697.391</ele>
        <time>2026-02-02T11:20:32Z</time>
      </trkpt>
      <trkpt lat="46.17809" lon="6.55229">
        <ele>1697.378</ele>
        <time>2026-02-02T11:20:37Z</time>
      </trkpt>
      <trkpt lat="46.17809" lon="6.55229">
        <ele>1697.356</ele>
        <time>2026-02-02T11:20:42Z</time>
      </trkpt>
      <trkpt lat="46.17809" lon="6.55229">
        <ele>1697.313</ele>
        <time>2026-02-02T11:20:47Z</time>
      </trkpt>
      <trkpt lat="46.17809" lon="6.55229">
        <ele>1697.276</ele>
        <time>2026-02-02T11:20:52Z</time>
      </trkpt>
      <trkpt lat="46.17809" lon="6.55229">
        <ele>1697.245</ele>
        <time>2026-02-02T11:20:57Z</time>
      </trkpt>
      <trkpt lat="46.17809" lon="6.55229">
        <ele>1697.208</ele>
        <time>2026-02-02T11:21:02Z</time>
      </trkpt>
      <trkpt lat="46.17809" lon="6.55229">
        <ele>1697.184</ele>
        <time>2026-02-02T11:21:07Z</time>
      </trkpt>
      <trkpt lat="46.17809" lon="6.55229">
        <ele>1697.148</ele>
        <time>2026-02-02T11:21:12Z</time>
      </trkpt>
      <trkpt lat="46.17809" lon="6.55229">
        <ele>1697.12</ele>
        <time>2026-02-02T11:21:17Z</time>
      </trkpt>
      <trkpt lat="46.17809" lon="6.55229">
        <ele>1697.094</ele>
        <time>2026-02-02T11:21:22Z</time>
      </trkpt>
      <trkpt lat="46.17809" lon="6.55229">
        <ele>1697.077</ele>
        <time>2026-02-02T11:21:27Z</time>
      </trkpt>
      <trkpt lat="46.17809" lon="6.55229">
        <ele>1697.072</ele>
        <time>2026-02-02T11:21:32Z</time>
      </trkpt>
      <trkpt lat="46.17809" lon="6.55229">
        <ele>1697.069</ele>
        <time>2026-02-02T11:21:37Z</time>
      </trkpt>
      <trkpt lat="46.17809" lon="6.55229">
        <ele>1697.067</ele>
        <time>2026-02-02T11:21:42Z</time>
      </trkpt>
      <trkpt lat="46.17809" lon="6.55229">
        <ele>1697.056</ele>
        <time>2026-02-02T11:21:47Z</time>
      </trkpt>
      <trkpt lat="46.17809" lon="6.55229">
        <ele>1697.032</ele>
        <time>2026-02-02T11:21:52Z</time>
      </trkpt>
      <trkpt lat="46.17809" lon="6.55229">
        <ele>1696.999</ele>
        <time>2026-02-02T11:21:57Z</time>
      </trkpt>
      <trkpt lat="46.17809" lon="6.55229">
        <ele>1696.979</ele>
        <time>2026-02-02T11:22:02Z</time>
      </trkpt>
      <trkpt lat="46.17809" lon="6.55229">
        <ele>1696.969</ele>
        <time>2026-02-02T11:22:07Z</time>
      </trkpt>
      <trkpt lat="46.17809" lon="6.55229">
        <ele>1696.952</ele>
        <time>2026-02-02T11:22:12Z</time>
      </trkpt>
      <trkpt lat="46.17809" lon="6.55229">
        <ele>1696.941</ele>
        <time>2026-02-02T11:22:17Z</time>
      </trkpt>
      <trkpt lat="46.17809" lon="6.55229">
        <ele>1696.921</ele>
        <time>2026-02-02T11:22:22Z</time>
      </trkpt>
      <trkpt lat="46.17809" lon="6.55229">
        <ele>1696.918</ele>
        <time>2026-02-02T11:22:27Z</time>
      </trkpt>
      <trkpt lat="46.17809" lon="6.55229">
        <ele>1696.887</ele>
        <time>2026-02-02T11:22:32Z</time>
      </trkpt>
      <trkpt lat="46.17809" lon="6.55229">
        <ele>1696.86</ele>
        <time>2026-02-02T11:22:37Z</time>
      </trkpt>
      <trkpt lat="46.17809" lon="6.55229">
        <ele>1696.831</ele>
        <time>2026-02-02T11:22:42Z</time>
      </trkpt>
      <trkpt lat="46.17809" lon="6.55229">
        <ele>1696.817</ele>
        <time>2026-02-02T11:22:47Z</time>
      </trkpt>
      <trkpt lat="46.17809" lon="6.55229">
        <ele>1696.783</ele>
        <time>2026-02-02T11:22:52Z</time>
      </trkpt>
      <trkpt lat="46.17809" lon="6.55229">
        <ele>1696.768</ele>
        <time>2026-02-02T11:22:57Z</time>
      </trkpt>
      <trkpt lat="46.17809" lon="6.55229">
        <ele>1696.76</ele>
        <time>2026-02-02T11:23:02Z</time>
      </trkpt>
      <trkpt lat="46.17809" lon="6.55229">
        <ele>1697.099</ele>
        <time>2026-02-02T11:23:07Z</time>
      </trkpt>
      <trkpt lat="46.17809" lon="6.55229">
        <ele>1697.559</ele>
        <time>2026-02-02T11:23:12Z</time>
      </trkpt>
      <trkpt lat="46.17809" lon="6.55229">
        <ele>1696.713</ele>
        <time>2026-02-02T11:23:17Z</time>
      </trkpt>
      <trkpt lat="46.17809" lon="6.55229">
        <ele>1696.648</ele>
        <time>2026-02-02T11:23:22Z</time>
      </trkpt>
      <trkpt lat="46.17809" lon="6.55229">
        <ele>1696.667</ele>
        <time>2026-02-02T11:23:27Z</time>
      </trkpt>
      <trkpt lat="46.17809" lon="6.55229">
        <ele>1696.662</ele>
        <time>2026-02-02T11:23:32Z</time>
      </trkpt>
      <trkpt lat="46.17809" lon="6.55229">
        <ele>1696.643</ele>
        <time>2026-02-02T11:23:37Z</time>
      </trkpt>
      <trkpt lat="46.17809" lon="6.55229">
        <ele>1696.774</ele>
        <time>2026-02-02T11:23:42Z</time>
      </trkpt>
      <trkpt lat="46.17809" lon="6.55229">
        <ele>1698.046</ele>
        <time>2026-02-02T11:23:47Z</time>
      </trkpt>
      <trkpt lat="46.17809" lon="6.55229">
        <ele>1698.921</ele>
        <time>2026-02-02T11:23:52Z</time>
      </trkpt>
      <trkpt lat="46.17809" lon="6.55229">
        <ele>1699.311</ele>
        <time>2026-02-02T11:23:57Z</time>
      </trkpt>
      <trkpt lat="46.17809" lon="6.55229">
        <ele>1699.458</ele>
        <time>2026-02-02T11:24:02Z</time>
      </trkpt>
      <trkpt lat="46.17809" lon="6.55229">
        <ele>1699.425</ele>
        <time>2026-02-02T11:24:07Z</time>
      </trkpt>
      <trkpt lat="46.17809" lon="6.55229">
        <ele>1699.421</ele>
        <time>2026-02-02T11:24:12Z</time>
      </trkpt>
      <trkpt lat="46.17809" lon="6.55229">
        <ele>1699.413</ele>
        <time>2026-02-02T11:24:17Z</time>
      </trkpt>
      <trkpt lat="46.17809" lon="6.55229">
        <ele>1699.418</ele>
        <time>2026-02-02T11:24:22Z</time>
      </trkpt>
      <trkpt lat="46.17809" lon="6.55229">
        <ele>1699.621</ele>
        <time>2026-02-02T11:24:27Z</time>
      </trkpt>
      <trkpt lat="46.17809" lon="6.55229">
        <ele>1700.45</ele>
        <time>2026-02-02T11:24:32Z</time>
      </trkpt>
      <trkpt lat="46.17809" lon="6.55229">
        <ele>1700.133</ele>
        <time>2026-02-02T11:24:37Z</time>
      </trkpt>
      <trkpt lat="46.17809" lon="6.55229">
        <ele>1700.586</ele>
        <time>2026-02-02T11:24:42Z</time>
      </trkpt>
      <trkpt lat="46.17809" lon="6.55229">
        <ele>1700.611</ele>
        <time>2026-02-02T11:24:47Z</time>
      </trkpt>
      <trkpt lat="46.17809" lon="6.55229">
        <ele>1700.617</ele>
        <time>2026-02-02T11:24:52Z</time>
      </trkpt>
      <trkpt lat="46.17809" lon="6.55229">
        <ele>1699.448</ele>
        <time>2026-02-02T11:24:57Z</time>
      </trkpt>
      <trkpt lat="46.17809" lon="6.55229">
        <ele>1697.778</ele>
        <time>2026-02-02T11:25:02Z</time>
      </trkpt>
      <trkpt lat="46.17809" lon="6.55229">
        <ele>1697.892</ele>
        <time>2026-02-02T11:25:07Z</time>
      </trkpt>
      <trkpt lat="46.17809" lon="6.55229">
        <ele>1698.143</ele>
        <time>2026-02-02T11:25:12Z</time>
      </trkpt>
      <trkpt lat="46.17809" lon="6.55229">
        <ele>1698.202</ele>
        <time>2026-02-02T11:25:17Z</time>
      </trkpt>
      <trkpt lat="46.17809" lon="6.55229">
        <ele>1698.189</ele>
        <time>2026-02-02T11:25:22Z</time>
      </trkpt>
      <trkpt lat="46.17809" lon="6.55229">
        <ele>1698.203</ele>
        <time>2026-02-02T11:25:27Z</time>
      </trkpt>
      <trkpt lat="46.17809" lon="6.55229">
        <ele>1698.185</ele>
        <time>2026-02-02T11:25:32Z</time>
      </trkpt>
      <trkpt lat="46.17809" lon="6.55229">
        <ele>1698.138</ele>
        <time>2026-02-02T11:25:37Z</time>
      </trkpt>
      <trkpt lat="46.17809" lon="6.55229">
        <ele>1698.105</ele>
        <time>2026-02-02T11:25:42Z</time>
      </trkpt>
      <trkpt lat="46.17809" lon="6.55229">
        <ele>1698.083</ele>
        <time>2026-02-02T11:25:47Z</time>
      </trkpt>
      <trkpt lat="46.17809" lon="6.55229">
        <ele>1698.053</ele>
        <time>2026-02-02T11:25:52Z</time>
      </trkpt>
      <trkpt lat="46.17809" lon="6.55229">
        <ele>1698.235</ele>
        <time>2026-02-02T11:25:57Z</time>
      </trkpt>
      <trkpt lat="46.17809" lon="6.55229">
        <ele>1698.092</ele>
        <time>2026-02-02T11:26:02Z</time>
      </trkpt>
      <trkpt lat="46.17809" lon="6.55229">
        <ele>1694.712</ele>
        <time>2026-02-02T11:26:07Z</time>
      </trkpt>
      <trkpt lat="46.17809" lon="6.55229">
        <ele>1694.212</ele>
        <time>2026-02-02T11:26:12Z</time>
      </trkpt>
      <trkpt lat="46.17809" lon="6.55229">
        <ele>1694.908</ele>
        <time>2026-02-02T11:26:17Z</time>
      </trkpt>
      <trkpt lat="46.17809" lon="6.55229">
        <ele>1694.904</ele>
        <time>2026-02-02T11:26:22Z</time>
      </trkpt>
      <trkpt lat="46.17809" lon="6.55229">
        <ele>1694.901</ele>
        <time>2026-02-02T11:26:27Z</time>
      </trkpt>
      <trkpt lat="46.17809" lon="6.55229">
        <ele>1694.893</ele>
        <time>2026-02-02T11:26:32Z</time>
      </trkpt>
      <trkpt lat="46.17809" lon="6.55229">
        <ele>1694.889</ele>
        <time>2026-02-02T11:26:37Z</time>
      </trkpt>
      <trkpt lat="46.17809" lon="6.55229">
        <ele>1694.911</ele>
        <time>2026-02-02T11:26:42Z</time>
      </trkpt>
      <trkpt lat="46.17809" lon="6.55229">
        <ele>1694.902</ele>
        <time>2026-02-02T11:26:47Z</time>
      </trkpt>
      <trkpt lat="46.17809" lon="6.55229">
        <ele>1694.929</ele>
        <time>2026-02-02T11:26:52Z</time>
      </trkpt>
      <trkpt lat="46.17809" lon="6.55229">
        <ele>1694.93</ele>
        <time>2026-02-02T11:26:57Z</time>
      </trkpt>
      <trkpt lat="46.17809" lon="6.55229">
        <ele>1694.928</ele>
        <time>2026-02-02T11:27:02Z</time>
      </trkpt>
      <trkpt lat="46.17809" lon="6.55229">
        <ele>1694.932</ele>
        <time>2026-02-02T11:27:07Z</time>
      </trkpt>
      <trkpt lat="46.17809" lon="6.55229">
        <ele>1694.859</ele>
        <time>2026-02-02T11:27:12Z</time>
      </trkpt>
      <trkpt lat="46.17809" lon="6.55229">
        <ele>1694.861</ele>
        <time>2026-02-02T11:27:17Z</time>
      </trkpt>
      <trkpt lat="46.17809" lon="6.55229">
        <ele>1694.855</ele>
        <time>2026-02-02T11:27:22Z</time>
      </trkpt>
      <trkpt lat="46.17809" lon="6.55229">
        <ele>1694.851</ele>
        <time>2026-02-02T11:27:27Z</time>
      </trkpt>
      <trkpt lat="46.17809" lon="6.55229">
        <ele>1694.862</ele>
        <time>2026-02-02T11:27:32Z</time>
      </trkpt>
      <trkpt lat="46.17809" lon="6.55229">
        <ele>1694.913</ele>
        <time>2026-02-02T11:27:37Z</time>
      </trkpt>
      <trkpt lat="46.17809" lon="6.55229">
        <ele>1694.667</ele>
        <time>2026-02-02T11:27:42Z</time>
      </trkpt>
      <trkpt lat="46.17809" lon="6.55229">
        <ele>1695.722</ele>
        <time>2026-02-02T11:27:47Z</time>
      </trkpt>
      <trkpt lat="46.17809" lon="6.55229">
        <ele>1695.532</ele>
        <time>2026-02-02T11:27:52Z</time>
      </trkpt>
      <trkpt lat="46.17809" lon="6.55229">
        <ele>1695.523</ele>
        <time>2026-02-02T11:27:57Z</time>
      </trkpt>
      <trkpt lat="46.17809" lon="6.55229">
        <ele>1695.525</ele>
        <time>2026-02-02T11:28:02Z</time>
      </trkpt>
      <trkpt lat="46.17809" lon="6.55229">
        <ele>1695.543</ele>
        <time>2026-02-02T11:28:07Z</time>
      </trkpt>
      <trkpt lat="46.17809" lon="6.55229">
        <ele>1695.54</ele>
        <time>2026-02-02T11:28:12Z</time>
      </trkpt>
      <trkpt lat="46.17809" lon="6.55229">
        <ele>1695.571</ele>
        <time>2026-02-02T11:28:17Z</time>
      </trkpt>
      <trkpt lat="46.17809" lon="6.55229">
        <ele>1695.564</ele>
        <time>2026-02-02T11:28:22Z</time>
      </trkpt>
      <trkpt lat="46.17809" lon="6.55229">
        <ele>1695.552</ele>
        <time>2026-02-02T11:28:27Z</time>
      </trkpt>
      <trkpt lat="46.17809" lon="6.55229">
        <ele>1695.644</ele>
        <time>2026-02-02T11:28:32Z</time>
      </trkpt>
      <trkpt lat="46.17809" lon="6.55229">
        <ele>1695.594</ele>
        <time>2026-02-02T11:28:37Z</time>
      </trkpt>
      <trkpt lat="46.17809" lon="6.55229">
        <ele>1695.578</ele>
        <time>2026-02-02T11:28:42Z</time>
      </trkpt>
      <trkpt lat="46.17809" lon="6.55229">
        <ele>1695.584</ele>
        <time>2026-02-02T11:28:47Z</time>
      </trkpt>
      <trkpt lat="46.17809" lon="6.55229">
        <ele>1695.571</ele>
        <time>2026-02-02T11:28:52Z</time>
      </trkpt>
      <trkpt lat="46.17809" lon="6.55229">
        <ele>1695.56</ele>
        <time>2026-02-02T11:28:57Z</time>
      </trkpt>
      <trkpt lat="46.17809" lon="6.55229">
        <ele>1695.564</ele>
        <time>2026-02-02T11:29:02Z</time>
      </trkpt>
      <trkpt lat="46.17809" lon="6.55229">
        <ele>1695.546</ele>
        <time>2026-02-02T11:29:07Z</time>
      </trkpt>
      <trkpt lat="46.17809" lon="6.55229">
        <ele>1695.563</ele>
        <time>2026-02-02T11:29:12Z</time>
      </trkpt>
      <trkpt lat="46.17809" lon="6.55229">
        <ele>1695.58</ele>
        <time>2026-02-02T11:29:17Z</time>
      </trkpt>
      <trkpt lat="46.17809" lon="6.55229">
        <ele>1695.575</ele>
        <time>2026-02-02T11:29:22Z</time>
      </trkpt>
      <trkpt lat="46.17813" lon="6.55234">
        <ele>1695.562</ele>
        <time>2026-02-02T11:29:27Z</time>
      </trkpt>
      <trkpt lat="46.17813" lon="6.55234">
        <ele>1695.563</ele>
        <time>2026-02-02T11:29:32Z</time>
      </trkpt>
      <trkpt lat="46.17813" lon="6.55237">
        <ele>1696.405</ele>
        <time>2026-02-02T11:29:37Z</time>
      </trkpt>
      <trkpt lat="46.17813" lon="6.55238">
        <ele>1694.688</ele>
        <time>2026-02-02T11:29:42Z</time>
      </trkpt>
      <trkpt lat="46.17816" lon="6.55243">
        <ele>1695.231</ele>
        <time>2026-02-02T11:29:47Z</time>
      </trkpt>
      <trkpt lat="46.17818" lon="6.55246">
        <ele>1698.224</ele>
        <time>2026-02-02T11:29:52Z</time>
      </trkpt>
      <trkpt lat="46.17819" lon="6.55249">
        <ele>1698.758</ele>
        <time>2026-02-02T11:29:57Z</time>
      </trkpt>
      <trkpt lat="46.17819" lon="6.55253">
        <ele>1698.908</ele>
        <time>2026-02-02T11:30:02Z</time>
      </trkpt>
      <trkpt lat="46.1782" lon="6.55257">
        <ele>1698.585</ele>
        <time>2026-02-02T11:30:07Z</time>
      </trkpt>
      <trkpt lat="46.17821" lon="6.5526">
        <ele>1698.915</ele>
        <time>2026-02-02T11:30:12Z</time>
      </trkpt>
      <trkpt lat="46.17821" lon="6.5526">
        <ele>1698.926</ele>
        <time>2026-02-02T11:30:17Z</time>
      </trkpt>
      <trkpt lat="46.17821" lon="6.5526">
        <ele>1698.925</ele>
        <time>2026-02-02T11:30:22Z</time>
      </trkpt>
      <trkpt lat="46.17822" lon="6.5526">
        <ele>1699.645</ele>
        <time>2026-02-02T11:30:27Z</time>
      </trkpt>
      <trkpt lat="46.17822" lon="6.55263">
        <ele>1700.549</ele>
        <time>2026-02-02T11:30:32Z</time>
      </trkpt>
      <trkpt lat="46.17823" lon="6.55265">
        <ele>1701.405</ele>
        <time>2026-02-02T11:30:37Z</time>
      </trkpt>
      <trkpt lat="46.17824" lon="6.55268">
        <ele>1701.144</ele>
        <time>2026-02-02T11:30:42Z</time>
      </trkpt>
      <trkpt lat="46.17825" lon="6.55274">
        <ele>1700.126</ele>
        <time>2026-02-02T11:30:47Z</time>
      </trkpt>
      <trkpt lat="46.17827" lon="6.5528">
        <ele>1699.787</ele>
        <time>2026-02-02T11:30:52Z</time>
      </trkpt>
      <trkpt lat="46.17829" lon="6.55284">
        <ele>1700.859</ele>
        <time>2026-02-02T11:30:57Z</time>
      </trkpt>
      <trkpt lat="46.1783" lon="6.55287">
        <ele>1700.718</ele>
        <time>2026-02-02T11:31:02Z</time>
      </trkpt>
      <trkpt lat="46.17831" lon="6.5529">
        <ele>1700.372</ele>
        <time>2026-02-02T11:31:07Z</time>
      </trkpt>
      <trkpt lat="46.17833" lon="6.55295">
        <ele>1702.891</ele>
        <time>2026-02-02T11:31:12Z</time>
      </trkpt>
      <trkpt lat="46.17835" lon="6.553">
        <ele>1702.817</ele>
        <time>2026-02-02T11:31:17Z</time>
      </trkpt>
      <trkpt lat="46.17836" lon="6.55306">
        <ele>1703.266</ele>
        <time>2026-02-02T11:31:22Z</time>
      </trkpt>
      <trkpt lat="46.17837" lon="6.5531">
        <ele>1704.827</ele>
        <time>2026-02-02T11:31:27Z</time>
      </trkpt>
      <trkpt lat="46.17839" lon="6.55314">
        <ele>1705.361</ele>
        <time>2026-02-02T11:31:32Z</time>
      </trkpt>
      <trkpt lat="46.17841" lon="6.55317">
        <ele>1707.482</ele>
        <time>2026-02-02T11:31:37Z</time>
      </trkpt>
      <trkpt lat="46.17842" lon="6.55321">
        <ele>1706.918</ele>
        <time>2026-02-02T11:31:42Z</time>
      </trkpt>
      <trkpt lat="46.17842" lon="6.55321">
        <ele>1706.885</ele>
        <time>2026-02-02T11:31:47Z</time>
      </trkpt>
      <trkpt lat="46.17842" lon="6.55321">
        <ele>1706.883</ele>
        <time>2026-02-02T11:31:52Z</time>
      </trkpt>
      <trkpt lat="46.17842" lon="6.55321">
        <ele>1706.875</ele>
        <time>2026-02-02T11:31:57Z</time>
      </trkpt>
      <trkpt lat="46.17842" lon="6.55321">
        <ele>1706.877</ele>
        <time>2026-02-02T11:32:02Z</time>
      </trkpt>
      <trkpt lat="46.17842" lon="6.55321">
        <ele>1706.872</ele>
        <time>2026-02-02T11:32:07Z</time>
      </trkpt>
      <trkpt lat="46.17842" lon="6.55321">
        <ele>1706.866</ele>
        <time>2026-02-02T11:32:12Z</time>
      </trkpt>
      <trkpt lat="46.17842" lon="6.55321">
        <ele>1706.86</ele>
        <time>2026-02-02T11:32:17Z</time>
      </trkpt>
      <trkpt lat="46.17842" lon="6.55321">
        <ele>1706.859</ele>
        <time>2026-02-02T11:32:22Z</time>
      </trkpt>
      <trkpt lat="46.17842" lon="6.55321">
        <ele>1706.844</ele>
        <time>2026-02-02T11:32:27Z</time>
      </trkpt>
      <trkpt lat="46.17842" lon="6.55321">
        <ele>1706.846</ele>
        <time>2026-02-02T11:32:32Z</time>
      </trkpt>
      <trkpt lat="46.17842" lon="6.55321">
        <ele>1706.845</ele>
        <time>2026-02-02T11:32:37Z</time>
      </trkpt>
      <trkpt lat="46.17842" lon="6.55321">
        <ele>1706.338</ele>
        <time>2026-02-02T11:32:42Z</time>
      </trkpt>
      <trkpt lat="46.17843" lon="6.55326">
        <ele>1707.097</ele>
        <time>2026-02-02T11:32:47Z</time>
      </trkpt>
      <trkpt lat="46.17845" lon="6.55331">
        <ele>1706.724</ele>
        <time>2026-02-02T11:32:52Z</time>
      </trkpt>
      <trkpt lat="46.17845" lon="6.55336">
        <ele>1707.397</ele>
        <time>2026-02-02T11:32:57Z</time>
      </trkpt>
      <trkpt lat="46.17845" lon="6.55342">
        <ele>1707.291</ele>
        <time>2026-02-02T11:33:02Z</time>
      </trkpt>
      <trkpt lat="46.17846" lon="6.55347">
        <ele>1707.81</ele>
        <time>2026-02-02T11:33:07Z</time>
      </trkpt>
      <trkpt lat="46.17846" lon="6.55352">
        <ele>1708.692</ele>
        <time>2026-02-02T11:33:12Z</time>
      </trkpt>
      <trkpt lat="46.17847" lon="6.55356">
        <ele>1711.24</ele>
        <time>2026-02-02T11:33:17Z</time>
      </trkpt>
      <trkpt lat="46.17849" lon="6.55361">
        <ele>1711.031</ele>
        <time>2026-02-02T11:33:22Z</time>
      </trkpt>
      <trkpt lat="46.17851" lon="6.55367">
        <ele>1711.765</ele>
        <time>2026-02-02T11:33:27Z</time>
      </trkpt>
      <trkpt lat="46.17852" lon="6.55373">
        <ele>1711.825</ele>
        <time>2026-02-02T11:33:32Z</time>
      </trkpt>
      <trkpt lat="46.17853" lon="6.55378">
        <ele>1713.277</ele>
        <time>2026-02-02T11:33:37Z</time>
      </trkpt>
      <trkpt lat="46.17854" lon="6.55382">
        <ele>1715.405</ele>
        <time>2026-02-02T11:33:42Z</time>
      </trkpt>
      <trkpt lat="46.17855" lon="6.55387">
        <ele>1714.768</ele>
        <time>2026-02-02T11:33:47Z</time>
      </trkpt>
      <trkpt lat="46.17856" lon="6.55391">
        <ele>1714.772</ele>
        <time>2026-02-02T11:33:52Z</time>
      </trkpt>
      <trkpt lat="46.17858" lon="6.55396">
        <ele>1716.611</ele>
        <time>2026-02-02T11:33:57Z</time>
      </trkpt>
      <trkpt lat="46.17859" lon="6.554">
        <ele>1716.513</ele>
        <time>2026-02-02T11:34:02Z</time>
      </trkpt>
      <trkpt lat="46.1786" lon="6.55404">
        <ele>1716.618</ele>
        <time>2026-02-02T11:34:07Z</time>
      </trkpt>
      <trkpt lat="46.17861" lon="6.55408">
        <ele>1717.528</ele>
        <time>2026-02-02T11:34:12Z</time>
      </trkpt>
      <trkpt lat="46.17863" lon="6.55413">
        <ele>1718.14</ele>
        <time>2026-02-02T11:34:17Z</time>
      </trkpt>
      <trkpt lat="46.17864" lon="6.55419">
        <ele>1717.903</ele>
        <time>2026-02-02T11:34:22Z</time>
      </trkpt>
      <trkpt lat="46.17866" lon="6.55425">
        <ele>1717.464</ele>
        <time>2026-02-02T11:34:27Z</time>
      </trkpt>
      <trkpt lat="46.17869" lon="6.55429">
        <ele>1717.632</ele>
        <time>2026-02-02T11:34:32Z</time>
      </trkpt>
      <trkpt lat="46.1787" lon="6.55434">
        <ele>1718.261</ele>
        <time>2026-02-02T11:34:37Z</time>
      </trkpt>
      <trkpt lat="46.17871" lon="6.55439">
        <ele>1719.282</ele>
        <time>2026-02-02T11:34:42Z</time>
      </trkpt>
      <trkpt lat="46.17875" lon="6.55448">
        <ele>1719.032</ele>
        <time>2026-02-02T11:34:47Z</time>
      </trkpt>
      <trkpt lat="46.17877" lon="6.55452">
        <ele>1720.062</ele>
        <time>2026-02-02T11:34:52Z</time>
      </trkpt>
      <trkpt lat="46.17876" lon="6.55456">
        <ele>1721.163</ele>
        <time>2026-02-02T11:34:57Z</time>
      </trkpt>
      <trkpt lat="46.17876" lon="6.5546">
        <ele>1722.644</ele>
        <time>2026-02-02T11:35:02Z</time>
      </trkpt>
      <trkpt lat="46.17877" lon="6.55464">
        <ele>1722.386</ele>
        <time>2026-02-02T11:35:07Z</time>
      </trkpt>
      <trkpt lat="46.17877" lon="6.55469">
        <ele>1722.284</ele>
        <time>2026-02-02T11:35:12Z</time>
      </trkpt>
      <trkpt lat="46.17877" lon="6.55474">
        <ele>1723.196</ele>
        <time>2026-02-02T11:35:17Z</time>
      </trkpt>
      <trkpt lat="46.17877" lon="6.55479">
        <ele>1725.505</ele>
        <time>2026-02-02T11:35:22Z</time>
      </trkpt>
      <trkpt lat="46.17876" lon="6.55482">
        <ele>1726.75</ele>
        <time>2026-02-02T11:35:27Z</time>
      </trkpt>
      <trkpt lat="46.17874" lon="6.55483">
        <ele>1726.599</ele>
        <time>2026-02-02T11:35:32Z</time>
      </trkpt>
      <trkpt lat="46.17872" lon="6.55484">
        <ele>1726.56</ele>
        <time>2026-02-02T11:35:37Z</time>
      </trkpt>
      <trkpt lat="46.1787" lon="6.55485">
        <ele>1727.272</ele>
        <time>2026-02-02T11:35:42Z</time>
      </trkpt>
      <trkpt lat="46.17869" lon="6.55486">
        <ele>1727.663</ele>
        <time>2026-02-02T11:35:47Z</time>
      </trkpt>
      <trkpt lat="46.17869" lon="6.55486">
        <ele>1727.616</ele>
        <time>2026-02-02T11:35:52Z</time>
      </trkpt>
      <trkpt lat="46.17869" lon="6.55486">
        <ele>1728.61</ele>
        <time>2026-02-02T11:35:57Z</time>
      </trkpt>
      <trkpt lat="46.17869" lon="6.55486">
        <ele>1728.973</ele>
        <time>2026-02-02T11:36:02Z</time>
      </trkpt>
      <trkpt lat="46.17869" lon="6.55486">
        <ele>1729.266</ele>
        <time>2026-02-02T11:36:07Z</time>
      </trkpt>
      <trkpt lat="46.17869" lon="6.55486">
        <ele>1728.886</ele>
        <time>2026-02-02T11:36:12Z</time>
      </trkpt>
      <trkpt lat="46.17869" lon="6.55486">
        <ele>1727.895</ele>
        <time>2026-02-02T11:36:17Z</time>
      </trkpt>
      <trkpt lat="46.17869" lon="6.55486">
        <ele>1729.058</ele>
        <time>2026-02-02T11:36:22Z</time>
      </trkpt>
      <trkpt lat="46.17869" lon="6.55486">
        <ele>1729.635</ele>
        <time>2026-02-02T11:36:27Z</time>
      </trkpt>
      <trkpt lat="46.17869" lon="6.55486">
        <ele>1730.311</ele>
        <time>2026-02-02T11:36:32Z</time>
      </trkpt>
      <trkpt lat="46.17869" lon="6.55486">
        <ele>1731.339</ele>
        <time>2026-02-02T11:36:37Z</time>
      </trkpt>
      <trkpt lat="46.17869" lon="6.55486">
        <ele>1732.531</ele>
        <time>2026-02-02T11:36:42Z</time>
      </trkpt>
      <trkpt lat="46.17869" lon="6.55486">
        <ele>1732.974</ele>
        <time>2026-02-02T11:36:47Z</time>
      </trkpt>
      <trkpt lat="46.17869" lon="6.55486">
        <ele>1732.285</ele>
        <time>2026-02-02T11:36:52Z</time>
      </trkpt>
      <trkpt lat="46.17869" lon="6.55486">
        <ele>1732.407</ele>
        <time>2026-02-02T11:36:57Z</time>
      </trkpt>
      <trkpt lat="46.17869" lon="6.55486">
        <ele>1732.35</ele>
        <time>2026-02-02T11:37:02Z</time>
      </trkpt>
      <trkpt lat="46.17869" lon="6.55486">
        <ele>1732.37</ele>
        <time>2026-02-02T11:37:07Z</time>
      </trkpt>
      <trkpt lat="46.17869" lon="6.55486">
        <ele>1732.829</ele>
        <time>2026-02-02T11:37:12Z</time>
      </trkpt>
      <trkpt lat="46.17869" lon="6.55486">
        <ele>1733.54</ele>
        <time>2026-02-02T11:37:17Z</time>
      </trkpt>
      <trkpt lat="46.17869" lon="6.55486">
        <ele>1733.563</ele>
        <time>2026-02-02T11:37:22Z</time>
      </trkpt>
      <trkpt lat="46.17869" lon="6.55486">
        <ele>1733.819</ele>
        <time>2026-02-02T11:37:27Z</time>
      </trkpt>
      <trkpt lat="46.17869" lon="6.55486">
        <ele>1733.823</ele>
        <time>2026-02-02T11:37:32Z</time>
      </trkpt>
      <trkpt lat="46.1786" lon="6.55482">
        <ele>1734.078</ele>
        <time>2026-02-02T11:37:37Z</time>
      </trkpt>
      <trkpt lat="46.17857" lon="6.55481">
        <ele>1734.718</ele>
        <time>2026-02-02T11:37:42Z</time>
      </trkpt>
      <trkpt lat="46.17856" lon="6.5548">
        <ele>1734.085</ele>
        <time>2026-02-02T11:37:47Z</time>
      </trkpt>
      <trkpt lat="46.17856" lon="6.5548">
        <ele>1734.251</ele>
        <time>2026-02-02T11:37:52Z</time>
      </trkpt>
      <trkpt lat="46.17856" lon="6.55479">
        <ele>1734.615</ele>
        <time>2026-02-02T11:37:57Z</time>
      </trkpt>
      <trkpt lat="46.17856" lon="6.55477">
        <ele>1734.458</ele>
        <time>2026-02-02T11:38:02Z</time>
      </trkpt>
      <trkpt lat="46.17854" lon="6.55474">
        <ele>1735.198</ele>
        <time>2026-02-02T11:38:07Z</time>
      </trkpt>
      <trkpt lat="46.17853" lon="6.55471">
        <ele>1735.773</ele>
        <time>2026-02-02T11:38:12Z</time>
      </trkpt>
      <trkpt lat="46.17852" lon="6.55469">
        <ele>1737.825</ele>
        <time>2026-02-02T11:38:17Z</time>
      </trkpt>
      <trkpt lat="46.1785" lon="6.55467">
        <ele>1737.392</ele>
        <time>2026-02-02T11:38:22Z</time>
      </trkpt>
      <trkpt lat="46.17849" lon="6.55464">
        <ele>1737.847</ele>
        <time>2026-02-02T11:38:27Z</time>
      </trkpt>
      <trkpt lat="46.17848" lon="6.55462">
        <ele>1739.886</ele>
        <time>2026-02-02T11:38:32Z</time>
      </trkpt>
      <trkpt lat="46.17847" lon="6.55461">
        <ele>1740.301</ele>
        <time>2026-02-02T11:38:37Z</time>
      </trkpt>
      <trkpt lat="46.17845" lon="6.55459">
        <ele>1740.208</ele>
        <time>2026-02-02T11:38:42Z</time>
      </trkpt>
      <trkpt lat="46.17842" lon="6.55458">
        <ele>1740.887</ele>
        <time>2026-02-02T11:38:47Z</time>
      </trkpt>
      <trkpt lat="46.1784" lon="6.55457">
        <ele>1741.633</ele>
        <time>2026-02-02T11:38:52Z</time>
      </trkpt>
      <trkpt lat="46.17838" lon="6.55455">
        <ele>1741.89</ele>
        <time>2026-02-02T11:38:57Z</time>
      </trkpt>
      <trkpt lat="46.17835" lon="6.55454">
        <ele>1742.234</ele>
        <time>2026-02-02T11:39:02Z</time>
      </trkpt>
      <trkpt lat="46.17834" lon="6.55452">
        <ele>1742.699</ele>
        <time>2026-02-02T11:39:07Z</time>
      </trkpt>
      <trkpt lat="46.17831" lon="6.5545">
        <ele>1741.615</ele>
        <time>2026-02-02T11:39:12Z</time>
      </trkpt>
      <trkpt lat="46.1783" lon="6.55449">
        <ele>1743.353</ele>
        <time>2026-02-02T11:39:17Z</time>
      </trkpt>
      <trkpt lat="46.1783" lon="6.55449">
        <ele>1743.363</ele>
        <time>2026-02-02T11:39:22Z</time>
      </trkpt>
      <trkpt lat="46.17829" lon="6.55448">
        <ele>1743.472</ele>
        <time>2026-02-02T11:39:27Z</time>
      </trkpt>
      <trkpt lat="46.17827" lon="6.55446">
        <ele>1743.815</ele>
        <time>2026-02-02T11:39:32Z</time>
      </trkpt>
      <trkpt lat="46.17825" lon="6.55444">
        <ele>1744.201</ele>
        <time>2026-02-02T11:39:37Z</time>
      </trkpt>
      <trkpt lat="46.17823" lon="6.55443">
        <ele>1744.443</ele>
        <time>2026-02-02T11:39:42Z</time>
      </trkpt>
      <trkpt lat="46.1782" lon="6.55442">
        <ele>1744.748</ele>
        <time>2026-02-02T11:39:47Z</time>
      </trkpt>
      <trkpt lat="46.17817" lon="6.55441">
        <ele>1745.782</ele>
        <time>2026-02-02T11:39:52Z</time>
      </trkpt>
      <trkpt lat="46.17815" lon="6.55441">
        <ele>1747.722</ele>
        <time>2026-02-02T11:39:57Z</time>
      </trkpt>
      <trkpt lat="46.17813" lon="6.55441">
        <ele>1747.384</ele>
        <time>2026-02-02T11:40:02Z</time>
      </trkpt>
      <trkpt lat="46.17812" lon="6.55439">
        <ele>1747.397</ele>
        <time>2026-02-02T11:40:07Z</time>
      </trkpt>
      <trkpt lat="46.1781" lon="6.55437">
        <ele>1748.284</ele>
        <time>2026-02-02T11:40:12Z</time>
      </trkpt>
      <trkpt lat="46.17808" lon="6.55435">
        <ele>1749.254</ele>
        <time>2026-02-02T11:40:17Z</time>
      </trkpt>
      <trkpt lat="46.17806" lon="6.55432">
        <ele>1750.268</ele>
        <time>2026-02-02T11:40:22Z</time>
      </trkpt>
      <trkpt lat="46.17805" lon="6.5543">
        <ele>1750.792</ele>
        <time>2026-02-02T11:40:27Z</time>
      </trkpt>
      <trkpt lat="46.17803" lon="6.55428">
        <ele>1751.13</ele>
        <time>2026-02-02T11:40:32Z</time>
      </trkpt>
      <trkpt lat="46.17802" lon="6.55426">
        <ele>1751.314</ele>
        <time>2026-02-02T11:40:37Z</time>
      </trkpt>
      <trkpt lat="46.17801" lon="6.55423">
        <ele>1752.633</ele>
        <time>2026-02-02T11:40:42Z</time>
      </trkpt>
      <trkpt lat="46.178" lon="6.5542">
        <ele>1753.03</ele>
        <time>2026-02-02T11:40:47Z</time>
      </trkpt>
      <trkpt lat="46.178" lon="6.5542">
        <ele>1753.833</ele>
        <time>2026-02-02T11:40:52Z</time>
      </trkpt>
      <trkpt lat="46.178" lon="6.5542">
        <ele>1754.537</ele>
        <time>2026-02-02T11:40:57Z</time>
      </trkpt>
      <trkpt lat="46.178" lon="6.5542">
        <ele>1753.955</ele>
        <time>2026-02-02T11:41:02Z</time>
      </trkpt>
      <trkpt lat="46.178" lon="6.5542">
        <ele>1754.717</ele>
        <time>2026-02-02T11:41:07Z</time>
      </trkpt>
      <trkpt lat="46.178" lon="6.5542">
        <ele>1754.835</ele>
        <time>2026-02-02T11:41:12Z</time>
      </trkpt>
      <trkpt lat="46.178" lon="6.5542">
        <ele>1754.788</ele>
        <time>2026-02-02T11:41:17Z</time>
      </trkpt>
      <trkpt lat="46.178" lon="6.5542">
        <ele>1754.785</ele>
        <time>2026-02-02T11:41:22Z</time>
      </trkpt>
      <trkpt lat="46.178" lon="6.5542">
        <ele>1754.788</ele>
        <time>2026-02-02T11:41:27Z</time>
      </trkpt>
      <trkpt lat="46.178" lon="6.5542">
        <ele>1754.794</ele>
        <time>2026-02-02T11:41:32Z</time>
      </trkpt>
      <trkpt lat="46.178" lon="6.5542">
        <ele>1754.791</ele>
        <time>2026-02-02T11:41:37Z</time>
      </trkpt>
      <trkpt lat="46.178" lon="6.5542">
        <ele>1754.793</ele>
        <time>2026-02-02T11:41:42Z</time>
      </trkpt>
      <trkpt lat="46.178" lon="6.5542">
        <ele>1754.789</ele>
        <time>2026-02-02T11:41:47Z</time>
      </trkpt>
      <trkpt lat="46.178" lon="6.5542">
        <ele>1754.783</ele>
        <time>2026-02-02T11:41:52Z</time>
      </trkpt>
      <trkpt lat="46.178" lon="6.5542">
        <ele>1754.78</ele>
        <time>2026-02-02T11:41:57Z</time>
      </trkpt>
      <trkpt lat="46.17791" lon="6.55426">
        <ele>1754.77</ele>
        <time>2026-02-02T11:42:02Z</time>
      </trkpt>
      <trkpt lat="46.17791" lon="6.55426">
        <ele>1754.43</ele>
        <time>2026-02-02T11:42:07Z</time>
      </trkpt>
      <trkpt lat="46.17787" lon="6.55425">
        <ele>1754.331</ele>
        <time>2026-02-02T11:42:12Z</time>
      </trkpt>
      <trkpt lat="46.17785" lon="6.55424">
        <ele>1754.706</ele>
        <time>2026-02-02T11:42:17Z</time>
      </trkpt>
      <trkpt lat="46.17782" lon="6.55423">
        <ele>1754.484</ele>
        <time>2026-02-02T11:42:22Z</time>
      </trkpt>
      <trkpt lat="46.17781" lon="6.55422">
        <ele>1755.122</ele>
        <time>2026-02-02T11:42:27Z</time>
      </trkpt>
      <trkpt lat="46.17781" lon="6.55422">
        <ele>1755.194</ele>
        <time>2026-02-02T11:42:32Z</time>
      </trkpt>
      <trkpt lat="46.17779" lon="6.55421">
        <ele>1755.295</ele>
        <time>2026-02-02T11:42:37Z</time>
      </trkpt>
      <trkpt lat="46.17778" lon="6.55421">
        <ele>1755.855</ele>
        <time>2026-02-02T11:42:42Z</time>
      </trkpt>
      <trkpt lat="46.17778" lon="6.55425">
        <ele>1756.573</ele>
        <time>2026-02-02T11:42:47Z</time>
      </trkpt>
      <trkpt lat="46.17779" lon="6.55429">
        <ele>1757.145</ele>
        <time>2026-02-02T11:42:52Z</time>
      </trkpt>
      <trkpt lat="46.1778" lon="6.55433">
        <ele>1758.879</ele>
        <time>2026-02-02T11:42:57Z</time>
      </trkpt>
      <trkpt lat="46.1778" lon="6.55434">
        <ele>1758.682</ele>
        <time>2026-02-02T11:43:02Z</time>
      </trkpt>
      <trkpt lat="46.1778" lon="6.55434">
        <ele>1758.685</ele>
        <time>2026-02-02T11:43:07Z</time>
      </trkpt>
      <trkpt lat="46.1778" lon="6.55434">
        <ele>1758.684</ele>
        <time>2026-02-02T11:43:12Z</time>
      </trkpt>
      <trkpt lat="46.1778" lon="6.55434">
        <ele>1758.688</ele>
        <time>2026-02-02T11:43:17Z</time>
      </trkpt>
      <trkpt lat="46.1778" lon="6.55436">
        <ele>1759.745</ele>
        <time>2026-02-02T11:43:22Z</time>
      </trkpt>
      <trkpt lat="46.1778" lon="6.55436">
        <ele>1759.6</ele>
        <time>2026-02-02T11:43:27Z</time>
      </trkpt>
      <trkpt lat="46.1778" lon="6.55439">
        <ele>1760.373</ele>
        <time>2026-02-02T11:43:32Z</time>
      </trkpt>
      <trkpt lat="46.1778" lon="6.55443">
        <ele>1760.51</ele>
        <time>2026-02-02T11:43:37Z</time>
      </trkpt>
      <trkpt lat="46.17778" lon="6.55444">
        <ele>1760.761</ele>
        <time>2026-02-02T11:43:42Z</time>
      </trkpt>
      <trkpt lat="46.17776" lon="6.55444">
        <ele>1761.023</ele>
        <time>2026-02-02T11:43:47Z</time>
      </trkpt>
      <trkpt lat="46.17776" lon="6.55444">
        <ele>1760.65</ele>
        <time>2026-02-02T11:43:52Z</time>
      </trkpt>
      <trkpt lat="46.17776" lon="6.55444">
        <ele>1760.65</ele>
        <time>2026-02-02T11:43:57Z</time>
      </trkpt>
      <trkpt lat="46.17776" lon="6.55444">
        <ele>1760.644</ele>
        <time>2026-02-02T11:44:02Z</time>
      </trkpt>
      <trkpt lat="46.17776" lon="6.55444">
        <ele>1760.641</ele>
        <time>2026-02-02T11:44:07Z</time>
      </trkpt>
      <trkpt lat="46.17776" lon="6.55444">
        <ele>1760.639</ele>
        <time>2026-02-02T11:44:12Z</time>
      </trkpt>
      <trkpt lat="46.17776" lon="6.55444">
        <ele>1760.641</ele>
        <time>2026-02-02T11:44:17Z</time>
      </trkpt>
      <trkpt lat="46.17776" lon="6.55444">
        <ele>1760.64</ele>
        <time>2026-02-02T11:44:22Z</time>
      </trkpt>
      <trkpt lat="46.17776" lon="6.55444">
        <ele>1760.642</ele>
        <time>2026-02-02T11:44:27Z</time>
      </trkpt>
      <trkpt lat="46.17776" lon="6.55444">
        <ele>1760.646</ele>
        <time>2026-02-02T11:44:32Z</time>
      </trkpt>
      <trkpt lat="46.17776" lon="6.55444">
        <ele>1760.648</ele>
        <time>2026-02-02T11:44:37Z</time>
      </trkpt>
      <trkpt lat="46.17776" lon="6.55444">
        <ele>1760.653</ele>
        <time>2026-02-02T11:44:42Z</time>
      </trkpt>
      <trkpt lat="46.17776" lon="6.55444">
        <ele>1760.718</ele>
        <time>2026-02-02T11:44:47Z</time>
      </trkpt>
      <trkpt lat="46.17774" lon="6.55443">
        <ele>1761.407</ele>
        <time>2026-02-02T11:44:52Z</time>
      </trkpt>
      <trkpt lat="46.1777" lon="6.55442">
        <ele>1762.417</ele>
        <time>2026-02-02T11:44:57Z</time>
      </trkpt>
      <trkpt lat="46.17767" lon="6.5544">
        <ele>1763.414</ele>
        <time>2026-02-02T11:45:02Z</time>
      </trkpt>
      <trkpt lat="46.17764" lon="6.55438">
        <ele>1763.918</ele>
        <time>2026-02-02T11:45:07Z</time>
      </trkpt>
      <trkpt lat="46.17762" lon="6.55437">
        <ele>1764.59</ele>
        <time>2026-02-02T11:45:12Z</time>
      </trkpt>
      <trkpt lat="46.1776" lon="6.55436">
        <ele>1765.177</ele>
        <time>2026-02-02T11:45:17Z</time>
      </trkpt>
      <trkpt lat="46.17757" lon="6.55434">
        <ele>1764.999</ele>
        <time>2026-02-02T11:45:22Z</time>
      </trkpt>
      <trkpt lat="46.17754" lon="6.55433">
        <ele>1765.402</ele>
        <time>2026-02-02T11:45:27Z</time>
      </trkpt>
      <trkpt lat="46.17752" lon="6.55433">
        <ele>1766.487</ele>
        <time>2026-02-02T11:45:32Z</time>
      </trkpt>
      <trkpt lat="46.17751" lon="6.55434">
        <ele>1766.928</ele>
        <time>2026-02-02T11:45:37Z</time>
      </trkpt>
      <trkpt lat="46.17752" lon="6.55438">
        <ele>1767.077</ele>
        <time>2026-02-02T11:45:42Z</time>
      </trkpt>
      <trkpt lat="46.17752" lon="6.55444">
        <ele>1768.493</ele>
        <time>2026-02-02T11:45:47Z</time>
      </trkpt>
      <trkpt lat="46.17752" lon="6.55448">
        <ele>1769.992</ele>
        <time>2026-02-02T11:45:52Z</time>
      </trkpt>
      <trkpt lat="46.1775" lon="6.55449">
        <ele>1770.028</ele>
        <time>2026-02-02T11:45:57Z</time>
      </trkpt>
      <trkpt lat="46.1775" lon="6.55449">
        <ele>1770.016</ele>
        <time>2026-02-02T11:46:02Z</time>
      </trkpt>
      <trkpt lat="46.1775" lon="6.55449">
        <ele>1770.01</ele>
        <time>2026-02-02T11:46:07Z</time>
      </trkpt>
      <trkpt lat="46.1775" lon="6.5545">
        <ele>1770.183</ele>
        <time>2026-02-02T11:46:12Z</time>
      </trkpt>
      <trkpt lat="46.17748" lon="6.55452">
        <ele>1770.614</ele>
        <time>2026-02-02T11:46:17Z</time>
      </trkpt>
      <trkpt lat="46.17748" lon="6.55452">
        <ele>1770.945</ele>
        <time>2026-02-02T11:46:22Z</time>
      </trkpt>
      <trkpt lat="46.17748" lon="6.55452">
        <ele>1770.76</ele>
        <time>2026-02-02T11:46:27Z</time>
      </trkpt>
      <trkpt lat="46.17746" lon="6.55454">
        <ele>1770.932</ele>
        <time>2026-02-02T11:46:32Z</time>
      </trkpt>
      <trkpt lat="46.17744" lon="6.55455">
        <ele>1770.72</ele>
        <time>2026-02-02T11:46:37Z</time>
      </trkpt>
      <trkpt lat="46.17742" lon="6.55455">
        <ele>1771.261</ele>
        <time>2026-02-02T11:46:42Z</time>
      </trkpt>
      <trkpt lat="46.17741" lon="6.55454">
        <ele>1772.366</ele>
        <time>2026-02-02T11:46:47Z</time>
      </trkpt>
      <trkpt lat="46.1774" lon="6.55453">
        <ele>1773.265</ele>
        <time>2026-02-02T11:46:52Z</time>
      </trkpt>
      <trkpt lat="46.17738" lon="6.55452">
        <ele>1773.384</ele>
        <time>2026-02-02T11:46:57Z</time>
      </trkpt>
      <trkpt lat="46.17736" lon="6.5545">
        <ele>1773.825</ele>
        <time>2026-02-02T11:47:02Z</time>
      </trkpt>
      <trkpt lat="46.17734" lon="6.55448">
        <ele>1774.34</ele>
        <time>2026-02-02T11:47:07Z</time>
      </trkpt>
      <trkpt lat="46.17733" lon="6.55446">
        <ele>1774.871</ele>
        <time>2026-02-02T11:47:12Z</time>
      </trkpt>
      <trkpt lat="46.17732" lon="6.55443">
        <ele>1775.371</ele>
        <time>2026-02-02T11:47:17Z</time>
      </trkpt>
      <trkpt lat="46.17732" lon="6.5544">
        <ele>1777.096</ele>
        <time>2026-02-02T11:47:22Z</time>
      </trkpt>
      <trkpt lat="46.17732" lon="6.55439">
        <ele>1777.494</ele>
        <time>2026-02-02T11:47:27Z</time>
      </trkpt>
      <trkpt lat="46.17731" lon="6.55436">
        <ele>1777.452</ele>
        <time>2026-02-02T11:47:32Z</time>
      </trkpt>
      <trkpt lat="46.1773" lon="6.55434">
        <ele>1777.57</ele>
        <time>2026-02-02T11:47:37Z</time>
      </trkpt>
      <trkpt lat="46.17729" lon="6.55432">
        <ele>1777.349</ele>
        <time>2026-02-02T11:47:42Z</time>
      </trkpt>
      <trkpt lat="46.17729" lon="6.55432">
        <ele>1777.36</ele>
        <time>2026-02-02T11:47:47Z</time>
      </trkpt>
      <trkpt lat="46.17729" lon="6.55432">
        <ele>1777.368</ele>
        <time>2026-02-02T11:47:52Z</time>
      </trkpt>
      <trkpt lat="46.17728" lon="6.5543">
        <ele>1778.153</ele>
        <time>2026-02-02T11:47:57Z</time>
      </trkpt>
      <trkpt lat="46.17727" lon="6.55428">
        <ele>1779.968</ele>
        <time>2026-02-02T11:48:02Z</time>
      </trkpt>
      <trkpt lat="46.17725" lon="6.5543">
        <ele>1780.882</ele>
        <time>2026-02-02T11:48:07Z</time>
      </trkpt>
      <trkpt lat="46.17723" lon="6.55432">
        <ele>1780.774</ele>
        <time>2026-02-02T11:48:12Z</time>
      </trkpt>
      <trkpt lat="46.17721" lon="6.55433">
        <ele>1781.29</ele>
        <time>2026-02-02T11:48:17Z</time>
      </trkpt>
      <trkpt lat="46.1772" lon="6.55435">
        <ele>1781.34</ele>
        <time>2026-02-02T11:48:22Z</time>
      </trkpt>
      <trkpt lat="46.17719" lon="6.55436">
        <ele>1781.48</ele>
        <time>2026-02-02T11:48:27Z</time>
      </trkpt>
      <trkpt lat="46.17717" lon="6.55438">
        <ele>1781.126</ele>
        <time>2026-02-02T11:48:32Z</time>
      </trkpt>
      <trkpt lat="46.17716" lon="6.55439">
        <ele>1781.334</ele>
        <time>2026-02-02T11:48:37Z</time>
      </trkpt>
      <trkpt lat="46.17714" lon="6.55442">
        <ele>1781.13</ele>
        <time>2026-02-02T11:48:42Z</time>
      </trkpt>
      <trkpt lat="46.17712" lon="6.55443">
        <ele>1780.917</ele>
        <time>2026-02-02T11:48:47Z</time>
      </trkpt>
      <trkpt lat="46.17712" lon="6.55444">
        <ele>1781.022</ele>
        <time>2026-02-02T11:48:52Z</time>
      </trkpt>
      <trkpt lat="46.17712" lon="6.55444">
        <ele>1780.642</ele>
        <time>2026-02-02T11:48:57Z</time>
      </trkpt>
      <trkpt lat="46.17713" lon="6.55443">
        <ele>1781.622</ele>
        <time>2026-02-02T11:49:02Z</time>
      </trkpt>
      <trkpt lat="46.17713" lon="6.55441">
        <ele>1782.919</ele>
        <time>2026-02-02T11:49:07Z</time>
      </trkpt>
      <trkpt lat="46.17712" lon="6.55439">
        <ele>1783.956</ele>
        <time>2026-02-02T11:49:12Z</time>
      </trkpt>
      <trkpt lat="46.17712" lon="6.55436">
        <ele>1784.934</ele>
        <time>2026-02-02T11:49:17Z</time>
      </trkpt>
      <trkpt lat="46.1771" lon="6.55435">
        <ele>1784.88</ele>
        <time>2026-02-02T11:49:22Z</time>
      </trkpt>
      <trkpt lat="46.17709" lon="6.55436">
        <ele>1785.171</ele>
        <time>2026-02-02T11:49:27Z</time>
      </trkpt>
      <trkpt lat="46.17707" lon="6.55438">
        <ele>1784.602</ele>
        <time>2026-02-02T11:49:32Z</time>
      </trkpt>
      <trkpt lat="46.17704" lon="6.55439">
        <ele>1785.097</ele>
        <time>2026-02-02T11:49:37Z</time>
      </trkpt>
      <trkpt lat="46.17703" lon="6.55441">
        <ele>1785.549</ele>
        <time>2026-02-02T11:49:42Z</time>
      </trkpt>
      <trkpt lat="46.17701" lon="6.55443">
        <ele>1786.404</ele>
        <time>2026-02-02T11:49:47Z</time>
      </trkpt>
      <trkpt lat="46.17699" lon="6.55445">
        <ele>1787.352</ele>
        <time>2026-02-02T11:49:52Z</time>
      </trkpt>
      <trkpt lat="46.17699" lon="6.55446">
        <ele>1788.029</ele>
        <time>2026-02-02T11:49:57Z</time>
      </trkpt>
      <trkpt lat="46.17698" lon="6.55447">
        <ele>1788.093</ele>
        <time>2026-02-02T11:50:02Z</time>
      </trkpt>
      <trkpt lat="46.17697" lon="6.55448">
        <ele>1788.474</ele>
        <time>2026-02-02T11:50:07Z</time>
      </trkpt>
      <trkpt lat="46.17697" lon="6.55449">
        <ele>1788.735</ele>
        <time>2026-02-02T11:50:12Z</time>
      </trkpt>
      <trkpt lat="46.17696" lon="6.55451">
        <ele>1788.824</ele>
        <time>2026-02-02T11:50:17Z</time>
      </trkpt>
      <trkpt lat="46.17693" lon="6.55454">
        <ele>1788.393</ele>
        <time>2026-02-02T11:50:22Z</time>
      </trkpt>
      <trkpt lat="46.1769" lon="6.55455">
        <ele>1788.525</ele>
        <time>2026-02-02T11:50:27Z</time>
      </trkpt>
      <trkpt lat="46.17688" lon="6.55455">
        <ele>1789.577</ele>
        <time>2026-02-02T11:50:32Z</time>
      </trkpt>
      <trkpt lat="46.17685" lon="6.55455">
        <ele>1789.297</ele>
        <time>2026-02-02T11:50:37Z</time>
      </trkpt>
      <trkpt lat="46.17683" lon="6.55456">
        <ele>1789.9</ele>
        <time>2026-02-02T11:50:42Z</time>
      </trkpt>
      <trkpt lat="46.1768" lon="6.55454">
        <ele>1790.3</ele>
        <time>2026-02-02T11:50:47Z</time>
      </trkpt>
      <trkpt lat="46.17678" lon="6.55453">
        <ele>1791.556</ele>
        <time>2026-02-02T11:50:52Z</time>
      </trkpt>
      <trkpt lat="46.17676" lon="6.55452">
        <ele>1794.332</ele>
        <time>2026-02-02T11:50:57Z</time>
      </trkpt>
      <trkpt lat="46.17674" lon="6.55451">
        <ele>1795.149</ele>
        <time>2026-02-02T11:51:02Z</time>
      </trkpt>
      <trkpt lat="46.17675" lon="6.5545">
        <ele>1796.205</ele>
        <time>2026-02-02T11:51:07Z</time>
      </trkpt>
      <trkpt lat="46.17676" lon="6.55448">
        <ele>1796.735</ele>
        <time>2026-02-02T11:51:12Z</time>
      </trkpt>
      <trkpt lat="46.17677" lon="6.55444">
        <ele>1798.187</ele>
        <time>2026-02-02T11:51:17Z</time>
      </trkpt>
      <trkpt lat="46.17677" lon="6.55441">
        <ele>1799.317</ele>
        <time>2026-02-02T11:51:22Z</time>
      </trkpt>
      <trkpt lat="46.17678" lon="6.55437">
        <ele>1799.741</ele>
        <time>2026-02-02T11:51:27Z</time>
      </trkpt>
      <trkpt lat="46.17679" lon="6.55434">
        <ele>1800.634</ele>
        <time>2026-02-02T11:51:32Z</time>
      </trkpt>
      <trkpt lat="46.1768" lon="6.55431">
        <ele>1801.38</ele>
        <time>2026-02-02T11:51:37Z</time>
      </trkpt>
      <trkpt lat="46.1768" lon="6.55428">
        <ele>1801.933</ele>
        <time>2026-02-02T11:51:42Z</time>
      </trkpt>
      <trkpt lat="46.17681" lon="6.55425">
        <ele>1802.599</ele>
        <time>2026-02-02T11:51:47Z</time>
      </trkpt>
      <trkpt lat="46.17681" lon="6.55422">
        <ele>1803.359</ele>
        <time>2026-02-02T11:51:52Z</time>
      </trkpt>
      <trkpt lat="46.17678" lon="6.5542">
        <ele>1803.919</ele>
        <time>2026-02-02T11:51:57Z</time>
      </trkpt>
      <trkpt lat="46.17676" lon="6.5542">
        <ele>1804.614</ele>
        <time>2026-02-02T11:52:02Z</time>
      </trkpt>
      <trkpt lat="46.17673" lon="6.55419">
        <ele>1805.108</ele>
        <time>2026-02-02T11:52:07Z</time>
      </trkpt>
      <trkpt lat="46.1767" lon="6.55418">
        <ele>1804.992</ele>
        <time>2026-02-02T11:52:12Z</time>
      </trkpt>
      <trkpt lat="46.17667" lon="6.55417">
        <ele>1805.332</ele>
        <time>2026-02-02T11:52:17Z</time>
      </trkpt>
      <trkpt lat="46.17664" lon="6.55415">
        <ele>1804.767</ele>
        <time>2026-02-02T11:52:22Z</time>
      </trkpt>
      <trkpt lat="46.17661" lon="6.55414">
        <ele>1804.535</ele>
        <time>2026-02-02T11:52:27Z</time>
      </trkpt>
      <trkpt lat="46.17659" lon="6.55411">
        <ele>1805.292</ele>
        <time>2026-02-02T11:52:32Z</time>
      </trkpt>
      <trkpt lat="46.17659" lon="6.5541">
        <ele>1805.269</ele>
        <time>2026-02-02T11:52:37Z</time>
      </trkpt>
      <trkpt lat="46.17659" lon="6.5541">
        <ele>1805.263</ele>
        <time>2026-02-02T11:52:42Z</time>
      </trkpt>
      <trkpt lat="46.17659" lon="6.5541">
        <ele>1805.262</ele>
        <time>2026-02-02T11:52:47Z</time>
      </trkpt>
      <trkpt lat="46.17659" lon="6.5541">
        <ele>1805.243</ele>
        <time>2026-02-02T11:52:52Z</time>
      </trkpt>
      <trkpt lat="46.1766" lon="6.5541">
        <ele>1805.225</ele>
        <time>2026-02-02T11:52:57Z</time>
      </trkpt>
      <trkpt lat="46.1766" lon="6.5541">
        <ele>1805.755</ele>
        <time>2026-02-02T11:53:02Z</time>
      </trkpt>
      <trkpt lat="46.1766" lon="6.5541">
        <ele>1806.222</ele>
        <time>2026-02-02T11:53:07Z</time>
      </trkpt>
      <trkpt lat="46.1766" lon="6.5541">
        <ele>1806.428</ele>
        <time>2026-02-02T11:53:12Z</time>
      </trkpt>
      <trkpt lat="46.1766" lon="6.5541">
        <ele>1807.252</ele>
        <time>2026-02-02T11:53:17Z</time>
      </trkpt>
      <trkpt lat="46.1766" lon="6.5541">
        <ele>1807.286</ele>
        <time>2026-02-02T11:53:22Z</time>
      </trkpt>
      <trkpt lat="46.1766" lon="6.5541">
        <ele>1807.32</ele>
        <time>2026-02-02T11:53:27Z</time>
      </trkpt>
      <trkpt lat="46.1766" lon="6.5541">
        <ele>1807.347</ele>
        <time>2026-02-02T11:53:32Z</time>
      </trkpt>
      <trkpt lat="46.1766" lon="6.5541">
        <ele>1807.373</ele>
        <time>2026-02-02T11:53:37Z</time>
      </trkpt>
      <trkpt lat="46.1766" lon="6.5541">
        <ele>1807.389</ele>
        <time>2026-02-02T11:53:42Z</time>
      </trkpt>
      <trkpt lat="46.1766" lon="6.5541">
        <ele>1807.418</ele>
        <time>2026-02-02T11:53:47Z</time>
      </trkpt>
      <trkpt lat="46.1766" lon="6.5541">
        <ele>1807.436</ele>
        <time>2026-02-02T11:53:52Z</time>
      </trkpt>
      <trkpt lat="46.1766" lon="6.5541">
        <ele>1807.449</ele>
        <time>2026-02-02T11:53:57Z</time>
      </trkpt>
      <trkpt lat="46.1766" lon="6.5541">
        <ele>1807.591</ele>
        <time>2026-02-02T11:54:02Z</time>
      </trkpt>
      <trkpt lat="46.1766" lon="6.5541">
        <ele>1807.593</ele>
        <time>2026-02-02T11:54:07Z</time>
      </trkpt>
      <trkpt lat="46.1766" lon="6.5541">
        <ele>1807.609</ele>
        <time>2026-02-02T11:54:12Z</time>
      </trkpt>
      <trkpt lat="46.1766" lon="6.5541">
        <ele>1807.609</ele>
        <time>2026-02-02T11:54:17Z</time>
      </trkpt>
      <trkpt lat="46.1766" lon="6.5541">
        <ele>1807.614</ele>
        <time>2026-02-02T11:54:22Z</time>
      </trkpt>
      <trkpt lat="46.1766" lon="6.5541">
        <ele>1807.626</ele>
        <time>2026-02-02T11:54:27Z</time>
      </trkpt>
      <trkpt lat="46.1766" lon="6.5541">
        <ele>1807.632</ele>
        <time>2026-02-02T11:54:32Z</time>
      </trkpt>
      <trkpt lat="46.1766" lon="6.5541">
        <ele>1807.646</ele>
        <time>2026-02-02T11:54:37Z</time>
      </trkpt>
      <trkpt lat="46.1766" lon="6.5541">
        <ele>1807.65</ele>
        <time>2026-02-02T11:54:42Z</time>
      </trkpt>
      <trkpt lat="46.1766" lon="6.5541">
        <ele>1807.653</ele>
        <time>2026-02-02T11:54:47Z</time>
      </trkpt>
      <trkpt lat="46.1766" lon="6.55409">
        <ele>1807.655</ele>
        <time>2026-02-02T11:54:52Z</time>
      </trkpt>
      <trkpt lat="46.1766" lon="6.55409">
        <ele>1807.657</ele>
        <time>2026-02-02T11:54:57Z</time>
      </trkpt>
      <trkpt lat="46.1766" lon="6.55409">
        <ele>1807.663</ele>
        <time>2026-02-02T11:55:02Z</time>
      </trkpt>
      <trkpt lat="46.1766" lon="6.55409">
        <ele>1807.66</ele>
        <time>2026-02-02T11:55:07Z</time>
      </trkpt>
      <trkpt lat="46.1766" lon="6.55409">
        <ele>1807.654</ele>
        <time>2026-02-02T11:55:12Z</time>
      </trkpt>
      <trkpt lat="46.17658" lon="6.55407">
        <ele>1807.792</ele>
        <time>2026-02-02T11:55:17Z</time>
      </trkpt>
      <trkpt lat="46.17655" lon="6.55404">
        <ele>1808.394</ele>
        <time>2026-02-02T11:55:22Z</time>
      </trkpt>
      <trkpt lat="46.17652" lon="6.55401">
        <ele>1808.189</ele>
        <time>2026-02-02T11:55:27Z</time>
      </trkpt>
      <trkpt lat="46.1765" lon="6.55398">
        <ele>1808.017</ele>
        <time>2026-02-02T11:55:32Z</time>
      </trkpt>
      <trkpt lat="46.17648" lon="6.55396">
        <ele>1808.096</ele>
        <time>2026-02-02T11:55:37Z</time>
      </trkpt>
      <trkpt lat="46.17646" lon="6.55393">
        <ele>1809.458</ele>
        <time>2026-02-02T11:55:42Z</time>
      </trkpt>
      <trkpt lat="46.17644" lon="6.55392">
        <ele>1809.73</ele>
        <time>2026-02-02T11:55:47Z</time>
      </trkpt>
      <trkpt lat="46.17643" lon="6.5539">
        <ele>1809.567</ele>
        <time>2026-02-02T11:55:52Z</time>
      </trkpt>
      <trkpt lat="46.17643" lon="6.5539">
        <ele>1809.702</ele>
        <time>2026-02-02T11:55:57Z</time>
      </trkpt>
      <trkpt lat="46.17643" lon="6.5539">
        <ele>1809.586</ele>
        <time>2026-02-02T11:56:02Z</time>
      </trkpt>
      <trkpt lat="46.17643" lon="6.5539">
        <ele>1809.596</ele>
        <time>2026-02-02T11:56:07Z</time>
      </trkpt>
      <trkpt lat="46.17643" lon="6.55388">
        <ele>1809.255</ele>
        <time>2026-02-02T11:56:12Z</time>
      </trkpt>
      <trkpt lat="46.1764" lon="6.55384">
        <ele>1809.906</ele>
        <time>2026-02-02T11:56:17Z</time>
      </trkpt>
      <trkpt lat="46.17638" lon="6.55381">
        <ele>1809.97</ele>
        <time>2026-02-02T11:56:22Z</time>
      </trkpt>
      <trkpt lat="46.17637" lon="6.55378">
        <ele>1810.151</ele>
        <time>2026-02-02T11:56:27Z</time>
      </trkpt>
      <trkpt lat="46.17636" lon="6.55375">
        <ele>1809.988</ele>
        <time>2026-02-02T11:56:32Z</time>
      </trkpt>
      <trkpt lat="46.17634" lon="6.55372">
        <ele>1810.331</ele>
        <time>2026-02-02T11:56:37Z</time>
      </trkpt>
      <trkpt lat="46.17632" lon="6.55368">
        <ele>1811.065</ele>
        <time>2026-02-02T11:56:42Z</time>
      </trkpt>
      <trkpt lat="46.1763" lon="6.55366">
        <ele>1812.49</ele>
        <time>2026-02-02T11:56:47Z</time>
      </trkpt>
      <trkpt lat="46.17629" lon="6.55364">
        <ele>1812.376</ele>
        <time>2026-02-02T11:56:52Z</time>
      </trkpt>
      <trkpt lat="46.17627" lon="6.55361">
        <ele>1813.883</ele>
        <time>2026-02-02T11:56:57Z</time>
      </trkpt>
      <trkpt lat="46.17625" lon="6.55359">
        <ele>1815.13</ele>
        <time>2026-02-02T11:57:02Z</time>
      </trkpt>
      <trkpt lat="46.17624" lon="6.55356">
        <ele>1816.095</ele>
        <time>2026-02-02T11:57:07Z</time>
      </trkpt>
      <trkpt lat="46.17621" lon="6.55354">
        <ele>1814.839</ele>
        <time>2026-02-02T11:57:12Z</time>
      </trkpt>
      <trkpt lat="46.1762" lon="6.55352">
        <ele>1815.055</ele>
        <time>2026-02-02T11:57:17Z</time>
      </trkpt>
      <trkpt lat="46.17619" lon="6.5535">
        <ele>1815.932</ele>
        <time>2026-02-02T11:57:22Z</time>
      </trkpt>
      <trkpt lat="46.17619" lon="6.55349">
        <ele>1816.636</ele>
        <time>2026-02-02T11:57:27Z</time>
      </trkpt>
      <trkpt lat="46.17618" lon="6.55348">
        <ele>1817.665</ele>
        <time>2026-02-02T11:57:32Z</time>
      </trkpt>
      <trkpt lat="46.17618" lon="6.55347">
        <ele>1817.851</ele>
        <time>2026-02-02T11:57:37Z</time>
      </trkpt>
      <trkpt lat="46.17618" lon="6.55345">
        <ele>1818.05</ele>
        <time>2026-02-02T11:57:42Z</time>
      </trkpt>
      <trkpt lat="46.17617" lon="6.55341">
        <ele>1818.395</ele>
        <time>2026-02-02T11:57:47Z</time>
      </trkpt>
      <trkpt lat="46.17617" lon="6.55338">
        <ele>1819.069</ele>
        <time>2026-02-02T11:57:52Z</time>
      </trkpt>
      <trkpt lat="46.17616" lon="6.55336">
        <ele>1819.419</ele>
        <time>2026-02-02T11:57:57Z</time>
      </trkpt>
      <trkpt lat="46.17616" lon="6.55336">
        <ele>1819.541</ele>
        <time>2026-02-02T11:58:02Z</time>
      </trkpt>
      <trkpt lat="46.17616" lon="6.55335">
        <ele>1820.479</ele>
        <time>2026-02-02T11:58:07Z</time>
      </trkpt>
      <trkpt lat="46.17615" lon="6.55332">
        <ele>1820.359</ele>
        <time>2026-02-02T11:58:12Z</time>
      </trkpt>
      <trkpt lat="46.17615" lon="6.55329">
        <ele>1820.718</ele>
        <time>2026-02-02T11:58:17Z</time>
      </trkpt>
      <trkpt lat="46.17615" lon="6.55327">
        <ele>1821.57</ele>
        <time>2026-02-02T11:58:22Z</time>
      </trkpt>
      <trkpt lat="46.17616" lon="6.55325">
        <ele>1822.102</ele>
        <time>2026-02-02T11:58:27Z</time>
      </trkpt>
      <trkpt lat="46.17616" lon="6.55324">
        <ele>1823.329</ele>
        <time>2026-02-02T11:58:32Z</time>
      </trkpt>
      <trkpt lat="46.17616" lon="6.55323">
        <ele>1823.533</ele>
        <time>2026-02-02T11:58:37Z</time>
      </trkpt>
      <trkpt lat="46.17616" lon="6.55322">
        <ele>1824.234</ele>
        <time>2026-02-02T11:58:42Z</time>
      </trkpt>
      <trkpt lat="46.17615" lon="6.5532">
        <ele>1824.97</ele>
        <time>2026-02-02T11:58:47Z</time>
      </trkpt>
      <trkpt lat="46.17615" lon="6.5532">
        <ele>1825.502</ele>
        <time>2026-02-02T11:58:52Z</time>
      </trkpt>
      <trkpt lat="46.17615" lon="6.55319">
        <ele>1825.68</ele>
        <time>2026-02-02T11:58:57Z</time>
      </trkpt>
      <trkpt lat="46.17615" lon="6.55319">
        <ele>1826.109</ele>
        <time>2026-02-02T11:59:02Z</time>
      </trkpt>
      <trkpt lat="46.17614" lon="6.55318">
        <ele>1825.803</ele>
        <time>2026-02-02T11:59:07Z</time>
      </trkpt>
      <trkpt lat="46.17614" lon="6.55314">
        <ele>1827.033</ele>
        <time>2026-02-02T11:59:12Z</time>
      </trkpt>
      <trkpt lat="46.17613" lon="6.55311">
        <ele>1827.533</ele>
        <time>2026-02-02T11:59:17Z</time>
      </trkpt>
      <trkpt lat="46.17612" lon="6.55307">
        <ele>1828.001</ele>
        <time>2026-02-02T11:59:22Z</time>
      </trkpt>
      <trkpt lat="46.17612" lon="6.55304">
        <ele>1828.049</ele>
        <time>2026-02-02T11:59:27Z</time>
      </trkpt>
      <trkpt lat="46.17612" lon="6.55302">
        <ele>1828.641</ele>
        <time>2026-02-02T11:59:32Z</time>
      </trkpt>
      <trkpt lat="46.17612" lon="6.55302">
        <ele>1828.658</ele>
        <time>2026-02-02T11:59:37Z</time>
      </trkpt>
      <trkpt lat="46.17612" lon="6.55302">
        <ele>1828.649</ele>
        <time>2026-02-02T11:59:42Z</time>
      </trkpt>
      <trkpt lat="46.17612" lon="6.55299">
        <ele>1829.838</ele>
        <time>2026-02-02T11:59:47Z</time>
      </trkpt>
      <trkpt lat="46.17612" lon="6.55296">
        <ele>1830.187</ele>
        <time>2026-02-02T11:59:52Z</time>
      </trkpt>
      <trkpt lat="46.17611" lon="6.55292">
        <ele>1830.014</ele>
        <time>2026-02-02T11:59:57Z</time>
      </trkpt>
      <trkpt lat="46.17611" lon="6.55291">
        <ele>1830.183</ele>
        <time>2026-02-02T12:00:02Z</time>
      </trkpt>
      <trkpt lat="46.17611" lon="6.55288">
        <ele>1831.185</ele>
        <time>2026-02-02T12:00:07Z</time>
      </trkpt>
      <trkpt lat="46.1761" lon="6.55285">
        <ele>1831.467</ele>
        <time>2026-02-02T12:00:12Z</time>
      </trkpt>
      <trkpt lat="46.1761" lon="6.55281">
        <ele>1831.851</ele>
        <time>2026-02-02T12:00:17Z</time>
      </trkpt>
      <trkpt lat="46.17608" lon="6.55277">
        <ele>1832.621</ele>
        <time>2026-02-02T12:00:22Z</time>
      </trkpt>
      <trkpt lat="46.17607" lon="6.55273">
        <ele>1832.332</ele>
        <time>2026-02-02T12:00:27Z</time>
      </trkpt>
      <trkpt lat="46.17607" lon="6.55273">
        <ele>1832.619</ele>
        <time>2026-02-02T12:00:32Z</time>
      </trkpt>
      <trkpt lat="46.17607" lon="6.5527">
        <ele>1833.808</ele>
        <time>2026-02-02T12:00:37Z</time>
      </trkpt>
      <trkpt lat="46.17606" lon="6.55267">
        <ele>1833.985</ele>
        <time>2026-02-02T12:00:42Z</time>
      </trkpt>
      <trkpt lat="46.17605" lon="6.55264">
        <ele>1833.869</ele>
        <time>2026-02-02T12:00:47Z</time>
      </trkpt>
      <trkpt lat="46.17604" lon="6.5526">
        <ele>1834.125</ele>
        <time>2026-02-02T12:00:52Z</time>
      </trkpt>
      <trkpt lat="46.17602" lon="6.55257">
        <ele>1834.004</ele>
        <time>2026-02-02T12:00:57Z</time>
      </trkpt>
      <trkpt lat="46.17601" lon="6.55254">
        <ele>1834.731</ele>
        <time>2026-02-02T12:01:02Z</time>
      </trkpt>
      <trkpt lat="46.17599" lon="6.55252">
        <ele>1835.015</ele>
        <time>2026-02-02T12:01:07Z</time>
      </trkpt>
      <trkpt lat="46.17598" lon="6.5525">
        <ele>1835.581</ele>
        <time>2026-02-02T12:01:12Z</time>
      </trkpt>
      <trkpt lat="46.17598" lon="6.55249">
        <ele>1835.24</ele>
        <time>2026-02-02T12:01:17Z</time>
      </trkpt>
      <trkpt lat="46.17598" lon="6.55249">
        <ele>1836.371</ele>
        <time>2026-02-02T12:01:22Z</time>
      </trkpt>
      <trkpt lat="46.17598" lon="6.55249">
        <ele>1836.413</ele>
        <time>2026-02-02T12:01:27Z</time>
      </trkpt>
      <trkpt lat="46.17598" lon="6.55249">
        <ele>1836.406</ele>
        <time>2026-02-02T12:01:32Z</time>
      </trkpt>
      <trkpt lat="46.17598" lon="6.55249">
        <ele>1836.397</ele>
        <time>2026-02-02T12:01:37Z</time>
      </trkpt>
      <trkpt lat="46.17598" lon="6.55249">
        <ele>1836.394</ele>
        <time>2026-02-02T12:01:42Z</time>
      </trkpt>
      <trkpt lat="46.17598" lon="6.55249">
        <ele>1836.234</ele>
        <time>2026-02-02T12:01:47Z</time>
      </trkpt>
      <trkpt lat="46.17598" lon="6.55249">
        <ele>1836.242</ele>
        <time>2026-02-02T12:01:52Z</time>
      </trkpt>
      <trkpt lat="46.17598" lon="6.55249">
        <ele>1836.247</ele>
        <time>2026-02-02T12:01:57Z</time>
      </trkpt>
      <trkpt lat="46.17598" lon="6.55249">
        <ele>1836.25</ele>
        <time>2026-02-02T12:02:02Z</time>
      </trkpt>
      <trkpt lat="46.17598" lon="6.55249">
        <ele>1835.922</ele>
        <time>2026-02-02T12:02:07Z</time>
      </trkpt>
      <trkpt lat="46.17598" lon="6.55249">
        <ele>1835.927</ele>
        <time>2026-02-02T12:02:12Z</time>
      </trkpt>
      <trkpt lat="46.17598" lon="6.55249">
        <ele>1835.785</ele>
        <time>2026-02-02T12:02:17Z</time>
      </trkpt>
      <trkpt lat="46.17598" lon="6.55249">
        <ele>1835.857</ele>
        <time>2026-02-02T12:02:22Z</time>
      </trkpt>
      <trkpt lat="46.17598" lon="6.55249">
        <ele>1835.856</ele>
        <time>2026-02-02T12:02:27Z</time>
      </trkpt>
      <trkpt lat="46.17598" lon="6.55249">
        <ele>1835.883</ele>
        <time>2026-02-02T12:02:32Z</time>
      </trkpt>
      <trkpt lat="46.17598" lon="6.55249">
        <ele>1835.883</ele>
        <time>2026-02-02T12:02:37Z</time>
      </trkpt>
      <trkpt lat="46.17598" lon="6.55249">
        <ele>1835.887</ele>
        <time>2026-02-02T12:02:42Z</time>
      </trkpt>
      <trkpt lat="46.17598" lon="6.55249">
        <ele>1835.89</ele>
        <time>2026-02-02T12:02:47Z</time>
      </trkpt>
      <trkpt lat="46.17598" lon="6.55249">
        <ele>1835.891</ele>
        <time>2026-02-02T12:02:52Z</time>
      </trkpt>
      <trkpt lat="46.17598" lon="6.55249">
        <ele>1835.894</ele>
        <time>2026-02-02T12:02:57Z</time>
      </trkpt>
      <trkpt lat="46.17598" lon="6.55249">
        <ele>1835.895</ele>
        <time>2026-02-02T12:03:02Z</time>
      </trkpt>
      <trkpt lat="46.17598" lon="6.55249">
        <ele>1835.894</ele>
        <time>2026-02-02T12:03:07Z</time>
      </trkpt>
      <trkpt lat="46.17598" lon="6.55249">
        <ele>1835.892</ele>
        <time>2026-02-02T12:03:12Z</time>
      </trkpt>
      <trkpt lat="46.17598" lon="6.55249">
        <ele>1835.892</ele>
        <time>2026-02-02T12:03:17Z</time>
      </trkpt>
      <trkpt lat="46.17598" lon="6.55249">
        <ele>1835.889</ele>
        <time>2026-02-02T12:03:22Z</time>
      </trkpt>
      <trkpt lat="46.17598" lon="6.55249">
        <ele>1835.887</ele>
        <time>2026-02-02T12:03:27Z</time>
      </trkpt>
      <trkpt lat="46.17598" lon="6.55249">
        <ele>1835.889</ele>
        <time>2026-02-02T12:03:32Z</time>
      </trkpt>
      <trkpt lat="46.17598" lon="6.55249">
        <ele>1835.894</ele>
        <time>2026-02-02T12:03:37Z</time>
      </trkpt>
      <trkpt lat="46.17598" lon="6.55249">
        <ele>1835.891</ele>
        <time>2026-02-02T12:03:42Z</time>
      </trkpt>
      <trkpt lat="46.17598" lon="6.55249">
        <ele>1835.89</ele>
        <time>2026-02-02T12:03:47Z</time>
      </trkpt>
      <trkpt lat="46.17598" lon="6.55249">
        <ele>1835.891</ele>
        <time>2026-02-02T12:03:52Z</time>
      </trkpt>
      <trkpt lat="46.17598" lon="6.55249">
        <ele>1835.89</ele>
        <time>2026-02-02T12:03:57Z</time>
      </trkpt>
      <trkpt lat="46.17598" lon="6.55249">
        <ele>1835.889</ele>
        <time>2026-02-02T12:04:02Z</time>
      </trkpt>
      <trkpt lat="46.17598" lon="6.55249">
        <ele>1835.888</ele>
        <time>2026-02-02T12:04:07Z</time>
      </trkpt>
      <trkpt lat="46.17598" lon="6.55249">
        <ele>1835.766</ele>
        <time>2026-02-02T12:04:12Z</time>
      </trkpt>
      <trkpt lat="46.17598" lon="6.55249">
        <ele>1835.771</ele>
        <time>2026-02-02T12:04:17Z</time>
      </trkpt>
      <trkpt lat="46.17598" lon="6.55249">
        <ele>1835.773</ele>
        <time>2026-02-02T12:04:22Z</time>
      </trkpt>
      <trkpt lat="46.17598" lon="6.55249">
        <ele>1835.772</ele>
        <time>2026-02-02T12:04:27Z</time>
      </trkpt>
      <trkpt lat="46.17598" lon="6.55249">
        <ele>1835.774</ele>
        <time>2026-02-02T12:04:32Z</time>
      </trkpt>
      <trkpt lat="46.17598" lon="6.55249">
        <ele>1835.776</ele>
        <time>2026-02-02T12:04:37Z</time>
      </trkpt>
      <trkpt lat="46.17598" lon="6.55249">
        <ele>1835.589</ele>
        <time>2026-02-02T12:04:42Z</time>
      </trkpt>
      <trkpt lat="46.17598" lon="6.55249">
        <ele>1835.715</ele>
        <time>2026-02-02T12:04:47Z</time>
      </trkpt>
      <trkpt lat="46.17598" lon="6.55249">
        <ele>1835.745</ele>
        <time>2026-02-02T12:04:52Z</time>
      </trkpt>
      <trkpt lat="46.17598" lon="6.55249">
        <ele>1835.746</ele>
        <time>2026-02-02T12:04:57Z</time>
      </trkpt>
      <trkpt lat="46.17598" lon="6.55249">
        <ele>1835.969</ele>
        <time>2026-02-02T12:05:02Z</time>
      </trkpt>
      <trkpt lat="46.17598" lon="6.55249">
        <ele>1835.971</ele>
        <time>2026-02-02T12:05:07Z</time>
      </trkpt>
      <trkpt lat="46.17598" lon="6.55249">
        <ele>1835.974</ele>
        <time>2026-02-02T12:05:12Z</time>
      </trkpt>
      <trkpt lat="46.17598" lon="6.55249">
        <ele>1835.981</ele>
        <time>2026-02-02T12:05:17Z</time>
      </trkpt>
      <trkpt lat="46.17598" lon="6.55249">
        <ele>1835.982</ele>
        <time>2026-02-02T12:05:22Z</time>
      </trkpt>
      <trkpt lat="46.17598" lon="6.55249">
        <ele>1835.979</ele>
        <time>2026-02-02T12:05:27Z</time>
      </trkpt>
      <trkpt lat="46.17598" lon="6.55249">
        <ele>1835.974</ele>
        <time>2026-02-02T12:05:32Z</time>
      </trkpt>
      <trkpt lat="46.17598" lon="6.55249">
        <ele>1835.964</ele>
        <time>2026-02-02T12:05:37Z</time>
      </trkpt>
      <trkpt lat="46.17598" lon="6.55249">
        <ele>1835.958</ele>
        <time>2026-02-02T12:05:42Z</time>
      </trkpt>
      <trkpt lat="46.17598" lon="6.55249">
        <ele>1835.954</ele>
        <time>2026-02-02T12:05:47Z</time>
      </trkpt>
      <trkpt lat="46.17598" lon="6.55249">
        <ele>1835.95</ele>
        <time>2026-02-02T12:05:52Z</time>
      </trkpt>
      <trkpt lat="46.17598" lon="6.55249">
        <ele>1835.941</ele>
        <time>2026-02-02T12:05:57Z</time>
      </trkpt>
      <trkpt lat="46.17598" lon="6.55249">
        <ele>1835.945</ele>
        <time>2026-02-02T12:06:02Z</time>
      </trkpt>
      <trkpt lat="46.17598" lon="6.55249">
        <ele>1835.947</ele>
        <time>2026-02-02T12:06:07Z</time>
      </trkpt>
      <trkpt lat="46.17598" lon="6.55249">
        <ele>1835.95</ele>
        <time>2026-02-02T12:06:12Z</time>
      </trkpt>
      <trkpt lat="46.17598" lon="6.55249">
        <ele>1835.958</ele>
        <time>2026-02-02T12:06:17Z</time>
      </trkpt>
      <trkpt lat="46.17598" lon="6.55249">
        <ele>1835.962</ele>
        <time>2026-02-02T12:06:22Z</time>
      </trkpt>
      <trkpt lat="46.17598" lon="6.55249">
        <ele>1835.97</ele>
        <time>2026-02-02T12:06:27Z</time>
      </trkpt>
      <trkpt lat="46.17598" lon="6.55249">
        <ele>1835.963</ele>
        <time>2026-02-02T12:06:32Z</time>
      </trkpt>
      <trkpt lat="46.17598" lon="6.55249">
        <ele>1835.959</ele>
        <time>2026-02-02T12:06:37Z</time>
      </trkpt>
      <trkpt lat="46.17598" lon="6.55249">
        <ele>1835.956</ele>
        <time>2026-02-02T12:06:42Z</time>
      </trkpt>
      <trkpt lat="46.17598" lon="6.55249">
        <ele>1835.959</ele>
        <time>2026-02-02T12:06:47Z</time>
      </trkpt>
      <trkpt lat="46.17598" lon="6.55249">
        <ele>1836.183</ele>
        <time>2026-02-02T12:06:52Z</time>
      </trkpt>
      <trkpt lat="46.17598" lon="6.55249">
        <ele>1836.297</ele>
        <time>2026-02-02T12:06:57Z</time>
      </trkpt>
      <trkpt lat="46.17598" lon="6.55249">
        <ele>1836.294</ele>
        <time>2026-02-02T12:07:02Z</time>
      </trkpt>
      <trkpt lat="46.17598" lon="6.55249">
        <ele>1836.292</ele>
        <time>2026-02-02T12:07:07Z</time>
      </trkpt>
      <trkpt lat="46.17598" lon="6.55249">
        <ele>1836.291</ele>
        <time>2026-02-02T12:07:12Z</time>
      </trkpt>
      <trkpt lat="46.17598" lon="6.55249">
        <ele>1836.284</ele>
        <time>2026-02-02T12:07:17Z</time>
      </trkpt>
      <trkpt lat="46.17598" lon="6.55249">
        <ele>1836.286</ele>
        <time>2026-02-02T12:07:22Z</time>
      </trkpt>
      <trkpt lat="46.17598" lon="6.55249">
        <ele>1836.299</ele>
        <time>2026-02-02T12:07:27Z</time>
      </trkpt>
      <trkpt lat="46.17598" lon="6.55249">
        <ele>1836.125</ele>
        <time>2026-02-02T12:07:32Z</time>
      </trkpt>
      <trkpt lat="46.17598" lon="6.55249">
        <ele>1836.122</ele>
        <time>2026-02-02T12:07:37Z</time>
      </trkpt>
      <trkpt lat="46.17598" lon="6.55249">
        <ele>1836.101</ele>
        <time>2026-02-02T12:07:42Z</time>
      </trkpt>
      <trkpt lat="46.17598" lon="6.55249">
        <ele>1836.101</ele>
        <time>2026-02-02T12:07:47Z</time>
      </trkpt>
      <trkpt lat="46.17598" lon="6.55249">
        <ele>1836.107</ele>
        <time>2026-02-02T12:07:52Z</time>
      </trkpt>
      <trkpt lat="46.17598" lon="6.55249">
        <ele>1836.109</ele>
        <time>2026-02-02T12:07:57Z</time>
      </trkpt>
      <trkpt lat="46.17598" lon="6.55249">
        <ele>1836.117</ele>
        <time>2026-02-02T12:08:02Z</time>
      </trkpt>
      <trkpt lat="46.17598" lon="6.55249">
        <ele>1836.068</ele>
        <time>2026-02-02T12:08:07Z</time>
      </trkpt>
      <trkpt lat="46.17598" lon="6.55249">
        <ele>1835.764</ele>
        <time>2026-02-02T12:08:12Z</time>
      </trkpt>
      <trkpt lat="46.17598" lon="6.55249">
        <ele>1835.281</ele>
        <time>2026-02-02T12:08:17Z</time>
      </trkpt>
      <trkpt lat="46.17598" lon="6.55249">
        <ele>1835.292</ele>
        <time>2026-02-02T12:08:22Z</time>
      </trkpt>
      <trkpt lat="46.17598" lon="6.55249">
        <ele>1835.295</ele>
        <time>2026-02-02T12:08:27Z</time>
      </trkpt>
      <trkpt lat="46.17598" lon="6.55249">
        <ele>1835.3</ele>
        <time>2026-02-02T12:08:32Z</time>
      </trkpt>
      <trkpt lat="46.17598" lon="6.55249">
        <ele>1835.597</ele>
        <time>2026-02-02T12:08:37Z</time>
      </trkpt>
      <trkpt lat="46.17598" lon="6.55249">
        <ele>1835.596</ele>
        <time>2026-02-02T12:08:42Z</time>
      </trkpt>
      <trkpt lat="46.17598" lon="6.55249">
        <ele>1835.72</ele>
        <time>2026-02-02T12:08:47Z</time>
      </trkpt>
      <trkpt lat="46.17598" lon="6.55249">
        <ele>1835.721</ele>
        <time>2026-02-02T12:08:52Z</time>
      </trkpt>
      <trkpt lat="46.17598" lon="6.55249">
        <ele>1835.706</ele>
        <time>2026-02-02T12:08:57Z</time>
      </trkpt>
      <trkpt lat="46.17598" lon="6.55249">
        <ele>1835.721</ele>
        <time>2026-02-02T12:09:02Z</time>
      </trkpt>
      <trkpt lat="46.17598" lon="6.55249">
        <ele>1835.742</ele>
        <time>2026-02-02T12:09:07Z</time>
      </trkpt>
      <trkpt lat="46.17598" lon="6.55249">
        <ele>1836.713</ele>
        <time>2026-02-02T12:09:12Z</time>
      </trkpt>
      <trkpt lat="46.17598" lon="6.55249">
        <ele>1836.717</ele>
        <time>2026-02-02T12:09:17Z</time>
      </trkpt>
      <trkpt lat="46.17598" lon="6.55249">
        <ele>1836.723</ele>
        <time>2026-02-02T12:09:22Z</time>
      </trkpt>
      <trkpt lat="46.17598" lon="6.55249">
        <ele>1836.695</ele>
        <time>2026-02-02T12:09:27Z</time>
      </trkpt>
      <trkpt lat="46.17598" lon="6.55249">
        <ele>1836.704</ele>
        <time>2026-02-02T12:09:32Z</time>
      </trkpt>
      <trkpt lat="46.17598" lon="6.55249">
        <ele>1836.699</ele>
        <time>2026-02-02T12:09:37Z</time>
      </trkpt>
      <trkpt lat="46.17598" lon="6.55249">
        <ele>1836.698</ele>
        <time>2026-02-02T12:09:42Z</time>
      </trkpt>
      <trkpt lat="46.17598" lon="6.55249">
        <ele>1836.7</ele>
        <time>2026-02-02T12:09:47Z</time>
      </trkpt>
      <trkpt lat="46.17598" lon="6.55249">
        <ele>1836.704</ele>
        <time>2026-02-02T12:09:52Z</time>
      </trkpt>
      <trkpt lat="46.17598" lon="6.55249">
        <ele>1836.703</ele>
        <time>2026-02-02T12:09:57Z</time>
      </trkpt>
      <trkpt lat="46.17598" lon="6.55249">
        <ele>1836.879</ele>
        <time>2026-02-02T12:10:02Z</time>
      </trkpt>
      <trkpt lat="46.17598" lon="6.55249">
        <ele>1837.34</ele>
        <time>2026-02-02T12:10:07Z</time>
      </trkpt>
      <trkpt lat="46.17598" lon="6.55249">
        <ele>1837.338</ele>
        <time>2026-02-02T12:10:12Z</time>
      </trkpt>
      <trkpt lat="46.17598" lon="6.55249">
        <ele>1837.338</ele>
        <time>2026-02-02T12:10:17Z</time>
      </trkpt>
      <trkpt lat="46.17598" lon="6.55249">
        <ele>1837.337</ele>
        <time>2026-02-02T12:10:22Z</time>
      </trkpt>
      <trkpt lat="46.17598" lon="6.55249">
        <ele>1837.336</ele>
        <time>2026-02-02T12:10:27Z</time>
      </trkpt>
      <trkpt lat="46.17598" lon="6.55249">
        <ele>1837.336</ele>
        <time>2026-02-02T12:10:32Z</time>
      </trkpt>
      <trkpt lat="46.17598" lon="6.55249">
        <ele>1837.335</ele>
        <time>2026-02-02T12:10:37Z</time>
      </trkpt>
      <trkpt lat="46.17598" lon="6.55249">
        <ele>1837.337</ele>
        <time>2026-02-02T12:10:42Z</time>
      </trkpt>
      <trkpt lat="46.17598" lon="6.55249">
        <ele>1837.335</ele>
        <time>2026-02-02T12:10:47Z</time>
      </trkpt>
      <trkpt lat="46.17598" lon="6.55249">
        <ele>1836.878</ele>
        <time>2026-02-02T12:10:52Z</time>
      </trkpt>
      <trkpt lat="46.17598" lon="6.55249">
        <ele>1836.738</ele>
        <time>2026-02-02T12:10:57Z</time>
      </trkpt>
      <trkpt lat="46.17598" lon="6.55249">
        <ele>1836.715</ele>
        <time>2026-02-02T12:11:02Z</time>
      </trkpt>
      <trkpt lat="46.17598" lon="6.55249">
        <ele>1836.711</ele>
        <time>2026-02-02T12:11:07Z</time>
      </trkpt>
      <trkpt lat="46.17598" lon="6.55249">
        <ele>1836.713</ele>
        <time>2026-02-02T12:11:12Z</time>
      </trkpt>
      <trkpt lat="46.17598" lon="6.55249">
        <ele>1836.825</ele>
        <time>2026-02-02T12:11:17Z</time>
      </trkpt>
      <trkpt lat="46.17598" lon="6.55249">
        <ele>1836.833</ele>
        <time>2026-02-02T12:11:22Z</time>
      </trkpt>
      <trkpt lat="46.17598" lon="6.55249">
        <ele>1836.831</ele>
        <time>2026-02-02T12:11:27Z</time>
      </trkpt>
      <trkpt lat="46.17598" lon="6.55249">
        <ele>1836.829</ele>
        <time>2026-02-02T12:11:32Z</time>
      </trkpt>
      <trkpt lat="46.17598" lon="6.55249">
        <ele>1836.827</ele>
        <time>2026-02-02T12:11:37Z</time>
      </trkpt>
      <trkpt lat="46.17598" lon="6.55249">
        <ele>1836.838</ele>
        <time>2026-02-02T12:11:42Z</time>
      </trkpt>
      <trkpt lat="46.17598" lon="6.55249">
        <ele>1837.144</ele>
        <time>2026-02-02T12:11:47Z</time>
      </trkpt>
      <trkpt lat="46.17598" lon="6.55249">
        <ele>1837.197</ele>
        <time>2026-02-02T12:11:52Z</time>
      </trkpt>
      <trkpt lat="46.17598" lon="6.55249">
        <ele>1837.258</ele>
        <time>2026-02-02T12:11:57Z</time>
      </trkpt>
      <trkpt lat="46.17598" lon="6.55249">
        <ele>1837.263</ele>
        <time>2026-02-02T12:12:02Z</time>
      </trkpt>
      <trkpt lat="46.17598" lon="6.55249">
        <ele>1837.265</ele>
        <time>2026-02-02T12:12:07Z</time>
      </trkpt>
      <trkpt lat="46.17598" lon="6.55249">
        <ele>1837.271</ele>
        <time>2026-02-02T12:12:12Z</time>
      </trkpt>
      <trkpt lat="46.17598" lon="6.55249">
        <ele>1837.264</ele>
        <time>2026-02-02T12:12:17Z</time>
      </trkpt>
      <trkpt lat="46.17598" lon="6.55249">
        <ele>1837.348</ele>
        <time>2026-02-02T12:12:22Z</time>
      </trkpt>
      <trkpt lat="46.17598" lon="6.55249">
        <ele>1837.248</ele>
        <time>2026-02-02T12:12:27Z</time>
      </trkpt>
      <trkpt lat="46.17598" lon="6.55249">
        <ele>1836.818</ele>
        <time>2026-02-02T12:12:32Z</time>
      </trkpt>
      <trkpt lat="46.17598" lon="6.55249">
        <ele>1837.002</ele>
        <time>2026-02-02T12:12:37Z</time>
      </trkpt>
      <trkpt lat="46.17598" lon="6.55249">
        <ele>1837.465</ele>
        <time>2026-02-02T12:12:42Z</time>
      </trkpt>
      <trkpt lat="46.17598" lon="6.55249">
        <ele>1838.013</ele>
        <time>2026-02-02T12:12:47Z</time>
      </trkpt>
      <trkpt lat="46.17598" lon="6.55249">
        <ele>1838.025</ele>
        <time>2026-02-02T12:12:52Z</time>
      </trkpt>
      <trkpt lat="46.17598" lon="6.55249">
        <ele>1838.037</ele>
        <time>2026-02-02T12:12:57Z</time>
      </trkpt>
      <trkpt lat="46.17598" lon="6.55249">
        <ele>1838.04</ele>
        <time>2026-02-02T12:13:02Z</time>
      </trkpt>
      <trkpt lat="46.17598" lon="6.55249">
        <ele>1838.048</ele>
        <time>2026-02-02T12:13:07Z</time>
      </trkpt>
      <trkpt lat="46.17598" lon="6.55249">
        <ele>1838.058</ele>
        <time>2026-02-02T12:13:12Z</time>
      </trkpt>
      <trkpt lat="46.17598" lon="6.55249">
        <ele>1838.068</ele>
        <time>2026-02-02T12:13:17Z</time>
      </trkpt>
      <trkpt lat="46.17598" lon="6.55249">
        <ele>1838.066</ele>
        <time>2026-02-02T12:13:22Z</time>
      </trkpt>
      <trkpt lat="46.17598" lon="6.55249">
        <ele>1838.075</ele>
        <time>2026-02-02T12:13:27Z</time>
      </trkpt>
      <trkpt lat="46.17598" lon="6.55249">
        <ele>1838.084</ele>
        <time>2026-02-02T12:13:32Z</time>
      </trkpt>
      <trkpt lat="46.17598" lon="6.55249">
        <ele>1838.094</ele>
        <time>2026-02-02T12:13:37Z</time>
      </trkpt>
      <trkpt lat="46.17598" lon="6.55249">
        <ele>1838.096</ele>
        <time>2026-02-02T12:13:42Z</time>
      </trkpt>
      <trkpt lat="46.17598" lon="6.55249">
        <ele>1838.094</ele>
        <time>2026-02-02T12:13:47Z</time>
      </trkpt>
      <trkpt lat="46.17598" lon="6.55249">
        <ele>1838.1</ele>
        <time>2026-02-02T12:13:52Z</time>
      </trkpt>
      <trkpt lat="46.17598" lon="6.55249">
        <ele>1838.106</ele>
        <time>2026-02-02T12:13:57Z</time>
      </trkpt>
      <trkpt lat="46.17598" lon="6.55249">
        <ele>1838.113</ele>
        <time>2026-02-02T12:14:02Z</time>
      </trkpt>
      <trkpt lat="46.17598" lon="6.55249">
        <ele>1838.12</ele>
        <time>2026-02-02T12:14:07Z</time>
      </trkpt>
      <trkpt lat="46.17598" lon="6.55249">
        <ele>1838.129</ele>
        <time>2026-02-02T12:14:12Z</time>
      </trkpt>
      <trkpt lat="46.17598" lon="6.55249">
        <ele>1838.14</ele>
        <time>2026-02-02T12:14:17Z</time>
      </trkpt>
      <trkpt lat="46.17595" lon="6.5525">
        <ele>1838.077</ele>
        <time>2026-02-02T12:14:22Z</time>
      </trkpt>
      <trkpt lat="46.17587" lon="6.55246">
        <ele>1838.703</ele>
        <time>2026-02-02T12:14:27Z</time>
      </trkpt>
      <trkpt lat="46.17577" lon="6.55242">
        <ele>1837.816</ele>
        <time>2026-02-02T12:14:32Z</time>
      </trkpt>
      <trkpt lat="46.17568" lon="6.55246">
        <ele>1832.504</ele>
        <time>2026-02-02T12:14:37Z</time>
      </trkpt>
      <trkpt lat="46.17562" lon="6.55258">
        <ele>1827.857</ele>
        <time>2026-02-02T12:14:42Z</time>
      </trkpt>
      <trkpt lat="46.17554" lon="6.55268">
        <ele>1824.561</ele>
        <time>2026-02-02T12:14:47Z</time>
      </trkpt>
      <trkpt lat="46.17543" lon="6.55269">
        <ele>1823.475</ele>
        <time>2026-02-02T12:14:52Z</time>
      </trkpt>
      <trkpt lat="46.17543" lon="6.55269">
        <ele>1823.676</ele>
        <time>2026-02-02T12:14:57Z</time>
      </trkpt>
      <trkpt lat="46.17542" lon="6.55268">
        <ele>1823.585</ele>
        <time>2026-02-02T12:15:02Z</time>
      </trkpt>
      <trkpt lat="46.17542" lon="6.55268">
        <ele>1823.528</ele>
        <time>2026-02-02T12:15:07Z</time>
      </trkpt>
      <trkpt lat="46.17542" lon="6.55268">
        <ele>1823.555</ele>
        <time>2026-02-02T12:15:12Z</time>
      </trkpt>
      <trkpt lat="46.17541" lon="6.55268">
        <ele>1823.224</ele>
        <time>2026-02-02T12:15:17Z</time>
      </trkpt>
      <trkpt lat="46.17532" lon="6.55274">
        <ele>1818.563</ele>
        <time>2026-02-02T12:15:22Z</time>
      </trkpt>
      <trkpt lat="46.17529" lon="6.55285">
        <ele>1812.984</ele>
        <time>2026-02-02T12:15:27Z</time>
      </trkpt>
      <trkpt lat="46.17524" lon="6.55295">
        <ele>1807.929</ele>
        <time>2026-02-02T12:15:32Z</time>
      </trkpt>
      <trkpt lat="46.17522" lon="6.55312">
        <ele>1801.803</ele>
        <time>2026-02-02T12:15:37Z</time>
      </trkpt>
      <trkpt lat="46.17515" lon="6.55317">
        <ele>1796.468</ele>
        <time>2026-02-02T12:15:42Z</time>
      </trkpt>
      <trkpt lat="46.17502" lon="6.55315">
        <ele>1794.439</ele>
        <time>2026-02-02T12:15:47Z</time>
      </trkpt>
      <trkpt lat="46.17494" lon="6.55314">
        <ele>1792.15</ele>
        <time>2026-02-02T12:15:52Z</time>
      </trkpt>
      <trkpt lat="46.17493" lon="6.55314">
        <ele>1792.628</ele>
        <time>2026-02-02T12:15:57Z</time>
      </trkpt>
      <trkpt lat="46.17491" lon="6.55313">
        <ele>1792.283</ele>
        <time>2026-02-02T12:16:02Z</time>
      </trkpt>
      <trkpt lat="46.17483" lon="6.55316">
        <ele>1789.58</ele>
        <time>2026-02-02T12:16:07Z</time>
      </trkpt>
      <trkpt lat="46.17478" lon="6.55334">
        <ele>1783.024</ele>
        <time>2026-02-02T12:16:12Z</time>
      </trkpt>
      <trkpt lat="46.17466" lon="6.55335">
        <ele>1782.61</ele>
        <time>2026-02-02T12:16:17Z</time>
      </trkpt>
      <trkpt lat="46.17465" lon="6.55335">
        <ele>1782.563</ele>
        <time>2026-02-02T12:16:22Z</time>
      </trkpt>
      <trkpt lat="46.17459" lon="6.55337">
        <ele>1780.866</ele>
        <time>2026-02-02T12:16:27Z</time>
      </trkpt>
      <trkpt lat="46.17447" lon="6.5534">
        <ele>1778.957</ele>
        <time>2026-02-02T12:16:32Z</time>
      </trkpt>
      <trkpt lat="46.17446" lon="6.55342">
        <ele>1778.292</ele>
        <time>2026-02-02T12:16:37Z</time>
      </trkpt>
      <trkpt lat="46.17446" lon="6.55342">
        <ele>1778.247</ele>
        <time>2026-02-02T12:16:42Z</time>
      </trkpt>
      <trkpt lat="46.17446" lon="6.55342">
        <ele>1778.123</ele>
        <time>2026-02-02T12:16:47Z</time>
      </trkpt>
      <trkpt lat="46.17446" lon="6.55342">
        <ele>1778.117</ele>
        <time>2026-02-02T12:16:52Z</time>
      </trkpt>
      <trkpt lat="46.17446" lon="6.55342">
        <ele>1778.11</ele>
        <time>2026-02-02T12:16:57Z</time>
      </trkpt>
      <trkpt lat="46.17446" lon="6.55342">
        <ele>1776.975</ele>
        <time>2026-02-02T12:17:02Z</time>
      </trkpt>
      <trkpt lat="46.17446" lon="6.55342">
        <ele>1776.863</ele>
        <time>2026-02-02T12:17:07Z</time>
      </trkpt>
      <trkpt lat="46.17446" lon="6.55342">
        <ele>1777.386</ele>
        <time>2026-02-02T12:17:12Z</time>
      </trkpt>
      <trkpt lat="46.17446" lon="6.55342">
        <ele>1777.358</ele>
        <time>2026-02-02T12:17:17Z</time>
      </trkpt>
      <trkpt lat="46.17446" lon="6.55342">
        <ele>1777.37</ele>
        <time>2026-02-02T12:17:22Z</time>
      </trkpt>
      <trkpt lat="46.17446" lon="6.55342">
        <ele>1777.378</ele>
        <time>2026-02-02T12:17:27Z</time>
      </trkpt>
      <trkpt lat="46.17446" lon="6.55342">
        <ele>1777.389</ele>
        <time>2026-02-02T12:17:32Z</time>
      </trkpt>
      <trkpt lat="46.17446" lon="6.55342">
        <ele>1777.394</ele>
        <time>2026-02-02T12:17:37Z</time>
      </trkpt>
      <trkpt lat="46.17446" lon="6.55342">
        <ele>1777.392</ele>
        <time>2026-02-02T12:17:42Z</time>
      </trkpt>
      <trkpt lat="46.17445" lon="6.55343">
        <ele>1777.473</ele>
        <time>2026-02-02T12:17:47Z</time>
      </trkpt>
      <trkpt lat="46.1744" lon="6.5535">
        <ele>1777.625</ele>
        <time>2026-02-02T12:17:52Z</time>
      </trkpt>
      <trkpt lat="46.17439" lon="6.55359">
        <ele>1774.426</ele>
        <time>2026-02-02T12:17:57Z</time>
      </trkpt>
      <trkpt lat="46.17449" lon="6.55363">
        <ele>1766.968</ele>
        <time>2026-02-02T12:18:02Z</time>
      </trkpt>
      <trkpt lat="46.17443" lon="6.5538">
        <ele>1764.07</ele>
        <time>2026-02-02T12:18:07Z</time>
      </trkpt>
      <trkpt lat="46.17437" lon="6.55399">
        <ele>1758.043</ele>
        <time>2026-02-02T12:18:12Z</time>
      </trkpt>
      <trkpt lat="46.1743" lon="6.55415">
        <ele>1756.918</ele>
        <time>2026-02-02T12:18:17Z</time>
      </trkpt>
      <trkpt lat="46.1743" lon="6.55415">
        <ele>1757.325</ele>
        <time>2026-02-02T12:18:22Z</time>
      </trkpt>
      <trkpt lat="46.17429" lon="6.55419">
        <ele>1755.631</ele>
        <time>2026-02-02T12:18:27Z</time>
      </trkpt>
      <trkpt lat="46.17431" lon="6.55425">
        <ele>1751.492</ele>
        <time>2026-02-02T12:18:32Z</time>
      </trkpt>
      <trkpt lat="46.17442" lon="6.55435">
        <ele>1744.847</ele>
        <time>2026-02-02T12:18:37Z</time>
      </trkpt>
      <trkpt lat="46.17443" lon="6.55458">
        <ele>1735.365</ele>
        <time>2026-02-02T12:18:42Z</time>
      </trkpt>
      <trkpt lat="46.17449" lon="6.55466">
        <ele>1729.015</ele>
        <time>2026-02-02T12:18:47Z</time>
      </trkpt>
      <trkpt lat="46.17448" lon="6.55464">
        <ele>1727.732</ele>
        <time>2026-02-02T12:18:52Z</time>
      </trkpt>
      <trkpt lat="46.17447" lon="6.55464">
        <ele>1727.616</ele>
        <time>2026-02-02T12:18:57Z</time>
      </trkpt>
      <trkpt lat="46.17447" lon="6.55464">
        <ele>1727.568</ele>
        <time>2026-02-02T12:19:02Z</time>
      </trkpt>
      <trkpt lat="46.17447" lon="6.55464">
        <ele>1727.581</ele>
        <time>2026-02-02T12:19:07Z</time>
      </trkpt>
      <trkpt lat="46.17447" lon="6.55464">
        <ele>1727.575</ele>
        <time>2026-02-02T12:19:12Z</time>
      </trkpt>
      <trkpt lat="46.17447" lon="6.55464">
        <ele>1727.574</ele>
        <time>2026-02-02T12:19:17Z</time>
      </trkpt>
      <trkpt lat="46.17447" lon="6.55464">
        <ele>1727.575</ele>
        <time>2026-02-02T12:19:22Z</time>
      </trkpt>
      <trkpt lat="46.17446" lon="6.55469">
        <ele>1726.911</ele>
        <time>2026-02-02T12:19:27Z</time>
      </trkpt>
      <trkpt lat="46.17458" lon="6.5549">
        <ele>1720.005</ele>
        <time>2026-02-02T12:19:32Z</time>
      </trkpt>
      <trkpt lat="46.17463" lon="6.55517">
        <ele>1712.803</ele>
        <time>2026-02-02T12:19:37Z</time>
      </trkpt>
      <trkpt lat="46.17474" lon="6.55542">
        <ele>1704.906</ele>
        <time>2026-02-02T12:19:42Z</time>
      </trkpt>
      <trkpt lat="46.17472" lon="6.55543">
        <ele>1704.573</ele>
        <time>2026-02-02T12:19:47Z</time>
      </trkpt>
      <trkpt lat="46.17472" lon="6.55543">
        <ele>1704.589</ele>
        <time>2026-02-02T12:19:52Z</time>
      </trkpt>
      <trkpt lat="46.17472" lon="6.55543">
        <ele>1704.679</ele>
        <time>2026-02-02T12:19:57Z</time>
      </trkpt>
      <trkpt lat="46.1747" lon="6.55545">
        <ele>1705.363</ele>
        <time>2026-02-02T12:20:02Z</time>
      </trkpt>
      <trkpt lat="46.17469" lon="6.55565">
        <ele>1697.552</ele>
        <time>2026-02-02T12:20:07Z</time>
      </trkpt>
      <trkpt lat="46.1747" lon="6.55598">
        <ele>1691.847</ele>
        <time>2026-02-02T12:20:12Z</time>
      </trkpt>
      <trkpt lat="46.17468" lon="6.55623">
        <ele>1690.621</ele>
        <time>2026-02-02T12:20:17Z</time>
      </trkpt>
      <trkpt lat="46.17466" lon="6.55629">
        <ele>1691.011</ele>
        <time>2026-02-02T12:20:22Z</time>
      </trkpt>
      <trkpt lat="46.17463" lon="6.55637">
        <ele>1690.352</ele>
        <time>2026-02-02T12:20:27Z</time>
      </trkpt>
      <trkpt lat="46.17459" lon="6.5565">
        <ele>1688.761</ele>
        <time>2026-02-02T12:20:32Z</time>
      </trkpt>
      <trkpt lat="46.17451" lon="6.55671">
        <ele>1686.848</ele>
        <time>2026-02-02T12:20:37Z</time>
      </trkpt>
      <trkpt lat="46.17442" lon="6.55701">
        <ele>1684.94</ele>
        <time>2026-02-02T12:20:42Z</time>
      </trkpt>
      <trkpt lat="46.1744" lon="6.55724">
        <ele>1682.877</ele>
        <time>2026-02-02T12:20:47Z</time>
      </trkpt>
      <trkpt lat="46.1744" lon="6.55734">
        <ele>1681.489</ele>
        <time>2026-02-02T12:20:52Z</time>
      </trkpt>
      <trkpt lat="46.17444" lon="6.55746">
        <ele>1678.813</ele>
        <time>2026-02-02T12:20:57Z</time>
      </trkpt>
      <trkpt lat="46.17435" lon="6.55761">
        <ele>1672.35</ele>
        <time>2026-02-02T12:21:02Z</time>
      </trkpt>
      <trkpt lat="46.17424" lon="6.55783">
        <ele>1662.631</ele>
        <time>2026-02-02T12:21:07Z</time>
      </trkpt>
      <trkpt lat="46.17413" lon="6.55807">
        <ele>1653.426</ele>
        <time>2026-02-02T12:21:12Z</time>
      </trkpt>
      <trkpt lat="46.17411" lon="6.55806">
        <ele>1653.936</ele>
        <time>2026-02-02T12:21:17Z</time>
      </trkpt>
      <trkpt lat="46.1741" lon="6.55805">
        <ele>1653.648</ele>
        <time>2026-02-02T12:21:22Z</time>
      </trkpt>
      <trkpt lat="46.1741" lon="6.55805">
        <ele>1653.485</ele>
        <time>2026-02-02T12:21:27Z</time>
      </trkpt>
      <trkpt lat="46.1741" lon="6.55806">
        <ele>1654.094</ele>
        <time>2026-02-02T12:21:32Z</time>
      </trkpt>
      <trkpt lat="46.1741" lon="6.55806">
        <ele>1654.667</ele>
        <time>2026-02-02T12:21:37Z</time>
      </trkpt>
      <trkpt lat="46.17416" lon="6.55822">
        <ele>1650.574</ele>
        <time>2026-02-02T12:21:42Z</time>
      </trkpt>
      <trkpt lat="46.17407" lon="6.55848">
        <ele>1641.176</ele>
        <time>2026-02-02T12:21:47Z</time>
      </trkpt>
      <trkpt lat="46.17395" lon="6.55872">
        <ele>1636.972</ele>
        <time>2026-02-02T12:21:52Z</time>
      </trkpt>
      <trkpt lat="46.17386" lon="6.55908">
        <ele>1629.459</ele>
        <time>2026-02-02T12:21:57Z</time>
      </trkpt>
      <trkpt lat="46.17367" lon="6.55941">
        <ele>1624.892</ele>
        <time>2026-02-02T12:22:02Z</time>
      </trkpt>
      <trkpt lat="46.17347" lon="6.55973">
        <ele>1618.833</ele>
        <time>2026-02-02T12:22:07Z</time>
      </trkpt>
      <trkpt lat="46.17327" lon="6.55993">
        <ele>1616.834</ele>
        <time>2026-02-02T12:22:12Z</time>
      </trkpt>
      <trkpt lat="46.1731" lon="6.56014">
        <ele>1614.786</ele>
        <time>2026-02-02T12:22:17Z</time>
      </trkpt>
      <trkpt lat="46.17294" lon="6.56035">
        <ele>1612.574</ele>
        <time>2026-02-02T12:22:22Z</time>
      </trkpt>
      <trkpt lat="46.17283" lon="6.56051">
        <ele>1610.755</ele>
        <time>2026-02-02T12:22:27Z</time>
      </trkpt>
      <trkpt lat="46.17276" lon="6.56063">
        <ele>1609.174</ele>
        <time>2026-02-02T12:22:32Z</time>
      </trkpt>
      <trkpt lat="46.17272" lon="6.56071">
        <ele>1608.781</ele>
        <time>2026-02-02T12:22:37Z</time>
      </trkpt>
      <trkpt lat="46.17272" lon="6.56073">
        <ele>1608.237</ele>
        <time>2026-02-02T12:22:42Z</time>
      </trkpt>
      <trkpt lat="46.17271" lon="6.56077">
        <ele>1608.772</ele>
        <time>2026-02-02T12:22:47Z</time>
      </trkpt>
      <trkpt lat="46.17271" lon="6.56078">
        <ele>1609.76</ele>
        <time>2026-02-02T12:22:52Z</time>
      </trkpt>
      <trkpt lat="46.1727" lon="6.56079">
        <ele>1609.44</ele>
        <time>2026-02-02T12:22:57Z</time>
      </trkpt>
      <trkpt lat="46.1727" lon="6.56079">
        <ele>1608.861</ele>
        <time>2026-02-02T12:23:02Z</time>
      </trkpt>
      <trkpt lat="46.1727" lon="6.56079">
        <ele>1608.879</ele>
        <time>2026-02-02T12:23:07Z</time>
      </trkpt>
      <trkpt lat="46.1727" lon="6.56079">
        <ele>1608.875</ele>
        <time>2026-02-02T12:23:12Z</time>
      </trkpt>
      <trkpt lat="46.1727" lon="6.5608">
        <ele>1609.651</ele>
        <time>2026-02-02T12:23:17Z</time>
      </trkpt>
      <trkpt lat="46.17269" lon="6.5608">
        <ele>1609.787</ele>
        <time>2026-02-02T12:23:22Z</time>
      </trkpt>
      <trkpt lat="46.17268" lon="6.5608">
        <ele>1609.633</ele>
        <time>2026-02-02T12:23:27Z</time>
      </trkpt>
      <trkpt lat="46.17268" lon="6.5608">
        <ele>1610.05</ele>
        <time>2026-02-02T12:23:32Z</time>
      </trkpt>
      <trkpt lat="46.17269" lon="6.56083">
        <ele>1609.356</ele>
        <time>2026-02-02T12:23:37Z</time>
      </trkpt>
      <trkpt lat="46.17269" lon="6.56085">
        <ele>1609.376</ele>
        <time>2026-02-02T12:23:42Z</time>
      </trkpt>
      <trkpt lat="46.17271" lon="6.56087">
        <ele>1609.87</ele>
        <time>2026-02-02T12:23:47Z</time>
      </trkpt>
      <trkpt lat="46.17271" lon="6.56092">
        <ele>1609.925</ele>
        <time>2026-02-02T12:23:52Z</time>
      </trkpt>
      <trkpt lat="46.17273" lon="6.56095">
        <ele>1609.703</ele>
        <time>2026-02-02T12:23:57Z</time>
      </trkpt>
      <trkpt lat="46.17276" lon="6.56096">
        <ele>1610.6</ele>
        <time>2026-02-02T12:24:02Z</time>
      </trkpt>
      <trkpt lat="46.17278" lon="6.56095">
        <ele>1610.077</ele>
        <time>2026-02-02T12:24:07Z</time>
      </trkpt>
      <trkpt lat="46.17279" lon="6.56093">
        <ele>1609.87</ele>
        <time>2026-02-02T12:24:12Z</time>
      </trkpt>
      <trkpt lat="46.1728" lon="6.56092">
        <ele>1610.043</ele>
        <time>2026-02-02T12:24:17Z</time>
      </trkpt>
      <trkpt lat="46.17281" lon="6.56088">
        <ele>1610.346</ele>
        <time>2026-02-02T12:24:22Z</time>
      </trkpt>
      <trkpt lat="46.17282" lon="6.56083">
        <ele>1610.424</ele>
        <time>2026-02-02T12:24:27Z</time>
      </trkpt>
      <trkpt lat="46.1728" lon="6.56081">
        <ele>1611.049</ele>
        <time>2026-02-02T12:24:32Z</time>
      </trkpt>
      <trkpt lat="46.1728" lon="6.5608">
        <ele>1611.152</ele>
        <time>2026-02-02T12:24:37Z</time>
      </trkpt>
      <trkpt lat="46.1728" lon="6.5608">
        <ele>1610.931</ele>
        <time>2026-02-02T12:24:42Z</time>
      </trkpt>
      <trkpt lat="46.1728" lon="6.5608">
        <ele>1610.946</ele>
        <time>2026-02-02T12:24:47Z</time>
      </trkpt>
      <trkpt lat="46.1728" lon="6.5608">
        <ele>1610.942</ele>
        <time>2026-02-02T12:24:52Z</time>
      </trkpt>
      <trkpt lat="46.1728" lon="6.5608">
        <ele>1610.936</ele>
        <time>2026-02-02T12:24:57Z</time>
      </trkpt>
      <trkpt lat="46.1728" lon="6.5608">
        <ele>1610.934</ele>
        <time>2026-02-02T12:25:02Z</time>
      </trkpt>
      <trkpt lat="46.1728" lon="6.5608">
        <ele>1610.934</ele>
        <time>2026-02-02T12:25:07Z</time>
      </trkpt>
      <trkpt lat="46.1728" lon="6.5608">
        <ele>1610.934</ele>
        <time>2026-02-02T12:25:12Z</time>
      </trkpt>
      <trkpt lat="46.1728" lon="6.5608">
        <ele>1610.931</ele>
        <time>2026-02-02T12:25:17Z</time>
      </trkpt>
      <trkpt lat="46.1728" lon="6.5608">
        <ele>1610.935</ele>
        <time>2026-02-02T12:25:22Z</time>
      </trkpt>
      <trkpt lat="46.1728" lon="6.5608">
        <ele>1610.616</ele>
        <time>2026-02-02T12:25:27Z</time>
      </trkpt>
      <trkpt lat="46.1728" lon="6.5608">
        <ele>1611.846</ele>
        <time>2026-02-02T12:25:32Z</time>
      </trkpt>
      <trkpt lat="46.1728" lon="6.5608">
        <ele>1611.711</ele>
        <time>2026-02-02T12:25:37Z</time>
      </trkpt>
      <trkpt lat="46.1728" lon="6.5608">
        <ele>1611.71</ele>
        <time>2026-02-02T12:25:42Z</time>
      </trkpt>
      <trkpt lat="46.1728" lon="6.5608">
        <ele>1611.7</ele>
        <time>2026-02-02T12:25:47Z</time>
      </trkpt>
      <trkpt lat="46.1728" lon="6.5608">
        <ele>1611.691</ele>
        <time>2026-02-02T12:25:52Z</time>
      </trkpt>
      <trkpt lat="46.1728" lon="6.5608">
        <ele>1611.679</ele>
        <time>2026-02-02T12:25:57Z</time>
      </trkpt>
      <trkpt lat="46.1728" lon="6.5608">
        <ele>1611.671</ele>
        <time>2026-02-02T12:26:02Z</time>
      </trkpt>
      <trkpt lat="46.1728" lon="6.5608">
        <ele>1611.673</ele>
        <time>2026-02-02T12:26:07Z</time>
      </trkpt>
      <trkpt lat="46.1728" lon="6.5608">
        <ele>1611.667</ele>
        <time>2026-02-02T12:26:12Z</time>
      </trkpt>
      <trkpt lat="46.1728" lon="6.5608">
        <ele>1611.661</ele>
        <time>2026-02-02T12:26:17Z</time>
      </trkpt>
      <trkpt lat="46.1728" lon="6.5608">
        <ele>1611.653</ele>
        <time>2026-02-02T12:26:22Z</time>
      </trkpt>
      <trkpt lat="46.1728" lon="6.5608">
        <ele>1611.652</ele>
        <time>2026-02-02T12:26:27Z</time>
      </trkpt>
      <trkpt lat="46.1728" lon="6.5608">
        <ele>1611.651</ele>
        <time>2026-02-02T12:26:32Z</time>
      </trkpt>
      <trkpt lat="46.1728" lon="6.5608">
        <ele>1611.649</ele>
        <time>2026-02-02T12:26:37Z</time>
      </trkpt>
      <trkpt lat="46.1728" lon="6.5608">
        <ele>1611.65</ele>
        <time>2026-02-02T12:26:42Z</time>
      </trkpt>
      <trkpt lat="46.1728" lon="6.5608">
        <ele>1611.647</ele>
        <time>2026-02-02T12:26:47Z</time>
      </trkpt>
      <trkpt lat="46.1728" lon="6.5608">
        <ele>1611.643</ele>
        <time>2026-02-02T12:26:52Z</time>
      </trkpt>
      <trkpt lat="46.1728" lon="6.5608">
        <ele>1611.639</ele>
        <time>2026-02-02T12:26:57Z</time>
      </trkpt>
      <trkpt lat="46.1728" lon="6.5608">
        <ele>1611.635</ele>
        <time>2026-02-02T12:27:02Z</time>
      </trkpt>
      <trkpt lat="46.1728" lon="6.5608">
        <ele>1611.634</ele>
        <time>2026-02-02T12:27:07Z</time>
      </trkpt>
      <trkpt lat="46.1728" lon="6.5608">
        <ele>1611.632</ele>
        <time>2026-02-02T12:27:12Z</time>
      </trkpt>
      <trkpt lat="46.1728" lon="6.5608">
        <ele>1611.626</ele>
        <time>2026-02-02T12:27:17Z</time>
      </trkpt>
      <trkpt lat="46.1728" lon="6.5608">
        <ele>1611.624</ele>
        <time>2026-02-02T12:27:22Z</time>
      </trkpt>
      <trkpt lat="46.1728" lon="6.5608">
        <ele>1611.62</ele>
        <time>2026-02-02T12:27:27Z</time>
      </trkpt>
      <trkpt lat="46.1728" lon="6.5608">
        <ele>1611.611</ele>
        <time>2026-02-02T12:27:32Z</time>
      </trkpt>
      <trkpt lat="46.1728" lon="6.5608">
        <ele>1611.604</ele>
        <time>2026-02-02T12:27:37Z</time>
      </trkpt>
      <trkpt lat="46.1728" lon="6.5608">
        <ele>1611.598</ele>
        <time>2026-02-02T12:27:42Z</time>
      </trkpt>
      <trkpt lat="46.1728" lon="6.5608">
        <ele>1611.594</ele>
        <time>2026-02-02T12:27:47Z</time>
      </trkpt>
      <trkpt lat="46.1728" lon="6.5608">
        <ele>1611.587</ele>
        <time>2026-02-02T12:27:52Z</time>
      </trkpt>
      <trkpt lat="46.1728" lon="6.5608">
        <ele>1611.587</ele>
        <time>2026-02-02T12:27:57Z</time>
      </trkpt>
      <trkpt lat="46.1728" lon="6.5608">
        <ele>1611.585</ele>
        <time>2026-02-02T12:28:02Z</time>
      </trkpt>
      <trkpt lat="46.1728" lon="6.5608">
        <ele>1611.577</ele>
        <time>2026-02-02T12:28:07Z</time>
      </trkpt>
      <trkpt lat="46.1728" lon="6.5608">
        <ele>1611.571</ele>
        <time>2026-02-02T12:28:12Z</time>
      </trkpt>
      <trkpt lat="46.1728" lon="6.5608">
        <ele>1611.566</ele>
        <time>2026-02-02T12:28:17Z</time>
      </trkpt>
      <trkpt lat="46.1728" lon="6.5608">
        <ele>1611.564</ele>
        <time>2026-02-02T12:28:22Z</time>
      </trkpt>
      <trkpt lat="46.1728" lon="6.5608">
        <ele>1611.565</ele>
        <time>2026-02-02T12:28:27Z</time>
      </trkpt>
      <trkpt lat="46.1728" lon="6.5608">
        <ele>1611.564</ele>
        <time>2026-02-02T12:28:32Z</time>
      </trkpt>
      <trkpt lat="46.1728" lon="6.5608">
        <ele>1611.565</ele>
        <time>2026-02-02T12:28:37Z</time>
      </trkpt>
      <trkpt lat="46.1728" lon="6.5608">
        <ele>1611.562</ele>
        <time>2026-02-02T12:28:42Z</time>
      </trkpt>
      <trkpt lat="46.1728" lon="6.5608">
        <ele>1611.56</ele>
        <time>2026-02-02T12:28:47Z</time>
      </trkpt>
      <trkpt lat="46.1728" lon="6.5608">
        <ele>1611.559</ele>
        <time>2026-02-02T12:28:52Z</time>
      </trkpt>
      <trkpt lat="46.1728" lon="6.5608">
        <ele>1611.549</ele>
        <time>2026-02-02T12:28:57Z</time>
      </trkpt>
      <trkpt lat="46.1728" lon="6.5608">
        <ele>1611.541</ele>
        <time>2026-02-02T12:29:02Z</time>
      </trkpt>
      <trkpt lat="46.1728" lon="6.5608">
        <ele>1611.534</ele>
        <time>2026-02-02T12:29:07Z</time>
      </trkpt>
      <trkpt lat="46.1728" lon="6.5608">
        <ele>1611.529</ele>
        <time>2026-02-02T12:29:12Z</time>
      </trkpt>
      <trkpt lat="46.1728" lon="6.5608">
        <ele>1611.525</ele>
        <time>2026-02-02T12:29:17Z</time>
      </trkpt>
      <trkpt lat="46.1728" lon="6.5608">
        <ele>1611.519</ele>
        <time>2026-02-02T12:29:22Z</time>
      </trkpt>
      <trkpt lat="46.1728" lon="6.5608">
        <ele>1611.512</ele>
        <time>2026-02-02T12:29:27Z</time>
      </trkpt>
      <trkpt lat="46.1728" lon="6.5608">
        <ele>1611.504</ele>
        <time>2026-02-02T12:29:32Z</time>
      </trkpt>
      <trkpt lat="46.1728" lon="6.5608">
        <ele>1611.494</ele>
        <time>2026-02-02T12:29:37Z</time>
      </trkpt>
      <trkpt lat="46.1728" lon="6.5608">
        <ele>1611.511</ele>
        <time>2026-02-02T12:29:42Z</time>
      </trkpt>
      <trkpt lat="46.1728" lon="6.5608">
        <ele>1611.457</ele>
        <time>2026-02-02T12:29:47Z</time>
      </trkpt>
      <trkpt lat="46.1728" lon="6.5608">
        <ele>1611.437</ele>
        <time>2026-02-02T12:29:52Z</time>
      </trkpt>
      <trkpt lat="46.1728" lon="6.5608">
        <ele>1611.416</ele>
        <time>2026-02-02T12:29:57Z</time>
      </trkpt>
      <trkpt lat="46.1728" lon="6.5608">
        <ele>1611.406</ele>
        <time>2026-02-02T12:30:02Z</time>
      </trkpt>
      <trkpt lat="46.1728" lon="6.5608">
        <ele>1611.394</ele>
        <time>2026-02-02T12:30:07Z</time>
      </trkpt>
      <trkpt lat="46.1728" lon="6.5608">
        <ele>1611.382</ele>
        <time>2026-02-02T12:30:12Z</time>
      </trkpt>
      <trkpt lat="46.1728" lon="6.5608">
        <ele>1611.37</ele>
        <time>2026-02-02T12:30:17Z</time>
      </trkpt>
      <trkpt lat="46.1728" lon="6.5608">
        <ele>1611.359</ele>
        <time>2026-02-02T12:30:22Z</time>
      </trkpt>
      <trkpt lat="46.1728" lon="6.5608">
        <ele>1611.352</ele>
        <time>2026-02-02T12:30:27Z</time>
      </trkpt>
      <trkpt lat="46.1728" lon="6.5608">
        <ele>1611.342</ele>
        <time>2026-02-02T12:30:32Z</time>
      </trkpt>
      <trkpt lat="46.1728" lon="6.5608">
        <ele>1611.331</ele>
        <time>2026-02-02T12:30:37Z</time>
      </trkpt>
      <trkpt lat="46.1728" lon="6.5608">
        <ele>1611.324</ele>
        <time>2026-02-02T12:30:42Z</time>
      </trkpt>
      <trkpt lat="46.1728" lon="6.5608">
        <ele>1611.311</ele>
        <time>2026-02-02T12:30:47Z</time>
      </trkpt>
      <trkpt lat="46.1728" lon="6.5608">
        <ele>1611.302</ele>
        <time>2026-02-02T12:30:52Z</time>
      </trkpt>
      <trkpt lat="46.1728" lon="6.5608">
        <ele>1611.296</ele>
        <time>2026-02-02T12:30:57Z</time>
      </trkpt>
      <trkpt lat="46.1728" lon="6.5608">
        <ele>1611.286</ele>
        <time>2026-02-02T12:31:02Z</time>
      </trkpt>
      <trkpt lat="46.1728" lon="6.5608">
        <ele>1611.275</ele>
        <time>2026-02-02T12:31:07Z</time>
      </trkpt>
      <trkpt lat="46.1728" lon="6.5608">
        <ele>1611.265</ele>
        <time>2026-02-02T12:31:12Z</time>
      </trkpt>
      <trkpt lat="46.1728" lon="6.5608">
        <ele>1611.255</ele>
        <time>2026-02-02T12:31:17Z</time>
      </trkpt>
      <trkpt lat="46.1728" lon="6.5608">
        <ele>1611.248</ele>
        <time>2026-02-02T12:31:22Z</time>
      </trkpt>
      <trkpt lat="46.1728" lon="6.5608">
        <ele>1611.237</ele>
        <time>2026-02-02T12:31:27Z</time>
      </trkpt>
      <trkpt lat="46.1728" lon="6.5608">
        <ele>1611.228</ele>
        <time>2026-02-02T12:31:32Z</time>
      </trkpt>
      <trkpt lat="46.1728" lon="6.5608">
        <ele>1611.223</ele>
        <time>2026-02-02T12:31:37Z</time>
      </trkpt>
      <trkpt lat="46.1728" lon="6.5608">
        <ele>1611.213</ele>
        <time>2026-02-02T12:31:42Z</time>
      </trkpt>
      <trkpt lat="46.1728" lon="6.5608">
        <ele>1611.206</ele>
        <time>2026-02-02T12:31:47Z</time>
      </trkpt>
      <trkpt lat="46.1728" lon="6.5608">
        <ele>1611.201</ele>
        <time>2026-02-02T12:31:52Z</time>
      </trkpt>
      <trkpt lat="46.1728" lon="6.5608">
        <ele>1611.191</ele>
        <time>2026-02-02T12:31:57Z</time>
      </trkpt>
      <trkpt lat="46.1728" lon="6.5608">
        <ele>1611.184</ele>
        <time>2026-02-02T12:32:02Z</time>
      </trkpt>
      <trkpt lat="46.1728" lon="6.5608">
        <ele>1611.177</ele>
        <time>2026-02-02T12:32:07Z</time>
      </trkpt>
      <trkpt lat="46.1728" lon="6.5608">
        <ele>1611.166</ele>
        <time>2026-02-02T12:32:12Z</time>
      </trkpt>
      <trkpt lat="46.1728" lon="6.5608">
        <ele>1611.155</ele>
        <time>2026-02-02T12:32:17Z</time>
      </trkpt>
      <trkpt lat="46.1728" lon="6.5608">
        <ele>1611.146</ele>
        <time>2026-02-02T12:32:22Z</time>
      </trkpt>
      <trkpt lat="46.1728" lon="6.5608">
        <ele>1611.139</ele>
        <time>2026-02-02T12:32:27Z</time>
      </trkpt>
      <trkpt lat="46.1728" lon="6.5608">
        <ele>1611.133</ele>
        <time>2026-02-02T12:32:32Z</time>
      </trkpt>
      <trkpt lat="46.1728" lon="6.5608">
        <ele>1611.125</ele>
        <time>2026-02-02T12:32:37Z</time>
      </trkpt>
      <trkpt lat="46.1728" lon="6.5608">
        <ele>1611.121</ele>
        <time>2026-02-02T12:32:42Z</time>
      </trkpt>
      <trkpt lat="46.1728" lon="6.5608">
        <ele>1611.119</ele>
        <time>2026-02-02T12:32:47Z</time>
      </trkpt>
      <trkpt lat="46.1728" lon="6.5608">
        <ele>1611.114</ele>
        <time>2026-02-02T12:32:52Z</time>
      </trkpt>
      <trkpt lat="46.1728" lon="6.5608">
        <ele>1611.107</ele>
        <time>2026-02-02T12:32:57Z</time>
      </trkpt>
      <trkpt lat="46.1728" lon="6.5608">
        <ele>1611.099</ele>
        <time>2026-02-02T12:33:02Z</time>
      </trkpt>
      <trkpt lat="46.1728" lon="6.5608">
        <ele>1611.094</ele>
        <time>2026-02-02T12:33:07Z</time>
      </trkpt>
      <trkpt lat="46.1728" lon="6.5608">
        <ele>1611.09</ele>
        <time>2026-02-02T12:33:12Z</time>
      </trkpt>
      <trkpt lat="46.1728" lon="6.5608">
        <ele>1611.083</ele>
        <time>2026-02-02T12:33:17Z</time>
      </trkpt>
      <trkpt lat="46.1728" lon="6.5608">
        <ele>1611.077</ele>
        <time>2026-02-02T12:33:22Z</time>
      </trkpt>
      <trkpt lat="46.1728" lon="6.5608">
        <ele>1611.07</ele>
        <time>2026-02-02T12:33:27Z</time>
      </trkpt>
      <trkpt lat="46.1728" lon="6.5608">
        <ele>1611.067</ele>
        <time>2026-02-02T12:33:32Z</time>
      </trkpt>
      <trkpt lat="46.1728" lon="6.5608">
        <ele>1611.064</ele>
        <time>2026-02-02T12:33:37Z</time>
      </trkpt>
      <trkpt lat="46.1728" lon="6.5608">
        <ele>1611.06</ele>
        <time>2026-02-02T12:33:42Z</time>
      </trkpt>
      <trkpt lat="46.1728" lon="6.5608">
        <ele>1611.047</ele>
        <time>2026-02-02T12:33:47Z</time>
      </trkpt>
      <trkpt lat="46.1728" lon="6.5608">
        <ele>1611.042</ele>
        <time>2026-02-02T12:33:52Z</time>
      </trkpt>
      <trkpt lat="46.1728" lon="6.5608">
        <ele>1611.039</ele>
        <time>2026-02-02T12:33:57Z</time>
      </trkpt>
      <trkpt lat="46.1728" lon="6.5608">
        <ele>1611.031</ele>
        <time>2026-02-02T12:34:02Z</time>
      </trkpt>
      <trkpt lat="46.1728" lon="6.5608">
        <ele>1611.027</ele>
        <time>2026-02-02T12:34:07Z</time>
      </trkpt>
      <trkpt lat="46.1728" lon="6.5608">
        <ele>1611.024</ele>
        <time>2026-02-02T12:34:12Z</time>
      </trkpt>
      <trkpt lat="46.1728" lon="6.5608">
        <ele>1611.022</ele>
        <time>2026-02-02T12:34:17Z</time>
      </trkpt>
      <trkpt lat="46.1728" lon="6.5608">
        <ele>1611.018</ele>
        <time>2026-02-02T12:34:22Z</time>
      </trkpt>
      <trkpt lat="46.1728" lon="6.5608">
        <ele>1611.018</ele>
        <time>2026-02-02T12:34:27Z</time>
      </trkpt>
      <trkpt lat="46.1728" lon="6.5608">
        <ele>1611.016</ele>
        <time>2026-02-02T12:34:32Z</time>
      </trkpt>
      <trkpt lat="46.1728" lon="6.5608">
        <ele>1611.012</ele>
        <time>2026-02-02T12:34:37Z</time>
      </trkpt>
      <trkpt lat="46.1728" lon="6.5608">
        <ele>1611.008</ele>
        <time>2026-02-02T12:34:42Z</time>
      </trkpt>
      <trkpt lat="46.1728" lon="6.5608">
        <ele>1611.002</ele>
        <time>2026-02-02T12:34:47Z</time>
      </trkpt>
      <trkpt lat="46.1728" lon="6.5608">
        <ele>1610.996</ele>
        <time>2026-02-02T12:34:52Z</time>
      </trkpt>
      <trkpt lat="46.1728" lon="6.5608">
        <ele>1610.989</ele>
        <time>2026-02-02T12:34:57Z</time>
      </trkpt>
      <trkpt lat="46.1728" lon="6.5608">
        <ele>1610.986</ele>
        <time>2026-02-02T12:35:02Z</time>
      </trkpt>
      <trkpt lat="46.1728" lon="6.5608">
        <ele>1610.977</ele>
        <time>2026-02-02T12:35:07Z</time>
      </trkpt>
      <trkpt lat="46.1728" lon="6.5608">
        <ele>1610.976</ele>
        <time>2026-02-02T12:35:12Z</time>
      </trkpt>
      <trkpt lat="46.1728" lon="6.5608">
        <ele>1610.972</ele>
        <time>2026-02-02T12:35:17Z</time>
      </trkpt>
      <trkpt lat="46.1728" lon="6.5608">
        <ele>1610.967</ele>
        <time>2026-02-02T12:35:22Z</time>
      </trkpt>
      <trkpt lat="46.1728" lon="6.5608">
        <ele>1610.966</ele>
        <time>2026-02-02T12:35:27Z</time>
      </trkpt>
      <trkpt lat="46.1728" lon="6.5608">
        <ele>1610.96</ele>
        <time>2026-02-02T12:35:32Z</time>
      </trkpt>
      <trkpt lat="46.1728" lon="6.5608">
        <ele>1610.957</ele>
        <time>2026-02-02T12:35:37Z</time>
      </trkpt>
      <trkpt lat="46.1728" lon="6.5608">
        <ele>1610.951</ele>
        <time>2026-02-02T12:35:42Z</time>
      </trkpt>
      <trkpt lat="46.1728" lon="6.5608">
        <ele>1610.947</ele>
        <time>2026-02-02T12:35:47Z</time>
      </trkpt>
      <trkpt lat="46.1728" lon="6.5608">
        <ele>1610.944</ele>
        <time>2026-02-02T12:35:52Z</time>
      </trkpt>
      <trkpt lat="46.1728" lon="6.5608">
        <ele>1610.938</ele>
        <time>2026-02-02T12:35:57Z</time>
      </trkpt>
      <trkpt lat="46.1728" lon="6.5608">
        <ele>1610.933</ele>
        <time>2026-02-02T12:36:02Z</time>
      </trkpt>
      <trkpt lat="46.1728" lon="6.5608">
        <ele>1610.926</ele>
        <time>2026-02-02T12:36:07Z</time>
      </trkpt>
      <trkpt lat="46.1728" lon="6.5608">
        <ele>1610.921</ele>
        <time>2026-02-02T12:36:12Z</time>
      </trkpt>
      <trkpt lat="46.1728" lon="6.5608">
        <ele>1610.916</ele>
        <time>2026-02-02T12:36:17Z</time>
      </trkpt>
      <trkpt lat="46.1728" lon="6.5608">
        <ele>1610.911</ele>
        <time>2026-02-02T12:36:22Z</time>
      </trkpt>
      <trkpt lat="46.1728" lon="6.5608">
        <ele>1610.904</ele>
        <time>2026-02-02T12:36:27Z</time>
      </trkpt>
      <trkpt lat="46.1728" lon="6.5608">
        <ele>1610.897</ele>
        <time>2026-02-02T12:36:32Z</time>
      </trkpt>
      <trkpt lat="46.1728" lon="6.5608">
        <ele>1610.884</ele>
        <time>2026-02-02T12:36:37Z</time>
      </trkpt>
      <trkpt lat="46.1728" lon="6.5608">
        <ele>1610.88</ele>
        <time>2026-02-02T12:36:42Z</time>
      </trkpt>
      <trkpt lat="46.1728" lon="6.5608">
        <ele>1610.871</ele>
        <time>2026-02-02T12:36:47Z</time>
      </trkpt>
      <trkpt lat="46.1728" lon="6.5608">
        <ele>1610.865</ele>
        <time>2026-02-02T12:36:52Z</time>
      </trkpt>
      <trkpt lat="46.1728" lon="6.5608">
        <ele>1610.858</ele>
        <time>2026-02-02T12:36:57Z</time>
      </trkpt>
      <trkpt lat="46.1728" lon="6.5608">
        <ele>1610.853</ele>
        <time>2026-02-02T12:37:02Z</time>
      </trkpt>
      <trkpt lat="46.1728" lon="6.5608">
        <ele>1610.847</ele>
        <time>2026-02-02T12:37:07Z</time>
      </trkpt>
      <trkpt lat="46.1728" lon="6.5608">
        <ele>1610.841</ele>
        <time>2026-02-02T12:37:12Z</time>
      </trkpt>
      <trkpt lat="46.1728" lon="6.5608">
        <ele>1610.83</ele>
        <time>2026-02-02T12:37:17Z</time>
      </trkpt>
      <trkpt lat="46.1728" lon="6.5608">
        <ele>1610.82</ele>
        <time>2026-02-02T12:37:22Z</time>
      </trkpt>
      <trkpt lat="46.1728" lon="6.5608">
        <ele>1610.808</ele>
        <time>2026-02-02T12:37:27Z</time>
      </trkpt>
      <trkpt lat="46.1728" lon="6.5608">
        <ele>1610.795</ele>
        <time>2026-02-02T12:37:32Z</time>
      </trkpt>
      <trkpt lat="46.1728" lon="6.5608">
        <ele>1610.783</ele>
        <time>2026-02-02T12:37:37Z</time>
      </trkpt>
      <trkpt lat="46.1728" lon="6.5608">
        <ele>1610.774</ele>
        <time>2026-02-02T12:37:42Z</time>
      </trkpt>
      <trkpt lat="46.1728" lon="6.5608">
        <ele>1610.761</ele>
        <time>2026-02-02T12:37:47Z</time>
      </trkpt>
      <trkpt lat="46.1728" lon="6.5608">
        <ele>1610.751</ele>
        <time>2026-02-02T12:37:52Z</time>
      </trkpt>
      <trkpt lat="46.1728" lon="6.5608">
        <ele>1610.744</ele>
        <time>2026-02-02T12:37:57Z</time>
      </trkpt>
      <trkpt lat="46.1728" lon="6.5608">
        <ele>1610.732</ele>
        <time>2026-02-02T12:38:02Z</time>
      </trkpt>
      <trkpt lat="46.1728" lon="6.5608">
        <ele>1610.724</ele>
        <time>2026-02-02T12:38:07Z</time>
      </trkpt>
      <trkpt lat="46.1728" lon="6.5608">
        <ele>1610.716</ele>
        <time>2026-02-02T12:38:12Z</time>
      </trkpt>
      <trkpt lat="46.1728" lon="6.5608">
        <ele>1610.71</ele>
        <time>2026-02-02T12:38:17Z</time>
      </trkpt>
      <trkpt lat="46.1728" lon="6.5608">
        <ele>1610.705</ele>
        <time>2026-02-02T12:38:22Z</time>
      </trkpt>
      <trkpt lat="46.1728" lon="6.5608">
        <ele>1610.699</ele>
        <time>2026-02-02T12:38:27Z</time>
      </trkpt>
      <trkpt lat="46.1728" lon="6.5608">
        <ele>1610.692</ele>
        <time>2026-02-02T12:38:32Z</time>
      </trkpt>
      <trkpt lat="46.1728" lon="6.5608">
        <ele>1610.687</ele>
        <time>2026-02-02T12:38:37Z</time>
      </trkpt>
      <trkpt lat="46.1728" lon="6.5608">
        <ele>1610.684</ele>
        <time>2026-02-02T12:38:42Z</time>
      </trkpt>
      <trkpt lat="46.1728" lon="6.5608">
        <ele>1610.676</ele>
        <time>2026-02-02T12:38:47Z</time>
      </trkpt>
      <trkpt lat="46.1728" lon="6.5608">
        <ele>1610.67</ele>
        <time>2026-02-02T12:38:52Z</time>
      </trkpt>
      <trkpt lat="46.1728" lon="6.5608">
        <ele>1610.665</ele>
        <time>2026-02-02T12:38:57Z</time>
      </trkpt>
      <trkpt lat="46.1728" lon="6.5608">
        <ele>1610.662</ele>
        <time>2026-02-02T12:39:02Z</time>
      </trkpt>
      <trkpt lat="46.1728" lon="6.5608">
        <ele>1610.651</ele>
        <time>2026-02-02T12:39:07Z</time>
      </trkpt>
      <trkpt lat="46.1728" lon="6.5608">
        <ele>1610.639</ele>
        <time>2026-02-02T12:39:12Z</time>
      </trkpt>
      <trkpt lat="46.1728" lon="6.5608">
        <ele>1610.633</ele>
        <time>2026-02-02T12:39:17Z</time>
      </trkpt>
      <trkpt lat="46.1728" lon="6.5608">
        <ele>1610.632</ele>
        <time>2026-02-02T12:39:22Z</time>
      </trkpt>
      <trkpt lat="46.1728" lon="6.5608">
        <ele>1610.632</ele>
        <time>2026-02-02T12:39:27Z</time>
      </trkpt>
      <trkpt lat="46.1728" lon="6.5608">
        <ele>1610.626</ele>
        <time>2026-02-02T12:39:32Z</time>
      </trkpt>
      <trkpt lat="46.1728" lon="6.5608">
        <ele>1610.617</ele>
        <time>2026-02-02T12:39:37Z</time>
      </trkpt>
      <trkpt lat="46.1728" lon="6.5608">
        <ele>1610.61</ele>
        <time>2026-02-02T12:39:42Z</time>
      </trkpt>
      <trkpt lat="46.1728" lon="6.5608">
        <ele>1610.608</ele>
        <time>2026-02-02T12:39:47Z</time>
      </trkpt>
      <trkpt lat="46.1728" lon="6.5608">
        <ele>1610.605</ele>
        <time>2026-02-02T12:39:52Z</time>
      </trkpt>
      <trkpt lat="46.1728" lon="6.5608">
        <ele>1610.6</ele>
        <time>2026-02-02T12:39:57Z</time>
      </trkpt>
      <trkpt lat="46.1728" lon="6.5608">
        <ele>1610.594</ele>
        <time>2026-02-02T12:40:02Z</time>
      </trkpt>
      <trkpt lat="46.1728" lon="6.5608">
        <ele>1610.585</ele>
        <time>2026-02-02T12:40:07Z</time>
      </trkpt>
      <trkpt lat="46.1728" lon="6.5608">
        <ele>1610.575</ele>
        <time>2026-02-02T12:40:12Z</time>
      </trkpt>
      <trkpt lat="46.1728" lon="6.5608">
        <ele>1610.563</ele>
        <time>2026-02-02T12:40:17Z</time>
      </trkpt>
      <trkpt lat="46.1728" lon="6.5608">
        <ele>1610.55</ele>
        <time>2026-02-02T12:40:22Z</time>
      </trkpt>
      <trkpt lat="46.1728" lon="6.5608">
        <ele>1610.539</ele>
        <time>2026-02-02T12:40:27Z</time>
      </trkpt>
      <trkpt lat="46.1728" lon="6.5608">
        <ele>1610.52</ele>
        <time>2026-02-02T12:40:32Z</time>
      </trkpt>
      <trkpt lat="46.1728" lon="6.5608">
        <ele>1610.503</ele>
        <time>2026-02-02T12:40:37Z</time>
      </trkpt>
      <trkpt lat="46.1728" lon="6.5608">
        <ele>1610.49</ele>
        <time>2026-02-02T12:40:42Z</time>
      </trkpt>
      <trkpt lat="46.1728" lon="6.5608">
        <ele>1610.481</ele>
        <time>2026-02-02T12:40:47Z</time>
      </trkpt>
      <trkpt lat="46.1728" lon="6.5608">
        <ele>1610.472</ele>
        <time>2026-02-02T12:40:52Z</time>
      </trkpt>
      <trkpt lat="46.1728" lon="6.5608">
        <ele>1610.462</ele>
        <time>2026-02-02T12:40:57Z</time>
      </trkpt>
      <trkpt lat="46.1728" lon="6.5608">
        <ele>1610.44</ele>
        <time>2026-02-02T12:41:02Z</time>
      </trkpt>
      <trkpt lat="46.1728" lon="6.5608">
        <ele>1610.429</ele>
        <time>2026-02-02T12:41:07Z</time>
      </trkpt>
      <trkpt lat="46.1728" lon="6.5608">
        <ele>1610.423</ele>
        <time>2026-02-02T12:41:12Z</time>
      </trkpt>
      <trkpt lat="46.1728" lon="6.5608">
        <ele>1610.417</ele>
        <time>2026-02-02T12:41:17Z</time>
      </trkpt>
      <trkpt lat="46.1728" lon="6.5608">
        <ele>1610.411</ele>
        <time>2026-02-02T12:41:22Z</time>
      </trkpt>
      <trkpt lat="46.1728" lon="6.5608">
        <ele>1610.403</ele>
        <time>2026-02-02T12:41:27Z</time>
      </trkpt>
      <trkpt lat="46.1728" lon="6.5608">
        <ele>1610.393</ele>
        <time>2026-02-02T12:41:32Z</time>
      </trkpt>
      <trkpt lat="46.1728" lon="6.5608">
        <ele>1610.387</ele>
        <time>2026-02-02T12:41:37Z</time>
      </trkpt>
      <trkpt lat="46.1728" lon="6.5608">
        <ele>1610.382</ele>
        <time>2026-02-02T12:41:42Z</time>
      </trkpt>
      <trkpt lat="46.1728" lon="6.5608">
        <ele>1610.375</ele>
        <time>2026-02-02T12:41:47Z</time>
      </trkpt>
      <trkpt lat="46.1728" lon="6.5608">
        <ele>1610.368</ele>
        <time>2026-02-02T12:41:52Z</time>
      </trkpt>
      <trkpt lat="46.1728" lon="6.5608">
        <ele>1610.367</ele>
        <time>2026-02-02T12:41:57Z</time>
      </trkpt>
      <trkpt lat="46.1728" lon="6.5608">
        <ele>1610.362</ele>
        <time>2026-02-02T12:42:02Z</time>
      </trkpt>
      <trkpt lat="46.1728" lon="6.5608">
        <ele>1610.356</ele>
        <time>2026-02-02T12:42:07Z</time>
      </trkpt>
      <trkpt lat="46.1728" lon="6.5608">
        <ele>1610.35</ele>
        <time>2026-02-02T12:42:12Z</time>
      </trkpt>
      <trkpt lat="46.1728" lon="6.5608">
        <ele>1610.345</ele>
        <time>2026-02-02T12:42:17Z</time>
      </trkpt>
      <trkpt lat="46.1728" lon="6.5608">
        <ele>1610.338</ele>
        <time>2026-02-02T12:42:22Z</time>
      </trkpt>
      <trkpt lat="46.1728" lon="6.5608">
        <ele>1610.33</ele>
        <time>2026-02-02T12:42:27Z</time>
      </trkpt>
      <trkpt lat="46.1728" lon="6.5608">
        <ele>1610.325</ele>
        <time>2026-02-02T12:42:32Z</time>
      </trkpt>
      <trkpt lat="46.1728" lon="6.5608">
        <ele>1610.314</ele>
        <time>2026-02-02T12:42:37Z</time>
      </trkpt>
      <trkpt lat="46.1728" lon="6.5608">
        <ele>1610.305</ele>
        <time>2026-02-02T12:42:42Z</time>
      </trkpt>
      <trkpt lat="46.1728" lon="6.5608">
        <ele>1610.298</ele>
        <time>2026-02-02T12:42:47Z</time>
      </trkpt>
      <trkpt lat="46.1728" lon="6.5608">
        <ele>1610.292</ele>
        <time>2026-02-02T12:42:52Z</time>
      </trkpt>
      <trkpt lat="46.1728" lon="6.5608">
        <ele>1610.284</ele>
        <time>2026-02-02T12:42:57Z</time>
      </trkpt>
      <trkpt lat="46.1728" lon="6.5608">
        <ele>1610.272</ele>
        <time>2026-02-02T12:43:02Z</time>
      </trkpt>
      <trkpt lat="46.1728" lon="6.5608">
        <ele>1610.262</ele>
        <time>2026-02-02T12:43:07Z</time>
      </trkpt>
      <trkpt lat="46.1728" lon="6.5608">
        <ele>1610.258</ele>
        <time>2026-02-02T12:43:12Z</time>
      </trkpt>
      <trkpt lat="46.1728" lon="6.5608">
        <ele>1610.252</ele>
        <time>2026-02-02T12:43:17Z</time>
      </trkpt>
      <trkpt lat="46.1728" lon="6.5608">
        <ele>1610.246</ele>
        <time>2026-02-02T12:43:22Z</time>
      </trkpt>
      <trkpt lat="46.1728" lon="6.5608">
        <ele>1610.235</ele>
        <time>2026-02-02T12:43:27Z</time>
      </trkpt>
      <trkpt lat="46.1728" lon="6.5608">
        <ele>1610.227</ele>
        <time>2026-02-02T12:43:32Z</time>
      </trkpt>
      <trkpt lat="46.1728" lon="6.5608">
        <ele>1610.22</ele>
        <time>2026-02-02T12:43:37Z</time>
      </trkpt>
      <trkpt lat="46.1728" lon="6.5608">
        <ele>1610.214</ele>
        <time>2026-02-02T12:43:42Z</time>
      </trkpt>
      <trkpt lat="46.1728" lon="6.5608">
        <ele>1610.208</ele>
        <time>2026-02-02T12:43:47Z</time>
      </trkpt>
      <trkpt lat="46.1728" lon="6.5608">
        <ele>1610.2</ele>
        <time>2026-02-02T12:43:52Z</time>
      </trkpt>
      <trkpt lat="46.1728" lon="6.5608">
        <ele>1610.199</ele>
        <time>2026-02-02T12:43:57Z</time>
      </trkpt>
      <trkpt lat="46.1728" lon="6.5608">
        <ele>1610.198</ele>
        <time>2026-02-02T12:44:02Z</time>
      </trkpt>
      <trkpt lat="46.1728" lon="6.5608">
        <ele>1610.189</ele>
        <time>2026-02-02T12:44:07Z</time>
      </trkpt>
      <trkpt lat="46.1728" lon="6.5608">
        <ele>1610.184</ele>
        <time>2026-02-02T12:44:12Z</time>
      </trkpt>
      <trkpt lat="46.1728" lon="6.5608">
        <ele>1610.178</ele>
        <time>2026-02-02T12:44:17Z</time>
      </trkpt>
      <trkpt lat="46.1728" lon="6.5608">
        <ele>1610.171</ele>
        <time>2026-02-02T12:44:22Z</time>
      </trkpt>
      <trkpt lat="46.1728" lon="6.5608">
        <ele>1610.163</ele>
        <time>2026-02-02T12:44:27Z</time>
      </trkpt>
      <trkpt lat="46.1728" lon="6.5608">
        <ele>1610.158</ele>
        <time>2026-02-02T12:44:32Z</time>
      </trkpt>
      <trkpt lat="46.1728" lon="6.5608">
        <ele>1610.154</ele>
        <time>2026-02-02T12:44:37Z</time>
      </trkpt>
      <trkpt lat="46.1728" lon="6.5608">
        <ele>1610.149</ele>
        <time>2026-02-02T12:44:42Z</time>
      </trkpt>
      <trkpt lat="46.1728" lon="6.5608">
        <ele>1610.139</ele>
        <time>2026-02-02T12:44:47Z</time>
      </trkpt>
      <trkpt lat="46.1728" lon="6.5608">
        <ele>1610.126</ele>
        <time>2026-02-02T12:44:52Z</time>
      </trkpt>
      <trkpt lat="46.1728" lon="6.5608">
        <ele>1610.118</ele>
        <time>2026-02-02T12:44:57Z</time>
      </trkpt>
      <trkpt lat="46.1728" lon="6.5608">
        <ele>1610.107</ele>
        <time>2026-02-02T12:45:02Z</time>
      </trkpt>
      <trkpt lat="46.1728" lon="6.5608">
        <ele>1610.1</ele>
        <time>2026-02-02T12:45:07Z</time>
      </trkpt>
      <trkpt lat="46.1728" lon="6.5608">
        <ele>1610.093</ele>
        <time>2026-02-02T12:45:12Z</time>
      </trkpt>
      <trkpt lat="46.1728" lon="6.5608">
        <ele>1610.086</ele>
        <time>2026-02-02T12:45:17Z</time>
      </trkpt>
      <trkpt lat="46.1728" lon="6.5608">
        <ele>1610.075</ele>
        <time>2026-02-02T12:45:22Z</time>
      </trkpt>
      <trkpt lat="46.1728" lon="6.5608">
        <ele>1610.063</ele>
        <time>2026-02-02T12:45:27Z</time>
      </trkpt>
      <trkpt lat="46.1728" lon="6.5608">
        <ele>1610.058</ele>
        <time>2026-02-02T12:45:32Z</time>
      </trkpt>
      <trkpt lat="46.1728" lon="6.5608">
        <ele>1610.053</ele>
        <time>2026-02-02T12:45:37Z</time>
      </trkpt>
      <trkpt lat="46.1728" lon="6.5608">
        <ele>1610.046</ele>
        <time>2026-02-02T12:45:42Z</time>
      </trkpt>
      <trkpt lat="46.1728" lon="6.5608">
        <ele>1610.038</ele>
        <time>2026-02-02T12:45:47Z</time>
      </trkpt>
      <trkpt lat="46.1728" lon="6.5608">
        <ele>1610.033</ele>
        <time>2026-02-02T12:45:52Z</time>
      </trkpt>
      <trkpt lat="46.1728" lon="6.5608">
        <ele>1610.031</ele>
        <time>2026-02-02T12:45:57Z</time>
      </trkpt>
      <trkpt lat="46.1728" lon="6.5608">
        <ele>1610.028</ele>
        <time>2026-02-02T12:46:02Z</time>
      </trkpt>
      <trkpt lat="46.1728" lon="6.5608">
        <ele>1610.02</ele>
        <time>2026-02-02T12:46:07Z</time>
      </trkpt>
      <trkpt lat="46.1728" lon="6.5608">
        <ele>1610.007</ele>
        <time>2026-02-02T12:46:12Z</time>
      </trkpt>
      <trkpt lat="46.1728" lon="6.5608">
        <ele>1609.999</ele>
        <time>2026-02-02T12:46:17Z</time>
      </trkpt>
      <trkpt lat="46.1728" lon="6.5608">
        <ele>1609.992</ele>
        <time>2026-02-02T12:46:22Z</time>
      </trkpt>
      <trkpt lat="46.1728" lon="6.5608">
        <ele>1609.986</ele>
        <time>2026-02-02T12:46:27Z</time>
      </trkpt>
      <trkpt lat="46.1728" lon="6.5608">
        <ele>1609.979</ele>
        <time>2026-02-02T12:46:32Z</time>
      </trkpt>
      <trkpt lat="46.1728" lon="6.5608">
        <ele>1609.97</ele>
        <time>2026-02-02T12:46:37Z</time>
      </trkpt>
      <trkpt lat="46.1728" lon="6.5608">
        <ele>1609.956</ele>
        <time>2026-02-02T12:46:42Z</time>
      </trkpt>
      <trkpt lat="46.1728" lon="6.5608">
        <ele>1609.942</ele>
        <time>2026-02-02T12:46:47Z</time>
      </trkpt>
      <trkpt lat="46.1728" lon="6.5608">
        <ele>1609.931</ele>
        <time>2026-02-02T12:46:52Z</time>
      </trkpt>
      <trkpt lat="46.1728" lon="6.5608">
        <ele>1609.922</ele>
        <time>2026-02-02T12:46:57Z</time>
      </trkpt>
      <trkpt lat="46.1728" lon="6.5608">
        <ele>1609.91</ele>
        <time>2026-02-02T12:47:02Z</time>
      </trkpt>
      <trkpt lat="46.1728" lon="6.5608">
        <ele>1609.898</ele>
        <time>2026-02-02T12:47:07Z</time>
      </trkpt>
      <trkpt lat="46.1728" lon="6.5608">
        <ele>1609.882</ele>
        <time>2026-02-02T12:47:12Z</time>
      </trkpt>
      <trkpt lat="46.1728" lon="6.5608">
        <ele>1609.871</ele>
        <time>2026-02-02T12:47:17Z</time>
      </trkpt>
      <trkpt lat="46.1728" lon="6.5608">
        <ele>1609.863</ele>
        <time>2026-02-02T12:47:22Z</time>
      </trkpt>
      <trkpt lat="46.1728" lon="6.5608">
        <ele>1609.854</ele>
        <time>2026-02-02T12:47:27Z</time>
      </trkpt>
      <trkpt lat="46.1728" lon="6.5608">
        <ele>1609.847</ele>
        <time>2026-02-02T12:47:32Z</time>
      </trkpt>
      <trkpt lat="46.1728" lon="6.5608">
        <ele>1609.84</ele>
        <time>2026-02-02T12:47:37Z</time>
      </trkpt>
      <trkpt lat="46.1728" lon="6.5608">
        <ele>1609.834</ele>
        <time>2026-02-02T12:47:42Z</time>
      </trkpt>
      <trkpt lat="46.1728" lon="6.5608">
        <ele>1609.824</ele>
        <time>2026-02-02T12:47:47Z</time>
      </trkpt>
      <trkpt lat="46.1728" lon="6.5608">
        <ele>1609.815</ele>
        <time>2026-02-02T12:47:52Z</time>
      </trkpt>
      <trkpt lat="46.1728" lon="6.5608">
        <ele>1609.805</ele>
        <time>2026-02-02T12:47:57Z</time>
      </trkpt>
      <trkpt lat="46.1728" lon="6.5608">
        <ele>1609.797</ele>
        <time>2026-02-02T12:48:02Z</time>
      </trkpt>
      <trkpt lat="46.1728" lon="6.5608">
        <ele>1609.793</ele>
        <time>2026-02-02T12:48:07Z</time>
      </trkpt>
      <trkpt lat="46.1728" lon="6.5608">
        <ele>1609.823</ele>
        <time>2026-02-02T12:48:12Z</time>
      </trkpt>
      <trkpt lat="46.1728" lon="6.5608">
        <ele>1609.813</ele>
        <time>2026-02-02T12:48:17Z</time>
      </trkpt>
      <trkpt lat="46.1728" lon="6.5608">
        <ele>1609.802</ele>
        <time>2026-02-02T12:48:22Z</time>
      </trkpt>
      <trkpt lat="46.1728" lon="6.5608">
        <ele>1609.789</ele>
        <time>2026-02-02T12:48:27Z</time>
      </trkpt>
      <trkpt lat="46.1728" lon="6.5608">
        <ele>1609.781</ele>
        <time>2026-02-02T12:48:32Z</time>
      </trkpt>
      <trkpt lat="46.1728" lon="6.5608">
        <ele>1609.774</ele>
        <time>2026-02-02T12:48:37Z</time>
      </trkpt>
      <trkpt lat="46.1728" lon="6.5608">
        <ele>1609.772</ele>
        <time>2026-02-02T12:48:42Z</time>
      </trkpt>
      <trkpt lat="46.1728" lon="6.5608">
        <ele>1609.768</ele>
        <time>2026-02-02T12:48:47Z</time>
      </trkpt>
      <trkpt lat="46.1728" lon="6.5608">
        <ele>1609.761</ele>
        <time>2026-02-02T12:48:52Z</time>
      </trkpt>
      <trkpt lat="46.1728" lon="6.5608">
        <ele>1609.757</ele>
        <time>2026-02-02T12:48:57Z</time>
      </trkpt>
      <trkpt lat="46.1728" lon="6.5608">
        <ele>1609.749</ele>
        <time>2026-02-02T12:49:02Z</time>
      </trkpt>
      <trkpt lat="46.1728" lon="6.5608">
        <ele>1609.746</ele>
        <time>2026-02-02T12:49:07Z</time>
      </trkpt>
      <trkpt lat="46.1728" lon="6.5608">
        <ele>1609.739</ele>
        <time>2026-02-02T12:49:12Z</time>
      </trkpt>
      <trkpt lat="46.1728" lon="6.5608">
        <ele>1609.73</ele>
        <time>2026-02-02T12:49:17Z</time>
      </trkpt>
      <trkpt lat="46.1728" lon="6.5608">
        <ele>1609.724</ele>
        <time>2026-02-02T12:49:22Z</time>
      </trkpt>
      <trkpt lat="46.1728" lon="6.5608">
        <ele>1609.723</ele>
        <time>2026-02-02T12:49:27Z</time>
      </trkpt>
      <trkpt lat="46.1728" lon="6.5608">
        <ele>1609.718</ele>
        <time>2026-02-02T12:49:32Z</time>
      </trkpt>
      <trkpt lat="46.1728" lon="6.5608">
        <ele>1609.711</ele>
        <time>2026-02-02T12:49:37Z</time>
      </trkpt>
      <trkpt lat="46.1728" lon="6.5608">
        <ele>1609.703</ele>
        <time>2026-02-02T12:49:42Z</time>
      </trkpt>
      <trkpt lat="46.1728" lon="6.5608">
        <ele>1609.697</ele>
        <time>2026-02-02T12:49:47Z</time>
      </trkpt>
      <trkpt lat="46.1728" lon="6.5608">
        <ele>1609.69</ele>
        <time>2026-02-02T12:49:52Z</time>
      </trkpt>
      <trkpt lat="46.1728" lon="6.5608">
        <ele>1609.683</ele>
        <time>2026-02-02T12:49:57Z</time>
      </trkpt>
      <trkpt lat="46.1728" lon="6.5608">
        <ele>1609.681</ele>
        <time>2026-02-02T12:50:02Z</time>
      </trkpt>
      <trkpt lat="46.1728" lon="6.5608">
        <ele>1609.675</ele>
        <time>2026-02-02T12:50:07Z</time>
      </trkpt>
      <trkpt lat="46.1728" lon="6.5608">
        <ele>1609.671</ele>
        <time>2026-02-02T12:50:12Z</time>
      </trkpt>
      <trkpt lat="46.1728" lon="6.5608">
        <ele>1609.663</ele>
        <time>2026-02-02T12:50:17Z</time>
      </trkpt>
      <trkpt lat="46.1728" lon="6.5608">
        <ele>1609.659</ele>
        <time>2026-02-02T12:50:22Z</time>
      </trkpt>
      <trkpt lat="46.1728" lon="6.5608">
        <ele>1609.654</ele>
        <time>2026-02-02T12:50:27Z</time>
      </trkpt>
      <trkpt lat="46.1728" lon="6.5608">
        <ele>1609.647</ele>
        <time>2026-02-02T12:50:32Z</time>
      </trkpt>
      <trkpt lat="46.1728" lon="6.5608">
        <ele>1609.637</ele>
        <time>2026-02-02T12:50:37Z</time>
      </trkpt>
      <trkpt lat="46.1728" lon="6.5608">
        <ele>1609.637</ele>
        <time>2026-02-02T12:50:42Z</time>
      </trkpt>
      <trkpt lat="46.1728" lon="6.5608">
        <ele>1609.634</ele>
        <time>2026-02-02T12:50:47Z</time>
      </trkpt>
      <trkpt lat="46.1728" lon="6.5608">
        <ele>1609.629</ele>
        <time>2026-02-02T12:50:52Z</time>
      </trkpt>
      <trkpt lat="46.1728" lon="6.5608">
        <ele>1609.619</ele>
        <time>2026-02-02T12:50:57Z</time>
      </trkpt>
      <trkpt lat="46.1728" lon="6.5608">
        <ele>1609.614</ele>
        <time>2026-02-02T12:51:02Z</time>
      </trkpt>
      <trkpt lat="46.1728" lon="6.5608">
        <ele>1609.61</ele>
        <time>2026-02-02T12:51:07Z</time>
      </trkpt>
      <trkpt lat="46.1728" lon="6.5608">
        <ele>1609.604</ele>
        <time>2026-02-02T12:51:12Z</time>
      </trkpt>
      <trkpt lat="46.1728" lon="6.5608">
        <ele>1609.595</ele>
        <time>2026-02-02T12:51:17Z</time>
      </trkpt>
      <trkpt lat="46.1728" lon="6.5608">
        <ele>1609.587</ele>
        <time>2026-02-02T12:51:22Z</time>
      </trkpt>
      <trkpt lat="46.1728" lon="6.5608">
        <ele>1609.578</ele>
        <time>2026-02-02T12:51:27Z</time>
      </trkpt>
      <trkpt lat="46.1728" lon="6.5608">
        <ele>1609.573</ele>
        <time>2026-02-02T12:51:32Z</time>
      </trkpt>
      <trkpt lat="46.1728" lon="6.5608">
        <ele>1609.563</ele>
        <time>2026-02-02T12:51:37Z</time>
      </trkpt>
      <trkpt lat="46.1728" lon="6.5608">
        <ele>1609.559</ele>
        <time>2026-02-02T12:51:42Z</time>
      </trkpt>
      <trkpt lat="46.1728" lon="6.5608">
        <ele>1609.553</ele>
        <time>2026-02-02T12:51:47Z</time>
      </trkpt>
      <trkpt lat="46.1728" lon="6.5608">
        <ele>1609.548</ele>
        <time>2026-02-02T12:51:52Z</time>
      </trkpt>
      <trkpt lat="46.1728" lon="6.5608">
        <ele>1609.541</ele>
        <time>2026-02-02T12:51:57Z</time>
      </trkpt>
      <trkpt lat="46.1728" lon="6.5608">
        <ele>1609.533</ele>
        <time>2026-02-02T12:52:02Z</time>
      </trkpt>
      <trkpt lat="46.1728" lon="6.5608">
        <ele>1609.529</ele>
        <time>2026-02-02T12:52:07Z</time>
      </trkpt>
      <trkpt lat="46.1728" lon="6.5608">
        <ele>1609.522</ele>
        <time>2026-02-02T12:52:12Z</time>
      </trkpt>
      <trkpt lat="46.1728" lon="6.5608">
        <ele>1609.517</ele>
        <time>2026-02-02T12:52:17Z</time>
      </trkpt>
      <trkpt lat="46.1728" lon="6.5608">
        <ele>1609.511</ele>
        <time>2026-02-02T12:52:22Z</time>
      </trkpt>
      <trkpt lat="46.1728" lon="6.5608">
        <ele>1609.504</ele>
        <time>2026-02-02T12:52:27Z</time>
      </trkpt>
      <trkpt lat="46.1728" lon="6.5608">
        <ele>1609.501</ele>
        <time>2026-02-02T12:52:32Z</time>
      </trkpt>
      <trkpt lat="46.1728" lon="6.5608">
        <ele>1609.501</ele>
        <time>2026-02-02T12:52:37Z</time>
      </trkpt>
      <trkpt lat="46.1728" lon="6.5608">
        <ele>1609.5</ele>
        <time>2026-02-02T12:52:42Z</time>
      </trkpt>
      <trkpt lat="46.1728" lon="6.5608">
        <ele>1609.497</ele>
        <time>2026-02-02T12:52:47Z</time>
      </trkpt>
      <trkpt lat="46.1728" lon="6.5608">
        <ele>1609.495</ele>
        <time>2026-02-02T12:52:52Z</time>
      </trkpt>
      <trkpt lat="46.1728" lon="6.5608">
        <ele>1609.49</ele>
        <time>2026-02-02T12:52:57Z</time>
      </trkpt>
      <trkpt lat="46.1728" lon="6.5608">
        <ele>1609.485</ele>
        <time>2026-02-02T12:53:02Z</time>
      </trkpt>
      <trkpt lat="46.1728" lon="6.5608">
        <ele>1609.481</ele>
        <time>2026-02-02T12:53:07Z</time>
      </trkpt>
      <trkpt lat="46.1728" lon="6.5608">
        <ele>1609.476</ele>
        <time>2026-02-02T12:53:12Z</time>
      </trkpt>
      <trkpt lat="46.1728" lon="6.5608">
        <ele>1609.466</ele>
        <time>2026-02-02T12:53:17Z</time>
      </trkpt>
      <trkpt lat="46.1728" lon="6.5608">
        <ele>1609.454</ele>
        <time>2026-02-02T12:53:22Z</time>
      </trkpt>
      <trkpt lat="46.1728" lon="6.5608">
        <ele>1609.449</ele>
        <time>2026-02-02T12:53:27Z</time>
      </trkpt>
      <trkpt lat="46.1728" lon="6.5608">
        <ele>1609.443</ele>
        <time>2026-02-02T12:53:32Z</time>
      </trkpt>
      <trkpt lat="46.1728" lon="6.5608">
        <ele>1609.438</ele>
        <time>2026-02-02T12:53:37Z</time>
      </trkpt>
      <trkpt lat="46.1728" lon="6.5608">
        <ele>1609.432</ele>
        <time>2026-02-02T12:53:42Z</time>
      </trkpt>
      <trkpt lat="46.1728" lon="6.5608">
        <ele>1609.428</ele>
        <time>2026-02-02T12:53:47Z</time>
      </trkpt>
      <trkpt lat="46.1728" lon="6.5608">
        <ele>1609.421</ele>
        <time>2026-02-02T12:53:52Z</time>
      </trkpt>
      <trkpt lat="46.1728" lon="6.5608">
        <ele>1609.412</ele>
        <time>2026-02-02T12:53:57Z</time>
      </trkpt>
      <trkpt lat="46.1728" lon="6.5608">
        <ele>1609.406</ele>
        <time>2026-02-02T12:54:02Z</time>
      </trkpt>
      <trkpt lat="46.1728" lon="6.5608">
        <ele>1607.689</ele>
        <time>2026-02-02T12:54:07Z</time>
      </trkpt>
      <trkpt lat="46.1728" lon="6.5608">
        <ele>1606.89</ele>
        <time>2026-02-02T12:54:12Z</time>
      </trkpt>
      <trkpt lat="46.1728" lon="6.5608">
        <ele>1607.96</ele>
        <time>2026-02-02T12:54:17Z</time>
      </trkpt>
      <trkpt lat="46.1728" lon="6.5608">
        <ele>1608.131</ele>
        <time>2026-02-02T12:54:22Z</time>
      </trkpt>
      <trkpt lat="46.1728" lon="6.5608">
        <ele>1608.14</ele>
        <time>2026-02-02T12:54:27Z</time>
      </trkpt>
      <trkpt lat="46.1728" lon="6.5608">
        <ele>1608.136</ele>
        <time>2026-02-02T12:54:32Z</time>
      </trkpt>
      <trkpt lat="46.1728" lon="6.5608">
        <ele>1608.129</ele>
        <time>2026-02-02T12:54:37Z</time>
      </trkpt>
      <trkpt lat="46.1728" lon="6.5608">
        <ele>1607.846</ele>
        <time>2026-02-02T12:54:42Z</time>
      </trkpt>
      <trkpt lat="46.1728" lon="6.5608">
        <ele>1607.257</ele>
        <time>2026-02-02T12:54:47Z</time>
      </trkpt>
      <trkpt lat="46.1728" lon="6.5608">
        <ele>1607.192</ele>
        <time>2026-02-02T12:54:52Z</time>
      </trkpt>
      <trkpt lat="46.1728" lon="6.5608">
        <ele>1607.115</ele>
        <time>2026-02-02T12:54:57Z</time>
      </trkpt>
      <trkpt lat="46.1728" lon="6.5608">
        <ele>1607.072</ele>
        <time>2026-02-02T12:55:02Z</time>
      </trkpt>
      <trkpt lat="46.1728" lon="6.5608">
        <ele>1607.043</ele>
        <time>2026-02-02T12:55:07Z</time>
      </trkpt>
      <trkpt lat="46.1728" lon="6.5608">
        <ele>1607.02</ele>
        <time>2026-02-02T12:55:12Z</time>
      </trkpt>
      <trkpt lat="46.1728" lon="6.5608">
        <ele>1607.007</ele>
        <time>2026-02-02T12:55:17Z</time>
      </trkpt>
      <trkpt lat="46.1728" lon="6.5608">
        <ele>1606.988</ele>
        <time>2026-02-02T12:55:22Z</time>
      </trkpt>
      <trkpt lat="46.1728" lon="6.5608">
        <ele>1606.972</ele>
        <time>2026-02-02T12:55:27Z</time>
      </trkpt>
      <trkpt lat="46.1728" lon="6.5608">
        <ele>1606.969</ele>
        <time>2026-02-02T12:55:32Z</time>
      </trkpt>
      <trkpt lat="46.1728" lon="6.5608">
        <ele>1606.952</ele>
        <time>2026-02-02T12:55:37Z</time>
      </trkpt>
      <trkpt lat="46.1728" lon="6.5608">
        <ele>1606.939</ele>
        <time>2026-02-02T12:55:42Z</time>
      </trkpt>
      <trkpt lat="46.1728" lon="6.5608">
        <ele>1606.917</ele>
        <time>2026-02-02T12:55:47Z</time>
      </trkpt>
      <trkpt lat="46.1728" lon="6.5608">
        <ele>1606.907</ele>
        <time>2026-02-02T12:55:52Z</time>
      </trkpt>
      <trkpt lat="46.1728" lon="6.5608">
        <ele>1606.884</ele>
        <time>2026-02-02T12:55:57Z</time>
      </trkpt>
      <trkpt lat="46.1728" lon="6.5608">
        <ele>1606.874</ele>
        <time>2026-02-02T12:56:02Z</time>
      </trkpt>
      <trkpt lat="46.1728" lon="6.5608">
        <ele>1606.876</ele>
        <time>2026-02-02T12:56:07Z</time>
      </trkpt>
      <trkpt lat="46.1728" lon="6.5608">
        <ele>1606.857</ele>
        <time>2026-02-02T12:56:12Z</time>
      </trkpt>
      <trkpt lat="46.1728" lon="6.5608">
        <ele>1606.862</ele>
        <time>2026-02-02T12:56:17Z</time>
      </trkpt>
      <trkpt lat="46.1728" lon="6.5608">
        <ele>1606.867</ele>
        <time>2026-02-02T12:56:22Z</time>
      </trkpt>
      <trkpt lat="46.1728" lon="6.5608">
        <ele>1606.876</ele>
        <time>2026-02-02T12:56:27Z</time>
      </trkpt>
      <trkpt lat="46.1728" lon="6.5608">
        <ele>1606.876</ele>
        <time>2026-02-02T12:56:32Z</time>
      </trkpt>
      <trkpt lat="46.1728" lon="6.5608">
        <ele>1606.882</ele>
        <time>2026-02-02T12:56:37Z</time>
      </trkpt>
      <trkpt lat="46.1728" lon="6.5608">
        <ele>1606.881</ele>
        <time>2026-02-02T12:56:42Z</time>
      </trkpt>
      <trkpt lat="46.1728" lon="6.5608">
        <ele>1606.879</ele>
        <time>2026-02-02T12:56:47Z</time>
      </trkpt>
      <trkpt lat="46.1728" lon="6.5608">
        <ele>1606.876</ele>
        <time>2026-02-02T12:56:52Z</time>
      </trkpt>
      <trkpt lat="46.1728" lon="6.5608">
        <ele>1606.868</ele>
        <time>2026-02-02T12:56:57Z</time>
      </trkpt>
      <trkpt lat="46.1728" lon="6.5608">
        <ele>1606.87</ele>
        <time>2026-02-02T12:57:02Z</time>
      </trkpt>
      <trkpt lat="46.1728" lon="6.5608">
        <ele>1606.873</ele>
        <time>2026-02-02T12:57:07Z</time>
      </trkpt>
      <trkpt lat="46.1728" lon="6.5608">
        <ele>1606.875</ele>
        <time>2026-02-02T12:57:12Z</time>
      </trkpt>
      <trkpt lat="46.1728" lon="6.5608">
        <ele>1606.878</ele>
        <time>2026-02-02T12:57:17Z</time>
      </trkpt>
      <trkpt lat="46.1728" lon="6.5608">
        <ele>1606.893</ele>
        <time>2026-02-02T12:57:22Z</time>
      </trkpt>
      <trkpt lat="46.1728" lon="6.5608">
        <ele>1606.911</ele>
        <time>2026-02-02T12:57:27Z</time>
      </trkpt>
      <trkpt lat="46.1728" lon="6.5608">
        <ele>1606.905</ele>
        <time>2026-02-02T12:57:32Z</time>
      </trkpt>
      <trkpt lat="46.1728" lon="6.5608">
        <ele>1606.907</ele>
        <time>2026-02-02T12:57:37Z</time>
      </trkpt>
      <trkpt lat="46.1728" lon="6.56079">
        <ele>1606.922</ele>
        <time>2026-02-02T12:57:42Z</time>
      </trkpt>
      <trkpt lat="46.1728" lon="6.56079">
        <ele>1606.923</ele>
        <time>2026-02-02T12:57:47Z</time>
      </trkpt>
      <trkpt lat="46.17278" lon="6.56064">
        <ele>1600.99</ele>
        <time>2026-02-02T12:57:52Z</time>
      </trkpt>
      <trkpt lat="46.17259" lon="6.56086">
        <ele>1598.549</ele>
        <time>2026-02-02T12:57:57Z</time>
      </trkpt>
      <trkpt lat="46.17251" lon="6.56106">
        <ele>1598.998</ele>
        <time>2026-02-02T12:58:02Z</time>
      </trkpt>
      <trkpt lat="46.17251" lon="6.56114">
        <ele>1598.695</ele>
        <time>2026-02-02T12:58:07Z</time>
      </trkpt>
      <trkpt lat="46.17255" lon="6.56133">
        <ele>1596.385</ele>
        <time>2026-02-02T12:58:12Z</time>
      </trkpt>
      <trkpt lat="46.17253" lon="6.56151">
        <ele>1589.417</ele>
        <time>2026-02-02T12:58:17Z</time>
      </trkpt>
      <trkpt lat="46.17241" lon="6.56161">
        <ele>1584.531</ele>
        <time>2026-02-02T12:58:22Z</time>
      </trkpt>
      <trkpt lat="46.17241" lon="6.56163">
        <ele>1585.276</ele>
        <time>2026-02-02T12:58:27Z</time>
      </trkpt>
      <trkpt lat="46.17244" lon="6.56176">
        <ele>1583.245</ele>
        <time>2026-02-02T12:58:32Z</time>
      </trkpt>
      <trkpt lat="46.17243" lon="6.5618">
        <ele>1580.721</ele>
        <time>2026-02-02T12:58:37Z</time>
      </trkpt>
      <trkpt lat="46.17239" lon="6.56191">
        <ele>1578.524</ele>
        <time>2026-02-02T12:58:42Z</time>
      </trkpt>
      <trkpt lat="46.17244" lon="6.56222">
        <ele>1576.703</ele>
        <time>2026-02-02T12:58:47Z</time>
      </trkpt>
      <trkpt lat="46.17237" lon="6.56255">
        <ele>1570.659</ele>
        <time>2026-02-02T12:58:52Z</time>
      </trkpt>
      <trkpt lat="46.17212" lon="6.56258">
        <ele>1567.53</ele>
        <time>2026-02-02T12:58:57Z</time>
      </trkpt>
      <trkpt lat="46.17212" lon="6.56258">
        <ele>1566.824</ele>
        <time>2026-02-02T12:59:02Z</time>
      </trkpt>
      <trkpt lat="46.17212" lon="6.56258">
        <ele>1565.659</ele>
        <time>2026-02-02T12:59:07Z</time>
      </trkpt>
      <trkpt lat="46.17212" lon="6.56258">
        <ele>1565.137</ele>
        <time>2026-02-02T12:59:12Z</time>
      </trkpt>
      <trkpt lat="46.17212" lon="6.56258">
        <ele>1565.082</ele>
        <time>2026-02-02T12:59:17Z</time>
      </trkpt>
      <trkpt lat="46.17212" lon="6.56258">
        <ele>1565.328</ele>
        <time>2026-02-02T12:59:22Z</time>
      </trkpt>
      <trkpt lat="46.17212" lon="6.56258">
        <ele>1565.374</ele>
        <time>2026-02-02T12:59:27Z</time>
      </trkpt>
      <trkpt lat="46.17212" lon="6.56258">
        <ele>1565.432</ele>
        <time>2026-02-02T12:59:32Z</time>
      </trkpt>
      <trkpt lat="46.17212" lon="6.56258">
        <ele>1565.708</ele>
        <time>2026-02-02T12:59:37Z</time>
      </trkpt>
      <trkpt lat="46.17212" lon="6.56258">
        <ele>1566.613</ele>
        <time>2026-02-02T12:59:42Z</time>
      </trkpt>
      <trkpt lat="46.17212" lon="6.56258">
        <ele>1569.042</ele>
        <time>2026-02-02T12:59:47Z</time>
      </trkpt>
      <trkpt lat="46.17212" lon="6.56258">
        <ele>1568.131</ele>
        <time>2026-02-02T12:59:52Z</time>
      </trkpt>
      <trkpt lat="46.17212" lon="6.56258">
        <ele>1568.451</ele>
        <time>2026-02-02T12:59:57Z</time>
      </trkpt>
      <trkpt lat="46.1721" lon="6.56256">
        <ele>1567.699</ele>
        <time>2026-02-02T13:00:02Z</time>
      </trkpt>
      <trkpt lat="46.17194" lon="6.5625">
        <ele>1559.122</ele>
        <time>2026-02-02T13:00:07Z</time>
      </trkpt>
      <trkpt lat="46.17172" lon="6.56249">
        <ele>1552.753</ele>
        <time>2026-02-02T13:00:12Z</time>
      </trkpt>
      <trkpt lat="46.17145" lon="6.56238">
        <ele>1543.873</ele>
        <time>2026-02-02T13:00:17Z</time>
      </trkpt>
      <trkpt lat="46.17112" lon="6.56238">
        <ele>1534.311</ele>
        <time>2026-02-02T13:00:22Z</time>
      </trkpt>
      <trkpt lat="46.17083" lon="6.56244">
        <ele>1527.803</ele>
        <time>2026-02-02T13:00:27Z</time>
      </trkpt>
      <trkpt lat="46.17062" lon="6.56248">
        <ele>1523.934</ele>
        <time>2026-02-02T13:00:32Z</time>
      </trkpt>
      <trkpt lat="46.1705" lon="6.5625">
        <ele>1523.168</ele>
        <time>2026-02-02T13:00:37Z</time>
      </trkpt>
      <trkpt lat="46.17043" lon="6.56249">
        <ele>1522.118</ele>
        <time>2026-02-02T13:00:42Z</time>
      </trkpt>
      <trkpt lat="46.17038" lon="6.56251">
        <ele>1521.774</ele>
        <time>2026-02-02T13:00:47Z</time>
      </trkpt>
      <trkpt lat="46.17038" lon="6.56252">
        <ele>1521.666</ele>
        <time>2026-02-02T13:00:52Z</time>
      </trkpt>
      <trkpt lat="46.17038" lon="6.56252">
        <ele>1521.521</ele>
        <time>2026-02-02T13:00:57Z</time>
      </trkpt>
      <trkpt lat="46.17038" lon="6.56252">
        <ele>1521.523</ele>
        <time>2026-02-02T13:01:02Z</time>
      </trkpt>
      <trkpt lat="46.17038" lon="6.56252">
        <ele>1521.537</ele>
        <time>2026-02-02T13:01:07Z</time>
      </trkpt>
      <trkpt lat="46.17038" lon="6.56252">
        <ele>1521.64</ele>
        <time>2026-02-02T13:01:12Z</time>
      </trkpt>
      <trkpt lat="46.17038" lon="6.56252">
        <ele>1521.659</ele>
        <time>2026-02-02T13:01:17Z</time>
      </trkpt>
      <trkpt lat="46.17038" lon="6.56252">
        <ele>1521.833</ele>
        <time>2026-02-02T13:01:22Z</time>
      </trkpt>
      <trkpt lat="46.17038" lon="6.56252">
        <ele>1518.392</ele>
        <time>2026-02-02T13:01:27Z</time>
      </trkpt>
      <trkpt lat="46.17032" lon="6.56242">
        <ele>1518.474</ele>
        <time>2026-02-02T13:01:32Z</time>
      </trkpt>
      <trkpt lat="46.17031" lon="6.56242">
        <ele>1518.215</ele>
        <time>2026-02-02T13:01:37Z</time>
      </trkpt>
      <trkpt lat="46.17024" lon="6.56256">
        <ele>1515.249</ele>
        <time>2026-02-02T13:01:42Z</time>
      </trkpt>
      <trkpt lat="46.17024" lon="6.56262">
        <ele>1513.425</ele>
        <time>2026-02-02T13:01:47Z</time>
      </trkpt>
      <trkpt lat="46.17024" lon="6.56263">
        <ele>1512.537</ele>
        <time>2026-02-02T13:01:52Z</time>
      </trkpt>
      <trkpt lat="46.17021" lon="6.56265">
        <ele>1510.472</ele>
        <time>2026-02-02T13:01:57Z</time>
      </trkpt>
      <trkpt lat="46.17022" lon="6.56266">
        <ele>1511.157</ele>
        <time>2026-02-02T13:02:02Z</time>
      </trkpt>
      <trkpt lat="46.17006" lon="6.56271">
        <ele>1509.656</ele>
        <time>2026-02-02T13:02:07Z</time>
      </trkpt>
      <trkpt lat="46.16985" lon="6.56247">
        <ele>1504.971</ele>
        <time>2026-02-02T13:02:12Z</time>
      </trkpt>
      <trkpt lat="46.16963" lon="6.5622">
        <ele>1499.763</ele>
        <time>2026-02-02T13:02:17Z</time>
      </trkpt>
      <trkpt lat="46.16939" lon="6.56185">
        <ele>1497.861</ele>
        <time>2026-02-02T13:02:22Z</time>
      </trkpt>
      <trkpt lat="46.16925" lon="6.56152">
        <ele>1498.421</ele>
        <time>2026-02-02T13:02:27Z</time>
      </trkpt>
      <trkpt lat="46.16919" lon="6.56145">
        <ele>1498.377</ele>
        <time>2026-02-02T13:02:32Z</time>
      </trkpt>
      <trkpt lat="46.16906" lon="6.56146">
        <ele>1497.818</ele>
        <time>2026-02-02T13:02:37Z</time>
      </trkpt>
      <trkpt lat="46.16889" lon="6.5615">
        <ele>1493.431</ele>
        <time>2026-02-02T13:02:42Z</time>
      </trkpt>
      <trkpt lat="46.16867" lon="6.56141">
        <ele>1487.326</ele>
        <time>2026-02-02T13:02:47Z</time>
      </trkpt>
      <trkpt lat="46.16859" lon="6.56133">
        <ele>1483.808</ele>
        <time>2026-02-02T13:02:52Z</time>
      </trkpt>
      <trkpt lat="46.16854" lon="6.56136">
        <ele>1482.021</ele>
        <time>2026-02-02T13:02:57Z</time>
      </trkpt>
      <trkpt lat="46.16848" lon="6.56129">
        <ele>1480.116</ele>
        <time>2026-02-02T13:03:02Z</time>
      </trkpt>
      <trkpt lat="46.16852" lon="6.56113">
        <ele>1480.549</ele>
        <time>2026-02-02T13:03:07Z</time>
      </trkpt>
      <trkpt lat="46.16852" lon="6.56113">
        <ele>1479.612</ele>
        <time>2026-02-02T13:03:12Z</time>
      </trkpt>
      <trkpt lat="46.16852" lon="6.56113">
        <ele>1480.035</ele>
        <time>2026-02-02T13:03:17Z</time>
      </trkpt>
      <trkpt lat="46.16852" lon="6.56113">
        <ele>1479.884</ele>
        <time>2026-02-02T13:03:22Z</time>
      </trkpt>
      <trkpt lat="46.16852" lon="6.56113">
        <ele>1479.374</ele>
        <time>2026-02-02T13:03:27Z</time>
      </trkpt>
      <trkpt lat="46.16852" lon="6.56113">
        <ele>1479.337</ele>
        <time>2026-02-02T13:03:32Z</time>
      </trkpt>
      <trkpt lat="46.16852" lon="6.56113">
        <ele>1478.759</ele>
        <time>2026-02-02T13:03:37Z</time>
      </trkpt>
      <trkpt lat="46.16854" lon="6.56112">
        <ele>1477.925</ele>
        <time>2026-02-02T13:03:42Z</time>
      </trkpt>
      <trkpt lat="46.1686" lon="6.561">
        <ele>1476.006</ele>
        <time>2026-02-02T13:03:47Z</time>
      </trkpt>
      <trkpt lat="46.16868" lon="6.56082">
        <ele>1473.655</ele>
        <time>2026-02-02T13:03:52Z</time>
      </trkpt>
      <trkpt lat="46.16874" lon="6.56054">
        <ele>1471.379</ele>
        <time>2026-02-02T13:03:57Z</time>
      </trkpt>
      <trkpt lat="46.16878" lon="6.5602">
        <ele>1470.514</ele>
        <time>2026-02-02T13:04:02Z</time>
      </trkpt>
      <trkpt lat="46.16877" lon="6.55986">
        <ele>1468.582</ele>
        <time>2026-02-02T13:04:07Z</time>
      </trkpt>
      <trkpt lat="46.16869" lon="6.55953">
        <ele>1467.498</ele>
        <time>2026-02-02T13:04:12Z</time>
      </trkpt>
      <trkpt lat="46.16859" lon="6.55918">
        <ele>1467.439</ele>
        <time>2026-02-02T13:04:17Z</time>
      </trkpt>
      <trkpt lat="46.16849" lon="6.55881">
        <ele>1466.389</ele>
        <time>2026-02-02T13:04:22Z</time>
      </trkpt>
      <trkpt lat="46.16842" lon="6.55843">
        <ele>1464.567</ele>
        <time>2026-02-02T13:04:27Z</time>
      </trkpt>
      <trkpt lat="46.16836" lon="6.55802">
        <ele>1462.788</ele>
        <time>2026-02-02T13:04:32Z</time>
      </trkpt>
      <trkpt lat="46.16822" lon="6.55763">
        <ele>1460.361</ele>
        <time>2026-02-02T13:04:37Z</time>
      </trkpt>
      <trkpt lat="46.16806" lon="6.55725">
        <ele>1459.994</ele>
        <time>2026-02-02T13:04:42Z</time>
      </trkpt>
      <trkpt lat="46.16787" lon="6.55692">
        <ele>1458.843</ele>
        <time>2026-02-02T13:04:47Z</time>
      </trkpt>
      <trkpt lat="46.1677" lon="6.55655">
        <ele>1457.95</ele>
        <time>2026-02-02T13:04:52Z</time>
      </trkpt>
      <trkpt lat="46.16756" lon="6.55617">
        <ele>1454.318</ele>
        <time>2026-02-02T13:04:57Z</time>
      </trkpt>
      <trkpt lat="46.1674" lon="6.55585">
        <ele>1452.207</ele>
        <time>2026-02-02T13:05:02Z</time>
      </trkpt>
      <trkpt lat="46.16726" lon="6.55556">
        <ele>1450.302</ele>
        <time>2026-02-02T13:05:07Z</time>
      </trkpt>
      <trkpt lat="46.16714" lon="6.55527">
        <ele>1449.129</ele>
        <time>2026-02-02T13:05:12Z</time>
      </trkpt>
      <trkpt lat="46.16699" lon="6.555">
        <ele>1447.999</ele>
        <time>2026-02-02T13:05:17Z</time>
      </trkpt>
      <trkpt lat="46.16682" lon="6.55476">
        <ele>1446.488</ele>
        <time>2026-02-02T13:05:22Z</time>
      </trkpt>
      <trkpt lat="46.16667" lon="6.55452">
        <ele>1444.931</ele>
        <time>2026-02-02T13:05:27Z</time>
      </trkpt>
      <trkpt lat="46.1665" lon="6.5543">
        <ele>1442.833</ele>
        <time>2026-02-02T13:05:32Z</time>
      </trkpt>
      <trkpt lat="46.16634" lon="6.55406">
        <ele>1440.642</ele>
        <time>2026-02-02T13:05:37Z</time>
      </trkpt>
      <trkpt lat="46.16616" lon="6.55385">
        <ele>1439.039</ele>
        <time>2026-02-02T13:05:42Z</time>
      </trkpt>
      <trkpt lat="46.16596" lon="6.55364">
        <ele>1437.533</ele>
        <time>2026-02-02T13:05:47Z</time>
      </trkpt>
      <trkpt lat="46.16579" lon="6.55342">
        <ele>1436.196</ele>
        <time>2026-02-02T13:05:52Z</time>
      </trkpt>
      <trkpt lat="46.16561" lon="6.55324">
        <ele>1435.635</ele>
        <time>2026-02-02T13:05:57Z</time>
      </trkpt>
      <trkpt lat="46.16544" lon="6.55307">
        <ele>1435.151</ele>
        <time>2026-02-02T13:06:02Z</time>
      </trkpt>
      <trkpt lat="46.1653" lon="6.55288">
        <ele>1433.937</ele>
        <time>2026-02-02T13:06:07Z</time>
      </trkpt>
      <trkpt lat="46.16521" lon="6.55271">
        <ele>1433.767</ele>
        <time>2026-02-02T13:06:12Z</time>
      </trkpt>
      <trkpt lat="46.16515" lon="6.55268">
        <ele>1433.607</ele>
        <time>2026-02-02T13:06:17Z</time>
      </trkpt>
      <trkpt lat="46.16512" lon="6.55267">
        <ele>1433.182</ele>
        <time>2026-02-02T13:06:22Z</time>
      </trkpt>
      <trkpt lat="46.16494" lon="6.55268">
        <ele>1430.813</ele>
        <time>2026-02-02T13:06:27Z</time>
      </trkpt>
      <trkpt lat="46.16477" lon="6.55258">
        <ele>1429.775</ele>
        <time>2026-02-02T13:06:32Z</time>
      </trkpt>
      <trkpt lat="46.16456" lon="6.55255">
        <ele>1429.43</ele>
        <time>2026-02-02T13:06:37Z</time>
      </trkpt>
      <trkpt lat="46.16448" lon="6.55253">
        <ele>1430.048</ele>
        <time>2026-02-02T13:06:42Z</time>
      </trkpt>
      <trkpt lat="46.16443" lon="6.55253">
        <ele>1429.827</ele>
        <time>2026-02-02T13:06:47Z</time>
      </trkpt>
      <trkpt lat="46.16443" lon="6.55253">
        <ele>1429.995</ele>
        <time>2026-02-02T13:06:52Z</time>
      </trkpt>
      <trkpt lat="46.16443" lon="6.55252">
        <ele>1429.873</ele>
        <time>2026-02-02T13:06:57Z</time>
      </trkpt>
      <trkpt lat="46.16443" lon="6.55252">
        <ele>1429.465</ele>
        <time>2026-02-02T13:07:02Z</time>
      </trkpt>
      <trkpt lat="46.16443" lon="6.55252">
        <ele>1429.919</ele>
        <time>2026-02-02T13:07:07Z</time>
      </trkpt>
      <trkpt lat="46.16443" lon="6.55252">
        <ele>1428.49</ele>
        <time>2026-02-02T13:07:12Z</time>
      </trkpt>
      <trkpt lat="46.16443" lon="6.55252">
        <ele>1428.043</ele>
        <time>2026-02-02T13:07:17Z</time>
      </trkpt>
      <trkpt lat="46.16443" lon="6.55252">
        <ele>1428.132</ele>
        <time>2026-02-02T13:07:22Z</time>
      </trkpt>
      <trkpt lat="46.16443" lon="6.55252">
        <ele>1428.286</ele>
        <time>2026-02-02T13:07:27Z</time>
      </trkpt>
      <trkpt lat="46.16443" lon="6.55252">
        <ele>1428.327</ele>
        <time>2026-02-02T13:07:32Z</time>
      </trkpt>
      <trkpt lat="46.16443" lon="6.55252">
        <ele>1427.83</ele>
        <time>2026-02-02T13:07:37Z</time>
      </trkpt>
      <trkpt lat="46.16443" lon="6.55252">
        <ele>1428.06</ele>
        <time>2026-02-02T13:07:42Z</time>
      </trkpt>
      <trkpt lat="46.16443" lon="6.55252">
        <ele>1429.823</ele>
        <time>2026-02-02T13:07:47Z</time>
      </trkpt>
      <trkpt lat="46.16443" lon="6.55252">
        <ele>1430.76</ele>
        <time>2026-02-02T13:07:52Z</time>
      </trkpt>
      <trkpt lat="46.16443" lon="6.55252">
        <ele>1432.408</ele>
        <time>2026-02-02T13:07:57Z</time>
      </trkpt>
      <trkpt lat="46.16443" lon="6.55252">
        <ele>1432.929</ele>
        <time>2026-02-02T13:08:02Z</time>
      </trkpt>
      <trkpt lat="46.16443" lon="6.55252">
        <ele>1433.193</ele>
        <time>2026-02-02T13:08:07Z</time>
      </trkpt>
      <trkpt lat="46.16443" lon="6.55252">
        <ele>1430.787</ele>
        <time>2026-02-02T13:08:12Z</time>
      </trkpt>
      <trkpt lat="46.16443" lon="6.55252">
        <ele>1430.851</ele>
        <time>2026-02-02T13:08:17Z</time>
      </trkpt>
      <trkpt lat="46.16443" lon="6.55252">
        <ele>1429.908</ele>
        <time>2026-02-02T13:08:22Z</time>
      </trkpt>
      <trkpt lat="46.16443" lon="6.55252">
        <ele>1429.42</ele>
        <time>2026-02-02T13:08:27Z</time>
      </trkpt>
      <trkpt lat="46.16443" lon="6.55252">
        <ele>1429.395</ele>
        <time>2026-02-02T13:08:32Z</time>
      </trkpt>
      <trkpt lat="46.16443" lon="6.55252">
        <ele>1429.389</ele>
        <time>2026-02-02T13:08:37Z</time>
      </trkpt>
      <trkpt lat="46.16443" lon="6.55252">
        <ele>1429.387</ele>
        <time>2026-02-02T13:08:42Z</time>
      </trkpt>
      <trkpt lat="46.16443" lon="6.55252">
        <ele>1429.384</ele>
        <time>2026-02-02T13:08:47Z</time>
      </trkpt>
      <trkpt lat="46.16443" lon="6.55252">
        <ele>1429.383</ele>
        <time>2026-02-02T13:08:52Z</time>
      </trkpt>
      <trkpt lat="46.16443" lon="6.55252">
        <ele>1427.928</ele>
        <time>2026-02-02T13:08:57Z</time>
      </trkpt>
      <trkpt lat="46.16443" lon="6.55252">
        <ele>1427.528</ele>
        <time>2026-02-02T13:09:02Z</time>
      </trkpt>
      <trkpt lat="46.16443" lon="6.55252">
        <ele>1427.532</ele>
        <time>2026-02-02T13:09:07Z</time>
      </trkpt>
      <trkpt lat="46.16443" lon="6.55252">
        <ele>1427.493</ele>
        <time>2026-02-02T13:09:12Z</time>
      </trkpt>
      <trkpt lat="46.16443" lon="6.55252">
        <ele>1427.527</ele>
        <time>2026-02-02T13:09:17Z</time>
      </trkpt>
      <trkpt lat="46.16443" lon="6.55252">
        <ele>1427.529</ele>
        <time>2026-02-02T13:09:22Z</time>
      </trkpt>
      <trkpt lat="46.16443" lon="6.55252">
        <ele>1427.531</ele>
        <time>2026-02-02T13:09:27Z</time>
      </trkpt>
      <trkpt lat="46.16443" lon="6.55252">
        <ele>1427.535</ele>
        <time>2026-02-02T13:09:32Z</time>
      </trkpt>
      <trkpt lat="46.16443" lon="6.55252">
        <ele>1427.562</ele>
        <time>2026-02-02T13:09:37Z</time>
      </trkpt>
      <trkpt lat="46.16443" lon="6.55252">
        <ele>1427.564</ele>
        <time>2026-02-02T13:09:42Z</time>
      </trkpt>
      <trkpt lat="46.16443" lon="6.55252">
        <ele>1427.566</ele>
        <time>2026-02-02T13:09:47Z</time>
      </trkpt>
      <trkpt lat="46.16443" lon="6.55252">
        <ele>1427.571</ele>
        <time>2026-02-02T13:09:52Z</time>
      </trkpt>
      <trkpt lat="46.16443" lon="6.55252">
        <ele>1427.577</ele>
        <time>2026-02-02T13:09:57Z</time>
      </trkpt>
      <trkpt lat="46.16443" lon="6.55252">
        <ele>1427.586</ele>
        <time>2026-02-02T13:10:02Z</time>
      </trkpt>
      <trkpt lat="46.16443" lon="6.55252">
        <ele>1427.591</ele>
        <time>2026-02-02T13:10:07Z</time>
      </trkpt>
      <trkpt lat="46.16443" lon="6.55252">
        <ele>1427.589</ele>
        <time>2026-02-02T13:10:12Z</time>
      </trkpt>
      <trkpt lat="46.16443" lon="6.55252">
        <ele>1427.599</ele>
        <time>2026-02-02T13:10:17Z</time>
      </trkpt>
      <trkpt lat="46.16443" lon="6.55252">
        <ele>1427.602</ele>
        <time>2026-02-02T13:10:22Z</time>
      </trkpt>
      <trkpt lat="46.16443" lon="6.55252">
        <ele>1427.603</ele>
        <time>2026-02-02T13:10:27Z</time>
      </trkpt>
      <trkpt lat="46.16443" lon="6.55252">
        <ele>1427.611</ele>
        <time>2026-02-02T13:10:32Z</time>
      </trkpt>
      <trkpt lat="46.16443" lon="6.55252">
        <ele>1427.614</ele>
        <time>2026-02-02T13:10:37Z</time>
      </trkpt>
      <trkpt lat="46.16443" lon="6.55252">
        <ele>1427.63</ele>
        <time>2026-02-02T13:10:42Z</time>
      </trkpt>
      <trkpt lat="46.16443" lon="6.55252">
        <ele>1427.662</ele>
        <time>2026-02-02T13:10:47Z</time>
      </trkpt>
      <trkpt lat="46.16443" lon="6.55252">
        <ele>1427.631</ele>
        <time>2026-02-02T13:10:52Z</time>
      </trkpt>
      <trkpt lat="46.16443" lon="6.55252">
        <ele>1427.626</ele>
        <time>2026-02-02T13:10:57Z</time>
      </trkpt>
      <trkpt lat="46.16443" lon="6.55252">
        <ele>1427.626</ele>
        <time>2026-02-02T13:11:02Z</time>
      </trkpt>
      <trkpt lat="46.16443" lon="6.55252">
        <ele>1427.621</ele>
        <time>2026-02-02T13:11:07Z</time>
      </trkpt>
      <trkpt lat="46.16443" lon="6.55252">
        <ele>1427.621</ele>
        <time>2026-02-02T13:11:12Z</time>
      </trkpt>
      <trkpt lat="46.16443" lon="6.55252">
        <ele>1427.618</ele>
        <time>2026-02-02T13:11:17Z</time>
      </trkpt>
      <trkpt lat="46.16443" lon="6.55252">
        <ele>1427.615</ele>
        <time>2026-02-02T13:11:22Z</time>
      </trkpt>
      <trkpt lat="46.16443" lon="6.55252">
        <ele>1427.614</ele>
        <time>2026-02-02T13:11:27Z</time>
      </trkpt>
      <trkpt lat="46.16443" lon="6.55252">
        <ele>1427.61</ele>
        <time>2026-02-02T13:11:32Z</time>
      </trkpt>
      <trkpt lat="46.16443" lon="6.55252">
        <ele>1427.61</ele>
        <time>2026-02-02T13:11:37Z</time>
      </trkpt>
      <trkpt lat="46.16443" lon="6.55252">
        <ele>1427.606</ele>
        <time>2026-02-02T13:11:42Z</time>
      </trkpt>
      <trkpt lat="46.16443" lon="6.55252">
        <ele>1427.605</ele>
        <time>2026-02-02T13:11:47Z</time>
      </trkpt>
      <trkpt lat="46.16443" lon="6.55252">
        <ele>1427.605</ele>
        <time>2026-02-02T13:11:52Z</time>
      </trkpt>
      <trkpt lat="46.16443" lon="6.55252">
        <ele>1427.608</ele>
        <time>2026-02-02T13:11:57Z</time>
      </trkpt>
      <trkpt lat="46.16443" lon="6.55252">
        <ele>1427.607</ele>
        <time>2026-02-02T13:12:02Z</time>
      </trkpt>
      <trkpt lat="46.16443" lon="6.55252">
        <ele>1427.608</ele>
        <time>2026-02-02T13:12:07Z</time>
      </trkpt>
      <trkpt lat="46.16443" lon="6.55252">
        <ele>1427.606</ele>
        <time>2026-02-02T13:12:12Z</time>
      </trkpt>
      <trkpt lat="46.16443" lon="6.55252">
        <ele>1427.6</ele>
        <time>2026-02-02T13:12:17Z</time>
      </trkpt>
      <trkpt lat="46.16443" lon="6.55252">
        <ele>1427.598</ele>
        <time>2026-02-02T13:12:22Z</time>
      </trkpt>
      <trkpt lat="46.16443" lon="6.55252">
        <ele>1427.605</ele>
        <time>2026-02-02T13:12:27Z</time>
      </trkpt>
      <trkpt lat="46.16443" lon="6.55252">
        <ele>1427.615</ele>
        <time>2026-02-02T13:12:32Z</time>
      </trkpt>
      <trkpt lat="46.16443" lon="6.55252">
        <ele>1429.133</ele>
        <time>2026-02-02T13:12:37Z</time>
      </trkpt>
      <trkpt lat="46.16443" lon="6.55252">
        <ele>1430.504</ele>
        <time>2026-02-02T13:12:42Z</time>
      </trkpt>
      <trkpt lat="46.16443" lon="6.55252">
        <ele>1430.21</ele>
        <time>2026-02-02T13:12:47Z</time>
      </trkpt>
      <trkpt lat="46.16443" lon="6.55252">
        <ele>1429.838</ele>
        <time>2026-02-02T13:12:52Z</time>
      </trkpt>
      <trkpt lat="46.16443" lon="6.55252">
        <ele>1429.732</ele>
        <time>2026-02-02T13:12:57Z</time>
      </trkpt>
      <trkpt lat="46.16443" lon="6.55252">
        <ele>1429.597</ele>
        <time>2026-02-02T13:13:02Z</time>
      </trkpt>
      <trkpt lat="46.16443" lon="6.55252">
        <ele>1429.576</ele>
        <time>2026-02-02T13:13:07Z</time>
      </trkpt>
      <trkpt lat="46.16443" lon="6.55252">
        <ele>1429.572</ele>
        <time>2026-02-02T13:13:12Z</time>
      </trkpt>
      <trkpt lat="46.16443" lon="6.55252">
        <ele>1429.575</ele>
        <time>2026-02-02T13:13:17Z</time>
      </trkpt>
      <trkpt lat="46.16443" lon="6.55252">
        <ele>1429.608</ele>
        <time>2026-02-02T13:13:22Z</time>
      </trkpt>
      <trkpt lat="46.16443" lon="6.55252">
        <ele>1429.604</ele>
        <time>2026-02-02T13:13:27Z</time>
      </trkpt>
      <trkpt lat="46.16443" lon="6.55252">
        <ele>1429.604</ele>
        <time>2026-02-02T13:13:32Z</time>
      </trkpt>
      <trkpt lat="46.16443" lon="6.55252">
        <ele>1429.607</ele>
        <time>2026-02-02T13:13:37Z</time>
      </trkpt>
      <trkpt lat="46.16443" lon="6.55252">
        <ele>1429.614</ele>
        <time>2026-02-02T13:13:42Z</time>
      </trkpt>
      <trkpt lat="46.16443" lon="6.55252">
        <ele>1429.613</ele>
        <time>2026-02-02T13:13:47Z</time>
      </trkpt>
      <trkpt lat="46.16443" lon="6.55252">
        <ele>1429.614</ele>
        <time>2026-02-02T13:13:52Z</time>
      </trkpt>
      <trkpt lat="46.16443" lon="6.55252">
        <ele>1429.615</ele>
        <time>2026-02-02T13:13:57Z</time>
      </trkpt>
      <trkpt lat="46.16443" lon="6.55252">
        <ele>1429.613</ele>
        <time>2026-02-02T13:14:02Z</time>
      </trkpt>
      <trkpt lat="46.16443" lon="6.55252">
        <ele>1429.613</ele>
        <time>2026-02-02T13:14:07Z</time>
      </trkpt>
      <trkpt lat="46.16443" lon="6.55252">
        <ele>1429.615</ele>
        <time>2026-02-02T13:14:12Z</time>
      </trkpt>
      <trkpt lat="46.16443" lon="6.55252">
        <ele>1429.613</ele>
        <time>2026-02-02T13:14:17Z</time>
      </trkpt>
      <trkpt lat="46.16443" lon="6.55252">
        <ele>1429.611</ele>
        <time>2026-02-02T13:14:22Z</time>
      </trkpt>
      <trkpt lat="46.16443" lon="6.55252">
        <ele>1429.609</ele>
        <time>2026-02-02T13:14:27Z</time>
      </trkpt>
      <trkpt lat="46.16443" lon="6.55252">
        <ele>1429.608</ele>
        <time>2026-02-02T13:14:32Z</time>
      </trkpt>
      <trkpt lat="46.16443" lon="6.55252">
        <ele>1430.718</ele>
        <time>2026-02-02T13:14:37Z</time>
      </trkpt>
      <trkpt lat="46.16443" lon="6.55252">
        <ele>1432.145</ele>
        <time>2026-02-02T13:14:42Z</time>
      </trkpt>
      <trkpt lat="46.16443" lon="6.55252">
        <ele>1431.97</ele>
        <time>2026-02-02T13:14:47Z</time>
      </trkpt>
      <trkpt lat="46.16443" lon="6.55252">
        <ele>1432.045</ele>
        <time>2026-02-02T13:14:52Z</time>
      </trkpt>
      <trkpt lat="46.16443" lon="6.55252">
        <ele>1432.003</ele>
        <time>2026-02-02T13:14:57Z</time>
      </trkpt>
      <trkpt lat="46.16443" lon="6.55252">
        <ele>1431.994</ele>
        <time>2026-02-02T13:15:02Z</time>
      </trkpt>
      <trkpt lat="46.16443" lon="6.55252">
        <ele>1432.008</ele>
        <time>2026-02-02T13:15:07Z</time>
      </trkpt>
      <trkpt lat="46.16443" lon="6.55252">
        <ele>1432.024</ele>
        <time>2026-02-02T13:15:12Z</time>
      </trkpt>
      <trkpt lat="46.16443" lon="6.55252">
        <ele>1432.033</ele>
        <time>2026-02-02T13:15:17Z</time>
      </trkpt>
      <trkpt lat="46.16443" lon="6.55252">
        <ele>1432.038</ele>
        <time>2026-02-02T13:15:22Z</time>
      </trkpt>
      <trkpt lat="46.16443" lon="6.55252">
        <ele>1432.041</ele>
        <time>2026-02-02T13:15:27Z</time>
      </trkpt>
      <trkpt lat="46.16443" lon="6.55252">
        <ele>1432.043</ele>
        <time>2026-02-02T13:15:32Z</time>
      </trkpt>
      <trkpt lat="46.16443" lon="6.55252">
        <ele>1432.049</ele>
        <time>2026-02-02T13:15:37Z</time>
      </trkpt>
      <trkpt lat="46.16443" lon="6.55252">
        <ele>1432.045</ele>
        <time>2026-02-02T13:15:42Z</time>
      </trkpt>
      <trkpt lat="46.16443" lon="6.55252">
        <ele>1432.05</ele>
        <time>2026-02-02T13:15:47Z</time>
      </trkpt>
      <trkpt lat="46.16443" lon="6.55252">
        <ele>1432.069</ele>
        <time>2026-02-02T13:15:52Z</time>
      </trkpt>
      <trkpt lat="46.16443" lon="6.55252">
        <ele>1432.075</ele>
        <time>2026-02-02T13:15:57Z</time>
      </trkpt>
      <trkpt lat="46.16443" lon="6.55252">
        <ele>1432.082</ele>
        <time>2026-02-02T13:16:02Z</time>
      </trkpt>
      <trkpt lat="46.16443" lon="6.55252">
        <ele>1432.084</ele>
        <time>2026-02-02T13:16:07Z</time>
      </trkpt>
      <trkpt lat="46.16443" lon="6.55252">
        <ele>1432.085</ele>
        <time>2026-02-02T13:16:12Z</time>
      </trkpt>
      <trkpt lat="46.16442" lon="6.55252">
        <ele>1432.222</ele>
        <time>2026-02-02T13:16:17Z</time>
      </trkpt>
      <trkpt lat="46.16442" lon="6.55252">
        <ele>1432.248</ele>
        <time>2026-02-02T13:16:22Z</time>
      </trkpt>
      <trkpt lat="46.16442" lon="6.55252">
        <ele>1432.253</ele>
        <time>2026-02-02T13:16:27Z</time>
      </trkpt>
    </trkseg>
  </trk>
</gpx>